<?xml version="1.0" encoding="UTF-8" standalone="no" ?>
<gpx xmlns="http://www.topografix.com/GPX/1/1" xmlns:xsi="http://www.w3.org/2001/XMLSchema-instance" xsi:schemaLocation="http://www.topografix.com/GPX/1/1 http://www.topografix.com/GPX/1/1/gpx.xsd" version="1.1" creator="VisuGPX - https://www.visugpx.com">
  <metadata>
    <name>La brague le best</name>
    <desc><![CDATA[La brague le best depuis le parking de la route des macarons]]></desc>
  </metadata>
  <trk>
    <name><![CDATA[La brague le best_1]]></name>
    <trkseg>
      <trkpt lat="43.63334" lon="7.05185">
        <ele>108.04682159424</ele>
        <time>2016-05-14T08:08:53.000Z</time>
      </trkpt>
      <trkpt lat="43.63335" lon="7.05189">
        <ele>107.94357299805</ele>
        <time>2016-05-14T08:09:08.000Z</time>
      </trkpt>
      <trkpt lat="43.63335" lon="7.05189">
        <ele>107.94357299805</ele>
        <time>2016-05-14T08:09:28.000Z</time>
      </trkpt>
      <trkpt lat="43.63336" lon="7.05196">
        <ele>107.75345611572</ele>
        <time>2016-05-14T08:10:12.000Z</time>
      </trkpt>
      <trkpt lat="43.63335" lon="7.05198">
        <ele>107.65546417236</ele>
        <time>2016-05-14T08:10:15.000Z</time>
      </trkpt>
      <trkpt lat="43.63335" lon="7.05202">
        <ele>107.56593322754</ele>
        <time>2016-05-14T08:10:18.000Z</time>
      </trkpt>
      <trkpt lat="43.63334" lon="7.05204">
        <ele>107.38566589355</ele>
        <time>2016-05-14T08:10:20.000Z</time>
      </trkpt>
      <trkpt lat="43.63334" lon="7.05206">
        <ele>107.23316955566</ele>
        <time>2016-05-14T08:10:22.000Z</time>
      </trkpt>
      <trkpt lat="43.63334" lon="7.05209">
        <ele>107.15071105957</ele>
        <time>2016-05-14T08:10:24.000Z</time>
      </trkpt>
      <trkpt lat="43.63334" lon="7.05213">
        <ele>107.01762390137</ele>
        <time>2016-05-14T08:10:27.000Z</time>
      </trkpt>
      <trkpt lat="43.63333" lon="7.05218">
        <ele>106.88816833496</ele>
        <time>2016-05-14T08:10:30.000Z</time>
      </trkpt>
      <trkpt lat="43.63332" lon="7.0522">
        <ele>106.75368499756</ele>
        <time>2016-05-14T08:10:32.000Z</time>
      </trkpt>
      <trkpt lat="43.63332" lon="7.05222">
        <ele>106.62660980225</ele>
        <time>2016-05-14T08:10:34.000Z</time>
      </trkpt>
      <trkpt lat="43.63331" lon="7.05225">
        <ele>106.50302886963</ele>
        <time>2016-05-14T08:10:36.000Z</time>
      </trkpt>
      <trkpt lat="43.63331" lon="7.05228">
        <ele>106.40306091309</ele>
        <time>2016-05-14T08:10:39.000Z</time>
      </trkpt>
      <trkpt lat="43.63332" lon="7.0523">
        <ele>106.30741882324</ele>
        <time>2016-05-14T08:10:41.000Z</time>
      </trkpt>
      <trkpt lat="43.63332" lon="7.05232">
        <ele>106.20654296875</ele>
        <time>2016-05-14T08:10:44.000Z</time>
      </trkpt>
      <trkpt lat="43.63332" lon="7.05235">
        <ele>106.08015441895</ele>
        <time>2016-05-14T08:10:47.000Z</time>
      </trkpt>
      <trkpt lat="43.63332" lon="7.05238">
        <ele>105.94167327881</ele>
        <time>2016-05-14T08:10:50.000Z</time>
      </trkpt>
      <trkpt lat="43.63332" lon="7.05241">
        <ele>105.80589294434</ele>
        <time>2016-05-14T08:10:52.000Z</time>
      </trkpt>
      <trkpt lat="43.63332" lon="7.05245">
        <ele>105.65461730957</ele>
        <time>2016-05-14T08:10:55.000Z</time>
      </trkpt>
      <trkpt lat="43.63332" lon="7.05248">
        <ele>105.49892425537</ele>
        <time>2016-05-14T08:10:57.000Z</time>
      </trkpt>
      <trkpt lat="43.63332" lon="7.05252">
        <ele>105.34851074219</ele>
        <time>2016-05-14T08:11:00.000Z</time>
      </trkpt>
      <trkpt lat="43.63332" lon="7.05255">
        <ele>105.20652008057</ele>
        <time>2016-05-14T08:11:02.000Z</time>
      </trkpt>
      <trkpt lat="43.63331" lon="7.05257">
        <ele>105.08036804199</ele>
        <time>2016-05-14T08:11:04.000Z</time>
      </trkpt>
      <trkpt lat="43.63331" lon="7.05262">
        <ele>104.95558929443</ele>
        <time>2016-05-14T08:11:07.000Z</time>
      </trkpt>
      <trkpt lat="43.63331" lon="7.05266">
        <ele>104.83247375488</ele>
        <time>2016-05-14T08:11:09.000Z</time>
      </trkpt>
      <trkpt lat="43.63331" lon="7.05269">
        <ele>104.70872497559</ele>
        <time>2016-05-14T08:11:12.000Z</time>
      </trkpt>
      <trkpt lat="43.63331" lon="7.05274">
        <ele>104.57682800293</ele>
        <time>2016-05-14T08:11:15.000Z</time>
      </trkpt>
      <trkpt lat="43.63332" lon="7.05278">
        <ele>104.419921875</ele>
        <time>2016-05-14T08:11:18.000Z</time>
      </trkpt>
      <trkpt lat="43.63333" lon="7.05285">
        <ele>104.22911071777</ele>
        <time>2016-05-14T08:11:27.000Z</time>
      </trkpt>
      <trkpt lat="43.63333" lon="7.05291">
        <ele>104.02264404297</ele>
        <time>2016-05-14T08:11:30.000Z</time>
      </trkpt>
      <trkpt lat="43.63333" lon="7.05296">
        <ele>103.81158447266</ele>
        <time>2016-05-14T08:11:32.000Z</time>
      </trkpt>
      <trkpt lat="43.63334" lon="7.05301">
        <ele>103.58271789551</ele>
        <time>2016-05-14T08:11:35.000Z</time>
      </trkpt>
      <trkpt lat="43.63335" lon="7.05307">
        <ele>103.34738922119</ele>
        <time>2016-05-14T08:11:38.000Z</time>
      </trkpt>
      <trkpt lat="43.63335" lon="7.05311">
        <ele>103.15077972412</ele>
        <time>2016-05-14T08:11:40.000Z</time>
      </trkpt>
      <trkpt lat="43.63336" lon="7.05316">
        <ele>102.95316314697</ele>
        <time>2016-05-14T08:11:43.000Z</time>
      </trkpt>
      <trkpt lat="43.63336" lon="7.0532">
        <ele>102.76399993896</ele>
        <time>2016-05-14T08:11:45.000Z</time>
      </trkpt>
      <trkpt lat="43.63337" lon="7.05324">
        <ele>102.59281158447</ele>
        <time>2016-05-14T08:11:48.000Z</time>
      </trkpt>
      <trkpt lat="43.63339" lon="7.05328">
        <ele>102.43021392822</ele>
        <time>2016-05-14T08:11:51.000Z</time>
      </trkpt>
      <trkpt lat="43.6334" lon="7.0533">
        <ele>102.28214263916</ele>
        <time>2016-05-14T08:11:53.000Z</time>
      </trkpt>
      <trkpt lat="43.63341" lon="7.05332">
        <ele>102.1597442627</ele>
        <time>2016-05-14T08:11:55.000Z</time>
      </trkpt>
      <trkpt lat="43.63343" lon="7.05334">
        <ele>102.03985595703</ele>
        <time>2016-05-14T08:11:57.000Z</time>
      </trkpt>
      <trkpt lat="43.63344" lon="7.05335">
        <ele>101.94190979004</ele>
        <time>2016-05-14T08:11:59.000Z</time>
      </trkpt>
      <trkpt lat="43.63346" lon="7.05336">
        <ele>101.87124633789</ele>
        <time>2016-05-14T08:12:01.000Z</time>
      </trkpt>
      <trkpt lat="43.6335" lon="7.05337">
        <ele>101.80598449707</ele>
        <time>2016-05-14T08:12:04.000Z</time>
      </trkpt>
      <trkpt lat="43.63353" lon="7.05338">
        <ele>101.74816894531</ele>
        <time>2016-05-14T08:12:07.000Z</time>
      </trkpt>
      <trkpt lat="43.63356" lon="7.05339">
        <ele>101.70645141602</ele>
        <time>2016-05-14T08:12:09.000Z</time>
      </trkpt>
      <trkpt lat="43.63359" lon="7.0534">
        <ele>101.67150878906</ele>
        <time>2016-05-14T08:12:12.000Z</time>
      </trkpt>
      <trkpt lat="43.63362" lon="7.05339">
        <ele>101.64431762695</ele>
        <time>2016-05-14T08:12:15.000Z</time>
      </trkpt>
      <trkpt lat="43.63364" lon="7.05338">
        <ele>101.62882995605</ele>
        <time>2016-05-14T08:12:18.000Z</time>
      </trkpt>
      <trkpt lat="43.63365" lon="7.05338">
        <ele>101.62189483643</ele>
        <time>2016-05-14T08:12:20.000Z</time>
      </trkpt>
      <trkpt lat="43.63366" lon="7.05337">
        <ele>101.61780548096</ele>
        <time>2016-05-14T08:12:23.000Z</time>
      </trkpt>
      <trkpt lat="43.63367" lon="7.05335">
        <ele>101.61391448975</ele>
        <time>2016-05-14T08:12:25.000Z</time>
      </trkpt>
      <trkpt lat="43.63369" lon="7.05333">
        <ele>101.60478210449</ele>
        <time>2016-05-14T08:12:28.000Z</time>
      </trkpt>
      <trkpt lat="43.6337" lon="7.05331">
        <ele>101.59887695312</ele>
        <time>2016-05-14T08:12:31.000Z</time>
      </trkpt>
      <trkpt lat="43.63374" lon="7.05326">
        <ele>101.59655761719</ele>
        <time>2016-05-14T08:12:34.000Z</time>
      </trkpt>
      <trkpt lat="43.63374" lon="7.05324">
        <ele>101.59828186035</ele>
        <time>2016-05-14T08:12:36.000Z</time>
      </trkpt>
      <trkpt lat="43.63377" lon="7.05321">
        <ele>101.60201263428</ele>
        <time>2016-05-14T08:12:39.000Z</time>
      </trkpt>
      <trkpt lat="43.6338" lon="7.05318">
        <ele>101.60357666016</ele>
        <time>2016-05-14T08:12:41.000Z</time>
      </trkpt>
      <trkpt lat="43.63382" lon="7.05316">
        <ele>101.59588623047</ele>
        <time>2016-05-14T08:12:43.000Z</time>
      </trkpt>
      <trkpt lat="43.63385" lon="7.05312">
        <ele>101.57691955566</ele>
        <time>2016-05-14T08:12:46.000Z</time>
      </trkpt>
      <trkpt lat="43.63386" lon="7.0531">
        <ele>101.55354309082</ele>
        <time>2016-05-14T08:12:48.000Z</time>
      </trkpt>
      <trkpt lat="43.63388" lon="7.05307">
        <ele>101.52384185791</ele>
        <time>2016-05-14T08:12:51.000Z</time>
      </trkpt>
      <trkpt lat="43.63391" lon="7.05303">
        <ele>101.4867401123</ele>
        <time>2016-05-14T08:12:54.000Z</time>
      </trkpt>
      <trkpt lat="43.63391" lon="7.05301">
        <ele>101.45275878906</ele>
        <time>2016-05-14T08:12:56.000Z</time>
      </trkpt>
      <trkpt lat="43.63393" lon="7.05297">
        <ele>101.41806793213</ele>
        <time>2016-05-14T08:12:59.000Z</time>
      </trkpt>
      <trkpt lat="43.63395" lon="7.05295">
        <ele>101.37213134766</ele>
        <time>2016-05-14T08:13:01.000Z</time>
      </trkpt>
      <trkpt lat="43.63396" lon="7.05293">
        <ele>101.32470703125</ele>
        <time>2016-05-14T08:13:03.000Z</time>
      </trkpt>
      <trkpt lat="43.63397" lon="7.0529">
        <ele>101.28750610352</ele>
        <time>2016-05-14T08:13:06.000Z</time>
      </trkpt>
      <trkpt lat="43.63396" lon="7.05286">
        <ele>101.25640106201</ele>
        <time>2016-05-14T08:13:09.000Z</time>
      </trkpt>
      <trkpt lat="43.63396" lon="7.05281">
        <ele>101.24076080322</ele>
        <time>2016-05-14T08:13:12.000Z</time>
      </trkpt>
      <trkpt lat="43.63396" lon="7.05277">
        <ele>101.23486328125</ele>
        <time>2016-05-14T08:13:14.000Z</time>
      </trkpt>
      <trkpt lat="43.63396" lon="7.05272">
        <ele>101.23733520508</ele>
        <time>2016-05-14T08:13:17.000Z</time>
      </trkpt>
      <trkpt lat="43.63396" lon="7.0527">
        <ele>101.2469329834</ele>
        <time>2016-05-14T08:13:19.000Z</time>
      </trkpt>
      <trkpt lat="43.63396" lon="7.05269">
        <ele>101.24587249756</ele>
        <time>2016-05-14T08:13:21.000Z</time>
      </trkpt>
      <trkpt lat="43.63395" lon="7.05266">
        <ele>101.25869750977</ele>
        <time>2016-05-14T08:13:24.000Z</time>
      </trkpt>
      <trkpt lat="43.63393" lon="7.05263">
        <ele>101.28831481934</ele>
        <time>2016-05-14T08:13:26.000Z</time>
      </trkpt>
      <trkpt lat="43.63392" lon="7.05262">
        <ele>101.33152770996</ele>
        <time>2016-05-14T08:13:28.000Z</time>
      </trkpt>
      <trkpt lat="43.63396" lon="7.05258">
        <ele>101.32285308838</ele>
        <time>2016-05-14T08:13:47.000Z</time>
      </trkpt>
      <trkpt lat="43.634" lon="7.05255">
        <ele>101.28031158447</ele>
        <time>2016-05-14T08:13:49.000Z</time>
      </trkpt>
      <trkpt lat="43.63404" lon="7.05253">
        <ele>101.17350769043</ele>
        <time>2016-05-14T08:13:51.000Z</time>
      </trkpt>
      <trkpt lat="43.63408" lon="7.0525">
        <ele>101.00240325928</ele>
        <time>2016-05-14T08:13:53.000Z</time>
      </trkpt>
      <trkpt lat="43.6341" lon="7.05248">
        <ele>100.79580688477</ele>
        <time>2016-05-14T08:13:55.000Z</time>
      </trkpt>
      <trkpt lat="43.63412" lon="7.05246">
        <ele>100.62316131592</ele>
        <time>2016-05-14T08:13:57.000Z</time>
      </trkpt>
      <trkpt lat="43.63417" lon="7.05243">
        <ele>100.46511077881</ele>
        <time>2016-05-14T08:14:00.000Z</time>
      </trkpt>
      <trkpt lat="43.63419" lon="7.05243">
        <ele>100.39125823975</ele>
        <time>2016-05-14T08:14:03.000Z</time>
      </trkpt>
      <trkpt lat="43.63418" lon="7.05244">
        <ele>100.35372924805</ele>
        <time>2016-05-14T08:14:08.000Z</time>
      </trkpt>
      <trkpt lat="43.63418" lon="7.05244">
        <ele>100.35372924805</ele>
        <time>2016-05-14T08:14:28.000Z</time>
      </trkpt>
      <trkpt lat="43.63419" lon="7.05246">
        <ele>100.34162902832</ele>
        <time>2016-05-14T08:14:30.000Z</time>
      </trkpt>
      <trkpt lat="43.63418" lon="7.0525">
        <ele>100.30535888672</ele>
        <time>2016-05-14T08:14:32.000Z</time>
      </trkpt>
      <trkpt lat="43.63416" lon="7.05256">
        <ele>100.28867340088</ele>
        <time>2016-05-14T08:14:35.000Z</time>
      </trkpt>
      <trkpt lat="43.63415" lon="7.05259">
        <ele>100.24732971191</ele>
        <time>2016-05-14T08:14:37.000Z</time>
      </trkpt>
      <trkpt lat="43.63417" lon="7.05265">
        <ele>100.22773742676</ele>
        <time>2016-05-14T08:14:40.000Z</time>
      </trkpt>
      <trkpt lat="43.63414" lon="7.05271">
        <ele>100.22721862793</ele>
        <time>2016-05-14T08:14:52.000Z</time>
      </trkpt>
      <trkpt lat="43.63412" lon="7.05275">
        <ele>100.29197692871</ele>
        <time>2016-05-14T08:14:54.000Z</time>
      </trkpt>
      <trkpt lat="43.63411" lon="7.05279">
        <ele>100.37985992432</ele>
        <time>2016-05-14T08:14:56.000Z</time>
      </trkpt>
      <trkpt lat="43.63409" lon="7.05284">
        <ele>100.47997283936</ele>
        <time>2016-05-14T08:14:58.000Z</time>
      </trkpt>
      <trkpt lat="43.63406" lon="7.05288">
        <ele>100.60067749023</ele>
        <time>2016-05-14T08:15:01.000Z</time>
      </trkpt>
      <trkpt lat="43.63404" lon="7.05291">
        <ele>100.72071838379</ele>
        <time>2016-05-14T08:15:03.000Z</time>
      </trkpt>
      <trkpt lat="43.63403" lon="7.05294">
        <ele>100.82469177246</ele>
        <time>2016-05-14T08:15:05.000Z</time>
      </trkpt>
      <trkpt lat="43.63401" lon="7.053">
        <ele>100.93048858643</ele>
        <time>2016-05-14T08:15:08.000Z</time>
      </trkpt>
      <trkpt lat="43.63399" lon="7.05304">
        <ele>101.01755523682</ele>
        <time>2016-05-14T08:15:10.000Z</time>
      </trkpt>
      <trkpt lat="43.63398" lon="7.05307">
        <ele>101.08712005615</ele>
        <time>2016-05-14T08:15:12.000Z</time>
      </trkpt>
      <trkpt lat="43.63396" lon="7.05309">
        <ele>101.14167785645</ele>
        <time>2016-05-14T08:15:14.000Z</time>
      </trkpt>
      <trkpt lat="43.63395" lon="7.05311">
        <ele>101.19138336182</ele>
        <time>2016-05-14T08:15:17.000Z</time>
      </trkpt>
      <trkpt lat="43.63395" lon="7.05314">
        <ele>101.22733306885</ele>
        <time>2016-05-14T08:15:19.000Z</time>
      </trkpt>
      <trkpt lat="43.63395" lon="7.05317">
        <ele>101.2534942627</ele>
        <time>2016-05-14T08:15:22.000Z</time>
      </trkpt>
      <trkpt lat="43.63394" lon="7.0532">
        <ele>101.27056884766</ele>
        <time>2016-05-14T08:15:24.000Z</time>
      </trkpt>
      <trkpt lat="43.63393" lon="7.05323">
        <ele>101.28163146973</ele>
        <time>2016-05-14T08:15:27.000Z</time>
      </trkpt>
      <trkpt lat="43.63392" lon="7.05325">
        <ele>101.2914276123</ele>
        <time>2016-05-14T08:15:30.000Z</time>
      </trkpt>
      <trkpt lat="43.63391" lon="7.05328">
        <ele>101.30003356934</ele>
        <time>2016-05-14T08:15:33.000Z</time>
      </trkpt>
      <trkpt lat="43.6339" lon="7.05332">
        <ele>101.30890655518</ele>
        <time>2016-05-14T08:15:36.000Z</time>
      </trkpt>
      <trkpt lat="43.6339" lon="7.05335">
        <ele>101.32987976074</ele>
        <time>2016-05-14T08:15:38.000Z</time>
      </trkpt>
      <trkpt lat="43.63388" lon="7.05337">
        <ele>101.371925354</ele>
        <time>2016-05-14T08:15:41.000Z</time>
      </trkpt>
      <trkpt lat="43.63388" lon="7.0534">
        <ele>101.43824768066</ele>
        <time>2016-05-14T08:15:44.000Z</time>
      </trkpt>
      <trkpt lat="43.6339" lon="7.05345">
        <ele>101.54878234863</ele>
        <time>2016-05-14T08:15:47.000Z</time>
      </trkpt>
      <trkpt lat="43.6339" lon="7.05348">
        <ele>101.68188476562</ele>
        <time>2016-05-14T08:15:49.000Z</time>
      </trkpt>
      <trkpt lat="43.6339" lon="7.0535">
        <ele>101.8236541748</ele>
        <time>2016-05-14T08:15:51.000Z</time>
      </trkpt>
      <trkpt lat="43.63389" lon="7.05353">
        <ele>101.96542358398</ele>
        <time>2016-05-14T08:15:54.000Z</time>
      </trkpt>
      <trkpt lat="43.63389" lon="7.05355">
        <ele>102.09423828125</ele>
        <time>2016-05-14T08:15:56.000Z</time>
      </trkpt>
      <trkpt lat="43.63388" lon="7.05357">
        <ele>102.18321228027</ele>
        <time>2016-05-14T08:15:59.000Z</time>
      </trkpt>
      <trkpt lat="43.63387" lon="7.05359">
        <ele>102.26959228516</ele>
        <time>2016-05-14T08:16:01.000Z</time>
      </trkpt>
      <trkpt lat="43.63387" lon="7.05362">
        <ele>102.35287475586</ele>
        <time>2016-05-14T08:16:03.000Z</time>
      </trkpt>
      <trkpt lat="43.63386" lon="7.05365">
        <ele>102.42840576172</ele>
        <time>2016-05-14T08:16:06.000Z</time>
      </trkpt>
      <trkpt lat="43.63385" lon="7.05369">
        <ele>102.50389099121</ele>
        <time>2016-05-14T08:16:09.000Z</time>
      </trkpt>
      <trkpt lat="43.63382" lon="7.05371">
        <ele>102.55899810791</ele>
        <time>2016-05-14T08:16:12.000Z</time>
      </trkpt>
      <trkpt lat="43.63381" lon="7.05373">
        <ele>102.59102630615</ele>
        <time>2016-05-14T08:16:14.000Z</time>
      </trkpt>
      <trkpt lat="43.6338" lon="7.05376">
        <ele>102.6099395752</ele>
        <time>2016-05-14T08:16:17.000Z</time>
      </trkpt>
      <trkpt lat="43.6338" lon="7.05376">
        <ele>102.6099395752</ele>
        <time>2016-05-14T08:16:37.000Z</time>
      </trkpt>
      <trkpt lat="43.63379" lon="7.05383">
        <ele>102.64138031006</ele>
        <time>2016-05-14T08:16:57.000Z</time>
      </trkpt>
      <trkpt lat="43.63375" lon="7.05392">
        <ele>102.62990570068</ele>
        <time>2016-05-14T08:17:00.000Z</time>
      </trkpt>
      <trkpt lat="43.63374" lon="7.05399">
        <ele>102.63200378418</ele>
        <time>2016-05-14T08:17:03.000Z</time>
      </trkpt>
      <trkpt lat="43.63373" lon="7.05404">
        <ele>102.616355896</ele>
        <time>2016-05-14T08:17:06.000Z</time>
      </trkpt>
      <trkpt lat="43.63371" lon="7.05406">
        <ele>102.561378479</ele>
        <time>2016-05-14T08:17:08.000Z</time>
      </trkpt>
      <trkpt lat="43.63371" lon="7.05409">
        <ele>102.46411132812</ele>
        <time>2016-05-14T08:17:10.000Z</time>
      </trkpt>
      <trkpt lat="43.6337" lon="7.05411">
        <ele>102.38627624512</ele>
        <time>2016-05-14T08:17:12.000Z</time>
      </trkpt>
      <trkpt lat="43.63367" lon="7.05419">
        <ele>102.26666259766</ele>
        <time>2016-05-14T08:17:31.000Z</time>
      </trkpt>
      <trkpt lat="43.63363" lon="7.05422">
        <ele>102.10732269287</ele>
        <time>2016-05-14T08:17:35.000Z</time>
      </trkpt>
      <trkpt lat="43.63361" lon="7.05424">
        <ele>101.94595336914</ele>
        <time>2016-05-14T08:17:37.000Z</time>
      </trkpt>
      <trkpt lat="43.63356" lon="7.05427">
        <ele>101.70003509521</ele>
        <time>2016-05-14T08:17:40.000Z</time>
      </trkpt>
      <trkpt lat="43.63353" lon="7.0543">
        <ele>101.38238525391</ele>
        <time>2016-05-14T08:17:43.000Z</time>
      </trkpt>
      <trkpt lat="43.63351" lon="7.05431">
        <ele>101.07823181152</ele>
        <time>2016-05-14T08:17:45.000Z</time>
      </trkpt>
      <trkpt lat="43.63347" lon="7.05434">
        <ele>100.7399520874</ele>
        <time>2016-05-14T08:17:50.000Z</time>
      </trkpt>
      <trkpt lat="43.63344" lon="7.05436">
        <ele>100.36198425293</ele>
        <time>2016-05-14T08:17:56.000Z</time>
      </trkpt>
      <trkpt lat="43.63342" lon="7.05438">
        <ele>100.02968597412</ele>
        <time>2016-05-14T08:17:58.000Z</time>
      </trkpt>
      <trkpt lat="43.6334" lon="7.05441">
        <ele>99.733489990234</ele>
        <time>2016-05-14T08:18:01.000Z</time>
      </trkpt>
      <trkpt lat="43.63338" lon="7.05447">
        <ele>99.487586975098</ele>
        <time>2016-05-14T08:18:07.000Z</time>
      </trkpt>
      <trkpt lat="43.63337" lon="7.05447">
        <ele>99.290176391602</ele>
        <time>2016-05-14T08:18:10.000Z</time>
      </trkpt>
      <trkpt lat="43.63334" lon="7.05449">
        <ele>99.075759887695</ele>
        <time>2016-05-14T08:18:14.000Z</time>
      </trkpt>
      <trkpt lat="43.6333" lon="7.05451">
        <ele>98.911102294922</ele>
        <time>2016-05-14T08:18:17.000Z</time>
      </trkpt>
      <trkpt lat="43.63329" lon="7.05452">
        <ele>98.777786254883</ele>
        <time>2016-05-14T08:18:19.000Z</time>
      </trkpt>
      <trkpt lat="43.63326" lon="7.05454">
        <ele>98.609725952148</ele>
        <time>2016-05-14T08:18:22.000Z</time>
      </trkpt>
      <trkpt lat="43.63323" lon="7.05455">
        <ele>98.470458984375</ele>
        <time>2016-05-14T08:18:27.000Z</time>
      </trkpt>
      <trkpt lat="43.63319" lon="7.05457">
        <ele>98.394096374512</ele>
        <time>2016-05-14T08:18:33.000Z</time>
      </trkpt>
      <trkpt lat="43.63318" lon="7.05459">
        <ele>98.321151733398</ele>
        <time>2016-05-14T08:18:35.000Z</time>
      </trkpt>
      <trkpt lat="43.63316" lon="7.05462">
        <ele>98.251014709473</ele>
        <time>2016-05-14T08:18:38.000Z</time>
      </trkpt>
      <trkpt lat="43.63313" lon="7.05464">
        <ele>98.167144775391</ele>
        <time>2016-05-14T08:18:41.000Z</time>
      </trkpt>
      <trkpt lat="43.63309" lon="7.05467">
        <ele>98.063705444336</ele>
        <time>2016-05-14T08:18:44.000Z</time>
      </trkpt>
      <trkpt lat="43.63305" lon="7.05469">
        <ele>97.942756652832</ele>
        <time>2016-05-14T08:18:47.000Z</time>
      </trkpt>
      <trkpt lat="43.63303" lon="7.0547">
        <ele>97.792221069336</ele>
        <time>2016-05-14T08:18:49.000Z</time>
      </trkpt>
      <trkpt lat="43.633" lon="7.05471">
        <ele>97.611198425293</ele>
        <time>2016-05-14T08:18:51.000Z</time>
      </trkpt>
      <trkpt lat="43.63297" lon="7.0547">
        <ele>97.421966552734</ele>
        <time>2016-05-14T08:18:54.000Z</time>
      </trkpt>
      <trkpt lat="43.63295" lon="7.05469">
        <ele>97.242240905762</ele>
        <time>2016-05-14T08:18:56.000Z</time>
      </trkpt>
      <trkpt lat="43.63294" lon="7.05469">
        <ele>97.09302520752</ele>
        <time>2016-05-14T08:18:59.000Z</time>
      </trkpt>
      <trkpt lat="43.63291" lon="7.0547">
        <ele>96.934944152832</ele>
        <time>2016-05-14T08:19:02.000Z</time>
      </trkpt>
      <trkpt lat="43.63291" lon="7.05471">
        <ele>96.808555603027</ele>
        <time>2016-05-14T08:19:05.000Z</time>
      </trkpt>
      <trkpt lat="43.63288" lon="7.05474">
        <ele>96.676055908203</ele>
        <time>2016-05-14T08:19:15.000Z</time>
      </trkpt>
      <trkpt lat="43.63285" lon="7.05475">
        <ele>96.527252197266</ele>
        <time>2016-05-14T08:19:18.000Z</time>
      </trkpt>
      <trkpt lat="43.63281" lon="7.05475">
        <ele>96.331993103027</ele>
        <time>2016-05-14T08:19:21.000Z</time>
      </trkpt>
      <trkpt lat="43.63279" lon="7.05476">
        <ele>96.13484954834</ele>
        <time>2016-05-14T08:19:23.000Z</time>
      </trkpt>
      <trkpt lat="43.63276" lon="7.05478">
        <ele>95.894584655762</ele>
        <time>2016-05-14T08:19:25.000Z</time>
      </trkpt>
      <trkpt lat="43.63271" lon="7.05478">
        <ele>95.619659423828</ele>
        <time>2016-05-14T08:19:28.000Z</time>
      </trkpt>
      <trkpt lat="43.63267" lon="7.0548">
        <ele>95.305374145508</ele>
        <time>2016-05-14T08:19:31.000Z</time>
      </trkpt>
      <trkpt lat="43.63266" lon="7.05481">
        <ele>95.028503417969</ele>
        <time>2016-05-14T08:19:33.000Z</time>
      </trkpt>
      <trkpt lat="43.63263" lon="7.05483">
        <ele>94.735504150391</ele>
        <time>2016-05-14T08:19:36.000Z</time>
      </trkpt>
      <trkpt lat="43.63261" lon="7.05484">
        <ele>94.4365234375</ele>
        <time>2016-05-14T08:19:39.000Z</time>
      </trkpt>
      <trkpt lat="43.63259" lon="7.05486">
        <ele>94.16162109375</ele>
        <time>2016-05-14T08:19:42.000Z</time>
      </trkpt>
      <trkpt lat="43.63256" lon="7.05488">
        <ele>93.899047851562</ele>
        <time>2016-05-14T08:19:45.000Z</time>
      </trkpt>
      <trkpt lat="43.63255" lon="7.0549">
        <ele>93.602668762207</ele>
        <time>2016-05-14T08:19:47.000Z</time>
      </trkpt>
      <trkpt lat="43.63251" lon="7.05493">
        <ele>93.277404785156</ele>
        <time>2016-05-14T08:19:50.000Z</time>
      </trkpt>
      <trkpt lat="43.63249" lon="7.05493">
        <ele>93.010665893555</ele>
        <time>2016-05-14T08:19:52.000Z</time>
      </trkpt>
      <trkpt lat="43.63246" lon="7.05493">
        <ele>92.849075317383</ele>
        <time>2016-05-14T08:19:54.000Z</time>
      </trkpt>
      <trkpt lat="43.63243" lon="7.05494">
        <ele>92.825645446777</ele>
        <time>2016-05-14T08:19:57.000Z</time>
      </trkpt>
      <trkpt lat="43.6324" lon="7.05494">
        <ele>92.908142089844</ele>
        <time>2016-05-14T08:20:00.000Z</time>
      </trkpt>
      <trkpt lat="43.63238" lon="7.05495">
        <ele>93.09619140625</ele>
        <time>2016-05-14T08:20:02.000Z</time>
      </trkpt>
      <trkpt lat="43.63235" lon="7.05497">
        <ele>93.314018249512</ele>
        <time>2016-05-14T08:20:05.000Z</time>
      </trkpt>
      <trkpt lat="43.63234" lon="7.05499">
        <ele>93.475791931152</ele>
        <time>2016-05-14T08:20:07.000Z</time>
      </trkpt>
      <trkpt lat="43.63231" lon="7.05501">
        <ele>93.608139038086</ele>
        <time>2016-05-14T08:20:10.000Z</time>
      </trkpt>
      <trkpt lat="43.63229" lon="7.05503">
        <ele>93.720657348633</ele>
        <time>2016-05-14T08:20:12.000Z</time>
      </trkpt>
      <trkpt lat="43.63228" lon="7.05505">
        <ele>93.83154296875</ele>
        <time>2016-05-14T08:20:14.000Z</time>
      </trkpt>
      <trkpt lat="43.63225" lon="7.05508">
        <ele>93.956665039062</ele>
        <time>2016-05-14T08:20:17.000Z</time>
      </trkpt>
      <trkpt lat="43.63223" lon="7.0551">
        <ele>94.107727050781</ele>
        <time>2016-05-14T08:20:20.000Z</time>
      </trkpt>
      <trkpt lat="43.63221" lon="7.05514">
        <ele>94.256713867188</ele>
        <time>2016-05-14T08:20:23.000Z</time>
      </trkpt>
      <trkpt lat="43.63219" lon="7.05517">
        <ele>94.404243469238</ele>
        <time>2016-05-14T08:20:25.000Z</time>
      </trkpt>
      <trkpt lat="43.63217" lon="7.05522">
        <ele>94.545722961426</ele>
        <time>2016-05-14T08:20:28.000Z</time>
      </trkpt>
      <trkpt lat="43.63216" lon="7.05526">
        <ele>94.639236450195</ele>
        <time>2016-05-14T08:20:31.000Z</time>
      </trkpt>
      <trkpt lat="43.63216" lon="7.05529">
        <ele>94.694847106934</ele>
        <time>2016-05-14T08:20:34.000Z</time>
      </trkpt>
      <trkpt lat="43.63214" lon="7.05535">
        <ele>94.729934692383</ele>
        <time>2016-05-14T08:20:37.000Z</time>
      </trkpt>
      <trkpt lat="43.63211" lon="7.05538">
        <ele>94.762336730957</ele>
        <time>2016-05-14T08:20:40.000Z</time>
      </trkpt>
      <trkpt lat="43.63211" lon="7.05541">
        <ele>94.775123596191</ele>
        <time>2016-05-14T08:20:42.000Z</time>
      </trkpt>
      <trkpt lat="43.6321" lon="7.05547">
        <ele>94.771041870117</ele>
        <time>2016-05-14T08:20:45.000Z</time>
      </trkpt>
      <trkpt lat="43.6321" lon="7.05548">
        <ele>94.785636901855</ele>
        <time>2016-05-14T08:20:47.000Z</time>
      </trkpt>
      <trkpt lat="43.63209" lon="7.05551">
        <ele>94.779747009277</ele>
        <time>2016-05-14T08:20:50.000Z</time>
      </trkpt>
      <trkpt lat="43.63208" lon="7.05552">
        <ele>94.754417419434</ele>
        <time>2016-05-14T08:20:52.000Z</time>
      </trkpt>
      <trkpt lat="43.63207" lon="7.05554">
        <ele>94.74430847168</ele>
        <time>2016-05-14T08:20:54.000Z</time>
      </trkpt>
      <trkpt lat="43.63206" lon="7.05557">
        <ele>94.758094787598</ele>
        <time>2016-05-14T08:20:57.000Z</time>
      </trkpt>
      <trkpt lat="43.63205" lon="7.05561">
        <ele>94.757339477539</ele>
        <time>2016-05-14T08:21:00.000Z</time>
      </trkpt>
      <trkpt lat="43.63205" lon="7.05564">
        <ele>94.748764038086</ele>
        <time>2016-05-14T08:21:02.000Z</time>
      </trkpt>
      <trkpt lat="43.63205" lon="7.05568">
        <ele>94.717491149902</ele>
        <time>2016-05-14T08:21:05.000Z</time>
      </trkpt>
      <trkpt lat="43.63205" lon="7.0557">
        <ele>94.668006896973</ele>
        <time>2016-05-14T08:21:07.000Z</time>
      </trkpt>
      <trkpt lat="43.63204" lon="7.05574">
        <ele>94.595909118652</ele>
        <time>2016-05-14T08:21:10.000Z</time>
      </trkpt>
      <trkpt lat="43.63203" lon="7.05576">
        <ele>94.530418395996</ele>
        <time>2016-05-14T08:21:12.000Z</time>
      </trkpt>
      <trkpt lat="43.63203" lon="7.05581">
        <ele>94.458671569824</ele>
        <time>2016-05-14T08:21:15.000Z</time>
      </trkpt>
      <trkpt lat="43.63201" lon="7.05586">
        <ele>94.431205749512</ele>
        <time>2016-05-14T08:21:18.000Z</time>
      </trkpt>
      <trkpt lat="43.632" lon="7.05589">
        <ele>94.450119018555</ele>
        <time>2016-05-14T08:21:21.000Z</time>
      </trkpt>
      <trkpt lat="43.63199" lon="7.05593">
        <ele>94.52018737793</ele>
        <time>2016-05-14T08:21:24.000Z</time>
      </trkpt>
      <trkpt lat="43.63199" lon="7.05597">
        <ele>94.622184753418</ele>
        <time>2016-05-14T08:21:27.000Z</time>
      </trkpt>
      <trkpt lat="43.63198" lon="7.05601">
        <ele>94.784126281738</ele>
        <time>2016-05-14T08:21:30.000Z</time>
      </trkpt>
      <trkpt lat="43.63196" lon="7.05604">
        <ele>94.972846984863</ele>
        <time>2016-05-14T08:21:33.000Z</time>
      </trkpt>
      <trkpt lat="43.63195" lon="7.05606">
        <ele>95.162925720215</ele>
        <time>2016-05-14T08:21:35.000Z</time>
      </trkpt>
      <trkpt lat="43.63193" lon="7.05609">
        <ele>95.36262512207</ele>
        <time>2016-05-14T08:21:38.000Z</time>
      </trkpt>
      <trkpt lat="43.63193" lon="7.05611">
        <ele>95.557876586914</ele>
        <time>2016-05-14T08:21:40.000Z</time>
      </trkpt>
      <trkpt lat="43.63192" lon="7.05615">
        <ele>95.746620178223</ele>
        <time>2016-05-14T08:21:43.000Z</time>
      </trkpt>
      <trkpt lat="43.6319" lon="7.05616">
        <ele>95.927955627441</ele>
        <time>2016-05-14T08:21:45.000Z</time>
      </trkpt>
      <trkpt lat="43.63189" lon="7.05619">
        <ele>96.111061096191</ele>
        <time>2016-05-14T08:21:47.000Z</time>
      </trkpt>
      <trkpt lat="43.63188" lon="7.05622">
        <ele>96.303199768066</ele>
        <time>2016-05-14T08:21:50.000Z</time>
      </trkpt>
      <trkpt lat="43.63188" lon="7.05626">
        <ele>96.493797302246</ele>
        <time>2016-05-14T08:21:52.000Z</time>
      </trkpt>
      <trkpt lat="43.63187" lon="7.05628">
        <ele>96.688980102539</ele>
        <time>2016-05-14T08:21:54.000Z</time>
      </trkpt>
      <trkpt lat="43.63187" lon="7.0563">
        <ele>96.864273071289</ele>
        <time>2016-05-14T08:21:57.000Z</time>
      </trkpt>
      <trkpt lat="43.63186" lon="7.05634">
        <ele>97.03791809082</ele>
        <time>2016-05-14T08:22:01.000Z</time>
      </trkpt>
      <trkpt lat="43.63185" lon="7.05636">
        <ele>97.197982788086</ele>
        <time>2016-05-14T08:22:03.000Z</time>
      </trkpt>
      <trkpt lat="43.63184" lon="7.05638">
        <ele>97.374610900879</ele>
        <time>2016-05-14T08:22:05.000Z</time>
      </trkpt>
      <trkpt lat="43.63182" lon="7.05643">
        <ele>97.604698181152</ele>
        <time>2016-05-14T08:22:08.000Z</time>
      </trkpt>
      <trkpt lat="43.63179" lon="7.05648">
        <ele>97.899681091309</ele>
        <time>2016-05-14T08:22:11.000Z</time>
      </trkpt>
      <trkpt lat="43.63179" lon="7.05652">
        <ele>98.212608337402</ele>
        <time>2016-05-14T08:22:14.000Z</time>
      </trkpt>
      <trkpt lat="43.63179" lon="7.05656">
        <ele>98.524833679199</ele>
        <time>2016-05-14T08:22:16.000Z</time>
      </trkpt>
      <trkpt lat="43.63179" lon="7.05658">
        <ele>98.831878662109</ele>
        <time>2016-05-14T08:22:18.000Z</time>
      </trkpt>
      <trkpt lat="43.63179" lon="7.05662">
        <ele>99.08088684082</ele>
        <time>2016-05-14T08:22:20.000Z</time>
      </trkpt>
      <trkpt lat="43.63181" lon="7.05666">
        <ele>99.242980957031</ele>
        <time>2016-05-14T08:22:23.000Z</time>
      </trkpt>
      <trkpt lat="43.63183" lon="7.05669">
        <ele>99.301696777344</ele>
        <time>2016-05-14T08:22:25.000Z</time>
      </trkpt>
      <trkpt lat="43.63184" lon="7.05674">
        <ele>99.265403747559</ele>
        <time>2016-05-14T08:22:28.000Z</time>
      </trkpt>
      <trkpt lat="43.63186" lon="7.05678">
        <ele>99.145240783691</ele>
        <time>2016-05-14T08:22:31.000Z</time>
      </trkpt>
      <trkpt lat="43.63186" lon="7.05682">
        <ele>98.963539123535</ele>
        <time>2016-05-14T08:22:34.000Z</time>
      </trkpt>
      <trkpt lat="43.63187" lon="7.05684">
        <ele>98.762306213379</ele>
        <time>2016-05-14T08:22:36.000Z</time>
      </trkpt>
      <trkpt lat="43.63187" lon="7.05686">
        <ele>98.600631713867</ele>
        <time>2016-05-14T08:22:38.000Z</time>
      </trkpt>
      <trkpt lat="43.63188" lon="7.0569">
        <ele>98.454849243164</ele>
        <time>2016-05-14T08:22:41.000Z</time>
      </trkpt>
      <trkpt lat="43.63189" lon="7.05692">
        <ele>98.324150085449</ele>
        <time>2016-05-14T08:22:43.000Z</time>
      </trkpt>
      <trkpt lat="43.6319" lon="7.05695">
        <ele>98.183876037598</ele>
        <time>2016-05-14T08:22:46.000Z</time>
      </trkpt>
      <trkpt lat="43.63192" lon="7.05699">
        <ele>98.011253356934</ele>
        <time>2016-05-14T08:22:49.000Z</time>
      </trkpt>
      <trkpt lat="43.63193" lon="7.05702">
        <ele>97.821395874023</ele>
        <time>2016-05-14T08:22:51.000Z</time>
      </trkpt>
      <trkpt lat="43.63195" lon="7.05703">
        <ele>97.632102966309</ele>
        <time>2016-05-14T08:22:53.000Z</time>
      </trkpt>
      <trkpt lat="43.63198" lon="7.05704">
        <ele>97.399452209473</ele>
        <time>2016-05-14T08:22:56.000Z</time>
      </trkpt>
      <trkpt lat="43.632" lon="7.05705">
        <ele>97.176979064941</ele>
        <time>2016-05-14T08:22:59.000Z</time>
      </trkpt>
      <trkpt lat="43.63201" lon="7.05704">
        <ele>96.974731445312</ele>
        <time>2016-05-14T08:23:01.000Z</time>
      </trkpt>
      <trkpt lat="43.63202" lon="7.05704">
        <ele>96.772583007812</ele>
        <time>2016-05-14T08:23:04.000Z</time>
      </trkpt>
      <trkpt lat="43.63203" lon="7.05708">
        <ele>96.578727722168</ele>
        <time>2016-05-14T08:23:06.000Z</time>
      </trkpt>
      <trkpt lat="43.63204" lon="7.05712">
        <ele>96.433967590332</ele>
        <time>2016-05-14T08:23:08.000Z</time>
      </trkpt>
      <trkpt lat="43.63206" lon="7.05715">
        <ele>96.263717651367</ele>
        <time>2016-05-14T08:23:10.000Z</time>
      </trkpt>
      <trkpt lat="43.63209" lon="7.05718">
        <ele>96.055160522461</ele>
        <time>2016-05-14T08:23:12.000Z</time>
      </trkpt>
      <trkpt lat="43.63211" lon="7.0572">
        <ele>95.81510925293</ele>
        <time>2016-05-14T08:23:15.000Z</time>
      </trkpt>
      <trkpt lat="43.63214" lon="7.05725">
        <ele>95.543006896973</ele>
        <time>2016-05-14T08:23:18.000Z</time>
      </trkpt>
      <trkpt lat="43.63216" lon="7.05728">
        <ele>95.230422973633</ele>
        <time>2016-05-14T08:23:21.000Z</time>
      </trkpt>
      <trkpt lat="43.63218" lon="7.05731">
        <ele>94.947067260742</ele>
        <time>2016-05-14T08:23:23.000Z</time>
      </trkpt>
      <trkpt lat="43.63219" lon="7.05734">
        <ele>94.69548034668</ele>
        <time>2016-05-14T08:23:26.000Z</time>
      </trkpt>
      <trkpt lat="43.6322" lon="7.05739">
        <ele>94.462020874023</ele>
        <time>2016-05-14T08:23:29.000Z</time>
      </trkpt>
      <trkpt lat="43.63221" lon="7.05742">
        <ele>94.26025390625</ele>
        <time>2016-05-14T08:23:31.000Z</time>
      </trkpt>
      <trkpt lat="43.63223" lon="7.05746">
        <ele>94.066650390625</ele>
        <time>2016-05-14T08:23:34.000Z</time>
      </trkpt>
      <trkpt lat="43.63225" lon="7.05748">
        <ele>93.85823059082</ele>
        <time>2016-05-14T08:23:36.000Z</time>
      </trkpt>
      <trkpt lat="43.63227" lon="7.05751">
        <ele>93.648109436035</ele>
        <time>2016-05-14T08:23:38.000Z</time>
      </trkpt>
      <trkpt lat="43.63229" lon="7.05753">
        <ele>93.437965393066</ele>
        <time>2016-05-14T08:23:40.000Z</time>
      </trkpt>
      <trkpt lat="43.6323" lon="7.05755">
        <ele>93.245246887207</ele>
        <time>2016-05-14T08:23:42.000Z</time>
      </trkpt>
      <trkpt lat="43.63232" lon="7.05759">
        <ele>93.082229614258</ele>
        <time>2016-05-14T08:23:45.000Z</time>
      </trkpt>
      <trkpt lat="43.63234" lon="7.05761">
        <ele>92.930015563965</ele>
        <time>2016-05-14T08:23:47.000Z</time>
      </trkpt>
      <trkpt lat="43.63235" lon="7.05764">
        <ele>92.796020507812</ele>
        <time>2016-05-14T08:23:50.000Z</time>
      </trkpt>
      <trkpt lat="43.63236" lon="7.05766">
        <ele>92.703506469727</ele>
        <time>2016-05-14T08:23:52.000Z</time>
      </trkpt>
      <trkpt lat="43.63239" lon="7.0577">
        <ele>92.612968444824</ele>
        <time>2016-05-14T08:23:55.000Z</time>
      </trkpt>
      <trkpt lat="43.63242" lon="7.05773">
        <ele>92.540893554688</ele>
        <time>2016-05-14T08:24:01.000Z</time>
      </trkpt>
      <trkpt lat="43.63243" lon="7.05775">
        <ele>92.498001098633</ele>
        <time>2016-05-14T08:24:03.000Z</time>
      </trkpt>
      <trkpt lat="43.63245" lon="7.05779">
        <ele>92.484909057617</ele>
        <time>2016-05-14T08:24:06.000Z</time>
      </trkpt>
      <trkpt lat="43.63249" lon="7.05783">
        <ele>92.494155883789</ele>
        <time>2016-05-14T08:24:09.000Z</time>
      </trkpt>
      <trkpt lat="43.6325" lon="7.05787">
        <ele>92.549354553223</ele>
        <time>2016-05-14T08:24:12.000Z</time>
      </trkpt>
      <trkpt lat="43.6325" lon="7.05789">
        <ele>92.636085510254</ele>
        <time>2016-05-14T08:24:14.000Z</time>
      </trkpt>
      <trkpt lat="43.6325" lon="7.0579">
        <ele>92.73469543457</ele>
        <time>2016-05-14T08:24:16.000Z</time>
      </trkpt>
      <trkpt lat="43.63248" lon="7.05793">
        <ele>92.84789276123</ele>
        <time>2016-05-14T08:24:19.000Z</time>
      </trkpt>
      <trkpt lat="43.63247" lon="7.05796">
        <ele>92.954254150391</ele>
        <time>2016-05-14T08:24:21.000Z</time>
      </trkpt>
      <trkpt lat="43.63245" lon="7.05801">
        <ele>93.056915283203</ele>
        <time>2016-05-14T08:24:24.000Z</time>
      </trkpt>
      <trkpt lat="43.63245" lon="7.05803">
        <ele>93.158882141113</ele>
        <time>2016-05-14T08:24:26.000Z</time>
      </trkpt>
      <trkpt lat="43.63244" lon="7.05806">
        <ele>93.259140014648</ele>
        <time>2016-05-14T08:24:28.000Z</time>
      </trkpt>
      <trkpt lat="43.63242" lon="7.05807">
        <ele>93.324630737305</ele>
        <time>2016-05-14T08:24:30.000Z</time>
      </trkpt>
      <trkpt lat="43.6324" lon="7.05808">
        <ele>93.357955932617</ele>
        <time>2016-05-14T08:24:32.000Z</time>
      </trkpt>
      <trkpt lat="43.63238" lon="7.0581">
        <ele>93.35196685791</ele>
        <time>2016-05-14T08:24:35.000Z</time>
      </trkpt>
      <trkpt lat="43.63238" lon="7.05813">
        <ele>93.340286254883</ele>
        <time>2016-05-14T08:24:38.000Z</time>
      </trkpt>
      <trkpt lat="43.63237" lon="7.05815">
        <ele>93.31787109375</ele>
        <time>2016-05-14T08:24:40.000Z</time>
      </trkpt>
      <trkpt lat="43.63237" lon="7.0582">
        <ele>93.308853149414</ele>
        <time>2016-05-14T08:24:43.000Z</time>
      </trkpt>
      <trkpt lat="43.63236" lon="7.05821">
        <ele>93.313140869141</ele>
        <time>2016-05-14T08:24:45.000Z</time>
      </trkpt>
      <trkpt lat="43.63234" lon="7.05823">
        <ele>93.298667907715</ele>
        <time>2016-05-14T08:24:48.000Z</time>
      </trkpt>
      <trkpt lat="43.63231" lon="7.05824">
        <ele>93.218887329102</ele>
        <time>2016-05-14T08:24:51.000Z</time>
      </trkpt>
      <trkpt lat="43.63229" lon="7.05825">
        <ele>93.109359741211</ele>
        <time>2016-05-14T08:24:55.000Z</time>
      </trkpt>
      <trkpt lat="43.63229" lon="7.05826">
        <ele>92.995559692383</ele>
        <time>2016-05-14T08:25:11.000Z</time>
      </trkpt>
      <trkpt lat="43.63227" lon="7.05826">
        <ele>92.839042663574</ele>
        <time>2016-05-14T08:25:14.000Z</time>
      </trkpt>
      <trkpt lat="43.63226" lon="7.05825">
        <ele>92.706367492676</ele>
        <time>2016-05-14T08:25:18.000Z</time>
      </trkpt>
      <trkpt lat="43.63225" lon="7.05826">
        <ele>92.596084594727</ele>
        <time>2016-05-14T08:25:21.000Z</time>
      </trkpt>
      <trkpt lat="43.63223" lon="7.05828">
        <ele>92.472434997559</ele>
        <time>2016-05-14T08:25:23.000Z</time>
      </trkpt>
      <trkpt lat="43.6322" lon="7.05828">
        <ele>92.295127868652</ele>
        <time>2016-05-14T08:25:26.000Z</time>
      </trkpt>
      <trkpt lat="43.63217" lon="7.05828">
        <ele>92.106315612793</ele>
        <time>2016-05-14T08:25:28.000Z</time>
      </trkpt>
      <trkpt lat="43.63215" lon="7.05827">
        <ele>91.897445678711</ele>
        <time>2016-05-14T08:25:30.000Z</time>
      </trkpt>
      <trkpt lat="43.63214" lon="7.05826">
        <ele>91.700660705566</ele>
        <time>2016-05-14T08:25:32.000Z</time>
      </trkpt>
      <trkpt lat="43.63211" lon="7.05825">
        <ele>91.506439208984</ele>
        <time>2016-05-14T08:25:35.000Z</time>
      </trkpt>
      <trkpt lat="43.63209" lon="7.05826">
        <ele>91.314804077148</ele>
        <time>2016-05-14T08:25:38.000Z</time>
      </trkpt>
      <trkpt lat="43.63207" lon="7.05827">
        <ele>91.128219604492</ele>
        <time>2016-05-14T08:25:40.000Z</time>
      </trkpt>
      <trkpt lat="43.63204" lon="7.05828">
        <ele>90.907043457031</ele>
        <time>2016-05-14T08:25:43.000Z</time>
      </trkpt>
      <trkpt lat="43.632" lon="7.05828">
        <ele>90.627006530762</ele>
        <time>2016-05-14T08:25:46.000Z</time>
      </trkpt>
      <trkpt lat="43.63198" lon="7.05829">
        <ele>90.349487304688</ele>
        <time>2016-05-14T08:25:48.000Z</time>
      </trkpt>
      <trkpt lat="43.63195" lon="7.0583">
        <ele>90.032417297363</ele>
        <time>2016-05-14T08:25:51.000Z</time>
      </trkpt>
      <trkpt lat="43.63192" lon="7.05832">
        <ele>89.667549133301</ele>
        <time>2016-05-14T08:25:54.000Z</time>
      </trkpt>
      <trkpt lat="43.63189" lon="7.05833">
        <ele>89.274215698242</ele>
        <time>2016-05-14T08:25:57.000Z</time>
      </trkpt>
      <trkpt lat="43.63187" lon="7.05834">
        <ele>88.922050476074</ele>
        <time>2016-05-14T08:26:00.000Z</time>
      </trkpt>
      <trkpt lat="43.63184" lon="7.05833">
        <ele>88.528846740723</ele>
        <time>2016-05-14T08:26:03.000Z</time>
      </trkpt>
      <trkpt lat="43.63182" lon="7.05834">
        <ele>88.194839477539</ele>
        <time>2016-05-14T08:26:05.000Z</time>
      </trkpt>
      <trkpt lat="43.6318" lon="7.05835">
        <ele>87.930297851562</ele>
        <time>2016-05-14T08:26:07.000Z</time>
      </trkpt>
      <trkpt lat="43.63179" lon="7.05835">
        <ele>87.733413696289</ele>
        <time>2016-05-14T08:26:10.000Z</time>
      </trkpt>
      <trkpt lat="43.63176" lon="7.05837">
        <ele>87.530212402344</ele>
        <time>2016-05-14T08:26:14.000Z</time>
      </trkpt>
      <trkpt lat="43.63173" lon="7.05838">
        <ele>87.369430541992</ele>
        <time>2016-05-14T08:26:16.000Z</time>
      </trkpt>
      <trkpt lat="43.6317" lon="7.05843">
        <ele>87.219261169434</ele>
        <time>2016-05-14T08:26:19.000Z</time>
      </trkpt>
      <trkpt lat="43.63169" lon="7.05845">
        <ele>87.087608337402</ele>
        <time>2016-05-14T08:26:21.000Z</time>
      </trkpt>
      <trkpt lat="43.63169" lon="7.05845">
        <ele>87.087608337402</ele>
        <time>2016-05-14T08:26:41.000Z</time>
      </trkpt>
      <trkpt lat="43.63169" lon="7.05846">
        <ele>86.975692749023</ele>
        <time>2016-05-14T08:26:47.000Z</time>
      </trkpt>
      <trkpt lat="43.63168" lon="7.05847">
        <ele>86.89714050293</ele>
        <time>2016-05-14T08:26:50.000Z</time>
      </trkpt>
      <trkpt lat="43.63166" lon="7.05849">
        <ele>86.842147827148</ele>
        <time>2016-05-14T08:26:53.000Z</time>
      </trkpt>
      <trkpt lat="43.63165" lon="7.05849">
        <ele>86.817924499512</ele>
        <time>2016-05-14T08:26:55.000Z</time>
      </trkpt>
      <trkpt lat="43.63162" lon="7.0585">
        <ele>86.821418762207</ele>
        <time>2016-05-14T08:26:58.000Z</time>
      </trkpt>
      <trkpt lat="43.63162" lon="7.0585">
        <ele>86.821418762207</ele>
        <time>2016-05-14T08:27:18.000Z</time>
      </trkpt>
      <trkpt lat="43.63161" lon="7.05852">
        <ele>86.850440979004</ele>
        <time>2016-05-14T08:28:48.000Z</time>
      </trkpt>
      <trkpt lat="43.63156" lon="7.05851">
        <ele>86.906066894531</ele>
        <time>2016-05-14T08:28:57.000Z</time>
      </trkpt>
      <trkpt lat="43.63154" lon="7.05851">
        <ele>86.981986999512</ele>
        <time>2016-05-14T08:28:59.000Z</time>
      </trkpt>
      <trkpt lat="43.6315" lon="7.05849">
        <ele>87.058258056641</ele>
        <time>2016-05-14T08:29:18.000Z</time>
      </trkpt>
      <trkpt lat="43.63148" lon="7.05849">
        <ele>87.123519897461</ele>
        <time>2016-05-14T08:29:21.000Z</time>
      </trkpt>
      <trkpt lat="43.63146" lon="7.05851">
        <ele>87.18537902832</ele>
        <time>2016-05-14T08:29:23.000Z</time>
      </trkpt>
      <trkpt lat="43.63143" lon="7.05853">
        <ele>87.250228881836</ele>
        <time>2016-05-14T08:29:26.000Z</time>
      </trkpt>
      <trkpt lat="43.63139" lon="7.05854">
        <ele>87.325668334961</ele>
        <time>2016-05-14T08:29:29.000Z</time>
      </trkpt>
      <trkpt lat="43.63136" lon="7.05855">
        <ele>87.402336120605</ele>
        <time>2016-05-14T08:29:31.000Z</time>
      </trkpt>
      <trkpt lat="43.63133" lon="7.05858">
        <ele>87.481956481934</ele>
        <time>2016-05-14T08:29:34.000Z</time>
      </trkpt>
      <trkpt lat="43.63131" lon="7.05861">
        <ele>87.542831420898</ele>
        <time>2016-05-14T08:29:36.000Z</time>
      </trkpt>
      <trkpt lat="43.63129" lon="7.05863">
        <ele>87.585189819336</ele>
        <time>2016-05-14T08:29:39.000Z</time>
      </trkpt>
      <trkpt lat="43.63127" lon="7.05865">
        <ele>87.606552124023</ele>
        <time>2016-05-14T08:29:41.000Z</time>
      </trkpt>
      <trkpt lat="43.63126" lon="7.05868">
        <ele>87.61181640625</ele>
        <time>2016-05-14T08:29:43.000Z</time>
      </trkpt>
      <trkpt lat="43.63123" lon="7.05869">
        <ele>87.602783203125</ele>
        <time>2016-05-14T08:29:46.000Z</time>
      </trkpt>
      <trkpt lat="43.63122" lon="7.0587">
        <ele>87.587608337402</ele>
        <time>2016-05-14T08:29:48.000Z</time>
      </trkpt>
      <trkpt lat="43.6312" lon="7.0587">
        <ele>87.568389892578</ele>
        <time>2016-05-14T08:29:50.000Z</time>
      </trkpt>
      <trkpt lat="43.63117" lon="7.05871">
        <ele>87.543891906738</ele>
        <time>2016-05-14T08:29:53.000Z</time>
      </trkpt>
      <trkpt lat="43.63115" lon="7.05872">
        <ele>87.517852783203</ele>
        <time>2016-05-14T08:29:55.000Z</time>
      </trkpt>
      <trkpt lat="43.63113" lon="7.05874">
        <ele>87.480667114258</ele>
        <time>2016-05-14T08:29:58.000Z</time>
      </trkpt>
      <trkpt lat="43.63111" lon="7.05876">
        <ele>87.433120727539</ele>
        <time>2016-05-14T08:30:01.000Z</time>
      </trkpt>
      <trkpt lat="43.6311" lon="7.05877">
        <ele>87.376266479492</ele>
        <time>2016-05-14T08:30:03.000Z</time>
      </trkpt>
      <trkpt lat="43.63109" lon="7.0588">
        <ele>87.30216217041</ele>
        <time>2016-05-14T08:30:06.000Z</time>
      </trkpt>
      <trkpt lat="43.63109" lon="7.05882">
        <ele>87.225135803223</ele>
        <time>2016-05-14T08:30:08.000Z</time>
      </trkpt>
      <trkpt lat="43.63108" lon="7.05883">
        <ele>87.148208618164</ele>
        <time>2016-05-14T08:30:10.000Z</time>
      </trkpt>
      <trkpt lat="43.63107" lon="7.05885">
        <ele>87.065391540527</ele>
        <time>2016-05-14T08:30:13.000Z</time>
      </trkpt>
      <trkpt lat="43.63107" lon="7.05889">
        <ele>86.969253540039</ele>
        <time>2016-05-14T08:30:16.000Z</time>
      </trkpt>
      <trkpt lat="43.63106" lon="7.0589">
        <ele>86.880783081055</ele>
        <time>2016-05-14T08:30:19.000Z</time>
      </trkpt>
      <trkpt lat="43.63105" lon="7.05892">
        <ele>86.77938079834</ele>
        <time>2016-05-14T08:30:21.000Z</time>
      </trkpt>
      <trkpt lat="43.63103" lon="7.05893">
        <ele>86.671669006348</ele>
        <time>2016-05-14T08:30:23.000Z</time>
      </trkpt>
      <trkpt lat="43.63102" lon="7.05897">
        <ele>86.542282104492</ele>
        <time>2016-05-14T08:30:26.000Z</time>
      </trkpt>
      <trkpt lat="43.63103" lon="7.059">
        <ele>86.414810180664</ele>
        <time>2016-05-14T08:30:29.000Z</time>
      </trkpt>
      <trkpt lat="43.63103" lon="7.05902">
        <ele>86.287803649902</ele>
        <time>2016-05-14T08:30:31.000Z</time>
      </trkpt>
      <trkpt lat="43.63103" lon="7.05905">
        <ele>86.156181335449</ele>
        <time>2016-05-14T08:30:34.000Z</time>
      </trkpt>
      <trkpt lat="43.63102" lon="7.05907">
        <ele>86.023178100586</ele>
        <time>2016-05-14T08:30:36.000Z</time>
      </trkpt>
      <trkpt lat="43.63101" lon="7.0591">
        <ele>85.895057678223</ele>
        <time>2016-05-14T08:30:38.000Z</time>
      </trkpt>
      <trkpt lat="43.63099" lon="7.05913">
        <ele>85.731544494629</ele>
        <time>2016-05-14T08:30:41.000Z</time>
      </trkpt>
      <trkpt lat="43.63097" lon="7.05915">
        <ele>85.540908813477</ele>
        <time>2016-05-14T08:30:43.000Z</time>
      </trkpt>
      <trkpt lat="43.63095" lon="7.05917">
        <ele>85.332107543945</ele>
        <time>2016-05-14T08:30:45.000Z</time>
      </trkpt>
      <trkpt lat="43.63094" lon="7.05918">
        <ele>85.130317687988</ele>
        <time>2016-05-14T08:30:47.000Z</time>
      </trkpt>
      <trkpt lat="43.6309" lon="7.05919">
        <ele>84.913284301758</ele>
        <time>2016-05-14T08:30:50.000Z</time>
      </trkpt>
      <trkpt lat="43.63087" lon="7.05923">
        <ele>84.745254516602</ele>
        <time>2016-05-14T08:30:53.000Z</time>
      </trkpt>
      <trkpt lat="43.63087" lon="7.05926">
        <ele>84.620956420898</ele>
        <time>2016-05-14T08:30:55.000Z</time>
      </trkpt>
      <trkpt lat="43.63086" lon="7.05928">
        <ele>84.549606323242</ele>
        <time>2016-05-14T08:30:58.000Z</time>
      </trkpt>
      <trkpt lat="43.63086" lon="7.05932">
        <ele>84.504928588867</ele>
        <time>2016-05-14T08:31:01.000Z</time>
      </trkpt>
      <trkpt lat="43.63086" lon="7.05933">
        <ele>84.513374328613</ele>
        <time>2016-05-14T08:31:04.000Z</time>
      </trkpt>
      <trkpt lat="43.63085" lon="7.05935">
        <ele>84.53010559082</ele>
        <time>2016-05-14T08:31:06.000Z</time>
      </trkpt>
      <trkpt lat="43.63083" lon="7.05939">
        <ele>84.596214294434</ele>
        <time>2016-05-14T08:31:09.000Z</time>
      </trkpt>
      <trkpt lat="43.63083" lon="7.0594">
        <ele>84.661483764648</ele>
        <time>2016-05-14T08:31:11.000Z</time>
      </trkpt>
      <trkpt lat="43.63081" lon="7.05941">
        <ele>84.864540100098</ele>
        <time>2016-05-14T08:31:14.000Z</time>
      </trkpt>
      <trkpt lat="43.63079" lon="7.05944">
        <ele>85.219093322754</ele>
        <time>2016-05-14T08:31:17.000Z</time>
      </trkpt>
      <trkpt lat="43.63078" lon="7.05945">
        <ele>85.688339233398</ele>
        <time>2016-05-14T08:31:19.000Z</time>
      </trkpt>
      <trkpt lat="43.63076" lon="7.05946">
        <ele>86.255264282227</ele>
        <time>2016-05-14T08:31:22.000Z</time>
      </trkpt>
      <trkpt lat="43.63076" lon="7.05948">
        <ele>86.89525604248</ele>
        <time>2016-05-14T08:31:26.000Z</time>
      </trkpt>
      <trkpt lat="43.63075" lon="7.0595">
        <ele>87.475280761719</ele>
        <time>2016-05-14T08:31:29.000Z</time>
      </trkpt>
      <trkpt lat="43.63074" lon="7.05953">
        <ele>87.992408752441</ele>
        <time>2016-05-14T08:31:32.000Z</time>
      </trkpt>
      <trkpt lat="43.63074" lon="7.05955">
        <ele>88.44270324707</ele>
        <time>2016-05-14T08:31:34.000Z</time>
      </trkpt>
      <trkpt lat="43.63073" lon="7.05958">
        <ele>88.80265045166</ele>
        <time>2016-05-14T08:31:37.000Z</time>
      </trkpt>
      <trkpt lat="43.63072" lon="7.05961">
        <ele>89.208518981934</ele>
        <time>2016-05-14T08:31:39.000Z</time>
      </trkpt>
      <trkpt lat="43.63071" lon="7.05964">
        <ele>89.656143188477</ele>
        <time>2016-05-14T08:31:42.000Z</time>
      </trkpt>
      <trkpt lat="43.6307" lon="7.05967">
        <ele>90.108749389648</ele>
        <time>2016-05-14T08:31:50.000Z</time>
      </trkpt>
      <trkpt lat="43.63068" lon="7.05971">
        <ele>90.694541931152</ele>
        <time>2016-05-14T08:31:53.000Z</time>
      </trkpt>
      <trkpt lat="43.63068" lon="7.05974">
        <ele>91.282554626465</ele>
        <time>2016-05-14T08:31:55.000Z</time>
      </trkpt>
      <trkpt lat="43.63067" lon="7.05978">
        <ele>91.849647521973</ele>
        <time>2016-05-14T08:31:57.000Z</time>
      </trkpt>
      <trkpt lat="43.63066" lon="7.05983">
        <ele>92.437118530273</ele>
        <time>2016-05-14T08:32:00.000Z</time>
      </trkpt>
      <trkpt lat="43.63065" lon="7.05986">
        <ele>93.02864074707</ele>
        <time>2016-05-14T08:32:02.000Z</time>
      </trkpt>
      <trkpt lat="43.63066" lon="7.05991">
        <ele>93.445838928223</ele>
        <time>2016-05-14T08:32:05.000Z</time>
      </trkpt>
      <trkpt lat="43.63065" lon="7.05995">
        <ele>93.874801635742</ele>
        <time>2016-05-14T08:32:07.000Z</time>
      </trkpt>
      <trkpt lat="43.63066" lon="7.06">
        <ele>94.157836914062</ele>
        <time>2016-05-14T08:32:10.000Z</time>
      </trkpt>
      <trkpt lat="43.63066" lon="7.06004">
        <ele>94.336059570312</ele>
        <time>2016-05-14T08:32:13.000Z</time>
      </trkpt>
      <trkpt lat="43.63066" lon="7.06009">
        <ele>94.345108032227</ele>
        <time>2016-05-14T08:32:16.000Z</time>
      </trkpt>
      <trkpt lat="43.63065" lon="7.06013">
        <ele>94.468978881836</ele>
        <time>2016-05-14T08:32:19.000Z</time>
      </trkpt>
      <trkpt lat="43.63064" lon="7.06015">
        <ele>94.599540710449</ele>
        <time>2016-05-14T08:32:21.000Z</time>
      </trkpt>
      <trkpt lat="43.63063" lon="7.06018">
        <ele>94.849754333496</ele>
        <time>2016-05-14T08:32:24.000Z</time>
      </trkpt>
      <trkpt lat="43.63065" lon="7.06022">
        <ele>94.946632385254</ele>
        <time>2016-05-14T08:32:27.000Z</time>
      </trkpt>
      <trkpt lat="43.63064" lon="7.06027">
        <ele>95.155921936035</ele>
        <time>2016-05-14T08:32:30.000Z</time>
      </trkpt>
      <trkpt lat="43.63064" lon="7.0603">
        <ele>95.285522460938</ele>
        <time>2016-05-14T08:32:32.000Z</time>
      </trkpt>
      <trkpt lat="43.63063" lon="7.06034">
        <ele>95.449058532715</ele>
        <time>2016-05-14T08:32:35.000Z</time>
      </trkpt>
      <trkpt lat="43.63061" lon="7.06037">
        <ele>95.680511474609</ele>
        <time>2016-05-14T08:32:38.000Z</time>
      </trkpt>
      <trkpt lat="43.63062" lon="7.06039">
        <ele>95.949600219727</ele>
        <time>2016-05-14T08:32:41.000Z</time>
      </trkpt>
      <trkpt lat="43.63063" lon="7.06041">
        <ele>96.070533752441</ele>
        <time>2016-05-14T08:32:43.000Z</time>
      </trkpt>
      <trkpt lat="43.63065" lon="7.06044">
        <ele>95.976348876953</ele>
        <time>2016-05-14T08:32:46.000Z</time>
      </trkpt>
      <trkpt lat="43.63066" lon="7.06048">
        <ele>95.704605102539</ele>
        <time>2016-05-14T08:32:48.000Z</time>
      </trkpt>
      <trkpt lat="43.63065" lon="7.06052">
        <ele>95.361747741699</ele>
        <time>2016-05-14T08:32:50.000Z</time>
      </trkpt>
      <trkpt lat="43.63068" lon="7.06055">
        <ele>94.885704040527</ele>
        <time>2016-05-14T08:32:53.000Z</time>
      </trkpt>
      <trkpt lat="43.63071" lon="7.06059">
        <ele>94.213661193848</ele>
        <time>2016-05-14T08:32:56.000Z</time>
      </trkpt>
      <trkpt lat="43.63073" lon="7.06062">
        <ele>93.622329711914</ele>
        <time>2016-05-14T08:32:59.000Z</time>
      </trkpt>
      <trkpt lat="43.63074" lon="7.06064">
        <ele>92.967132568359</ele>
        <time>2016-05-14T08:33:01.000Z</time>
      </trkpt>
      <trkpt lat="43.63075" lon="7.06066">
        <ele>92.175735473633</ele>
        <time>2016-05-14T08:33:03.000Z</time>
      </trkpt>
      <trkpt lat="43.63074" lon="7.06069">
        <ele>91.631507873535</ele>
        <time>2016-05-14T08:33:06.000Z</time>
      </trkpt>
      <trkpt lat="43.63076" lon="7.06072">
        <ele>91.297500610352</ele>
        <time>2016-05-14T08:33:09.000Z</time>
      </trkpt>
      <trkpt lat="43.63077" lon="7.06073">
        <ele>90.964134216309</ele>
        <time>2016-05-14T08:33:11.000Z</time>
      </trkpt>
      <trkpt lat="43.6308" lon="7.06075">
        <ele>90.536842346191</ele>
        <time>2016-05-14T08:33:14.000Z</time>
      </trkpt>
      <trkpt lat="43.63082" lon="7.06077">
        <ele>89.981056213379</ele>
        <time>2016-05-14T08:33:16.000Z</time>
      </trkpt>
      <trkpt lat="43.63084" lon="7.06079">
        <ele>89.305946350098</ele>
        <time>2016-05-14T08:33:19.000Z</time>
      </trkpt>
      <trkpt lat="43.63085" lon="7.0608">
        <ele>88.723243713379</ele>
        <time>2016-05-14T08:33:21.000Z</time>
      </trkpt>
      <trkpt lat="43.63086" lon="7.06082">
        <ele>88.23616027832</ele>
        <time>2016-05-14T08:33:24.000Z</time>
      </trkpt>
      <trkpt lat="43.6309" lon="7.06084">
        <ele>87.961563110352</ele>
        <time>2016-05-14T08:33:27.000Z</time>
      </trkpt>
      <trkpt lat="43.63091" lon="7.06085">
        <ele>87.869285583496</ele>
        <time>2016-05-14T08:33:30.000Z</time>
      </trkpt>
      <trkpt lat="43.63093" lon="7.06086">
        <ele>87.838363647461</ele>
        <time>2016-05-14T08:33:32.000Z</time>
      </trkpt>
      <trkpt lat="43.63094" lon="7.06088">
        <ele>87.79662322998</ele>
        <time>2016-05-14T08:33:34.000Z</time>
      </trkpt>
      <trkpt lat="43.63095" lon="7.06093">
        <ele>87.73917388916</ele>
        <time>2016-05-14T08:33:37.000Z</time>
      </trkpt>
      <trkpt lat="43.63096" lon="7.06095">
        <ele>87.682662963867</ele>
        <time>2016-05-14T08:33:39.000Z</time>
      </trkpt>
      <trkpt lat="43.63098" lon="7.06098">
        <ele>87.61376953125</ele>
        <time>2016-05-14T08:33:42.000Z</time>
      </trkpt>
      <trkpt lat="43.631" lon="7.06101">
        <ele>87.531303405762</ele>
        <time>2016-05-14T08:33:44.000Z</time>
      </trkpt>
      <trkpt lat="43.63103" lon="7.06104">
        <ele>87.433982849121</ele>
        <time>2016-05-14T08:33:47.000Z</time>
      </trkpt>
      <trkpt lat="43.63103" lon="7.06106">
        <ele>87.342918395996</ele>
        <time>2016-05-14T08:33:49.000Z</time>
      </trkpt>
      <trkpt lat="43.63102" lon="7.06109">
        <ele>87.254615783691</ele>
        <time>2016-05-14T08:33:52.000Z</time>
      </trkpt>
      <trkpt lat="43.63103" lon="7.06112">
        <ele>87.166175842285</ele>
        <time>2016-05-14T08:33:54.000Z</time>
      </trkpt>
      <trkpt lat="43.63109" lon="7.06114">
        <ele>87.044799804688</ele>
        <time>2016-05-14T08:33:57.000Z</time>
      </trkpt>
      <trkpt lat="43.63113" lon="7.06116">
        <ele>86.899032592773</ele>
        <time>2016-05-14T08:34:00.000Z</time>
      </trkpt>
      <trkpt lat="43.63116" lon="7.06119">
        <ele>86.710609436035</ele>
        <time>2016-05-14T08:34:03.000Z</time>
      </trkpt>
      <trkpt lat="43.63118" lon="7.06119">
        <ele>86.501937866211</ele>
        <time>2016-05-14T08:34:05.000Z</time>
      </trkpt>
      <trkpt lat="43.63119" lon="7.06121">
        <ele>86.290428161621</ele>
        <time>2016-05-14T08:34:08.000Z</time>
      </trkpt>
      <trkpt lat="43.6312" lon="7.06122">
        <ele>86.121604919434</ele>
        <time>2016-05-14T08:34:10.000Z</time>
      </trkpt>
      <trkpt lat="43.63121" lon="7.06125">
        <ele>85.970314025879</ele>
        <time>2016-05-14T08:34:13.000Z</time>
      </trkpt>
      <trkpt lat="43.63121" lon="7.06127">
        <ele>85.854934692383</ele>
        <time>2016-05-14T08:34:15.000Z</time>
      </trkpt>
      <trkpt lat="43.63123" lon="7.0613">
        <ele>85.724700927734</ele>
        <time>2016-05-14T08:34:20.000Z</time>
      </trkpt>
      <trkpt lat="43.63123" lon="7.06132">
        <ele>85.610000610352</ele>
        <time>2016-05-14T08:34:23.000Z</time>
      </trkpt>
      <trkpt lat="43.63124" lon="7.06134">
        <ele>85.486595153809</ele>
        <time>2016-05-14T08:34:25.000Z</time>
      </trkpt>
      <trkpt lat="43.63125" lon="7.06136">
        <ele>85.365234375</ele>
        <time>2016-05-14T08:34:28.000Z</time>
      </trkpt>
      <trkpt lat="43.63126" lon="7.06138">
        <ele>85.228118896484</ele>
        <time>2016-05-14T08:34:30.000Z</time>
      </trkpt>
      <trkpt lat="43.63128" lon="7.06139">
        <ele>85.097091674805</ele>
        <time>2016-05-14T08:34:32.000Z</time>
      </trkpt>
      <trkpt lat="43.63131" lon="7.06143">
        <ele>84.895370483398</ele>
        <time>2016-05-14T08:34:35.000Z</time>
      </trkpt>
      <trkpt lat="43.63134" lon="7.06146">
        <ele>84.648216247559</ele>
        <time>2016-05-14T08:34:38.000Z</time>
      </trkpt>
      <trkpt lat="43.63137" lon="7.06148">
        <ele>84.366859436035</ele>
        <time>2016-05-14T08:34:41.000Z</time>
      </trkpt>
      <trkpt lat="43.63139" lon="7.0615">
        <ele>84.059196472168</ele>
        <time>2016-05-14T08:34:43.000Z</time>
      </trkpt>
      <trkpt lat="43.63142" lon="7.06154">
        <ele>83.708206176758</ele>
        <time>2016-05-14T08:34:46.000Z</time>
      </trkpt>
      <trkpt lat="43.63143" lon="7.06156">
        <ele>83.389038085938</ele>
        <time>2016-05-14T08:34:48.000Z</time>
      </trkpt>
      <trkpt lat="43.63144" lon="7.06158">
        <ele>83.114608764648</ele>
        <time>2016-05-14T08:34:50.000Z</time>
      </trkpt>
      <trkpt lat="43.63145" lon="7.06161">
        <ele>82.857406616211</ele>
        <time>2016-05-14T08:34:52.000Z</time>
      </trkpt>
      <trkpt lat="43.63147" lon="7.06163">
        <ele>82.579917907715</ele>
        <time>2016-05-14T08:34:55.000Z</time>
      </trkpt>
      <trkpt lat="43.63148" lon="7.06166">
        <ele>82.343055725098</ele>
        <time>2016-05-14T08:34:57.000Z</time>
      </trkpt>
      <trkpt lat="43.6315" lon="7.06167">
        <ele>82.097923278809</ele>
        <time>2016-05-14T08:34:59.000Z</time>
      </trkpt>
      <trkpt lat="43.63153" lon="7.06167">
        <ele>81.832908630371</ele>
        <time>2016-05-14T08:35:02.000Z</time>
      </trkpt>
      <trkpt lat="43.63153" lon="7.06169">
        <ele>81.586845397949</ele>
        <time>2016-05-14T08:35:04.000Z</time>
      </trkpt>
      <trkpt lat="43.63155" lon="7.06171">
        <ele>81.372055053711</ele>
        <time>2016-05-14T08:35:06.000Z</time>
      </trkpt>
      <trkpt lat="43.63157" lon="7.06174">
        <ele>81.145492553711</ele>
        <time>2016-05-14T08:35:09.000Z</time>
      </trkpt>
      <trkpt lat="43.63157" lon="7.06177">
        <ele>80.962387084961</ele>
        <time>2016-05-14T08:35:11.000Z</time>
      </trkpt>
      <trkpt lat="43.63158" lon="7.0618">
        <ele>80.778930664062</ele>
        <time>2016-05-14T08:35:14.000Z</time>
      </trkpt>
      <trkpt lat="43.63158" lon="7.06183">
        <ele>80.602828979492</ele>
        <time>2016-05-14T08:35:17.000Z</time>
      </trkpt>
      <trkpt lat="43.6316" lon="7.06186">
        <ele>80.424758911133</ele>
        <time>2016-05-14T08:35:20.000Z</time>
      </trkpt>
      <trkpt lat="43.63163" lon="7.06189">
        <ele>80.229736328125</ele>
        <time>2016-05-14T08:35:23.000Z</time>
      </trkpt>
      <trkpt lat="43.63166" lon="7.06192">
        <ele>79.982803344727</ele>
        <time>2016-05-14T08:35:26.000Z</time>
      </trkpt>
      <trkpt lat="43.63168" lon="7.06194">
        <ele>79.821815490723</ele>
        <time>2016-05-14T08:35:29.000Z</time>
      </trkpt>
      <trkpt lat="43.63168" lon="7.06197">
        <ele>79.669319152832</ele>
        <time>2016-05-14T08:35:31.000Z</time>
      </trkpt>
      <trkpt lat="43.63169" lon="7.06201">
        <ele>79.569229125977</ele>
        <time>2016-05-14T08:35:34.000Z</time>
      </trkpt>
      <trkpt lat="43.63169" lon="7.06204">
        <ele>79.536315917969</ele>
        <time>2016-05-14T08:35:36.000Z</time>
      </trkpt>
      <trkpt lat="43.63173" lon="7.06207">
        <ele>79.681053161621</ele>
        <time>2016-05-14T08:35:39.000Z</time>
      </trkpt>
      <trkpt lat="43.63174" lon="7.06209">
        <ele>79.83610534668</ele>
        <time>2016-05-14T08:35:41.000Z</time>
      </trkpt>
      <trkpt lat="43.63174" lon="7.06212">
        <ele>79.973999023438</ele>
        <time>2016-05-14T08:35:44.000Z</time>
      </trkpt>
      <trkpt lat="43.63175" lon="7.06214">
        <ele>80.123008728027</ele>
        <time>2016-05-14T08:35:46.000Z</time>
      </trkpt>
      <trkpt lat="43.63177" lon="7.06216">
        <ele>80.322303771973</ele>
        <time>2016-05-14T08:35:48.000Z</time>
      </trkpt>
      <trkpt lat="43.63177" lon="7.06219">
        <ele>80.418952941895</ele>
        <time>2016-05-14T08:35:51.000Z</time>
      </trkpt>
      <trkpt lat="43.63178" lon="7.0622">
        <ele>80.487579345703</ele>
        <time>2016-05-14T08:35:53.000Z</time>
      </trkpt>
      <trkpt lat="43.63179" lon="7.06223">
        <ele>80.584503173828</ele>
        <time>2016-05-14T08:35:55.000Z</time>
      </trkpt>
      <trkpt lat="43.63178" lon="7.06228">
        <ele>80.625930786133</ele>
        <time>2016-05-14T08:35:58.000Z</time>
      </trkpt>
      <trkpt lat="43.63177" lon="7.0623">
        <ele>80.579467773438</ele>
        <time>2016-05-14T08:36:01.000Z</time>
      </trkpt>
      <trkpt lat="43.63177" lon="7.06233">
        <ele>80.506149291992</ele>
        <time>2016-05-14T08:36:04.000Z</time>
      </trkpt>
      <trkpt lat="43.63178" lon="7.06236">
        <ele>80.413162231445</ele>
        <time>2016-05-14T08:36:07.000Z</time>
      </trkpt>
      <trkpt lat="43.63178" lon="7.06238">
        <ele>80.325271606445</ele>
        <time>2016-05-14T08:36:09.000Z</time>
      </trkpt>
      <trkpt lat="43.63182" lon="7.06241">
        <ele>80.369148254395</ele>
        <time>2016-05-14T08:36:12.000Z</time>
      </trkpt>
      <trkpt lat="43.63184" lon="7.06242">
        <ele>80.512359619141</ele>
        <time>2016-05-14T08:36:14.000Z</time>
      </trkpt>
      <trkpt lat="43.63186" lon="7.06246">
        <ele>80.736083984375</ele>
        <time>2016-05-14T08:36:17.000Z</time>
      </trkpt>
      <trkpt lat="43.63186" lon="7.06248">
        <ele>80.960083007812</ele>
        <time>2016-05-14T08:36:19.000Z</time>
      </trkpt>
      <trkpt lat="43.63186" lon="7.06252">
        <ele>81.168067932129</ele>
        <time>2016-05-14T08:36:22.000Z</time>
      </trkpt>
      <trkpt lat="43.63186" lon="7.06255">
        <ele>81.281616210938</ele>
        <time>2016-05-14T08:36:24.000Z</time>
      </trkpt>
      <trkpt lat="43.63187" lon="7.06259">
        <ele>81.359298706055</ele>
        <time>2016-05-14T08:36:27.000Z</time>
      </trkpt>
      <trkpt lat="43.63188" lon="7.06261">
        <ele>81.397888183594</ele>
        <time>2016-05-14T08:36:30.000Z</time>
      </trkpt>
      <trkpt lat="43.63188" lon="7.06262">
        <ele>81.435340881348</ele>
        <time>2016-05-14T08:36:32.000Z</time>
      </trkpt>
      <trkpt lat="43.63189" lon="7.06265">
        <ele>81.525985717773</ele>
        <time>2016-05-14T08:36:35.000Z</time>
      </trkpt>
      <trkpt lat="43.6319" lon="7.06267">
        <ele>81.646011352539</ele>
        <time>2016-05-14T08:36:37.000Z</time>
      </trkpt>
      <trkpt lat="43.6319" lon="7.0627">
        <ele>81.739669799805</ele>
        <time>2016-05-14T08:36:40.000Z</time>
      </trkpt>
      <trkpt lat="43.63189" lon="7.06273">
        <ele>81.776641845703</ele>
        <time>2016-05-14T08:36:42.000Z</time>
      </trkpt>
      <trkpt lat="43.63189" lon="7.06275">
        <ele>81.798675537109</ele>
        <time>2016-05-14T08:36:44.000Z</time>
      </trkpt>
      <trkpt lat="43.63189" lon="7.06278">
        <ele>81.76375579834</ele>
        <time>2016-05-14T08:36:47.000Z</time>
      </trkpt>
      <trkpt lat="43.63187" lon="7.0628">
        <ele>81.656112670898</ele>
        <time>2016-05-14T08:36:49.000Z</time>
      </trkpt>
      <trkpt lat="43.63187" lon="7.06282">
        <ele>81.547920227051</ele>
        <time>2016-05-14T08:36:51.000Z</time>
      </trkpt>
      <trkpt lat="43.63187" lon="7.06285">
        <ele>81.467674255371</ele>
        <time>2016-05-14T08:36:54.000Z</time>
      </trkpt>
      <trkpt lat="43.63187" lon="7.06288">
        <ele>81.386856079102</ele>
        <time>2016-05-14T08:36:56.000Z</time>
      </trkpt>
      <trkpt lat="43.63186" lon="7.06292">
        <ele>81.288612365723</ele>
        <time>2016-05-14T08:36:59.000Z</time>
      </trkpt>
      <trkpt lat="43.63186" lon="7.06297">
        <ele>81.232192993164</ele>
        <time>2016-05-14T08:37:02.000Z</time>
      </trkpt>
      <trkpt lat="43.63186" lon="7.06301">
        <ele>81.189529418945</ele>
        <time>2016-05-14T08:37:05.000Z</time>
      </trkpt>
      <trkpt lat="43.63185" lon="7.06306">
        <ele>81.098777770996</ele>
        <time>2016-05-14T08:37:08.000Z</time>
      </trkpt>
      <trkpt lat="43.63184" lon="7.06308">
        <ele>80.990707397461</ele>
        <time>2016-05-14T08:37:10.000Z</time>
      </trkpt>
      <trkpt lat="43.63184" lon="7.06311">
        <ele>80.882057189941</ele>
        <time>2016-05-14T08:37:12.000Z</time>
      </trkpt>
      <trkpt lat="43.63182" lon="7.06315">
        <ele>80.724708557129</ele>
        <time>2016-05-14T08:37:15.000Z</time>
      </trkpt>
      <trkpt lat="43.63181" lon="7.06319">
        <ele>80.486961364746</ele>
        <time>2016-05-14T08:37:18.000Z</time>
      </trkpt>
      <trkpt lat="43.6318" lon="7.06322">
        <ele>80.263366699219</ele>
        <time>2016-05-14T08:37:21.000Z</time>
      </trkpt>
      <trkpt lat="43.63178" lon="7.06323">
        <ele>80.007110595703</ele>
        <time>2016-05-14T08:37:23.000Z</time>
      </trkpt>
      <trkpt lat="43.63177" lon="7.06325">
        <ele>79.717239379883</ele>
        <time>2016-05-14T08:37:26.000Z</time>
      </trkpt>
      <trkpt lat="43.63174" lon="7.06328">
        <ele>79.391311645508</ele>
        <time>2016-05-14T08:37:29.000Z</time>
      </trkpt>
      <trkpt lat="43.63173" lon="7.0633">
        <ele>79.06526184082</ele>
        <time>2016-05-14T08:37:31.000Z</time>
      </trkpt>
      <trkpt lat="43.63171" lon="7.0633">
        <ele>78.692611694336</ele>
        <time>2016-05-14T08:37:33.000Z</time>
      </trkpt>
      <trkpt lat="43.63169" lon="7.0633">
        <ele>78.304428100586</ele>
        <time>2016-05-14T08:37:35.000Z</time>
      </trkpt>
      <trkpt lat="43.63166" lon="7.06329">
        <ele>77.888648986816</ele>
        <time>2016-05-14T08:37:38.000Z</time>
      </trkpt>
      <trkpt lat="43.63164" lon="7.0633">
        <ele>77.54670715332</ele>
        <time>2016-05-14T08:37:41.000Z</time>
      </trkpt>
      <trkpt lat="43.63162" lon="7.06331">
        <ele>77.254379272461</ele>
        <time>2016-05-14T08:37:44.000Z</time>
      </trkpt>
      <trkpt lat="43.63161" lon="7.06333">
        <ele>77.034790039062</ele>
        <time>2016-05-14T08:37:46.000Z</time>
      </trkpt>
      <trkpt lat="43.6316" lon="7.06334">
        <ele>76.906692504883</ele>
        <time>2016-05-14T08:37:48.000Z</time>
      </trkpt>
      <trkpt lat="43.63159" lon="7.06334">
        <ele>76.881484985352</ele>
        <time>2016-05-14T08:37:50.000Z</time>
      </trkpt>
      <trkpt lat="43.63157" lon="7.06334">
        <ele>76.837326049805</ele>
        <time>2016-05-14T08:37:52.000Z</time>
      </trkpt>
      <trkpt lat="43.63154" lon="7.06333">
        <ele>76.773330688477</ele>
        <time>2016-05-14T08:37:55.000Z</time>
      </trkpt>
      <trkpt lat="43.63151" lon="7.06332">
        <ele>76.705726623535</ele>
        <time>2016-05-14T08:37:58.000Z</time>
      </trkpt>
      <trkpt lat="43.6315" lon="7.06331">
        <ele>76.624290466309</ele>
        <time>2016-05-14T08:38:00.000Z</time>
      </trkpt>
      <trkpt lat="43.63147" lon="7.06331">
        <ele>76.509727478027</ele>
        <time>2016-05-14T08:38:03.000Z</time>
      </trkpt>
      <trkpt lat="43.63145" lon="7.06331">
        <ele>76.417053222656</ele>
        <time>2016-05-14T08:38:05.000Z</time>
      </trkpt>
      <trkpt lat="43.63142" lon="7.0633">
        <ele>76.346076965332</ele>
        <time>2016-05-14T08:38:08.000Z</time>
      </trkpt>
      <trkpt lat="43.63139" lon="7.0633">
        <ele>76.271194458008</ele>
        <time>2016-05-14T08:38:11.000Z</time>
      </trkpt>
      <trkpt lat="43.63137" lon="7.0633">
        <ele>76.188369750977</ele>
        <time>2016-05-14T08:38:16.000Z</time>
      </trkpt>
      <trkpt lat="43.63134" lon="7.06329">
        <ele>76.112693786621</ele>
        <time>2016-05-14T08:38:19.000Z</time>
      </trkpt>
      <trkpt lat="43.63131" lon="7.06328">
        <ele>76.043518066406</ele>
        <time>2016-05-14T08:38:21.000Z</time>
      </trkpt>
      <trkpt lat="43.63129" lon="7.06326">
        <ele>75.99137878418</ele>
        <time>2016-05-14T08:38:26.000Z</time>
      </trkpt>
      <trkpt lat="43.63127" lon="7.06324">
        <ele>75.959655761719</ele>
        <time>2016-05-14T08:38:28.000Z</time>
      </trkpt>
      <trkpt lat="43.63124" lon="7.06322">
        <ele>75.947242736816</ele>
        <time>2016-05-14T08:38:31.000Z</time>
      </trkpt>
      <trkpt lat="43.63122" lon="7.06318">
        <ele>75.967025756836</ele>
        <time>2016-05-14T08:38:34.000Z</time>
      </trkpt>
      <trkpt lat="43.6312" lon="7.06316">
        <ele>76.001358032227</ele>
        <time>2016-05-14T08:38:36.000Z</time>
      </trkpt>
      <trkpt lat="43.63117" lon="7.06313">
        <ele>76.052673339844</ele>
        <time>2016-05-14T08:38:39.000Z</time>
      </trkpt>
      <trkpt lat="43.63115" lon="7.06312">
        <ele>76.102012634277</ele>
        <time>2016-05-14T08:38:41.000Z</time>
      </trkpt>
      <trkpt lat="43.63112" lon="7.0631">
        <ele>76.149551391602</ele>
        <time>2016-05-14T08:38:44.000Z</time>
      </trkpt>
      <trkpt lat="43.6311" lon="7.06309">
        <ele>76.187065124512</ele>
        <time>2016-05-14T08:38:46.000Z</time>
      </trkpt>
      <trkpt lat="43.63106" lon="7.06306">
        <ele>76.231552124023</ele>
        <time>2016-05-14T08:38:49.000Z</time>
      </trkpt>
      <trkpt lat="43.63104" lon="7.06304">
        <ele>76.27303314209</ele>
        <time>2016-05-14T08:38:52.000Z</time>
      </trkpt>
      <trkpt lat="43.63102" lon="7.06304">
        <ele>76.3154296875</ele>
        <time>2016-05-14T08:38:54.000Z</time>
      </trkpt>
      <trkpt lat="43.631" lon="7.06303">
        <ele>76.358657836914</ele>
        <time>2016-05-14T08:38:56.000Z</time>
      </trkpt>
      <trkpt lat="43.63097" lon="7.06303">
        <ele>76.391738891602</ele>
        <time>2016-05-14T08:38:59.000Z</time>
      </trkpt>
      <trkpt lat="43.63094" lon="7.06304">
        <ele>76.38395690918</ele>
        <time>2016-05-14T08:39:02.000Z</time>
      </trkpt>
      <trkpt lat="43.63091" lon="7.06305">
        <ele>76.333503723145</ele>
        <time>2016-05-14T08:39:05.000Z</time>
      </trkpt>
      <trkpt lat="43.63089" lon="7.06307">
        <ele>76.250289916992</ele>
        <time>2016-05-14T08:39:08.000Z</time>
      </trkpt>
      <trkpt lat="43.63088" lon="7.06308">
        <ele>76.143508911133</ele>
        <time>2016-05-14T08:39:11.000Z</time>
      </trkpt>
      <trkpt lat="43.63088" lon="7.06308">
        <ele>76.143508911133</ele>
        <time>2016-05-14T08:39:31.000Z</time>
      </trkpt>
      <trkpt lat="43.63088" lon="7.06304">
        <ele>76.104904174805</ele>
        <time>2016-05-14T08:39:36.000Z</time>
      </trkpt>
      <trkpt lat="43.63088" lon="7.06304">
        <ele>76.104904174805</ele>
        <time>2016-05-14T08:39:56.000Z</time>
      </trkpt>
      <trkpt lat="43.63091" lon="7.06303">
        <ele>76.109764099121</ele>
        <time>2016-05-14T08:40:40.000Z</time>
      </trkpt>
      <trkpt lat="43.63087" lon="7.06301">
        <ele>76.155006408691</ele>
        <time>2016-05-14T08:40:51.000Z</time>
      </trkpt>
      <trkpt lat="43.63083" lon="7.06301">
        <ele>76.221817016602</ele>
        <time>2016-05-14T08:40:56.000Z</time>
      </trkpt>
      <trkpt lat="43.63078" lon="7.06301">
        <ele>76.336898803711</ele>
        <time>2016-05-14T08:40:59.000Z</time>
      </trkpt>
      <trkpt lat="43.63074" lon="7.063">
        <ele>76.420181274414</ele>
        <time>2016-05-14T08:41:02.000Z</time>
      </trkpt>
      <trkpt lat="43.63071" lon="7.06299">
        <ele>76.501831054688</ele>
        <time>2016-05-14T08:41:05.000Z</time>
      </trkpt>
      <trkpt lat="43.63068" lon="7.06299">
        <ele>76.584335327148</ele>
        <time>2016-05-14T08:41:08.000Z</time>
      </trkpt>
      <trkpt lat="43.63066" lon="7.06299">
        <ele>76.695823669434</ele>
        <time>2016-05-14T08:41:10.000Z</time>
      </trkpt>
      <trkpt lat="43.63065" lon="7.06298">
        <ele>76.793045043945</ele>
        <time>2016-05-14T08:41:13.000Z</time>
      </trkpt>
      <trkpt lat="43.63063" lon="7.06298">
        <ele>76.879898071289</ele>
        <time>2016-05-14T08:41:15.000Z</time>
      </trkpt>
      <trkpt lat="43.63061" lon="7.06297">
        <ele>76.959671020508</ele>
        <time>2016-05-14T08:41:17.000Z</time>
      </trkpt>
      <trkpt lat="43.63059" lon="7.06296">
        <ele>77.06217956543</ele>
        <time>2016-05-14T08:41:19.000Z</time>
      </trkpt>
      <trkpt lat="43.63058" lon="7.06294">
        <ele>77.196632385254</ele>
        <time>2016-05-14T08:41:22.000Z</time>
      </trkpt>
      <trkpt lat="43.63057" lon="7.06293">
        <ele>77.334327697754</ele>
        <time>2016-05-14T08:41:25.000Z</time>
      </trkpt>
      <trkpt lat="43.63055" lon="7.06294">
        <ele>77.436645507812</ele>
        <time>2016-05-14T08:41:28.000Z</time>
      </trkpt>
      <trkpt lat="43.63054" lon="7.06295">
        <ele>77.533187866211</ele>
        <time>2016-05-14T08:41:30.000Z</time>
      </trkpt>
      <trkpt lat="43.63049" lon="7.06296">
        <ele>77.593704223633</ele>
        <time>2016-05-14T08:41:34.000Z</time>
      </trkpt>
      <trkpt lat="43.63048" lon="7.06296">
        <ele>77.59114074707</ele>
        <time>2016-05-14T08:41:37.000Z</time>
      </trkpt>
      <trkpt lat="43.63045" lon="7.06297">
        <ele>77.572914123535</ele>
        <time>2016-05-14T08:41:40.000Z</time>
      </trkpt>
      <trkpt lat="43.63044" lon="7.06297">
        <ele>77.568237304688</ele>
        <time>2016-05-14T08:41:42.000Z</time>
      </trkpt>
      <trkpt lat="43.63042" lon="7.06298">
        <ele>77.549293518066</ele>
        <time>2016-05-14T08:41:44.000Z</time>
      </trkpt>
      <trkpt lat="43.63041" lon="7.06299">
        <ele>77.521186828613</ele>
        <time>2016-05-14T08:41:46.000Z</time>
      </trkpt>
      <trkpt lat="43.63038" lon="7.06299">
        <ele>77.508201599121</ele>
        <time>2016-05-14T08:41:48.000Z</time>
      </trkpt>
      <trkpt lat="43.63036" lon="7.06299">
        <ele>77.508651733398</ele>
        <time>2016-05-14T08:41:50.000Z</time>
      </trkpt>
      <trkpt lat="43.63034" lon="7.06298">
        <ele>77.544494628906</ele>
        <time>2016-05-14T08:41:52.000Z</time>
      </trkpt>
      <trkpt lat="43.63033" lon="7.06296">
        <ele>77.627265930176</ele>
        <time>2016-05-14T08:41:55.000Z</time>
      </trkpt>
      <trkpt lat="43.63031" lon="7.06295">
        <ele>77.773620605469</ele>
        <time>2016-05-14T08:41:58.000Z</time>
      </trkpt>
      <trkpt lat="43.6303" lon="7.06295">
        <ele>77.926078796387</ele>
        <time>2016-05-14T08:42:01.000Z</time>
      </trkpt>
      <trkpt lat="43.63029" lon="7.06295">
        <ele>78.048080444336</ele>
        <time>2016-05-14T08:42:03.000Z</time>
      </trkpt>
      <trkpt lat="43.63028" lon="7.06296">
        <ele>78.110191345215</ele>
        <time>2016-05-14T08:42:06.000Z</time>
      </trkpt>
      <trkpt lat="43.63025" lon="7.06297">
        <ele>78.12385559082</ele>
        <time>2016-05-14T08:42:09.000Z</time>
      </trkpt>
      <trkpt lat="43.63021" lon="7.063">
        <ele>78.040878295898</ele>
        <time>2016-05-14T08:42:12.000Z</time>
      </trkpt>
      <trkpt lat="43.63017" lon="7.06301">
        <ele>77.940071105957</ele>
        <time>2016-05-14T08:42:15.000Z</time>
      </trkpt>
      <trkpt lat="43.63012" lon="7.06303">
        <ele>77.816734313965</ele>
        <time>2016-05-14T08:42:33.000Z</time>
      </trkpt>
      <trkpt lat="43.63007" lon="7.06305">
        <ele>77.662704467773</ele>
        <time>2016-05-14T08:42:35.000Z</time>
      </trkpt>
      <trkpt lat="43.63002" lon="7.06307">
        <ele>77.465301513672</ele>
        <time>2016-05-14T08:42:38.000Z</time>
      </trkpt>
      <trkpt lat="43.62999" lon="7.0631">
        <ele>77.285049438477</ele>
        <time>2016-05-14T08:42:41.000Z</time>
      </trkpt>
      <trkpt lat="43.62994" lon="7.06314">
        <ele>77.105880737305</ele>
        <time>2016-05-14T08:42:47.000Z</time>
      </trkpt>
      <trkpt lat="43.62992" lon="7.06316">
        <ele>76.978622436523</ele>
        <time>2016-05-14T08:42:49.000Z</time>
      </trkpt>
      <trkpt lat="43.62989" lon="7.06318">
        <ele>76.924644470215</ele>
        <time>2016-05-14T08:42:52.000Z</time>
      </trkpt>
      <trkpt lat="43.62986" lon="7.06321">
        <ele>76.934226989746</ele>
        <time>2016-05-14T08:42:54.000Z</time>
      </trkpt>
      <trkpt lat="43.62985" lon="7.06322">
        <ele>76.949661254883</ele>
        <time>2016-05-14T08:42:57.000Z</time>
      </trkpt>
      <trkpt lat="43.62982" lon="7.06324">
        <ele>76.979263305664</ele>
        <time>2016-05-14T08:43:00.000Z</time>
      </trkpt>
      <trkpt lat="43.6298" lon="7.06325">
        <ele>77.030128479004</ele>
        <time>2016-05-14T08:43:02.000Z</time>
      </trkpt>
      <trkpt lat="43.62978" lon="7.06329">
        <ele>76.962783813477</ele>
        <time>2016-05-14T08:43:05.000Z</time>
      </trkpt>
      <trkpt lat="43.62976" lon="7.06334">
        <ele>76.78099822998</ele>
        <time>2016-05-14T08:43:08.000Z</time>
      </trkpt>
      <trkpt lat="43.62975" lon="7.06336">
        <ele>76.631248474121</ele>
        <time>2016-05-14T08:43:10.000Z</time>
      </trkpt>
      <trkpt lat="43.62973" lon="7.06338">
        <ele>76.526390075684</ele>
        <time>2016-05-14T08:43:13.000Z</time>
      </trkpt>
      <trkpt lat="43.6297" lon="7.06339">
        <ele>76.449867248535</ele>
        <time>2016-05-14T08:43:15.000Z</time>
      </trkpt>
      <trkpt lat="43.62967" lon="7.0634">
        <ele>76.534561157227</ele>
        <time>2016-05-14T08:43:18.000Z</time>
      </trkpt>
      <trkpt lat="43.62965" lon="7.06344">
        <ele>76.753112792969</ele>
        <time>2016-05-14T08:43:21.000Z</time>
      </trkpt>
      <trkpt lat="43.62963" lon="7.06346">
        <ele>76.98070526123</ele>
        <time>2016-05-14T08:43:24.000Z</time>
      </trkpt>
      <trkpt lat="43.62961" lon="7.06348">
        <ele>77.173049926758</ele>
        <time>2016-05-14T08:43:27.000Z</time>
      </trkpt>
      <trkpt lat="43.6296" lon="7.06349">
        <ele>77.29810333252</ele>
        <time>2016-05-14T08:43:30.000Z</time>
      </trkpt>
      <trkpt lat="43.6296" lon="7.06351">
        <ele>77.354347229004</ele>
        <time>2016-05-14T08:43:33.000Z</time>
      </trkpt>
      <trkpt lat="43.62959" lon="7.06352">
        <ele>77.38890838623</ele>
        <time>2016-05-14T08:43:35.000Z</time>
      </trkpt>
      <trkpt lat="43.62957" lon="7.06353">
        <ele>77.438781738281</ele>
        <time>2016-05-14T08:43:38.000Z</time>
      </trkpt>
      <trkpt lat="43.62955" lon="7.06354">
        <ele>77.493019104004</ele>
        <time>2016-05-14T08:43:40.000Z</time>
      </trkpt>
      <trkpt lat="43.62955" lon="7.06356">
        <ele>77.52872467041</ele>
        <time>2016-05-14T08:43:43.000Z</time>
      </trkpt>
      <trkpt lat="43.62955" lon="7.06357">
        <ele>77.561164855957</ele>
        <time>2016-05-14T08:43:46.000Z</time>
      </trkpt>
      <trkpt lat="43.62953" lon="7.06358">
        <ele>77.594543457031</ele>
        <time>2016-05-14T08:43:48.000Z</time>
      </trkpt>
      <trkpt lat="43.62952" lon="7.0636">
        <ele>77.590805053711</ele>
        <time>2016-05-14T08:43:51.000Z</time>
      </trkpt>
      <trkpt lat="43.6295" lon="7.06362">
        <ele>77.575485229492</ele>
        <time>2016-05-14T08:43:54.000Z</time>
      </trkpt>
      <trkpt lat="43.62947" lon="7.06364">
        <ele>77.583625793457</ele>
        <time>2016-05-14T08:43:56.000Z</time>
      </trkpt>
      <trkpt lat="43.62946" lon="7.06365">
        <ele>77.615036010742</ele>
        <time>2016-05-14T08:43:58.000Z</time>
      </trkpt>
      <trkpt lat="43.62945" lon="7.06365">
        <ele>77.647575378418</ele>
        <time>2016-05-14T08:44:02.000Z</time>
      </trkpt>
      <trkpt lat="43.62944" lon="7.06367">
        <ele>77.664817810059</ele>
        <time>2016-05-14T08:44:05.000Z</time>
      </trkpt>
      <trkpt lat="43.62943" lon="7.06369">
        <ele>77.662155151367</ele>
        <time>2016-05-14T08:44:07.000Z</time>
      </trkpt>
      <trkpt lat="43.62943" lon="7.06369">
        <ele>77.649215698242</ele>
        <time>2016-05-14T08:44:09.000Z</time>
      </trkpt>
      <trkpt lat="43.62941" lon="7.0637">
        <ele>77.622566223145</ele>
        <time>2016-05-14T08:44:11.000Z</time>
      </trkpt>
      <trkpt lat="43.62938" lon="7.06372">
        <ele>77.610275268555</ele>
        <time>2016-05-14T08:44:14.000Z</time>
      </trkpt>
      <trkpt lat="43.62935" lon="7.06372">
        <ele>77.634376525879</ele>
        <time>2016-05-14T08:44:16.000Z</time>
      </trkpt>
      <trkpt lat="43.62933" lon="7.06374">
        <ele>77.657211303711</ele>
        <time>2016-05-14T08:44:19.000Z</time>
      </trkpt>
      <trkpt lat="43.62932" lon="7.06376">
        <ele>77.65682220459</ele>
        <time>2016-05-14T08:44:21.000Z</time>
      </trkpt>
      <trkpt lat="43.62929" lon="7.06381">
        <ele>77.587005615234</ele>
        <time>2016-05-14T08:44:33.000Z</time>
      </trkpt>
      <trkpt lat="43.62927" lon="7.06384">
        <ele>77.442497253418</ele>
        <time>2016-05-14T08:44:41.000Z</time>
      </trkpt>
      <trkpt lat="43.62923" lon="7.06388">
        <ele>77.212295532227</ele>
        <time>2016-05-14T08:44:43.000Z</time>
      </trkpt>
      <trkpt lat="43.6292" lon="7.06391">
        <ele>76.932319641113</ele>
        <time>2016-05-14T08:44:45.000Z</time>
      </trkpt>
      <trkpt lat="43.62918" lon="7.06393">
        <ele>76.632186889648</ele>
        <time>2016-05-14T08:44:47.000Z</time>
      </trkpt>
      <trkpt lat="43.62917" lon="7.06396">
        <ele>76.349571228027</ele>
        <time>2016-05-14T08:44:49.000Z</time>
      </trkpt>
      <trkpt lat="43.62915" lon="7.06399">
        <ele>76.130683898926</ele>
        <time>2016-05-14T08:44:52.000Z</time>
      </trkpt>
      <trkpt lat="43.62913" lon="7.06401">
        <ele>76.003509521484</ele>
        <time>2016-05-14T08:44:54.000Z</time>
      </trkpt>
      <trkpt lat="43.62911" lon="7.06403">
        <ele>75.999221801758</ele>
        <time>2016-05-14T08:44:56.000Z</time>
      </trkpt>
      <trkpt lat="43.62906" lon="7.06402">
        <ele>76.303443908691</ele>
        <time>2016-05-14T08:44:59.000Z</time>
      </trkpt>
      <trkpt lat="43.629" lon="7.06405">
        <ele>76.898727416992</ele>
        <time>2016-05-14T08:45:02.000Z</time>
      </trkpt>
      <trkpt lat="43.62899" lon="7.06408">
        <ele>77.409255981445</ele>
        <time>2016-05-14T08:45:05.000Z</time>
      </trkpt>
      <trkpt lat="43.62899" lon="7.0641">
        <ele>77.84351348877</ele>
        <time>2016-05-14T08:45:07.000Z</time>
      </trkpt>
      <trkpt lat="43.62896" lon="7.06411">
        <ele>78.288589477539</ele>
        <time>2016-05-14T08:45:10.000Z</time>
      </trkpt>
      <trkpt lat="43.62895" lon="7.06417">
        <ele>78.37410736084</ele>
        <time>2016-05-14T08:45:13.000Z</time>
      </trkpt>
      <trkpt lat="43.62894" lon="7.0642">
        <ele>78.226745605469</ele>
        <time>2016-05-14T08:45:15.000Z</time>
      </trkpt>
      <trkpt lat="43.62893" lon="7.06423">
        <ele>78.204368591309</ele>
        <time>2016-05-14T08:45:18.000Z</time>
      </trkpt>
      <trkpt lat="43.62891" lon="7.06425">
        <ele>78.304794311523</ele>
        <time>2016-05-14T08:45:20.000Z</time>
      </trkpt>
      <trkpt lat="43.62888" lon="7.06427">
        <ele>78.428863525391</ele>
        <time>2016-05-14T08:45:23.000Z</time>
      </trkpt>
      <trkpt lat="43.62885" lon="7.06428">
        <ele>78.737342834473</ele>
        <time>2016-05-14T08:45:26.000Z</time>
      </trkpt>
      <trkpt lat="43.62883" lon="7.06428">
        <ele>79.123321533203</ele>
        <time>2016-05-14T08:45:29.000Z</time>
      </trkpt>
      <trkpt lat="43.6288" lon="7.06429">
        <ele>79.547897338867</ele>
        <time>2016-05-14T08:45:47.000Z</time>
      </trkpt>
      <trkpt lat="43.62878" lon="7.06432">
        <ele>79.965072631836</ele>
        <time>2016-05-14T08:45:49.000Z</time>
      </trkpt>
      <trkpt lat="43.62873" lon="7.06436">
        <ele>80.355331420898</ele>
        <time>2016-05-14T08:45:52.000Z</time>
      </trkpt>
      <trkpt lat="43.62871" lon="7.06438">
        <ele>80.717765808105</ele>
        <time>2016-05-14T08:45:54.000Z</time>
      </trkpt>
      <trkpt lat="43.62868" lon="7.06441">
        <ele>81.029861450195</ele>
        <time>2016-05-14T08:45:57.000Z</time>
      </trkpt>
      <trkpt lat="43.62865" lon="7.06443">
        <ele>81.282180786133</ele>
        <time>2016-05-14T08:45:59.000Z</time>
      </trkpt>
      <trkpt lat="43.62864" lon="7.06447">
        <ele>81.419578552246</ele>
        <time>2016-05-14T08:46:02.000Z</time>
      </trkpt>
      <trkpt lat="43.62863" lon="7.06451">
        <ele>81.419906616211</ele>
        <time>2016-05-14T08:46:04.000Z</time>
      </trkpt>
      <trkpt lat="43.6286" lon="7.06456">
        <ele>81.296981811523</ele>
        <time>2016-05-14T08:46:07.000Z</time>
      </trkpt>
      <trkpt lat="43.62858" lon="7.06458">
        <ele>81.131118774414</ele>
        <time>2016-05-14T08:46:09.000Z</time>
      </trkpt>
      <trkpt lat="43.62855" lon="7.06461">
        <ele>80.903312683105</ele>
        <time>2016-05-14T08:46:11.000Z</time>
      </trkpt>
      <trkpt lat="43.62852" lon="7.06464">
        <ele>80.689697265625</ele>
        <time>2016-05-14T08:46:14.000Z</time>
      </trkpt>
      <trkpt lat="43.62851" lon="7.06468">
        <ele>80.440307617188</ele>
        <time>2016-05-14T08:46:17.000Z</time>
      </trkpt>
      <trkpt lat="43.62849" lon="7.0647">
        <ele>80.202575683594</ele>
        <time>2016-05-14T08:46:19.000Z</time>
      </trkpt>
      <trkpt lat="43.62848" lon="7.06472">
        <ele>79.925666809082</ele>
        <time>2016-05-14T08:46:21.000Z</time>
      </trkpt>
      <trkpt lat="43.62846" lon="7.06474">
        <ele>79.613845825195</ele>
        <time>2016-05-14T08:46:24.000Z</time>
      </trkpt>
      <trkpt lat="43.62844" lon="7.06477">
        <ele>79.243026733398</ele>
        <time>2016-05-14T08:46:27.000Z</time>
      </trkpt>
      <trkpt lat="43.62842" lon="7.06478">
        <ele>78.948204040527</ele>
        <time>2016-05-14T08:46:29.000Z</time>
      </trkpt>
      <trkpt lat="43.6284" lon="7.06479">
        <ele>78.705200195312</ele>
        <time>2016-05-14T08:46:32.000Z</time>
      </trkpt>
      <trkpt lat="43.6284" lon="7.06481">
        <ele>78.416564941406</ele>
        <time>2016-05-14T08:46:35.000Z</time>
      </trkpt>
      <trkpt lat="43.6284" lon="7.06483">
        <ele>78.145156860352</ele>
        <time>2016-05-14T08:46:38.000Z</time>
      </trkpt>
      <trkpt lat="43.6284" lon="7.06483">
        <ele>78.145156860352</ele>
        <time>2016-05-14T08:46:58.000Z</time>
      </trkpt>
      <trkpt lat="43.62836" lon="7.06486">
        <ele>77.836135864258</ele>
        <time>2016-05-14T08:47:00.000Z</time>
      </trkpt>
      <trkpt lat="43.62834" lon="7.0649">
        <ele>77.395034790039</ele>
        <time>2016-05-14T08:47:02.000Z</time>
      </trkpt>
      <trkpt lat="43.62829" lon="7.06495">
        <ele>76.86351776123</ele>
        <time>2016-05-14T08:47:05.000Z</time>
      </trkpt>
      <trkpt lat="43.62826" lon="7.06498">
        <ele>76.338912963867</ele>
        <time>2016-05-14T08:47:08.000Z</time>
      </trkpt>
      <trkpt lat="43.62823" lon="7.065">
        <ele>75.849006652832</ele>
        <time>2016-05-14T08:47:10.000Z</time>
      </trkpt>
      <trkpt lat="43.6282" lon="7.06505">
        <ele>75.540985107422</ele>
        <time>2016-05-14T08:47:13.000Z</time>
      </trkpt>
      <trkpt lat="43.62818" lon="7.0651">
        <ele>75.421951293945</ele>
        <time>2016-05-14T08:47:16.000Z</time>
      </trkpt>
      <trkpt lat="43.62818" lon="7.06512">
        <ele>75.398384094238</ele>
        <time>2016-05-14T08:47:18.000Z</time>
      </trkpt>
      <trkpt lat="43.62818" lon="7.06513">
        <ele>75.457038879395</ele>
        <time>2016-05-14T08:47:20.000Z</time>
      </trkpt>
      <trkpt lat="43.62815" lon="7.06517">
        <ele>75.554977416992</ele>
        <time>2016-05-14T08:47:23.000Z</time>
      </trkpt>
      <trkpt lat="43.62814" lon="7.06519">
        <ele>75.613609313965</ele>
        <time>2016-05-14T08:47:25.000Z</time>
      </trkpt>
      <trkpt lat="43.62811" lon="7.06524">
        <ele>75.668083190918</ele>
        <time>2016-05-14T08:47:28.000Z</time>
      </trkpt>
      <trkpt lat="43.6281" lon="7.06529">
        <ele>75.705055236816</ele>
        <time>2016-05-14T08:47:31.000Z</time>
      </trkpt>
      <trkpt lat="43.62809" lon="7.06531">
        <ele>75.741722106934</ele>
        <time>2016-05-14T08:47:33.000Z</time>
      </trkpt>
      <trkpt lat="43.62808" lon="7.06534">
        <ele>75.745155334473</ele>
        <time>2016-05-14T08:47:35.000Z</time>
      </trkpt>
      <trkpt lat="43.62805" lon="7.06538">
        <ele>75.741119384766</ele>
        <time>2016-05-14T08:47:38.000Z</time>
      </trkpt>
      <trkpt lat="43.62804" lon="7.06539">
        <ele>75.708503723145</ele>
        <time>2016-05-14T08:47:40.000Z</time>
      </trkpt>
      <trkpt lat="43.62804" lon="7.06541">
        <ele>75.683937072754</ele>
        <time>2016-05-14T08:47:43.000Z</time>
      </trkpt>
      <trkpt lat="43.62804" lon="7.06542">
        <ele>75.654472351074</ele>
        <time>2016-05-14T08:47:46.000Z</time>
      </trkpt>
      <trkpt lat="43.62803" lon="7.06544">
        <ele>75.622703552246</ele>
        <time>2016-05-14T08:47:49.000Z</time>
      </trkpt>
      <trkpt lat="43.62802" lon="7.06545">
        <ele>75.58757019043</ele>
        <time>2016-05-14T08:47:51.000Z</time>
      </trkpt>
      <trkpt lat="43.62801" lon="7.06546">
        <ele>75.554740905762</ele>
        <time>2016-05-14T08:47:54.000Z</time>
      </trkpt>
      <trkpt lat="43.62801" lon="7.06551">
        <ele>75.482162475586</ele>
        <time>2016-05-14T08:48:00.000Z</time>
      </trkpt>
      <trkpt lat="43.62799" lon="7.06554">
        <ele>75.405616760254</ele>
        <time>2016-05-14T08:48:02.000Z</time>
      </trkpt>
      <trkpt lat="43.62797" lon="7.06555">
        <ele>75.342422485352</ele>
        <time>2016-05-14T08:48:05.000Z</time>
      </trkpt>
      <trkpt lat="43.62796" lon="7.06558">
        <ele>75.253486633301</ele>
        <time>2016-05-14T08:48:07.000Z</time>
      </trkpt>
      <trkpt lat="43.62794" lon="7.06562">
        <ele>75.11808013916</ele>
        <time>2016-05-14T08:48:10.000Z</time>
      </trkpt>
      <trkpt lat="43.62793" lon="7.06565">
        <ele>75.003036499023</ele>
        <time>2016-05-14T08:48:12.000Z</time>
      </trkpt>
      <trkpt lat="43.62792" lon="7.06567">
        <ele>74.879959106445</ele>
        <time>2016-05-14T08:48:14.000Z</time>
      </trkpt>
      <trkpt lat="43.62791" lon="7.06571">
        <ele>74.707374572754</ele>
        <time>2016-05-14T08:48:17.000Z</time>
      </trkpt>
      <trkpt lat="43.6279" lon="7.06573">
        <ele>74.53401184082</ele>
        <time>2016-05-14T08:48:20.000Z</time>
      </trkpt>
      <trkpt lat="43.62789" lon="7.06574">
        <ele>74.396362304688</ele>
        <time>2016-05-14T08:48:22.000Z</time>
      </trkpt>
      <trkpt lat="43.62786" lon="7.06575">
        <ele>74.268898010254</ele>
        <time>2016-05-14T08:48:25.000Z</time>
      </trkpt>
      <trkpt lat="43.62785" lon="7.06578">
        <ele>74.123329162598</ele>
        <time>2016-05-14T08:48:27.000Z</time>
      </trkpt>
      <trkpt lat="43.62783" lon="7.06581">
        <ele>73.971893310547</ele>
        <time>2016-05-14T08:48:30.000Z</time>
      </trkpt>
      <trkpt lat="43.62782" lon="7.06583">
        <ele>73.809394836426</ele>
        <time>2016-05-14T08:48:32.000Z</time>
      </trkpt>
      <trkpt lat="43.6278" lon="7.06588">
        <ele>73.767189025879</ele>
        <time>2016-05-14T08:48:35.000Z</time>
      </trkpt>
      <trkpt lat="43.62778" lon="7.06591">
        <ele>73.820655822754</ele>
        <time>2016-05-14T08:48:37.000Z</time>
      </trkpt>
      <trkpt lat="43.62774" lon="7.06596">
        <ele>74.01725769043</ele>
        <time>2016-05-14T08:48:40.000Z</time>
      </trkpt>
      <trkpt lat="43.62772" lon="7.06599">
        <ele>74.30729675293</ele>
        <time>2016-05-14T08:48:42.000Z</time>
      </trkpt>
      <trkpt lat="43.62771" lon="7.06602">
        <ele>74.697341918945</ele>
        <time>2016-05-14T08:48:45.000Z</time>
      </trkpt>
      <trkpt lat="43.62769" lon="7.06602">
        <ele>74.958450317383</ele>
        <time>2016-05-14T08:48:48.000Z</time>
      </trkpt>
      <trkpt lat="43.62767" lon="7.066">
        <ele>75.079200744629</ele>
        <time>2016-05-14T08:48:51.000Z</time>
      </trkpt>
      <trkpt lat="43.62765" lon="7.06599">
        <ele>75.066047668457</ele>
        <time>2016-05-14T08:48:53.000Z</time>
      </trkpt>
      <trkpt lat="43.62764" lon="7.06599">
        <ele>75.00904083252</ele>
        <time>2016-05-14T08:48:55.000Z</time>
      </trkpt>
      <trkpt lat="43.62761" lon="7.06598">
        <ele>74.823387145996</ele>
        <time>2016-05-14T08:48:58.000Z</time>
      </trkpt>
      <trkpt lat="43.62757" lon="7.06595">
        <ele>74.594566345215</ele>
        <time>2016-05-14T08:49:00.000Z</time>
      </trkpt>
      <trkpt lat="43.62755" lon="7.06595">
        <ele>74.401763916016</ele>
        <time>2016-05-14T08:49:03.000Z</time>
      </trkpt>
      <trkpt lat="43.62754" lon="7.06594">
        <ele>74.219444274902</ele>
        <time>2016-05-14T08:49:06.000Z</time>
      </trkpt>
      <trkpt lat="43.62752" lon="7.06591">
        <ele>73.99063873291</ele>
        <time>2016-05-14T08:49:09.000Z</time>
      </trkpt>
      <trkpt lat="43.62751" lon="7.06589">
        <ele>73.794387817383</ele>
        <time>2016-05-14T08:49:12.000Z</time>
      </trkpt>
      <trkpt lat="43.62749" lon="7.06586">
        <ele>73.596908569336</ele>
        <time>2016-05-14T08:49:15.000Z</time>
      </trkpt>
      <trkpt lat="43.62748" lon="7.06585">
        <ele>73.383224487305</ele>
        <time>2016-05-14T08:49:17.000Z</time>
      </trkpt>
      <trkpt lat="43.62746" lon="7.06583">
        <ele>73.153121948242</ele>
        <time>2016-05-14T08:49:20.000Z</time>
      </trkpt>
      <trkpt lat="43.62744" lon="7.06583">
        <ele>72.962577819824</ele>
        <time>2016-05-14T08:49:22.000Z</time>
      </trkpt>
      <trkpt lat="43.62742" lon="7.06581">
        <ele>72.816482543945</ele>
        <time>2016-05-14T08:49:24.000Z</time>
      </trkpt>
      <trkpt lat="43.6274" lon="7.0658">
        <ele>72.739295959473</ele>
        <time>2016-05-14T08:49:27.000Z</time>
      </trkpt>
      <trkpt lat="43.62738" lon="7.06577">
        <ele>72.753860473633</ele>
        <time>2016-05-14T08:49:30.000Z</time>
      </trkpt>
      <trkpt lat="43.62736" lon="7.06577">
        <ele>72.786056518555</ele>
        <time>2016-05-14T08:49:32.000Z</time>
      </trkpt>
      <trkpt lat="43.62732" lon="7.06577">
        <ele>72.75764465332</ele>
        <time>2016-05-14T08:49:35.000Z</time>
      </trkpt>
      <trkpt lat="43.6273" lon="7.06575">
        <ele>72.740234375</ele>
        <time>2016-05-14T08:49:37.000Z</time>
      </trkpt>
      <trkpt lat="43.62726" lon="7.06573">
        <ele>72.721313476562</ele>
        <time>2016-05-14T08:49:39.000Z</time>
      </trkpt>
      <trkpt lat="43.62723" lon="7.06572">
        <ele>72.666488647461</ele>
        <time>2016-05-14T08:49:42.000Z</time>
      </trkpt>
      <trkpt lat="43.62721" lon="7.0657">
        <ele>72.645141601562</ele>
        <time>2016-05-14T08:49:44.000Z</time>
      </trkpt>
      <trkpt lat="43.62719" lon="7.0657">
        <ele>72.660140991211</ele>
        <time>2016-05-14T08:49:46.000Z</time>
      </trkpt>
      <trkpt lat="43.62714" lon="7.06571">
        <ele>72.587715148926</ele>
        <time>2016-05-14T08:49:49.000Z</time>
      </trkpt>
      <trkpt lat="43.62713" lon="7.06571">
        <ele>72.486038208008</ele>
        <time>2016-05-14T08:49:51.000Z</time>
      </trkpt>
      <trkpt lat="43.62712" lon="7.06571">
        <ele>72.355903625488</ele>
        <time>2016-05-14T08:49:53.000Z</time>
      </trkpt>
      <trkpt lat="43.62711" lon="7.06572">
        <ele>72.164642333984</ele>
        <time>2016-05-14T08:49:56.000Z</time>
      </trkpt>
      <trkpt lat="43.62708" lon="7.06574">
        <ele>71.903030395508</ele>
        <time>2016-05-14T08:49:59.000Z</time>
      </trkpt>
      <trkpt lat="43.62706" lon="7.06573">
        <ele>71.724189758301</ele>
        <time>2016-05-14T08:50:01.000Z</time>
      </trkpt>
      <trkpt lat="43.62705" lon="7.06573">
        <ele>71.562461853027</ele>
        <time>2016-05-14T08:50:03.000Z</time>
      </trkpt>
      <trkpt lat="43.62703" lon="7.06572">
        <ele>71.393852233887</ele>
        <time>2016-05-14T08:50:06.000Z</time>
      </trkpt>
      <trkpt lat="43.62702" lon="7.06573">
        <ele>71.257102966309</ele>
        <time>2016-05-14T08:50:08.000Z</time>
      </trkpt>
      <trkpt lat="43.62702" lon="7.06573">
        <ele>71.257102966309</ele>
        <time>2016-05-14T08:50:28.000Z</time>
      </trkpt>
      <trkpt lat="43.62696" lon="7.06572">
        <ele>71.167976379395</ele>
        <time>2016-05-14T08:50:29.000Z</time>
      </trkpt>
      <trkpt lat="43.62692" lon="7.06572">
        <ele>70.989624023438</ele>
        <time>2016-05-14T08:50:32.000Z</time>
      </trkpt>
      <trkpt lat="43.62689" lon="7.06572">
        <ele>70.778503417969</ele>
        <time>2016-05-14T08:50:35.000Z</time>
      </trkpt>
      <trkpt lat="43.62687" lon="7.06572">
        <ele>70.565574645996</ele>
        <time>2016-05-14T08:50:37.000Z</time>
      </trkpt>
      <trkpt lat="43.62683" lon="7.06571">
        <ele>70.348098754883</ele>
        <time>2016-05-14T08:50:40.000Z</time>
      </trkpt>
      <trkpt lat="43.62681" lon="7.06571">
        <ele>70.177322387695</ele>
        <time>2016-05-14T08:50:42.000Z</time>
      </trkpt>
      <trkpt lat="43.62679" lon="7.06571">
        <ele>70.035339355469</ele>
        <time>2016-05-14T08:50:44.000Z</time>
      </trkpt>
      <trkpt lat="43.62676" lon="7.0657">
        <ele>69.908187866211</ele>
        <time>2016-05-14T08:50:46.000Z</time>
      </trkpt>
      <trkpt lat="43.62673" lon="7.0657">
        <ele>69.786445617676</ele>
        <time>2016-05-14T08:50:49.000Z</time>
      </trkpt>
      <trkpt lat="43.62669" lon="7.06569">
        <ele>69.654586791992</ele>
        <time>2016-05-14T08:50:52.000Z</time>
      </trkpt>
      <trkpt lat="43.62667" lon="7.0657">
        <ele>69.47745513916</ele>
        <time>2016-05-14T08:50:54.000Z</time>
      </trkpt>
      <trkpt lat="43.62665" lon="7.06571">
        <ele>69.358169555664</ele>
        <time>2016-05-14T08:50:56.000Z</time>
      </trkpt>
      <trkpt lat="43.62662" lon="7.06573">
        <ele>69.300575256348</ele>
        <time>2016-05-14T08:50:59.000Z</time>
      </trkpt>
      <trkpt lat="43.62658" lon="7.06573">
        <ele>69.378150939941</ele>
        <time>2016-05-14T08:51:02.000Z</time>
      </trkpt>
      <trkpt lat="43.62654" lon="7.06574">
        <ele>69.584571838379</ele>
        <time>2016-05-14T08:51:05.000Z</time>
      </trkpt>
      <trkpt lat="43.6265" lon="7.06576">
        <ele>69.926452636719</ele>
        <time>2016-05-14T08:51:07.000Z</time>
      </trkpt>
      <trkpt lat="43.62648" lon="7.06576">
        <ele>70.315979003906</ele>
        <time>2016-05-14T08:51:09.000Z</time>
      </trkpt>
      <trkpt lat="43.62645" lon="7.06574">
        <ele>70.81893157959</ele>
        <time>2016-05-14T08:51:12.000Z</time>
      </trkpt>
      <trkpt lat="43.62644" lon="7.06574">
        <ele>71.236572265625</ele>
        <time>2016-05-14T08:51:14.000Z</time>
      </trkpt>
      <trkpt lat="43.6264" lon="7.06571">
        <ele>71.718238830566</ele>
        <time>2016-05-14T08:51:17.000Z</time>
      </trkpt>
      <trkpt lat="43.62637" lon="7.06571">
        <ele>72.188690185547</ele>
        <time>2016-05-14T08:51:20.000Z</time>
      </trkpt>
      <trkpt lat="43.62635" lon="7.0657">
        <ele>72.670249938965</ele>
        <time>2016-05-14T08:51:22.000Z</time>
      </trkpt>
      <trkpt lat="43.62633" lon="7.06569">
        <ele>73.091552734375</ele>
        <time>2016-05-14T08:51:25.000Z</time>
      </trkpt>
      <trkpt lat="43.62631" lon="7.06567">
        <ele>73.543960571289</ele>
        <time>2016-05-14T08:51:28.000Z</time>
      </trkpt>
      <trkpt lat="43.6263" lon="7.06565">
        <ele>73.883987426758</ele>
        <time>2016-05-14T08:51:33.000Z</time>
      </trkpt>
      <trkpt lat="43.62629" lon="7.06564">
        <ele>74.18684387207</ele>
        <time>2016-05-14T08:51:35.000Z</time>
      </trkpt>
      <trkpt lat="43.62629" lon="7.06562">
        <ele>74.436210632324</ele>
        <time>2016-05-14T08:51:37.000Z</time>
      </trkpt>
      <trkpt lat="43.6263" lon="7.06559">
        <ele>74.61190032959</ele>
        <time>2016-05-14T08:51:40.000Z</time>
      </trkpt>
      <trkpt lat="43.62632" lon="7.06558">
        <ele>74.705276489258</ele>
        <time>2016-05-14T08:51:42.000Z</time>
      </trkpt>
      <trkpt lat="43.62632" lon="7.06557">
        <ele>74.748046875</ele>
        <time>2016-05-14T08:51:45.000Z</time>
      </trkpt>
      <trkpt lat="43.62629" lon="7.06561">
        <ele>74.783653259277</ele>
        <time>2016-05-14T08:51:54.000Z</time>
      </trkpt>
      <trkpt lat="43.62628" lon="7.06559">
        <ele>74.832939147949</ele>
        <time>2016-05-14T08:52:03.000Z</time>
      </trkpt>
      <trkpt lat="43.62627" lon="7.06557">
        <ele>74.909957885742</ele>
        <time>2016-05-14T08:52:05.000Z</time>
      </trkpt>
      <trkpt lat="43.62626" lon="7.06554">
        <ele>75.053115844727</ele>
        <time>2016-05-14T08:52:08.000Z</time>
      </trkpt>
      <trkpt lat="43.62625" lon="7.06553">
        <ele>75.225402832031</ele>
        <time>2016-05-14T08:52:11.000Z</time>
      </trkpt>
      <trkpt lat="43.62622" lon="7.06554">
        <ele>75.416763305664</ele>
        <time>2016-05-14T08:52:13.000Z</time>
      </trkpt>
      <trkpt lat="43.62621" lon="7.06554">
        <ele>75.59880065918</ele>
        <time>2016-05-14T08:52:16.000Z</time>
      </trkpt>
      <trkpt lat="43.62621" lon="7.06554">
        <ele>75.59880065918</ele>
        <time>2016-05-14T08:52:36.000Z</time>
      </trkpt>
      <trkpt lat="43.62616" lon="7.06553">
        <ele>75.831977844238</ele>
        <time>2016-05-14T08:52:41.000Z</time>
      </trkpt>
      <trkpt lat="43.62615" lon="7.06553">
        <ele>76.049057006836</ele>
        <time>2016-05-14T08:52:48.000Z</time>
      </trkpt>
      <trkpt lat="43.62616" lon="7.06552">
        <ele>76.213439941406</ele>
        <time>2016-05-14T08:53:01.000Z</time>
      </trkpt>
      <trkpt lat="43.62616" lon="7.06554">
        <ele>76.3291015625</ele>
        <time>2016-05-14T08:53:08.000Z</time>
      </trkpt>
      <trkpt lat="43.62617" lon="7.06556">
        <ele>76.398109436035</ele>
        <time>2016-05-14T08:53:11.000Z</time>
      </trkpt>
      <trkpt lat="43.62617" lon="7.06559">
        <ele>76.356880187988</ele>
        <time>2016-05-14T08:53:14.000Z</time>
      </trkpt>
      <trkpt lat="43.62618" lon="7.06564">
        <ele>76.26049041748</ele>
        <time>2016-05-14T08:53:17.000Z</time>
      </trkpt>
      <trkpt lat="43.62619" lon="7.06569">
        <ele>76.156005859375</ele>
        <time>2016-05-14T08:53:20.000Z</time>
      </trkpt>
      <trkpt lat="43.62619" lon="7.06571">
        <ele>76.036193847656</ele>
        <time>2016-05-14T08:53:22.000Z</time>
      </trkpt>
      <trkpt lat="43.62621" lon="7.06574">
        <ele>75.877975463867</ele>
        <time>2016-05-14T08:53:25.000Z</time>
      </trkpt>
      <trkpt lat="43.62621" lon="7.06575">
        <ele>75.717765808105</ele>
        <time>2016-05-14T08:53:28.000Z</time>
      </trkpt>
      <trkpt lat="43.62622" lon="7.06577">
        <ele>75.535957336426</ele>
        <time>2016-05-14T08:53:31.000Z</time>
      </trkpt>
      <trkpt lat="43.62623" lon="7.06578">
        <ele>75.351097106934</ele>
        <time>2016-05-14T08:53:33.000Z</time>
      </trkpt>
      <trkpt lat="43.62623" lon="7.0658">
        <ele>75.192092895508</ele>
        <time>2016-05-14T08:53:35.000Z</time>
      </trkpt>
      <trkpt lat="43.62626" lon="7.06584">
        <ele>74.970306396484</ele>
        <time>2016-05-14T08:53:38.000Z</time>
      </trkpt>
      <trkpt lat="43.62626" lon="7.06586">
        <ele>74.755867004395</ele>
        <time>2016-05-14T08:53:40.000Z</time>
      </trkpt>
      <trkpt lat="43.62626" lon="7.06588">
        <ele>74.61962890625</ele>
        <time>2016-05-14T08:53:43.000Z</time>
      </trkpt>
      <trkpt lat="43.62626" lon="7.0659">
        <ele>74.494491577148</ele>
        <time>2016-05-14T08:53:45.000Z</time>
      </trkpt>
      <trkpt lat="43.62626" lon="7.06594">
        <ele>74.368125915527</ele>
        <time>2016-05-14T08:53:48.000Z</time>
      </trkpt>
      <trkpt lat="43.62624" lon="7.06598">
        <ele>74.444328308105</ele>
        <time>2016-05-14T08:53:51.000Z</time>
      </trkpt>
      <trkpt lat="43.62623" lon="7.06604">
        <ele>74.569198608398</ele>
        <time>2016-05-14T08:53:54.000Z</time>
      </trkpt>
      <trkpt lat="43.62626" lon="7.06608">
        <ele>74.593421936035</ele>
        <time>2016-05-14T08:53:57.000Z</time>
      </trkpt>
      <trkpt lat="43.62627" lon="7.06612">
        <ele>74.589622497559</ele>
        <time>2016-05-14T08:54:00.000Z</time>
      </trkpt>
      <trkpt lat="43.62627" lon="7.06615">
        <ele>74.569313049316</ele>
        <time>2016-05-14T08:54:02.000Z</time>
      </trkpt>
      <trkpt lat="43.6263" lon="7.06619">
        <ele>74.368698120117</ele>
        <time>2016-05-14T08:54:05.000Z</time>
      </trkpt>
      <trkpt lat="43.62632" lon="7.06622">
        <ele>74.059501647949</ele>
        <time>2016-05-14T08:54:07.000Z</time>
      </trkpt>
      <trkpt lat="43.62633" lon="7.06625">
        <ele>73.807029724121</ele>
        <time>2016-05-14T08:54:09.000Z</time>
      </trkpt>
      <trkpt lat="43.62634" lon="7.06629">
        <ele>73.582901000977</ele>
        <time>2016-05-14T08:54:12.000Z</time>
      </trkpt>
      <trkpt lat="43.62637" lon="7.06633">
        <ele>73.237083435059</ele>
        <time>2016-05-14T08:54:15.000Z</time>
      </trkpt>
      <trkpt lat="43.62638" lon="7.06634">
        <ele>72.963676452637</ele>
        <time>2016-05-14T08:54:17.000Z</time>
      </trkpt>
      <trkpt lat="43.62635" lon="7.06639">
        <ele>72.873313903809</ele>
        <time>2016-05-14T08:54:20.000Z</time>
      </trkpt>
      <trkpt lat="43.62634" lon="7.06642">
        <ele>72.84447479248</ele>
        <time>2016-05-14T08:54:22.000Z</time>
      </trkpt>
      <trkpt lat="43.62634" lon="7.06646">
        <ele>72.829917907715</ele>
        <time>2016-05-14T08:54:24.000Z</time>
      </trkpt>
      <trkpt lat="43.62635" lon="7.0665">
        <ele>72.921546936035</ele>
        <time>2016-05-14T08:54:27.000Z</time>
      </trkpt>
      <trkpt lat="43.62638" lon="7.06653">
        <ele>72.936744689941</ele>
        <time>2016-05-14T08:54:30.000Z</time>
      </trkpt>
      <trkpt lat="43.62639" lon="7.06656">
        <ele>72.812438964844</ele>
        <time>2016-05-14T08:54:32.000Z</time>
      </trkpt>
      <trkpt lat="43.62638" lon="7.0666">
        <ele>72.673789978027</ele>
        <time>2016-05-14T08:54:35.000Z</time>
      </trkpt>
      <trkpt lat="43.62638" lon="7.06664">
        <ele>72.565780639648</ele>
        <time>2016-05-14T08:54:37.000Z</time>
      </trkpt>
      <trkpt lat="43.62637" lon="7.06665">
        <ele>72.486282348633</ele>
        <time>2016-05-14T08:54:40.000Z</time>
      </trkpt>
      <trkpt lat="43.62637" lon="7.06668">
        <ele>72.539573669434</ele>
        <time>2016-05-14T08:54:43.000Z</time>
      </trkpt>
      <trkpt lat="43.62636" lon="7.06669">
        <ele>72.642944335938</ele>
        <time>2016-05-14T08:54:46.000Z</time>
      </trkpt>
      <trkpt lat="43.62635" lon="7.06671">
        <ele>72.744857788086</ele>
        <time>2016-05-14T08:54:48.000Z</time>
      </trkpt>
      <trkpt lat="43.62634" lon="7.06673">
        <ele>72.830238342285</ele>
        <time>2016-05-14T08:54:50.000Z</time>
      </trkpt>
      <trkpt lat="43.62635" lon="7.06678">
        <ele>72.857666015625</ele>
        <time>2016-05-14T08:54:53.000Z</time>
      </trkpt>
      <trkpt lat="43.62635" lon="7.06682">
        <ele>72.845458984375</ele>
        <time>2016-05-14T08:54:56.000Z</time>
      </trkpt>
      <trkpt lat="43.62634" lon="7.06686">
        <ele>72.812118530273</ele>
        <time>2016-05-14T08:54:59.000Z</time>
      </trkpt>
      <trkpt lat="43.62634" lon="7.06689">
        <ele>72.716209411621</ele>
        <time>2016-05-14T08:55:01.000Z</time>
      </trkpt>
      <trkpt lat="43.62635" lon="7.06694">
        <ele>72.574928283691</ele>
        <time>2016-05-14T08:55:04.000Z</time>
      </trkpt>
      <trkpt lat="43.62635" lon="7.06696">
        <ele>72.472595214844</ele>
        <time>2016-05-14T08:55:06.000Z</time>
      </trkpt>
      <trkpt lat="43.62634" lon="7.06701">
        <ele>72.373924255371</ele>
        <time>2016-05-14T08:55:09.000Z</time>
      </trkpt>
      <trkpt lat="43.62634" lon="7.06704">
        <ele>72.26936340332</ele>
        <time>2016-05-14T08:55:11.000Z</time>
      </trkpt>
      <trkpt lat="43.62631" lon="7.06707">
        <ele>72.230171203613</ele>
        <time>2016-05-14T08:55:14.000Z</time>
      </trkpt>
      <trkpt lat="43.6263" lon="7.06709">
        <ele>72.238708496094</ele>
        <time>2016-05-14T08:55:16.000Z</time>
      </trkpt>
      <trkpt lat="43.62629" lon="7.06712">
        <ele>72.262672424316</ele>
        <time>2016-05-14T08:55:18.000Z</time>
      </trkpt>
      <trkpt lat="43.62627" lon="7.06715">
        <ele>72.321479797363</ele>
        <time>2016-05-14T08:55:21.000Z</time>
      </trkpt>
      <trkpt lat="43.62626" lon="7.06717">
        <ele>72.382362365723</ele>
        <time>2016-05-14T08:55:23.000Z</time>
      </trkpt>
      <trkpt lat="43.62625" lon="7.06719">
        <ele>72.405204772949</ele>
        <time>2016-05-14T08:55:25.000Z</time>
      </trkpt>
      <trkpt lat="43.62624" lon="7.06723">
        <ele>72.420608520508</ele>
        <time>2016-05-14T08:55:28.000Z</time>
      </trkpt>
      <trkpt lat="43.62624" lon="7.06726">
        <ele>72.403831481934</ele>
        <time>2016-05-14T08:55:31.000Z</time>
      </trkpt>
      <trkpt lat="43.62624" lon="7.06729">
        <ele>72.330726623535</ele>
        <time>2016-05-14T08:55:33.000Z</time>
      </trkpt>
      <trkpt lat="43.62623" lon="7.06732">
        <ele>72.243492126465</ele>
        <time>2016-05-14T08:55:36.000Z</time>
      </trkpt>
      <trkpt lat="43.62622" lon="7.06733">
        <ele>72.159690856934</ele>
        <time>2016-05-14T08:55:38.000Z</time>
      </trkpt>
      <trkpt lat="43.62621" lon="7.06737">
        <ele>72.062774658203</ele>
        <time>2016-05-14T08:55:41.000Z</time>
      </trkpt>
      <trkpt lat="43.62621" lon="7.06741">
        <ele>71.943229675293</ele>
        <time>2016-05-14T08:55:44.000Z</time>
      </trkpt>
      <trkpt lat="43.62621" lon="7.06744">
        <ele>71.83113861084</ele>
        <time>2016-05-14T08:55:46.000Z</time>
      </trkpt>
      <trkpt lat="43.62619" lon="7.06747">
        <ele>71.723205566406</ele>
        <time>2016-05-14T08:55:49.000Z</time>
      </trkpt>
      <trkpt lat="43.62617" lon="7.06748">
        <ele>71.627700805664</ele>
        <time>2016-05-14T08:55:51.000Z</time>
      </trkpt>
      <trkpt lat="43.62614" lon="7.06746">
        <ele>71.596183776855</ele>
        <time>2016-05-14T08:55:54.000Z</time>
      </trkpt>
      <trkpt lat="43.62613" lon="7.06746">
        <ele>71.634788513184</ele>
        <time>2016-05-14T08:55:56.000Z</time>
      </trkpt>
      <trkpt lat="43.62611" lon="7.06748">
        <ele>71.690353393555</ele>
        <time>2016-05-14T08:55:59.000Z</time>
      </trkpt>
      <trkpt lat="43.62609" lon="7.0675">
        <ele>71.749443054199</ele>
        <time>2016-05-14T08:56:01.000Z</time>
      </trkpt>
      <trkpt lat="43.62608" lon="7.06752">
        <ele>71.807266235352</ele>
        <time>2016-05-14T08:56:03.000Z</time>
      </trkpt>
      <trkpt lat="43.62605" lon="7.06752">
        <ele>71.843925476074</ele>
        <time>2016-05-14T08:56:06.000Z</time>
      </trkpt>
      <trkpt lat="43.62604" lon="7.06753">
        <ele>71.881820678711</ele>
        <time>2016-05-14T08:56:08.000Z</time>
      </trkpt>
      <trkpt lat="43.62602" lon="7.06754">
        <ele>71.941795349121</ele>
        <time>2016-05-14T08:56:10.000Z</time>
      </trkpt>
      <trkpt lat="43.626" lon="7.06755">
        <ele>72.023109436035</ele>
        <time>2016-05-14T08:56:12.000Z</time>
      </trkpt>
      <trkpt lat="43.62597" lon="7.06755">
        <ele>72.11701965332</ele>
        <time>2016-05-14T08:56:14.000Z</time>
      </trkpt>
      <trkpt lat="43.62592" lon="7.06754">
        <ele>72.222137451172</ele>
        <time>2016-05-14T08:56:17.000Z</time>
      </trkpt>
      <trkpt lat="43.62589" lon="7.06754">
        <ele>72.33959197998</ele>
        <time>2016-05-14T08:56:20.000Z</time>
      </trkpt>
      <trkpt lat="43.62586" lon="7.06755">
        <ele>72.447235107422</ele>
        <time>2016-05-14T08:56:23.000Z</time>
      </trkpt>
      <trkpt lat="43.62583" lon="7.06757">
        <ele>72.562339782715</ele>
        <time>2016-05-14T08:56:26.000Z</time>
      </trkpt>
      <trkpt lat="43.62581" lon="7.06758">
        <ele>72.736862182617</ele>
        <time>2016-05-14T08:56:28.000Z</time>
      </trkpt>
      <trkpt lat="43.62579" lon="7.0676">
        <ele>72.975852966309</ele>
        <time>2016-05-14T08:56:31.000Z</time>
      </trkpt>
      <trkpt lat="43.62577" lon="7.06762">
        <ele>73.311729431152</ele>
        <time>2016-05-14T08:56:34.000Z</time>
      </trkpt>
      <trkpt lat="43.62575" lon="7.06763">
        <ele>73.722015380859</ele>
        <time>2016-05-14T08:56:37.000Z</time>
      </trkpt>
      <trkpt lat="43.62574" lon="7.06765">
        <ele>74.147941589355</ele>
        <time>2016-05-14T08:56:39.000Z</time>
      </trkpt>
      <trkpt lat="43.62573" lon="7.06767">
        <ele>74.565017700195</ele>
        <time>2016-05-14T08:56:42.000Z</time>
      </trkpt>
      <trkpt lat="43.62571" lon="7.06769">
        <ele>75.00740814209</ele>
        <time>2016-05-14T08:56:44.000Z</time>
      </trkpt>
      <trkpt lat="43.62568" lon="7.06771">
        <ele>75.472457885742</ele>
        <time>2016-05-14T08:56:47.000Z</time>
      </trkpt>
      <trkpt lat="43.62566" lon="7.06775">
        <ele>75.942230224609</ele>
        <time>2016-05-14T08:56:50.000Z</time>
      </trkpt>
      <trkpt lat="43.62564" lon="7.06777">
        <ele>76.455871582031</ele>
        <time>2016-05-14T08:56:53.000Z</time>
      </trkpt>
      <trkpt lat="43.62561" lon="7.06779">
        <ele>77.05069732666</ele>
        <time>2016-05-14T08:56:56.000Z</time>
      </trkpt>
      <trkpt lat="43.62557" lon="7.0678">
        <ele>77.72575378418</ele>
        <time>2016-05-14T08:56:59.000Z</time>
      </trkpt>
      <trkpt lat="43.62554" lon="7.06781">
        <ele>78.462020874023</ele>
        <time>2016-05-14T08:57:02.000Z</time>
      </trkpt>
      <trkpt lat="43.62553" lon="7.06782">
        <ele>79.174789428711</ele>
        <time>2016-05-14T08:57:05.000Z</time>
      </trkpt>
      <trkpt lat="43.62553" lon="7.06784">
        <ele>79.774551391602</ele>
        <time>2016-05-14T08:57:08.000Z</time>
      </trkpt>
      <trkpt lat="43.62551" lon="7.06784">
        <ele>80.28394317627</ele>
        <time>2016-05-14T08:57:10.000Z</time>
      </trkpt>
      <trkpt lat="43.62548" lon="7.06784">
        <ele>80.804039001465</ele>
        <time>2016-05-14T08:57:12.000Z</time>
      </trkpt>
      <trkpt lat="43.62542" lon="7.06784">
        <ele>81.485733032227</ele>
        <time>2016-05-14T08:57:15.000Z</time>
      </trkpt>
      <trkpt lat="43.62537" lon="7.06787">
        <ele>82.349815368652</ele>
        <time>2016-05-14T08:57:18.000Z</time>
      </trkpt>
      <trkpt lat="43.62535" lon="7.06789">
        <ele>83.406143188477</ele>
        <time>2016-05-14T08:57:20.000Z</time>
      </trkpt>
      <trkpt lat="43.6253" lon="7.06792">
        <ele>84.667625427246</ele>
        <time>2016-05-14T08:57:23.000Z</time>
      </trkpt>
      <trkpt lat="43.62526" lon="7.06794">
        <ele>85.918807983398</ele>
        <time>2016-05-14T08:57:25.000Z</time>
      </trkpt>
      <trkpt lat="43.6252" lon="7.06796">
        <ele>87.130813598633</ele>
        <time>2016-05-14T08:57:27.000Z</time>
      </trkpt>
      <trkpt lat="43.62517" lon="7.06798">
        <ele>88.284034729004</ele>
        <time>2016-05-14T08:57:30.000Z</time>
      </trkpt>
      <trkpt lat="43.62518" lon="7.06799">
        <ele>89.219215393066</ele>
        <time>2016-05-14T08:57:32.000Z</time>
      </trkpt>
      <trkpt lat="43.62519" lon="7.06801">
        <ele>89.773254394531</ele>
        <time>2016-05-14T08:57:34.000Z</time>
      </trkpt>
      <trkpt lat="43.62522" lon="7.06804">
        <ele>89.98176574707</ele>
        <time>2016-05-14T08:57:36.000Z</time>
      </trkpt>
      <trkpt lat="43.62526" lon="7.06808">
        <ele>89.559181213379</ele>
        <time>2016-05-14T08:57:39.000Z</time>
      </trkpt>
      <trkpt lat="43.62527" lon="7.06811">
        <ele>88.832412719727</ele>
        <time>2016-05-14T08:57:42.000Z</time>
      </trkpt>
      <trkpt lat="43.62528" lon="7.06813">
        <ele>88.12776184082</ele>
        <time>2016-05-14T08:57:44.000Z</time>
      </trkpt>
      <trkpt lat="43.62528" lon="7.06813">
        <ele>88.12776184082</ele>
        <time>2016-05-14T08:58:04.000Z</time>
      </trkpt>
      <trkpt lat="43.62529" lon="7.06818">
        <ele>87.452903747559</ele>
        <time>2016-05-14T08:58:10.000Z</time>
      </trkpt>
      <trkpt lat="43.62531" lon="7.06821">
        <ele>86.745010375977</ele>
        <time>2016-05-14T08:58:12.000Z</time>
      </trkpt>
      <trkpt lat="43.62535" lon="7.06828">
        <ele>86.065841674805</ele>
        <time>2016-05-14T08:58:15.000Z</time>
      </trkpt>
      <trkpt lat="43.62537" lon="7.06833">
        <ele>85.367523193359</ele>
        <time>2016-05-14T08:58:18.000Z</time>
      </trkpt>
      <trkpt lat="43.62537" lon="7.06836">
        <ele>84.681869506836</ele>
        <time>2016-05-14T08:58:20.000Z</time>
      </trkpt>
      <trkpt lat="43.62538" lon="7.0684">
        <ele>84.05574798584</ele>
        <time>2016-05-14T08:58:22.000Z</time>
      </trkpt>
      <trkpt lat="43.62537" lon="7.06844">
        <ele>83.739562988281</ele>
        <time>2016-05-14T08:58:25.000Z</time>
      </trkpt>
      <trkpt lat="43.62535" lon="7.06848">
        <ele>83.80924987793</ele>
        <time>2016-05-14T08:58:27.000Z</time>
      </trkpt>
      <trkpt lat="43.62534" lon="7.06853">
        <ele>84.169410705566</ele>
        <time>2016-05-14T08:58:30.000Z</time>
      </trkpt>
      <trkpt lat="43.62534" lon="7.06856">
        <ele>84.585731506348</ele>
        <time>2016-05-14T08:58:32.000Z</time>
      </trkpt>
      <trkpt lat="43.62535" lon="7.06857">
        <ele>84.9833984375</ele>
        <time>2016-05-14T08:58:35.000Z</time>
      </trkpt>
      <trkpt lat="43.62537" lon="7.06859">
        <ele>85.069786071777</ele>
        <time>2016-05-14T08:58:37.000Z</time>
      </trkpt>
      <trkpt lat="43.6254" lon="7.06862">
        <ele>84.881080627441</ele>
        <time>2016-05-14T08:58:40.000Z</time>
      </trkpt>
      <trkpt lat="43.6254" lon="7.06867">
        <ele>84.578392028809</ele>
        <time>2016-05-14T08:58:43.000Z</time>
      </trkpt>
      <trkpt lat="43.6254" lon="7.06871">
        <ele>84.279251098633</ele>
        <time>2016-05-14T08:58:45.000Z</time>
      </trkpt>
      <trkpt lat="43.62542" lon="7.06876">
        <ele>83.950477600098</ele>
        <time>2016-05-14T08:58:48.000Z</time>
      </trkpt>
      <trkpt lat="43.62543" lon="7.06879">
        <ele>83.766067504883</ele>
        <time>2016-05-14T08:58:50.000Z</time>
      </trkpt>
      <trkpt lat="43.62544" lon="7.06884">
        <ele>83.699295043945</ele>
        <time>2016-05-14T08:58:53.000Z</time>
      </trkpt>
      <trkpt lat="43.62546" lon="7.06888">
        <ele>83.507629394531</ele>
        <time>2016-05-14T08:58:56.000Z</time>
      </trkpt>
      <trkpt lat="43.62547" lon="7.06891">
        <ele>83.189994812012</ele>
        <time>2016-05-14T08:58:59.000Z</time>
      </trkpt>
      <trkpt lat="43.6255" lon="7.06892">
        <ele>82.779899597168</ele>
        <time>2016-05-14T08:59:02.000Z</time>
      </trkpt>
      <trkpt lat="43.6255" lon="7.06896">
        <ele>82.36661529541</ele>
        <time>2016-05-14T08:59:05.000Z</time>
      </trkpt>
      <trkpt lat="43.6255" lon="7.06898">
        <ele>82.067611694336</ele>
        <time>2016-05-14T08:59:08.000Z</time>
      </trkpt>
      <trkpt lat="43.6255" lon="7.069">
        <ele>81.840759277344</ele>
        <time>2016-05-14T08:59:10.000Z</time>
      </trkpt>
      <trkpt lat="43.62551" lon="7.06904">
        <ele>81.675636291504</ele>
        <time>2016-05-14T08:59:12.000Z</time>
      </trkpt>
      <trkpt lat="43.62552" lon="7.06906">
        <ele>81.599815368652</ele>
        <time>2016-05-14T08:59:14.000Z</time>
      </trkpt>
      <trkpt lat="43.62553" lon="7.0691">
        <ele>81.521369934082</ele>
        <time>2016-05-14T08:59:17.000Z</time>
      </trkpt>
      <trkpt lat="43.62553" lon="7.06912">
        <ele>81.388488769531</ele>
        <time>2016-05-14T08:59:19.000Z</time>
      </trkpt>
      <trkpt lat="43.62553" lon="7.06917">
        <ele>81.33145904541</ele>
        <time>2016-05-14T08:59:22.000Z</time>
      </trkpt>
      <trkpt lat="43.62555" lon="7.06921">
        <ele>81.133346557617</ele>
        <time>2016-05-14T08:59:25.000Z</time>
      </trkpt>
      <trkpt lat="43.62557" lon="7.06923">
        <ele>80.828575134277</ele>
        <time>2016-05-14T08:59:27.000Z</time>
      </trkpt>
      <trkpt lat="43.62562" lon="7.06925">
        <ele>80.222434997559</ele>
        <time>2016-05-14T08:59:30.000Z</time>
      </trkpt>
      <trkpt lat="43.62564" lon="7.06927">
        <ele>79.448913574219</ele>
        <time>2016-05-14T08:59:33.000Z</time>
      </trkpt>
      <trkpt lat="43.62563" lon="7.06929">
        <ele>78.648330688477</ele>
        <time>2016-05-14T08:59:35.000Z</time>
      </trkpt>
      <trkpt lat="43.62563" lon="7.06932">
        <ele>78.055152893066</ele>
        <time>2016-05-14T08:59:38.000Z</time>
      </trkpt>
      <trkpt lat="43.62564" lon="7.06934">
        <ele>77.579322814941</ele>
        <time>2016-05-14T08:59:41.000Z</time>
      </trkpt>
      <trkpt lat="43.62565" lon="7.06936">
        <ele>77.377906799316</ele>
        <time>2016-05-14T08:59:43.000Z</time>
      </trkpt>
      <trkpt lat="43.62569" lon="7.06938">
        <ele>76.978927612305</ele>
        <time>2016-05-14T08:59:46.000Z</time>
      </trkpt>
      <trkpt lat="43.62571" lon="7.0694">
        <ele>76.417030334473</ele>
        <time>2016-05-14T08:59:48.000Z</time>
      </trkpt>
      <trkpt lat="43.62576" lon="7.06942">
        <ele>75.36661529541</ele>
        <time>2016-05-14T08:59:51.000Z</time>
      </trkpt>
      <trkpt lat="43.62578" lon="7.06944">
        <ele>74.276962280273</ele>
        <time>2016-05-14T08:59:54.000Z</time>
      </trkpt>
      <trkpt lat="43.62574" lon="7.06948">
        <ele>73.538284301758</ele>
        <time>2016-05-14T09:00:01.000Z</time>
      </trkpt>
      <trkpt lat="43.62573" lon="7.0695">
        <ele>73.21354675293</ele>
        <time>2016-05-14T09:00:03.000Z</time>
      </trkpt>
      <trkpt lat="43.62571" lon="7.06954">
        <ele>73.24878692627</ele>
        <time>2016-05-14T09:00:06.000Z</time>
      </trkpt>
      <trkpt lat="43.62568" lon="7.06957">
        <ele>73.971900939941</ele>
        <time>2016-05-14T09:00:08.000Z</time>
      </trkpt>
      <trkpt lat="43.62569" lon="7.0696">
        <ele>74.695960998535</ele>
        <time>2016-05-14T09:00:11.000Z</time>
      </trkpt>
      <trkpt lat="43.6257" lon="7.06962">
        <ele>75.028381347656</ele>
        <time>2016-05-14T09:00:13.000Z</time>
      </trkpt>
      <trkpt lat="43.62572" lon="7.06966">
        <ele>75.125534057617</ele>
        <time>2016-05-14T09:00:16.000Z</time>
      </trkpt>
      <trkpt lat="43.62574" lon="7.06972">
        <ele>74.850830078125</ele>
        <time>2016-05-14T09:00:19.000Z</time>
      </trkpt>
      <trkpt lat="43.62575" lon="7.06975">
        <ele>74.234176635742</ele>
        <time>2016-05-14T09:00:21.000Z</time>
      </trkpt>
      <trkpt lat="43.62576" lon="7.06979">
        <ele>73.642501831055</ele>
        <time>2016-05-14T09:00:24.000Z</time>
      </trkpt>
      <trkpt lat="43.62576" lon="7.06985">
        <ele>73.111549377441</ele>
        <time>2016-05-14T09:00:27.000Z</time>
      </trkpt>
      <trkpt lat="43.62576" lon="7.06989">
        <ele>72.746299743652</ele>
        <time>2016-05-14T09:00:30.000Z</time>
      </trkpt>
      <trkpt lat="43.62574" lon="7.06994">
        <ele>72.663375854492</ele>
        <time>2016-05-14T09:00:32.000Z</time>
      </trkpt>
      <trkpt lat="43.62574" lon="7.06998">
        <ele>72.757926940918</ele>
        <time>2016-05-14T09:00:35.000Z</time>
      </trkpt>
      <trkpt lat="43.62575" lon="7.07001">
        <ele>72.836372375488</ele>
        <time>2016-05-14T09:00:37.000Z</time>
      </trkpt>
      <trkpt lat="43.62576" lon="7.07004">
        <ele>72.842041015625</ele>
        <time>2016-05-14T09:00:39.000Z</time>
      </trkpt>
      <trkpt lat="43.62578" lon="7.07007">
        <ele>72.758186340332</ele>
        <time>2016-05-14T09:00:42.000Z</time>
      </trkpt>
      <trkpt lat="43.62579" lon="7.07011">
        <ele>72.51708984375</ele>
        <time>2016-05-14T09:00:45.000Z</time>
      </trkpt>
      <trkpt lat="43.6258" lon="7.07015">
        <ele>72.203384399414</ele>
        <time>2016-05-14T09:00:48.000Z</time>
      </trkpt>
      <trkpt lat="43.6258" lon="7.07019">
        <ele>72.051414489746</ele>
        <time>2016-05-14T09:00:51.000Z</time>
      </trkpt>
      <trkpt lat="43.62579" lon="7.07023">
        <ele>72.110313415527</ele>
        <time>2016-05-14T09:00:53.000Z</time>
      </trkpt>
      <trkpt lat="43.6258" lon="7.07025">
        <ele>72.219779968262</ele>
        <time>2016-05-14T09:00:55.000Z</time>
      </trkpt>
      <trkpt lat="43.62583" lon="7.07027">
        <ele>72.13752746582</ele>
        <time>2016-05-14T09:00:58.000Z</time>
      </trkpt>
      <trkpt lat="43.62585" lon="7.07029">
        <ele>72.096633911133</ele>
        <time>2016-05-14T09:01:01.000Z</time>
      </trkpt>
      <trkpt lat="43.62588" lon="7.07031">
        <ele>72.104820251465</ele>
        <time>2016-05-14T09:01:04.000Z</time>
      </trkpt>
      <trkpt lat="43.62591" lon="7.07034">
        <ele>72.121063232422</ele>
        <time>2016-05-14T09:01:07.000Z</time>
      </trkpt>
      <trkpt lat="43.62593" lon="7.07036">
        <ele>72.257507324219</ele>
        <time>2016-05-14T09:01:09.000Z</time>
      </trkpt>
      <trkpt lat="43.62595" lon="7.07038">
        <ele>72.671989440918</ele>
        <time>2016-05-14T09:01:12.000Z</time>
      </trkpt>
      <trkpt lat="43.62596" lon="7.07043">
        <ele>73.133636474609</ele>
        <time>2016-05-14T09:01:15.000Z</time>
      </trkpt>
      <trkpt lat="43.62597" lon="7.07046">
        <ele>73.530136108398</ele>
        <time>2016-05-14T09:01:17.000Z</time>
      </trkpt>
      <trkpt lat="43.626" lon="7.0705">
        <ele>73.900192260742</ele>
        <time>2016-05-14T09:01:20.000Z</time>
      </trkpt>
      <trkpt lat="43.62602" lon="7.07051">
        <ele>74.253318786621</ele>
        <time>2016-05-14T09:01:23.000Z</time>
      </trkpt>
      <trkpt lat="43.62604" lon="7.07053">
        <ele>74.583938598633</ele>
        <time>2016-05-14T09:01:25.000Z</time>
      </trkpt>
      <trkpt lat="43.62605" lon="7.07057">
        <ele>74.863990783691</ele>
        <time>2016-05-14T09:01:28.000Z</time>
      </trkpt>
      <trkpt lat="43.62606" lon="7.07061">
        <ele>75.124923706055</ele>
        <time>2016-05-14T09:01:31.000Z</time>
      </trkpt>
      <trkpt lat="43.62608" lon="7.07062">
        <ele>75.335289001465</ele>
        <time>2016-05-14T09:01:33.000Z</time>
      </trkpt>
      <trkpt lat="43.62609" lon="7.07064">
        <ele>75.521064758301</ele>
        <time>2016-05-14T09:01:35.000Z</time>
      </trkpt>
      <trkpt lat="43.62611" lon="7.07068">
        <ele>75.68579864502</ele>
        <time>2016-05-14T09:01:38.000Z</time>
      </trkpt>
      <trkpt lat="43.62613" lon="7.07071">
        <ele>75.847244262695</ele>
        <time>2016-05-14T09:01:41.000Z</time>
      </trkpt>
      <trkpt lat="43.62615" lon="7.07073">
        <ele>75.991271972656</ele>
        <time>2016-05-14T09:01:44.000Z</time>
      </trkpt>
      <trkpt lat="43.62616" lon="7.07076">
        <ele>76.118301391602</ele>
        <time>2016-05-14T09:01:47.000Z</time>
      </trkpt>
      <trkpt lat="43.62618" lon="7.0708">
        <ele>76.228775024414</ele>
        <time>2016-05-14T09:01:50.000Z</time>
      </trkpt>
      <trkpt lat="43.62617" lon="7.07084">
        <ele>76.307762145996</ele>
        <time>2016-05-14T09:01:58.000Z</time>
      </trkpt>
      <trkpt lat="43.62619" lon="7.07087">
        <ele>76.348892211914</ele>
        <time>2016-05-14T09:02:01.000Z</time>
      </trkpt>
      <trkpt lat="43.62619" lon="7.07088">
        <ele>76.366981506348</ele>
        <time>2016-05-14T09:02:03.000Z</time>
      </trkpt>
      <trkpt lat="43.62622" lon="7.07094">
        <ele>76.360298156738</ele>
        <time>2016-05-14T09:02:06.000Z</time>
      </trkpt>
      <trkpt lat="43.62623" lon="7.07098">
        <ele>76.320266723633</ele>
        <time>2016-05-14T09:02:09.000Z</time>
      </trkpt>
      <trkpt lat="43.62624" lon="7.07101">
        <ele>76.278144836426</ele>
        <time>2016-05-14T09:02:11.000Z</time>
      </trkpt>
      <trkpt lat="43.62626" lon="7.07104">
        <ele>76.232925415039</ele>
        <time>2016-05-14T09:02:13.000Z</time>
      </trkpt>
      <trkpt lat="43.62627" lon="7.07107">
        <ele>76.180541992188</ele>
        <time>2016-05-14T09:02:16.000Z</time>
      </trkpt>
      <trkpt lat="43.62628" lon="7.07109">
        <ele>76.137985229492</ele>
        <time>2016-05-14T09:02:18.000Z</time>
      </trkpt>
      <trkpt lat="43.62629" lon="7.0711">
        <ele>76.106628417969</ele>
        <time>2016-05-14T09:02:21.000Z</time>
      </trkpt>
      <trkpt lat="43.62629" lon="7.07112">
        <ele>76.071784973145</ele>
        <time>2016-05-14T09:02:23.000Z</time>
      </trkpt>
      <trkpt lat="43.6263" lon="7.07116">
        <ele>76.034713745117</ele>
        <time>2016-05-14T09:02:26.000Z</time>
      </trkpt>
      <trkpt lat="43.62632" lon="7.07118">
        <ele>76.001304626465</ele>
        <time>2016-05-14T09:02:29.000Z</time>
      </trkpt>
      <trkpt lat="43.62634" lon="7.07123">
        <ele>75.954856872559</ele>
        <time>2016-05-14T09:02:46.000Z</time>
      </trkpt>
      <trkpt lat="43.62634" lon="7.07125">
        <ele>75.905174255371</ele>
        <time>2016-05-14T09:02:49.000Z</time>
      </trkpt>
      <trkpt lat="43.62634" lon="7.07125">
        <ele>75.905174255371</ele>
        <time>2016-05-14T09:03:09.000Z</time>
      </trkpt>
      <trkpt lat="43.62635" lon="7.07129">
        <ele>75.848487854004</ele>
        <time>2016-05-14T09:03:19.000Z</time>
      </trkpt>
      <trkpt lat="43.62635" lon="7.07131">
        <ele>75.796318054199</ele>
        <time>2016-05-14T09:03:21.000Z</time>
      </trkpt>
      <trkpt lat="43.62636" lon="7.07134">
        <ele>75.738296508789</ele>
        <time>2016-05-14T09:03:24.000Z</time>
      </trkpt>
      <trkpt lat="43.62636" lon="7.07137">
        <ele>75.685775756836</ele>
        <time>2016-05-14T09:03:26.000Z</time>
      </trkpt>
      <trkpt lat="43.62638" lon="7.07141">
        <ele>75.627822875977</ele>
        <time>2016-05-14T09:03:29.000Z</time>
      </trkpt>
      <trkpt lat="43.62641" lon="7.07143">
        <ele>75.578857421875</ele>
        <time>2016-05-14T09:03:32.000Z</time>
      </trkpt>
      <trkpt lat="43.62642" lon="7.07147">
        <ele>75.520004272461</ele>
        <time>2016-05-14T09:03:35.000Z</time>
      </trkpt>
      <trkpt lat="43.62642" lon="7.0715">
        <ele>75.46159362793</ele>
        <time>2016-05-14T09:03:37.000Z</time>
      </trkpt>
      <trkpt lat="43.62639" lon="7.07155">
        <ele>75.393211364746</ele>
        <time>2016-05-14T09:03:40.000Z</time>
      </trkpt>
      <trkpt lat="43.62637" lon="7.07157">
        <ele>75.328628540039</ele>
        <time>2016-05-14T09:03:42.000Z</time>
      </trkpt>
      <trkpt lat="43.62637" lon="7.0716">
        <ele>75.259178161621</ele>
        <time>2016-05-14T09:03:45.000Z</time>
      </trkpt>
      <trkpt lat="43.62638" lon="7.07161">
        <ele>75.199913024902</ele>
        <time>2016-05-14T09:03:48.000Z</time>
      </trkpt>
      <trkpt lat="43.6264" lon="7.07164">
        <ele>75.143333435059</ele>
        <time>2016-05-14T09:03:52.000Z</time>
      </trkpt>
      <trkpt lat="43.62641" lon="7.0717">
        <ele>75.105667114258</ele>
        <time>2016-05-14T09:03:55.000Z</time>
      </trkpt>
      <trkpt lat="43.62641" lon="7.07173">
        <ele>75.084571838379</ele>
        <time>2016-05-14T09:03:58.000Z</time>
      </trkpt>
      <trkpt lat="43.62639" lon="7.07176">
        <ele>75.082077026367</ele>
        <time>2016-05-14T09:04:01.000Z</time>
      </trkpt>
      <trkpt lat="43.62639" lon="7.07179">
        <ele>75.090644836426</ele>
        <time>2016-05-14T09:04:03.000Z</time>
      </trkpt>
      <trkpt lat="43.62637" lon="7.07185">
        <ele>75.113327026367</ele>
        <time>2016-05-14T09:04:06.000Z</time>
      </trkpt>
      <trkpt lat="43.62634" lon="7.0719">
        <ele>75.132774353027</ele>
        <time>2016-05-14T09:04:12.000Z</time>
      </trkpt>
      <trkpt lat="43.62634" lon="7.07193">
        <ele>75.14697265625</ele>
        <time>2016-05-14T09:04:14.000Z</time>
      </trkpt>
      <trkpt lat="43.62634" lon="7.07194">
        <ele>75.156265258789</ele>
        <time>2016-05-14T09:04:17.000Z</time>
      </trkpt>
      <trkpt lat="43.62634" lon="7.07197">
        <ele>75.159744262695</ele>
        <time>2016-05-14T09:04:20.000Z</time>
      </trkpt>
      <trkpt lat="43.62634" lon="7.07201">
        <ele>75.167831420898</ele>
        <time>2016-05-14T09:04:23.000Z</time>
      </trkpt>
      <trkpt lat="43.62634" lon="7.07205">
        <ele>75.177803039551</ele>
        <time>2016-05-14T09:04:25.000Z</time>
      </trkpt>
      <trkpt lat="43.62634" lon="7.07209">
        <ele>75.18822479248</ele>
        <time>2016-05-14T09:04:27.000Z</time>
      </trkpt>
      <trkpt lat="43.62634" lon="7.07213">
        <ele>75.210594177246</ele>
        <time>2016-05-14T09:04:30.000Z</time>
      </trkpt>
      <trkpt lat="43.62634" lon="7.07217">
        <ele>75.237976074219</ele>
        <time>2016-05-14T09:04:33.000Z</time>
      </trkpt>
      <trkpt lat="43.62634" lon="7.07219">
        <ele>75.259727478027</ele>
        <time>2016-05-14T09:04:35.000Z</time>
      </trkpt>
      <trkpt lat="43.62632" lon="7.07225">
        <ele>75.248512268066</ele>
        <time>2016-05-14T09:04:38.000Z</time>
      </trkpt>
      <trkpt lat="43.6263" lon="7.07228">
        <ele>75.209449768066</ele>
        <time>2016-05-14T09:04:40.000Z</time>
      </trkpt>
      <trkpt lat="43.62626" lon="7.07232">
        <ele>75.087799072266</ele>
        <time>2016-05-14T09:04:43.000Z</time>
      </trkpt>
      <trkpt lat="43.62624" lon="7.07234">
        <ele>74.930221557617</ele>
        <time>2016-05-14T09:04:45.000Z</time>
      </trkpt>
      <trkpt lat="43.62624" lon="7.07237">
        <ele>74.757858276367</ele>
        <time>2016-05-14T09:04:48.000Z</time>
      </trkpt>
      <trkpt lat="43.62624" lon="7.07239">
        <ele>74.619338989258</ele>
        <time>2016-05-14T09:04:51.000Z</time>
      </trkpt>
      <trkpt lat="43.62622" lon="7.07241">
        <ele>74.479179382324</ele>
        <time>2016-05-14T09:04:53.000Z</time>
      </trkpt>
      <trkpt lat="43.62622" lon="7.07242">
        <ele>74.389320373535</ele>
        <time>2016-05-14T09:04:55.000Z</time>
      </trkpt>
      <trkpt lat="43.6262" lon="7.07247">
        <ele>74.286842346191</ele>
        <time>2016-05-14T09:04:58.000Z</time>
      </trkpt>
      <trkpt lat="43.62617" lon="7.0725">
        <ele>74.126754760742</ele>
        <time>2016-05-14T09:05:01.000Z</time>
      </trkpt>
      <trkpt lat="43.62615" lon="7.07252">
        <ele>73.908599853516</ele>
        <time>2016-05-14T09:05:03.000Z</time>
      </trkpt>
      <trkpt lat="43.62613" lon="7.07256">
        <ele>73.65486907959</ele>
        <time>2016-05-14T09:05:06.000Z</time>
      </trkpt>
      <trkpt lat="43.62612" lon="7.07258">
        <ele>73.392456054688</ele>
        <time>2016-05-14T09:05:08.000Z</time>
      </trkpt>
      <trkpt lat="43.62611" lon="7.0726">
        <ele>73.134872436523</ele>
        <time>2016-05-14T09:05:10.000Z</time>
      </trkpt>
      <trkpt lat="43.62609" lon="7.07262">
        <ele>72.879173278809</ele>
        <time>2016-05-14T09:05:13.000Z</time>
      </trkpt>
      <trkpt lat="43.62606" lon="7.07264">
        <ele>72.614486694336</ele>
        <time>2016-05-14T09:05:15.000Z</time>
      </trkpt>
      <trkpt lat="43.62605" lon="7.07266">
        <ele>72.343772888184</ele>
        <time>2016-05-14T09:05:17.000Z</time>
      </trkpt>
      <trkpt lat="43.62602" lon="7.07269">
        <ele>72.003082275391</ele>
        <time>2016-05-14T09:05:20.000Z</time>
      </trkpt>
      <trkpt lat="43.62599" lon="7.07272">
        <ele>71.577323913574</ele>
        <time>2016-05-14T09:05:23.000Z</time>
      </trkpt>
      <trkpt lat="43.62597" lon="7.07274">
        <ele>71.122573852539</ele>
        <time>2016-05-14T09:05:26.000Z</time>
      </trkpt>
      <trkpt lat="43.62595" lon="7.07275">
        <ele>70.66682434082</ele>
        <time>2016-05-14T09:05:29.000Z</time>
      </trkpt>
      <trkpt lat="43.62593" lon="7.07278">
        <ele>70.194778442383</ele>
        <time>2016-05-14T09:05:31.000Z</time>
      </trkpt>
      <trkpt lat="43.62592" lon="7.07282">
        <ele>69.71012878418</ele>
        <time>2016-05-14T09:05:34.000Z</time>
      </trkpt>
      <trkpt lat="43.62591" lon="7.07284">
        <ele>69.285194396973</ele>
        <time>2016-05-14T09:05:37.000Z</time>
      </trkpt>
      <trkpt lat="43.62589" lon="7.07287">
        <ele>68.866928100586</ele>
        <time>2016-05-14T09:05:40.000Z</time>
      </trkpt>
      <trkpt lat="43.62588" lon="7.07288">
        <ele>68.469253540039</ele>
        <time>2016-05-14T09:05:42.000Z</time>
      </trkpt>
      <trkpt lat="43.62586" lon="7.0729">
        <ele>68.044479370117</ele>
        <time>2016-05-14T09:05:45.000Z</time>
      </trkpt>
      <trkpt lat="43.62585" lon="7.07291">
        <ele>67.64395904541</ele>
        <time>2016-05-14T09:05:47.000Z</time>
      </trkpt>
      <trkpt lat="43.62583" lon="7.07294">
        <ele>67.250946044922</ele>
        <time>2016-05-14T09:05:50.000Z</time>
      </trkpt>
      <trkpt lat="43.62581" lon="7.07296">
        <ele>66.984970092773</ele>
        <time>2016-05-14T09:05:52.000Z</time>
      </trkpt>
      <trkpt lat="43.62579" lon="7.073">
        <ele>66.817756652832</ele>
        <time>2016-05-14T09:05:55.000Z</time>
      </trkpt>
      <trkpt lat="43.62576" lon="7.07303">
        <ele>66.855758666992</ele>
        <time>2016-05-14T09:05:58.000Z</time>
      </trkpt>
      <trkpt lat="43.62575" lon="7.07307">
        <ele>66.998802185059</ele>
        <time>2016-05-14T09:06:01.000Z</time>
      </trkpt>
      <trkpt lat="43.62574" lon="7.0731">
        <ele>67.176277160645</ele>
        <time>2016-05-14T09:06:03.000Z</time>
      </trkpt>
      <trkpt lat="43.62574" lon="7.07314">
        <ele>67.249954223633</ele>
        <time>2016-05-14T09:06:06.000Z</time>
      </trkpt>
      <trkpt lat="43.62573" lon="7.07317">
        <ele>67.270545959473</ele>
        <time>2016-05-14T09:06:08.000Z</time>
      </trkpt>
      <trkpt lat="43.62572" lon="7.0732">
        <ele>67.236877441406</ele>
        <time>2016-05-14T09:06:11.000Z</time>
      </trkpt>
      <trkpt lat="43.62569" lon="7.07321">
        <ele>67.276222229004</ele>
        <time>2016-05-14T09:06:14.000Z</time>
      </trkpt>
      <trkpt lat="43.62568" lon="7.07322">
        <ele>67.41569519043</ele>
        <time>2016-05-14T09:06:16.000Z</time>
      </trkpt>
      <trkpt lat="43.62567" lon="7.07323">
        <ele>67.620628356934</ele>
        <time>2016-05-14T09:06:18.000Z</time>
      </trkpt>
      <trkpt lat="43.62566" lon="7.07325">
        <ele>67.876708984375</ele>
        <time>2016-05-14T09:06:20.000Z</time>
      </trkpt>
      <trkpt lat="43.62564" lon="7.07325">
        <ele>68.14510345459</ele>
        <time>2016-05-14T09:06:23.000Z</time>
      </trkpt>
      <trkpt lat="43.62563" lon="7.07328">
        <ele>68.338829040527</ele>
        <time>2016-05-14T09:06:25.000Z</time>
      </trkpt>
      <trkpt lat="43.62561" lon="7.07332">
        <ele>68.454650878906</ele>
        <time>2016-05-14T09:06:28.000Z</time>
      </trkpt>
      <trkpt lat="43.62559" lon="7.07335">
        <ele>68.683296203613</ele>
        <time>2016-05-14T09:06:31.000Z</time>
      </trkpt>
      <trkpt lat="43.62557" lon="7.07339">
        <ele>68.933952331543</ele>
        <time>2016-05-14T09:06:34.000Z</time>
      </trkpt>
      <trkpt lat="43.62556" lon="7.07342">
        <ele>69.160598754883</ele>
        <time>2016-05-14T09:06:36.000Z</time>
      </trkpt>
      <trkpt lat="43.62555" lon="7.07345">
        <ele>69.393203735352</ele>
        <time>2016-05-14T09:06:38.000Z</time>
      </trkpt>
      <trkpt lat="43.62555" lon="7.07348">
        <ele>69.642623901367</ele>
        <time>2016-05-14T09:06:41.000Z</time>
      </trkpt>
      <trkpt lat="43.62553" lon="7.07351">
        <ele>69.813407897949</ele>
        <time>2016-05-14T09:06:43.000Z</time>
      </trkpt>
      <trkpt lat="43.6255" lon="7.07355">
        <ele>69.989685058594</ele>
        <time>2016-05-14T09:06:46.000Z</time>
      </trkpt>
      <trkpt lat="43.62551" lon="7.07357">
        <ele>70.109802246094</ele>
        <time>2016-05-14T09:06:48.000Z</time>
      </trkpt>
      <trkpt lat="43.6255" lon="7.0736">
        <ele>70.20858001709</ele>
        <time>2016-05-14T09:06:50.000Z</time>
      </trkpt>
      <trkpt lat="43.62549" lon="7.07362">
        <ele>70.297103881836</ele>
        <time>2016-05-14T09:06:52.000Z</time>
      </trkpt>
      <trkpt lat="43.6255" lon="7.07367">
        <ele>70.285629272461</ele>
        <time>2016-05-14T09:06:55.000Z</time>
      </trkpt>
      <trkpt lat="43.62549" lon="7.0737">
        <ele>70.208145141602</ele>
        <time>2016-05-14T09:06:58.000Z</time>
      </trkpt>
      <trkpt lat="43.62549" lon="7.07371">
        <ele>70.141746520996</ele>
        <time>2016-05-14T09:07:00.000Z</time>
      </trkpt>
      <trkpt lat="43.6255" lon="7.07375">
        <ele>70.029479980469</ele>
        <time>2016-05-14T09:07:03.000Z</time>
      </trkpt>
      <trkpt lat="43.62549" lon="7.07376">
        <ele>69.908462524414</ele>
        <time>2016-05-14T09:07:05.000Z</time>
      </trkpt>
      <trkpt lat="43.62548" lon="7.07378">
        <ele>69.859397888184</ele>
        <time>2016-05-14T09:07:07.000Z</time>
      </trkpt>
      <trkpt lat="43.62549" lon="7.0738">
        <ele>69.765625</ele>
        <time>2016-05-14T09:07:11.000Z</time>
      </trkpt>
      <trkpt lat="43.62548" lon="7.07383">
        <ele>69.668075561523</ele>
        <time>2016-05-14T09:07:14.000Z</time>
      </trkpt>
      <trkpt lat="43.62545" lon="7.07384">
        <ele>69.649864196777</ele>
        <time>2016-05-14T09:07:17.000Z</time>
      </trkpt>
      <trkpt lat="43.62543" lon="7.07385">
        <ele>69.631080627441</ele>
        <time>2016-05-14T09:07:19.000Z</time>
      </trkpt>
      <trkpt lat="43.62542" lon="7.07388">
        <ele>69.58464050293</ele>
        <time>2016-05-14T09:07:21.000Z</time>
      </trkpt>
      <trkpt lat="43.62541" lon="7.07393">
        <ele>69.515930175781</ele>
        <time>2016-05-14T09:07:24.000Z</time>
      </trkpt>
      <trkpt lat="43.6254" lon="7.07395">
        <ele>69.431922912598</ele>
        <time>2016-05-14T09:07:27.000Z</time>
      </trkpt>
      <trkpt lat="43.62539" lon="7.07396">
        <ele>69.30583190918</ele>
        <time>2016-05-14T09:07:30.000Z</time>
      </trkpt>
      <trkpt lat="43.62536" lon="7.07398">
        <ele>69.161499023438</ele>
        <time>2016-05-14T09:07:32.000Z</time>
      </trkpt>
      <trkpt lat="43.62535" lon="7.074">
        <ele>68.988464355469</ele>
        <time>2016-05-14T09:07:34.000Z</time>
      </trkpt>
      <trkpt lat="43.62533" lon="7.07403">
        <ele>68.82723236084</ele>
        <time>2016-05-14T09:07:36.000Z</time>
      </trkpt>
      <trkpt lat="43.62531" lon="7.07405">
        <ele>68.648574829102</ele>
        <time>2016-05-14T09:07:38.000Z</time>
      </trkpt>
      <trkpt lat="43.62529" lon="7.0741">
        <ele>68.337585449219</ele>
        <time>2016-05-14T09:07:41.000Z</time>
      </trkpt>
      <trkpt lat="43.62526" lon="7.07413">
        <ele>67.956695556641</ele>
        <time>2016-05-14T09:07:44.000Z</time>
      </trkpt>
      <trkpt lat="43.62523" lon="7.07417">
        <ele>67.500762939453</ele>
        <time>2016-05-14T09:07:47.000Z</time>
      </trkpt>
      <trkpt lat="43.62522" lon="7.0742">
        <ele>67.082153320312</ele>
        <time>2016-05-14T09:07:49.000Z</time>
      </trkpt>
      <trkpt lat="43.62522" lon="7.07422">
        <ele>66.715621948242</ele>
        <time>2016-05-14T09:07:51.000Z</time>
      </trkpt>
      <trkpt lat="43.62521" lon="7.07426">
        <ele>66.486053466797</ele>
        <time>2016-05-14T09:07:53.000Z</time>
      </trkpt>
      <trkpt lat="43.6252" lon="7.0743">
        <ele>66.330055236816</ele>
        <time>2016-05-14T09:07:56.000Z</time>
      </trkpt>
      <trkpt lat="43.62518" lon="7.07432">
        <ele>66.269737243652</ele>
        <time>2016-05-14T09:07:59.000Z</time>
      </trkpt>
      <trkpt lat="43.62518" lon="7.07435">
        <ele>66.218421936035</ele>
        <time>2016-05-14T09:08:01.000Z</time>
      </trkpt>
      <trkpt lat="43.62517" lon="7.07439">
        <ele>66.129974365234</ele>
        <time>2016-05-14T09:08:04.000Z</time>
      </trkpt>
      <trkpt lat="43.62517" lon="7.0744">
        <ele>66.05143737793</ele>
        <time>2016-05-14T09:08:06.000Z</time>
      </trkpt>
      <trkpt lat="43.62518" lon="7.07445">
        <ele>65.997276306152</ele>
        <time>2016-05-14T09:08:09.000Z</time>
      </trkpt>
      <trkpt lat="43.62517" lon="7.07449">
        <ele>65.948272705078</ele>
        <time>2016-05-14T09:08:12.000Z</time>
      </trkpt>
      <trkpt lat="43.62516" lon="7.07451">
        <ele>65.885772705078</ele>
        <time>2016-05-14T09:08:15.000Z</time>
      </trkpt>
      <trkpt lat="43.62514" lon="7.07456">
        <ele>65.777793884277</ele>
        <time>2016-05-14T09:08:18.000Z</time>
      </trkpt>
      <trkpt lat="43.62513" lon="7.07458">
        <ele>65.614234924316</ele>
        <time>2016-05-14T09:08:20.000Z</time>
      </trkpt>
      <trkpt lat="43.62511" lon="7.07461">
        <ele>65.378677368164</ele>
        <time>2016-05-14T09:08:22.000Z</time>
      </trkpt>
      <trkpt lat="43.62509" lon="7.07463">
        <ele>65.088912963867</ele>
        <time>2016-05-14T09:08:25.000Z</time>
      </trkpt>
      <trkpt lat="43.62507" lon="7.07464">
        <ele>64.73420715332</ele>
        <time>2016-05-14T09:08:27.000Z</time>
      </trkpt>
      <trkpt lat="43.62505" lon="7.07465">
        <ele>64.379859924316</ele>
        <time>2016-05-14T09:08:29.000Z</time>
      </trkpt>
      <trkpt lat="43.62503" lon="7.07468">
        <ele>63.990734100342</ele>
        <time>2016-05-14T09:08:32.000Z</time>
      </trkpt>
      <trkpt lat="43.62503" lon="7.0747">
        <ele>63.651927947998</ele>
        <time>2016-05-14T09:08:35.000Z</time>
      </trkpt>
      <trkpt lat="43.62503" lon="7.07471">
        <ele>63.363719940186</ele>
        <time>2016-05-14T09:08:39.000Z</time>
      </trkpt>
      <trkpt lat="43.62501" lon="7.07476">
        <ele>63.048564910889</ele>
        <time>2016-05-14T09:08:42.000Z</time>
      </trkpt>
      <trkpt lat="43.625" lon="7.07478">
        <ele>62.756233215332</ele>
        <time>2016-05-14T09:08:44.000Z</time>
      </trkpt>
      <trkpt lat="43.62497" lon="7.07481">
        <ele>62.621284484863</ele>
        <time>2016-05-14T09:08:47.000Z</time>
      </trkpt>
      <trkpt lat="43.62496" lon="7.07482">
        <ele>62.54305267334</ele>
        <time>2016-05-14T09:08:49.000Z</time>
      </trkpt>
      <trkpt lat="43.62494" lon="7.07485">
        <ele>62.556762695312</ele>
        <time>2016-05-14T09:08:52.000Z</time>
      </trkpt>
      <trkpt lat="43.62493" lon="7.07488">
        <ele>62.685546875</ele>
        <time>2016-05-14T09:08:55.000Z</time>
      </trkpt>
      <trkpt lat="43.62493" lon="7.0749">
        <ele>62.858924865723</ele>
        <time>2016-05-14T09:09:07.000Z</time>
      </trkpt>
      <trkpt lat="43.62493" lon="7.0749">
        <ele>62.858924865723</ele>
        <time>2016-05-14T09:09:27.000Z</time>
      </trkpt>
      <trkpt lat="43.62495" lon="7.07495">
        <ele>62.840442657471</ele>
        <time>2016-05-14T09:09:31.000Z</time>
      </trkpt>
      <trkpt lat="43.62492" lon="7.07501">
        <ele>62.88924407959</ele>
        <time>2016-05-14T09:09:34.000Z</time>
      </trkpt>
      <trkpt lat="43.62488" lon="7.07506">
        <ele>63.048816680908</ele>
        <time>2016-05-14T09:09:37.000Z</time>
      </trkpt>
      <trkpt lat="43.62484" lon="7.07509">
        <ele>63.349670410156</ele>
        <time>2016-05-14T09:09:40.000Z</time>
      </trkpt>
      <trkpt lat="43.62482" lon="7.07512">
        <ele>63.760520935059</ele>
        <time>2016-05-14T09:09:42.000Z</time>
      </trkpt>
      <trkpt lat="43.62481" lon="7.07517">
        <ele>64.381546020508</ele>
        <time>2016-05-14T09:09:45.000Z</time>
      </trkpt>
      <trkpt lat="43.62479" lon="7.07519">
        <ele>64.966354370117</ele>
        <time>2016-05-14T09:09:47.000Z</time>
      </trkpt>
      <trkpt lat="43.62477" lon="7.07522">
        <ele>65.450477600098</ele>
        <time>2016-05-14T09:09:50.000Z</time>
      </trkpt>
      <trkpt lat="43.62476" lon="7.07525">
        <ele>65.838363647461</ele>
        <time>2016-05-14T09:09:52.000Z</time>
      </trkpt>
      <trkpt lat="43.62474" lon="7.07529">
        <ele>66.22151184082</ele>
        <time>2016-05-14T09:09:55.000Z</time>
      </trkpt>
      <trkpt lat="43.62471" lon="7.07534">
        <ele>66.615821838379</ele>
        <time>2016-05-14T09:09:58.000Z</time>
      </trkpt>
      <trkpt lat="43.62471" lon="7.07537">
        <ele>66.971206665039</ele>
        <time>2016-05-14T09:10:00.000Z</time>
      </trkpt>
      <trkpt lat="43.62471" lon="7.07541">
        <ele>67.253280639648</ele>
        <time>2016-05-14T09:10:03.000Z</time>
      </trkpt>
      <trkpt lat="43.62471" lon="7.07544">
        <ele>67.46354675293</ele>
        <time>2016-05-14T09:10:05.000Z</time>
      </trkpt>
      <trkpt lat="43.62471" lon="7.07547">
        <ele>67.601455688477</ele>
        <time>2016-05-14T09:10:08.000Z</time>
      </trkpt>
      <trkpt lat="43.62471" lon="7.0755">
        <ele>67.617294311523</ele>
        <time>2016-05-14T09:10:10.000Z</time>
      </trkpt>
      <trkpt lat="43.6247" lon="7.07555">
        <ele>67.648086547852</ele>
        <time>2016-05-14T09:10:13.000Z</time>
      </trkpt>
      <trkpt lat="43.62471" lon="7.07559">
        <ele>67.629173278809</ele>
        <time>2016-05-14T09:10:16.000Z</time>
      </trkpt>
      <trkpt lat="43.6247" lon="7.07561">
        <ele>67.676773071289</ele>
        <time>2016-05-14T09:10:18.000Z</time>
      </trkpt>
      <trkpt lat="43.62468" lon="7.07562">
        <ele>67.772933959961</ele>
        <time>2016-05-14T09:10:20.000Z</time>
      </trkpt>
      <trkpt lat="43.62468" lon="7.07565">
        <ele>67.917861938477</ele>
        <time>2016-05-14T09:10:23.000Z</time>
      </trkpt>
      <trkpt lat="43.62466" lon="7.07568">
        <ele>68.077087402344</ele>
        <time>2016-05-14T09:10:25.000Z</time>
      </trkpt>
      <trkpt lat="43.62466" lon="7.07572">
        <ele>68.268074035645</ele>
        <time>2016-05-14T09:10:28.000Z</time>
      </trkpt>
      <trkpt lat="43.62465" lon="7.07574">
        <ele>68.440795898438</ele>
        <time>2016-05-14T09:10:30.000Z</time>
      </trkpt>
      <trkpt lat="43.62463" lon="7.07576">
        <ele>68.658103942871</ele>
        <time>2016-05-14T09:10:33.000Z</time>
      </trkpt>
      <trkpt lat="43.62461" lon="7.07578">
        <ele>68.905364990234</ele>
        <time>2016-05-14T09:10:35.000Z</time>
      </trkpt>
      <trkpt lat="43.6246" lon="7.07581">
        <ele>69.134056091309</ele>
        <time>2016-05-14T09:10:37.000Z</time>
      </trkpt>
      <trkpt lat="43.62458" lon="7.07584">
        <ele>69.42472076416</ele>
        <time>2016-05-14T09:10:39.000Z</time>
      </trkpt>
      <trkpt lat="43.62457" lon="7.07588">
        <ele>69.717849731445</ele>
        <time>2016-05-14T09:10:42.000Z</time>
      </trkpt>
      <trkpt lat="43.62457" lon="7.07591">
        <ele>69.895431518555</ele>
        <time>2016-05-14T09:10:45.000Z</time>
      </trkpt>
      <trkpt lat="43.62459" lon="7.07593">
        <ele>69.948013305664</ele>
        <time>2016-05-14T09:10:48.000Z</time>
      </trkpt>
      <trkpt lat="43.6246" lon="7.07594">
        <ele>69.908493041992</ele>
        <time>2016-05-14T09:10:50.000Z</time>
      </trkpt>
      <trkpt lat="43.62463" lon="7.07598">
        <ele>69.721694946289</ele>
        <time>2016-05-14T09:10:53.000Z</time>
      </trkpt>
      <trkpt lat="43.62463" lon="7.07604">
        <ele>69.482154846191</ele>
        <time>2016-05-14T09:10:56.000Z</time>
      </trkpt>
      <trkpt lat="43.62461" lon="7.07609">
        <ele>69.319519042969</ele>
        <time>2016-05-14T09:10:59.000Z</time>
      </trkpt>
      <trkpt lat="43.62458" lon="7.07611">
        <ele>69.314971923828</ele>
        <time>2016-05-14T09:11:01.000Z</time>
      </trkpt>
      <trkpt lat="43.62455" lon="7.07615">
        <ele>69.44214630127</ele>
        <time>2016-05-14T09:11:04.000Z</time>
      </trkpt>
      <trkpt lat="43.62452" lon="7.07619">
        <ele>69.739486694336</ele>
        <time>2016-05-14T09:11:06.000Z</time>
      </trkpt>
      <trkpt lat="43.62451" lon="7.0762">
        <ele>70.072830200195</ele>
        <time>2016-05-14T09:11:09.000Z</time>
      </trkpt>
      <trkpt lat="43.6245" lon="7.07623">
        <ele>70.336265563965</ele>
        <time>2016-05-14T09:11:12.000Z</time>
      </trkpt>
      <trkpt lat="43.6245" lon="7.07624">
        <ele>70.507606506348</ele>
        <time>2016-05-14T09:11:14.000Z</time>
      </trkpt>
      <trkpt lat="43.6245" lon="7.07627">
        <ele>70.593772888184</ele>
        <time>2016-05-14T09:11:16.000Z</time>
      </trkpt>
      <trkpt lat="43.6245" lon="7.0763">
        <ele>70.599510192871</ele>
        <time>2016-05-14T09:11:19.000Z</time>
      </trkpt>
      <trkpt lat="43.6245" lon="7.07632">
        <ele>70.575134277344</ele>
        <time>2016-05-14T09:11:21.000Z</time>
      </trkpt>
      <trkpt lat="43.62449" lon="7.07636">
        <ele>70.549850463867</ele>
        <time>2016-05-14T09:11:23.000Z</time>
      </trkpt>
      <trkpt lat="43.62448" lon="7.07639">
        <ele>70.527824401855</ele>
        <time>2016-05-14T09:11:25.000Z</time>
      </trkpt>
      <trkpt lat="43.62446" lon="7.07641">
        <ele>70.531280517578</ele>
        <time>2016-05-14T09:11:27.000Z</time>
      </trkpt>
      <trkpt lat="43.62445" lon="7.07643">
        <ele>70.565475463867</ele>
        <time>2016-05-14T09:11:29.000Z</time>
      </trkpt>
      <trkpt lat="43.62444" lon="7.07649">
        <ele>70.596267700195</ele>
        <time>2016-05-14T09:11:32.000Z</time>
      </trkpt>
      <trkpt lat="43.62444" lon="7.07652">
        <ele>70.59642791748</ele>
        <time>2016-05-14T09:11:35.000Z</time>
      </trkpt>
      <trkpt lat="43.62444" lon="7.07655">
        <ele>70.575126647949</ele>
        <time>2016-05-14T09:11:37.000Z</time>
      </trkpt>
      <trkpt lat="43.62444" lon="7.07656">
        <ele>70.520286560059</ele>
        <time>2016-05-14T09:11:39.000Z</time>
      </trkpt>
      <trkpt lat="43.62444" lon="7.07659">
        <ele>70.430374145508</ele>
        <time>2016-05-14T09:11:42.000Z</time>
      </trkpt>
      <trkpt lat="43.62445" lon="7.07664">
        <ele>70.312507629395</ele>
        <time>2016-05-14T09:11:45.000Z</time>
      </trkpt>
      <trkpt lat="43.62445" lon="7.07669">
        <ele>70.204002380371</ele>
        <time>2016-05-14T09:11:48.000Z</time>
      </trkpt>
      <trkpt lat="43.62443" lon="7.07672">
        <ele>70.118141174316</ele>
        <time>2016-05-14T09:11:50.000Z</time>
      </trkpt>
      <trkpt lat="43.62443" lon="7.07676">
        <ele>70.027709960938</ele>
        <time>2016-05-14T09:11:53.000Z</time>
      </trkpt>
      <trkpt lat="43.62442" lon="7.07681">
        <ele>69.940162658691</ele>
        <time>2016-05-14T09:11:56.000Z</time>
      </trkpt>
      <trkpt lat="43.62439" lon="7.07684">
        <ele>69.904846191406</ele>
        <time>2016-05-14T09:11:59.000Z</time>
      </trkpt>
      <trkpt lat="43.62438" lon="7.07687">
        <ele>69.877059936523</ele>
        <time>2016-05-14T09:12:02.000Z</time>
      </trkpt>
      <trkpt lat="43.62437" lon="7.07691">
        <ele>69.822792053223</ele>
        <time>2016-05-14T09:12:04.000Z</time>
      </trkpt>
      <trkpt lat="43.62437" lon="7.07695">
        <ele>69.754776000977</ele>
        <time>2016-05-14T09:12:07.000Z</time>
      </trkpt>
      <trkpt lat="43.62437" lon="7.07698">
        <ele>69.681343078613</ele>
        <time>2016-05-14T09:12:09.000Z</time>
      </trkpt>
      <trkpt lat="43.62438" lon="7.077">
        <ele>69.584945678711</ele>
        <time>2016-05-14T09:12:11.000Z</time>
      </trkpt>
      <trkpt lat="43.62437" lon="7.07705">
        <ele>69.47428894043</ele>
        <time>2016-05-14T09:12:14.000Z</time>
      </trkpt>
      <trkpt lat="43.62433" lon="7.07709">
        <ele>69.344375610352</ele>
        <time>2016-05-14T09:12:17.000Z</time>
      </trkpt>
      <trkpt lat="43.62435" lon="7.0771">
        <ele>69.239715576172</ele>
        <time>2016-05-14T09:12:20.000Z</time>
      </trkpt>
      <trkpt lat="43.62435" lon="7.07712">
        <ele>69.141311645508</ele>
        <time>2016-05-14T09:12:22.000Z</time>
      </trkpt>
      <trkpt lat="43.62434" lon="7.07714">
        <ele>69.041557312012</ele>
        <time>2016-05-14T09:12:24.000Z</time>
      </trkpt>
      <trkpt lat="43.62433" lon="7.07715">
        <ele>68.955665588379</ele>
        <time>2016-05-14T09:12:28.000Z</time>
      </trkpt>
      <trkpt lat="43.62432" lon="7.07718">
        <ele>68.880958557129</ele>
        <time>2016-05-14T09:12:31.000Z</time>
      </trkpt>
      <trkpt lat="43.62431" lon="7.0772">
        <ele>68.784202575684</ele>
        <time>2016-05-14T09:12:33.000Z</time>
      </trkpt>
      <trkpt lat="43.62429" lon="7.07723">
        <ele>68.657791137695</ele>
        <time>2016-05-14T09:12:36.000Z</time>
      </trkpt>
      <trkpt lat="43.62429" lon="7.07726">
        <ele>68.522811889648</ele>
        <time>2016-05-14T09:12:38.000Z</time>
      </trkpt>
      <trkpt lat="43.62428" lon="7.07728">
        <ele>68.376724243164</ele>
        <time>2016-05-14T09:12:40.000Z</time>
      </trkpt>
      <trkpt lat="43.62428" lon="7.07731">
        <ele>68.218139648438</ele>
        <time>2016-05-14T09:12:43.000Z</time>
      </trkpt>
      <trkpt lat="43.62427" lon="7.07734">
        <ele>68.041236877441</ele>
        <time>2016-05-14T09:12:45.000Z</time>
      </trkpt>
      <trkpt lat="43.62425" lon="7.07738">
        <ele>67.848526000977</ele>
        <time>2016-05-14T09:12:48.000Z</time>
      </trkpt>
      <trkpt lat="43.62423" lon="7.07741">
        <ele>67.620872497559</ele>
        <time>2016-05-14T09:12:51.000Z</time>
      </trkpt>
      <trkpt lat="43.62421" lon="7.07743">
        <ele>67.358993530273</ele>
        <time>2016-05-14T09:12:54.000Z</time>
      </trkpt>
      <trkpt lat="43.62419" lon="7.07748">
        <ele>67.047439575195</ele>
        <time>2016-05-14T09:12:57.000Z</time>
      </trkpt>
      <trkpt lat="43.62418" lon="7.07751">
        <ele>66.713424682617</ele>
        <time>2016-05-14T09:13:00.000Z</time>
      </trkpt>
      <trkpt lat="43.62418" lon="7.07754">
        <ele>66.385612487793</ele>
        <time>2016-05-14T09:13:03.000Z</time>
      </trkpt>
      <trkpt lat="43.62417" lon="7.07756">
        <ele>66.062805175781</ele>
        <time>2016-05-14T09:13:05.000Z</time>
      </trkpt>
      <trkpt lat="43.62415" lon="7.07758">
        <ele>65.890144348145</ele>
        <time>2016-05-14T09:13:07.000Z</time>
      </trkpt>
      <trkpt lat="43.62413" lon="7.07759">
        <ele>65.89949798584</ele>
        <time>2016-05-14T09:13:09.000Z</time>
      </trkpt>
      <trkpt lat="43.62411" lon="7.07762">
        <ele>66.068939208984</ele>
        <time>2016-05-14T09:13:12.000Z</time>
      </trkpt>
      <trkpt lat="43.62411" lon="7.07765">
        <ele>66.261672973633</ele>
        <time>2016-05-14T09:13:15.000Z</time>
      </trkpt>
      <trkpt lat="43.6241" lon="7.07767">
        <ele>66.553733825684</ele>
        <time>2016-05-14T09:13:18.000Z</time>
      </trkpt>
      <trkpt lat="43.62408" lon="7.07769">
        <ele>66.877746582031</ele>
        <time>2016-05-14T09:13:20.000Z</time>
      </trkpt>
      <trkpt lat="43.62407" lon="7.07771">
        <ele>67.165328979492</ele>
        <time>2016-05-14T09:13:22.000Z</time>
      </trkpt>
      <trkpt lat="43.62406" lon="7.07773">
        <ele>67.341941833496</ele>
        <time>2016-05-14T09:13:24.000Z</time>
      </trkpt>
      <trkpt lat="43.62405" lon="7.07775">
        <ele>67.586784362793</ele>
        <time>2016-05-14T09:13:26.000Z</time>
      </trkpt>
      <trkpt lat="43.62404" lon="7.07781">
        <ele>67.699211120605</ele>
        <time>2016-05-14T09:13:29.000Z</time>
      </trkpt>
      <trkpt lat="43.62403" lon="7.07783">
        <ele>67.697128295898</ele>
        <time>2016-05-14T09:13:31.000Z</time>
      </trkpt>
      <trkpt lat="43.62403" lon="7.07785">
        <ele>67.609298706055</ele>
        <time>2016-05-14T09:13:33.000Z</time>
      </trkpt>
      <trkpt lat="43.62403" lon="7.07787">
        <ele>67.491722106934</ele>
        <time>2016-05-14T09:13:35.000Z</time>
      </trkpt>
      <trkpt lat="43.62403" lon="7.0779">
        <ele>67.324592590332</ele>
        <time>2016-05-14T09:13:38.000Z</time>
      </trkpt>
      <trkpt lat="43.62402" lon="7.07792">
        <ele>67.233871459961</ele>
        <time>2016-05-14T09:13:40.000Z</time>
      </trkpt>
      <trkpt lat="43.62401" lon="7.07794">
        <ele>67.177429199219</ele>
        <time>2016-05-14T09:13:43.000Z</time>
      </trkpt>
      <trkpt lat="43.624" lon="7.07796">
        <ele>67.221588134766</ele>
        <time>2016-05-14T09:13:45.000Z</time>
      </trkpt>
      <trkpt lat="43.62398" lon="7.078">
        <ele>67.314193725586</ele>
        <time>2016-05-14T09:13:48.000Z</time>
      </trkpt>
      <trkpt lat="43.62396" lon="7.07804">
        <ele>67.473648071289</ele>
        <time>2016-05-14T09:13:51.000Z</time>
      </trkpt>
      <trkpt lat="43.62396" lon="7.07809">
        <ele>67.540550231934</ele>
        <time>2016-05-14T09:13:54.000Z</time>
      </trkpt>
      <trkpt lat="43.62395" lon="7.07812">
        <ele>67.568725585938</ele>
        <time>2016-05-14T09:13:57.000Z</time>
      </trkpt>
      <trkpt lat="43.62393" lon="7.07818">
        <ele>67.499130249023</ele>
        <time>2016-05-14T09:14:00.000Z</time>
      </trkpt>
      <trkpt lat="43.62389" lon="7.07821">
        <ele>67.63981628418</ele>
        <time>2016-05-14T09:14:02.000Z</time>
      </trkpt>
      <trkpt lat="43.62385" lon="7.07821">
        <ele>68.018905639648</ele>
        <time>2016-05-14T09:14:05.000Z</time>
      </trkpt>
      <trkpt lat="43.62384" lon="7.07823">
        <ele>68.48860168457</ele>
        <time>2016-05-14T09:14:08.000Z</time>
      </trkpt>
      <trkpt lat="43.62385" lon="7.07825">
        <ele>68.850830078125</ele>
        <time>2016-05-14T09:14:10.000Z</time>
      </trkpt>
      <trkpt lat="43.62386" lon="7.07829">
        <ele>69.076049804688</ele>
        <time>2016-05-14T09:14:13.000Z</time>
      </trkpt>
      <trkpt lat="43.62385" lon="7.07833">
        <ele>69.057510375977</ele>
        <time>2016-05-14T09:14:15.000Z</time>
      </trkpt>
      <trkpt lat="43.62384" lon="7.07837">
        <ele>68.836975097656</ele>
        <time>2016-05-14T09:14:18.000Z</time>
      </trkpt>
      <trkpt lat="43.62383" lon="7.07838">
        <ele>68.707504272461</ele>
        <time>2016-05-14T09:14:20.000Z</time>
      </trkpt>
      <trkpt lat="43.62381" lon="7.07842">
        <ele>68.75643157959</ele>
        <time>2016-05-14T09:14:23.000Z</time>
      </trkpt>
      <trkpt lat="43.62381" lon="7.07845">
        <ele>68.96541595459</ele>
        <time>2016-05-14T09:14:25.000Z</time>
      </trkpt>
      <trkpt lat="43.62381" lon="7.07848">
        <ele>69.199424743652</ele>
        <time>2016-05-14T09:14:27.000Z</time>
      </trkpt>
      <trkpt lat="43.62381" lon="7.07851">
        <ele>69.338592529297</ele>
        <time>2016-05-14T09:14:29.000Z</time>
      </trkpt>
      <trkpt lat="43.62381" lon="7.07855">
        <ele>69.394805908203</ele>
        <time>2016-05-14T09:14:32.000Z</time>
      </trkpt>
      <trkpt lat="43.62381" lon="7.07858">
        <ele>69.372802734375</ele>
        <time>2016-05-14T09:14:34.000Z</time>
      </trkpt>
      <trkpt lat="43.6238" lon="7.07862">
        <ele>69.402366638184</ele>
        <time>2016-05-14T09:14:37.000Z</time>
      </trkpt>
      <trkpt lat="43.62381" lon="7.07866">
        <ele>69.378395080566</ele>
        <time>2016-05-14T09:14:40.000Z</time>
      </trkpt>
      <trkpt lat="43.62382" lon="7.0787">
        <ele>69.325454711914</ele>
        <time>2016-05-14T09:14:43.000Z</time>
      </trkpt>
      <trkpt lat="43.62381" lon="7.07872">
        <ele>69.302108764648</ele>
        <time>2016-05-14T09:14:46.000Z</time>
      </trkpt>
      <trkpt lat="43.62379" lon="7.07875">
        <ele>69.385292053223</ele>
        <time>2016-05-14T09:14:49.000Z</time>
      </trkpt>
      <trkpt lat="43.62379" lon="7.07877">
        <ele>69.44499206543</ele>
        <time>2016-05-14T09:14:51.000Z</time>
      </trkpt>
      <trkpt lat="43.6238" lon="7.07879">
        <ele>69.480209350586</ele>
        <time>2016-05-14T09:14:54.000Z</time>
      </trkpt>
      <trkpt lat="43.62383" lon="7.07882">
        <ele>69.354843139648</ele>
        <time>2016-05-14T09:15:01.000Z</time>
      </trkpt>
      <trkpt lat="43.62384" lon="7.07884">
        <ele>69.149276733398</ele>
        <time>2016-05-14T09:15:03.000Z</time>
      </trkpt>
      <trkpt lat="43.62386" lon="7.07889">
        <ele>68.672164916992</ele>
        <time>2016-05-14T09:15:06.000Z</time>
      </trkpt>
      <trkpt lat="43.62386" lon="7.07897">
        <ele>68.184883117676</ele>
        <time>2016-05-14T09:15:09.000Z</time>
      </trkpt>
      <trkpt lat="43.62386" lon="7.07902">
        <ele>67.800254821777</ele>
        <time>2016-05-14T09:15:11.000Z</time>
      </trkpt>
      <trkpt lat="43.62386" lon="7.07906">
        <ele>67.575904846191</ele>
        <time>2016-05-14T09:15:13.000Z</time>
      </trkpt>
      <trkpt lat="43.62389" lon="7.0791">
        <ele>67.183547973633</ele>
        <time>2016-05-14T09:15:30.000Z</time>
      </trkpt>
      <trkpt lat="43.62392" lon="7.07914">
        <ele>66.78938293457</ele>
        <time>2016-05-14T09:15:33.000Z</time>
      </trkpt>
      <trkpt lat="43.62394" lon="7.07919">
        <ele>66.284042358398</ele>
        <time>2016-05-14T09:15:35.000Z</time>
      </trkpt>
      <trkpt lat="43.62396" lon="7.07924">
        <ele>65.640480041504</ele>
        <time>2016-05-14T09:15:37.000Z</time>
      </trkpt>
      <trkpt lat="43.62399" lon="7.07929">
        <ele>64.863891601562</ele>
        <time>2016-05-14T09:15:40.000Z</time>
      </trkpt>
      <trkpt lat="43.62404" lon="7.07932">
        <ele>64.011413574219</ele>
        <time>2016-05-14T09:15:43.000Z</time>
      </trkpt>
      <trkpt lat="43.62408" lon="7.07933">
        <ele>63.094085693359</ele>
        <time>2016-05-14T09:15:46.000Z</time>
      </trkpt>
      <trkpt lat="43.6241" lon="7.07935">
        <ele>62.155590057373</ele>
        <time>2016-05-14T09:15:48.000Z</time>
      </trkpt>
      <trkpt lat="43.62412" lon="7.07937">
        <ele>61.194129943848</ele>
        <time>2016-05-14T09:15:51.000Z</time>
      </trkpt>
      <trkpt lat="43.62415" lon="7.0794">
        <ele>60.207458496094</ele>
        <time>2016-05-14T09:15:54.000Z</time>
      </trkpt>
      <trkpt lat="43.62421" lon="7.07945">
        <ele>59.554374694824</ele>
        <time>2016-05-14T09:15:57.000Z</time>
      </trkpt>
      <trkpt lat="43.62422" lon="7.07948">
        <ele>59.189880371094</ele>
        <time>2016-05-14T09:16:00.000Z</time>
      </trkpt>
      <trkpt lat="43.62423" lon="7.07952">
        <ele>58.984184265137</ele>
        <time>2016-05-14T09:16:03.000Z</time>
      </trkpt>
      <trkpt lat="43.62424" lon="7.07954">
        <ele>58.944896697998</ele>
        <time>2016-05-14T09:16:06.000Z</time>
      </trkpt>
      <trkpt lat="43.62425" lon="7.0796">
        <ele>59.148132324219</ele>
        <time>2016-05-14T09:16:14.000Z</time>
      </trkpt>
      <trkpt lat="43.62425" lon="7.0796">
        <ele>59.148132324219</ele>
        <time>2016-05-14T09:16:34.000Z</time>
      </trkpt>
      <trkpt lat="43.62426" lon="7.07962">
        <ele>59.338661193848</ele>
        <time>2016-05-14T09:17:13.000Z</time>
      </trkpt>
      <trkpt lat="43.62427" lon="7.07964">
        <ele>59.495983123779</ele>
        <time>2016-05-14T09:17:16.000Z</time>
      </trkpt>
      <trkpt lat="43.62429" lon="7.07966">
        <ele>59.642742156982</ele>
        <time>2016-05-14T09:17:19.000Z</time>
      </trkpt>
      <trkpt lat="43.62432" lon="7.07968">
        <ele>59.786762237549</ele>
        <time>2016-05-14T09:17:22.000Z</time>
      </trkpt>
      <trkpt lat="43.62434" lon="7.07969">
        <ele>59.897594451904</ele>
        <time>2016-05-14T09:17:24.000Z</time>
      </trkpt>
      <trkpt lat="43.62435" lon="7.0797">
        <ele>60.000129699707</ele>
        <time>2016-05-14T09:17:26.000Z</time>
      </trkpt>
      <trkpt lat="43.62436" lon="7.07974">
        <ele>60.090015411377</ele>
        <time>2016-05-14T09:17:28.000Z</time>
      </trkpt>
      <trkpt lat="43.62438" lon="7.07977">
        <ele>60.159351348877</ele>
        <time>2016-05-14T09:17:31.000Z</time>
      </trkpt>
      <trkpt lat="43.62441" lon="7.07979">
        <ele>60.213317871094</ele>
        <time>2016-05-14T09:17:33.000Z</time>
      </trkpt>
      <trkpt lat="43.62444" lon="7.07982">
        <ele>60.24564743042</ele>
        <time>2016-05-14T09:17:36.000Z</time>
      </trkpt>
      <trkpt lat="43.62445" lon="7.07985">
        <ele>60.259422302246</ele>
        <time>2016-05-14T09:17:38.000Z</time>
      </trkpt>
      <trkpt lat="43.62445" lon="7.07987">
        <ele>60.255809783936</ele>
        <time>2016-05-14T09:17:41.000Z</time>
      </trkpt>
      <trkpt lat="43.62447" lon="7.07989">
        <ele>60.231475830078</ele>
        <time>2016-05-14T09:17:43.000Z</time>
      </trkpt>
      <trkpt lat="43.62449" lon="7.07992">
        <ele>60.183265686035</ele>
        <time>2016-05-14T09:17:45.000Z</time>
      </trkpt>
      <trkpt lat="43.62452" lon="7.07995">
        <ele>60.107372283936</ele>
        <time>2016-05-14T09:17:48.000Z</time>
      </trkpt>
      <trkpt lat="43.62455" lon="7.07998">
        <ele>59.998371124268</ele>
        <time>2016-05-14T09:17:51.000Z</time>
      </trkpt>
      <trkpt lat="43.62457" lon="7.08001">
        <ele>59.873107910156</ele>
        <time>2016-05-14T09:17:53.000Z</time>
      </trkpt>
      <trkpt lat="43.62458" lon="7.08003">
        <ele>59.75724029541</ele>
        <time>2016-05-14T09:17:55.000Z</time>
      </trkpt>
      <trkpt lat="43.6246" lon="7.08004">
        <ele>59.646049499512</ele>
        <time>2016-05-14T09:17:58.000Z</time>
      </trkpt>
      <trkpt lat="43.62462" lon="7.08008">
        <ele>59.559101104736</ele>
        <time>2016-05-14T09:18:01.000Z</time>
      </trkpt>
      <trkpt lat="43.62464" lon="7.0801">
        <ele>59.501190185547</ele>
        <time>2016-05-14T09:18:03.000Z</time>
      </trkpt>
      <trkpt lat="43.62465" lon="7.0801">
        <ele>59.454357147217</ele>
        <time>2016-05-14T09:18:05.000Z</time>
      </trkpt>
      <trkpt lat="43.62466" lon="7.08012">
        <ele>59.399169921875</ele>
        <time>2016-05-14T09:18:08.000Z</time>
      </trkpt>
      <trkpt lat="43.62467" lon="7.08013">
        <ele>59.354625701904</ele>
        <time>2016-05-14T09:18:11.000Z</time>
      </trkpt>
      <trkpt lat="43.62468" lon="7.08017">
        <ele>59.316905975342</ele>
        <time>2016-05-14T09:18:14.000Z</time>
      </trkpt>
      <trkpt lat="43.62468" lon="7.08019">
        <ele>59.282867431641</ele>
        <time>2016-05-14T09:18:16.000Z</time>
      </trkpt>
      <trkpt lat="43.62469" lon="7.08021">
        <ele>59.260681152344</ele>
        <time>2016-05-14T09:18:18.000Z</time>
      </trkpt>
      <trkpt lat="43.6247" lon="7.08023">
        <ele>59.234527587891</ele>
        <time>2016-05-14T09:18:20.000Z</time>
      </trkpt>
      <trkpt lat="43.62472" lon="7.08025">
        <ele>59.183483123779</ele>
        <time>2016-05-14T09:18:23.000Z</time>
      </trkpt>
      <trkpt lat="43.62473" lon="7.08025">
        <ele>59.121315002441</ele>
        <time>2016-05-14T09:18:26.000Z</time>
      </trkpt>
      <trkpt lat="43.62474" lon="7.08027">
        <ele>59.048393249512</ele>
        <time>2016-05-14T09:18:29.000Z</time>
      </trkpt>
      <trkpt lat="43.62476" lon="7.08027">
        <ele>58.949523925781</ele>
        <time>2016-05-14T09:18:32.000Z</time>
      </trkpt>
      <trkpt lat="43.62481" lon="7.08028">
        <ele>58.800487518311</ele>
        <time>2016-05-14T09:18:41.000Z</time>
      </trkpt>
      <trkpt lat="43.62484" lon="7.08027">
        <ele>58.632404327393</ele>
        <time>2016-05-14T09:18:56.000Z</time>
      </trkpt>
      <trkpt lat="43.62487" lon="7.08027">
        <ele>58.43461227417</ele>
        <time>2016-05-14T09:18:58.000Z</time>
      </trkpt>
      <trkpt lat="43.62489" lon="7.08028">
        <ele>58.21040725708</ele>
        <time>2016-05-14T09:19:00.000Z</time>
      </trkpt>
      <trkpt lat="43.62491" lon="7.0803">
        <ele>57.98136138916</ele>
        <time>2016-05-14T09:19:03.000Z</time>
      </trkpt>
      <trkpt lat="43.62492" lon="7.08031">
        <ele>57.799327850342</ele>
        <time>2016-05-14T09:19:05.000Z</time>
      </trkpt>
      <trkpt lat="43.62494" lon="7.08032">
        <ele>57.625682830811</ele>
        <time>2016-05-14T09:19:07.000Z</time>
      </trkpt>
      <trkpt lat="43.62495" lon="7.08034">
        <ele>57.462963104248</ele>
        <time>2016-05-14T09:19:10.000Z</time>
      </trkpt>
      <trkpt lat="43.62497" lon="7.08038">
        <ele>57.294250488281</ele>
        <time>2016-05-14T09:19:13.000Z</time>
      </trkpt>
      <trkpt lat="43.62498" lon="7.08039">
        <ele>57.121894836426</ele>
        <time>2016-05-14T09:19:16.000Z</time>
      </trkpt>
      <trkpt lat="43.625" lon="7.0804">
        <ele>56.939262390137</ele>
        <time>2016-05-14T09:19:18.000Z</time>
      </trkpt>
      <trkpt lat="43.62503" lon="7.08044">
        <ele>56.789722442627</ele>
        <time>2016-05-14T09:19:21.000Z</time>
      </trkpt>
      <trkpt lat="43.62503" lon="7.08048">
        <ele>56.640747070312</ele>
        <time>2016-05-14T09:19:24.000Z</time>
      </trkpt>
      <trkpt lat="43.62504" lon="7.0805">
        <ele>56.529670715332</ele>
        <time>2016-05-14T09:19:26.000Z</time>
      </trkpt>
      <trkpt lat="43.62504" lon="7.08053">
        <ele>56.436168670654</ele>
        <time>2016-05-14T09:19:28.000Z</time>
      </trkpt>
      <trkpt lat="43.62507" lon="7.08057">
        <ele>56.347190856934</ele>
        <time>2016-05-14T09:19:31.000Z</time>
      </trkpt>
      <trkpt lat="43.6251" lon="7.08061">
        <ele>56.236633300781</ele>
        <time>2016-05-14T09:19:33.000Z</time>
      </trkpt>
      <trkpt lat="43.62511" lon="7.08064">
        <ele>56.128105163574</ele>
        <time>2016-05-14T09:19:36.000Z</time>
      </trkpt>
      <trkpt lat="43.62511" lon="7.08066">
        <ele>56.008934020996</ele>
        <time>2016-05-14T09:19:39.000Z</time>
      </trkpt>
      <trkpt lat="43.6251" lon="7.08067">
        <ele>55.888965606689</ele>
        <time>2016-05-14T09:19:41.000Z</time>
      </trkpt>
      <trkpt lat="43.62509" lon="7.0807">
        <ele>55.760723114014</ele>
        <time>2016-05-14T09:19:43.000Z</time>
      </trkpt>
      <trkpt lat="43.62508" lon="7.08076">
        <ele>55.594261169434</ele>
        <time>2016-05-14T09:19:46.000Z</time>
      </trkpt>
      <trkpt lat="43.6251" lon="7.08082">
        <ele>55.393268585205</ele>
        <time>2016-05-14T09:19:49.000Z</time>
      </trkpt>
      <trkpt lat="43.62509" lon="7.08084">
        <ele>55.216461181641</ele>
        <time>2016-05-14T09:19:52.000Z</time>
      </trkpt>
      <trkpt lat="43.6251" lon="7.08088">
        <ele>55.111663818359</ele>
        <time>2016-05-14T09:19:55.000Z</time>
      </trkpt>
      <trkpt lat="43.62509" lon="7.08089">
        <ele>55.063659667969</ele>
        <time>2016-05-14T09:19:57.000Z</time>
      </trkpt>
      <trkpt lat="43.62509" lon="7.08091">
        <ele>55.109733581543</ele>
        <time>2016-05-14T09:19:59.000Z</time>
      </trkpt>
      <trkpt lat="43.6251" lon="7.08095">
        <ele>55.258716583252</ele>
        <time>2016-05-14T09:20:02.000Z</time>
      </trkpt>
      <trkpt lat="43.62511" lon="7.08096">
        <ele>55.420433044434</ele>
        <time>2016-05-14T09:20:04.000Z</time>
      </trkpt>
      <trkpt lat="43.62511" lon="7.08098">
        <ele>55.567375183105</ele>
        <time>2016-05-14T09:20:07.000Z</time>
      </trkpt>
      <trkpt lat="43.62512" lon="7.08101">
        <ele>55.717872619629</ele>
        <time>2016-05-14T09:20:09.000Z</time>
      </trkpt>
      <trkpt lat="43.62514" lon="7.08102">
        <ele>55.846885681152</ele>
        <time>2016-05-14T09:20:11.000Z</time>
      </trkpt>
      <trkpt lat="43.62517" lon="7.08105">
        <ele>55.949851989746</ele>
        <time>2016-05-14T09:20:14.000Z</time>
      </trkpt>
      <trkpt lat="43.62518" lon="7.08107">
        <ele>56.062908172607</ele>
        <time>2016-05-14T09:20:17.000Z</time>
      </trkpt>
      <trkpt lat="43.62519" lon="7.08112">
        <ele>56.194774627686</ele>
        <time>2016-05-14T09:20:20.000Z</time>
      </trkpt>
      <trkpt lat="43.62519" lon="7.08115">
        <ele>56.339912414551</ele>
        <time>2016-05-14T09:20:23.000Z</time>
      </trkpt>
      <trkpt lat="43.62521" lon="7.08116">
        <ele>56.479881286621</ele>
        <time>2016-05-14T09:20:26.000Z</time>
      </trkpt>
      <trkpt lat="43.62523" lon="7.08116">
        <ele>56.595588684082</ele>
        <time>2016-05-14T09:20:29.000Z</time>
      </trkpt>
      <trkpt lat="43.62522" lon="7.08119">
        <ele>56.729797363281</ele>
        <time>2016-05-14T09:20:31.000Z</time>
      </trkpt>
      <trkpt lat="43.62521" lon="7.08125">
        <ele>56.892921447754</ele>
        <time>2016-05-14T09:20:34.000Z</time>
      </trkpt>
      <trkpt lat="43.62523" lon="7.08128">
        <ele>57.046783447266</ele>
        <time>2016-05-14T09:20:37.000Z</time>
      </trkpt>
      <trkpt lat="43.62523" lon="7.08133">
        <ele>57.259185791016</ele>
        <time>2016-05-14T09:20:40.000Z</time>
      </trkpt>
      <trkpt lat="43.62524" lon="7.08135">
        <ele>57.490856170654</ele>
        <time>2016-05-14T09:20:42.000Z</time>
      </trkpt>
      <trkpt lat="43.62526" lon="7.08137">
        <ele>57.685699462891</ele>
        <time>2016-05-14T09:20:44.000Z</time>
      </trkpt>
      <trkpt lat="43.62527" lon="7.0814">
        <ele>57.814384460449</ele>
        <time>2016-05-14T09:20:46.000Z</time>
      </trkpt>
      <trkpt lat="43.62529" lon="7.08147">
        <ele>57.979919433594</ele>
        <time>2016-05-14T09:20:49.000Z</time>
      </trkpt>
      <trkpt lat="43.62529" lon="7.08151">
        <ele>58.135231018066</ele>
        <time>2016-05-14T09:20:51.000Z</time>
      </trkpt>
      <trkpt lat="43.6253" lon="7.08153">
        <ele>58.295936584473</ele>
        <time>2016-05-14T09:20:54.000Z</time>
      </trkpt>
      <trkpt lat="43.62531" lon="7.08153">
        <ele>58.421531677246</ele>
        <time>2016-05-14T09:20:58.000Z</time>
      </trkpt>
      <trkpt lat="43.62533" lon="7.08154">
        <ele>58.510353088379</ele>
        <time>2016-05-14T09:21:00.000Z</time>
      </trkpt>
      <trkpt lat="43.62537" lon="7.08156">
        <ele>58.493743896484</ele>
        <time>2016-05-14T09:21:03.000Z</time>
      </trkpt>
      <trkpt lat="43.62542" lon="7.0816">
        <ele>58.399253845215</ele>
        <time>2016-05-14T09:21:06.000Z</time>
      </trkpt>
      <trkpt lat="43.62545" lon="7.08163">
        <ele>58.270568847656</ele>
        <time>2016-05-14T09:21:08.000Z</time>
      </trkpt>
      <trkpt lat="43.62548" lon="7.08165">
        <ele>58.143482208252</ele>
        <time>2016-05-14T09:21:11.000Z</time>
      </trkpt>
      <trkpt lat="43.6255" lon="7.08166">
        <ele>58.010028839111</ele>
        <time>2016-05-14T09:21:13.000Z</time>
      </trkpt>
      <trkpt lat="43.62552" lon="7.08168">
        <ele>57.975849151611</ele>
        <time>2016-05-14T09:21:16.000Z</time>
      </trkpt>
      <trkpt lat="43.62553" lon="7.08169">
        <ele>58.066215515137</ele>
        <time>2016-05-14T09:21:19.000Z</time>
      </trkpt>
      <trkpt lat="43.62554" lon="7.0817">
        <ele>58.269153594971</ele>
        <time>2016-05-14T09:21:23.000Z</time>
      </trkpt>
      <trkpt lat="43.62557" lon="7.08172">
        <ele>58.617652893066</ele>
        <time>2016-05-14T09:21:25.000Z</time>
      </trkpt>
      <trkpt lat="43.62561" lon="7.08174">
        <ele>59.110260009766</ele>
        <time>2016-05-14T09:21:28.000Z</time>
      </trkpt>
      <trkpt lat="43.62564" lon="7.08177">
        <ele>59.708656311035</ele>
        <time>2016-05-14T09:21:33.000Z</time>
      </trkpt>
      <trkpt lat="43.62567" lon="7.08177">
        <ele>60.152080535889</ele>
        <time>2016-05-14T09:21:36.000Z</time>
      </trkpt>
      <trkpt lat="43.6257" lon="7.08175">
        <ele>60.293834686279</ele>
        <time>2016-05-14T09:21:38.000Z</time>
      </trkpt>
      <trkpt lat="43.62572" lon="7.08173">
        <ele>60.068347930908</ele>
        <time>2016-05-14T09:21:40.000Z</time>
      </trkpt>
      <trkpt lat="43.62575" lon="7.08171">
        <ele>59.518157958984</ele>
        <time>2016-05-14T09:21:42.000Z</time>
      </trkpt>
      <trkpt lat="43.62581" lon="7.08165">
        <ele>58.336994171143</ele>
        <time>2016-05-14T09:21:45.000Z</time>
      </trkpt>
      <trkpt lat="43.62585" lon="7.08163">
        <ele>57.268573760986</ele>
        <time>2016-05-14T09:21:48.000Z</time>
      </trkpt>
      <trkpt lat="43.62589" lon="7.08162">
        <ele>56.627342224121</ele>
        <time>2016-05-14T09:21:50.000Z</time>
      </trkpt>
      <trkpt lat="43.62591" lon="7.0816">
        <ele>56.363891601562</ele>
        <time>2016-05-14T09:21:52.000Z</time>
      </trkpt>
      <trkpt lat="43.62594" lon="7.08156">
        <ele>56.463218688965</ele>
        <time>2016-05-14T09:21:55.000Z</time>
      </trkpt>
      <trkpt lat="43.62595" lon="7.08154">
        <ele>57.041687011719</ele>
        <time>2016-05-14T09:21:58.000Z</time>
      </trkpt>
      <trkpt lat="43.62597" lon="7.08152">
        <ele>57.660625457764</ele>
        <time>2016-05-14T09:22:00.000Z</time>
      </trkpt>
      <trkpt lat="43.62599" lon="7.0815">
        <ele>58.142711639404</ele>
        <time>2016-05-14T09:22:03.000Z</time>
      </trkpt>
      <trkpt lat="43.62602" lon="7.08146">
        <ele>58.584350585938</ele>
        <time>2016-05-14T09:22:06.000Z</time>
      </trkpt>
      <trkpt lat="43.62608" lon="7.08142">
        <ele>59.049549102783</ele>
        <time>2016-05-14T09:22:09.000Z</time>
      </trkpt>
      <trkpt lat="43.62611" lon="7.08139">
        <ele>59.597240447998</ele>
        <time>2016-05-14T09:22:11.000Z</time>
      </trkpt>
      <trkpt lat="43.62611" lon="7.08138">
        <ele>60.056842803955</ele>
        <time>2016-05-14T09:22:14.000Z</time>
      </trkpt>
      <trkpt lat="43.62612" lon="7.08137">
        <ele>60.456474304199</ele>
        <time>2016-05-14T09:22:16.000Z</time>
      </trkpt>
      <trkpt lat="43.62613" lon="7.08137">
        <ele>60.794677734375</ele>
        <time>2016-05-14T09:22:19.000Z</time>
      </trkpt>
      <trkpt lat="43.62613" lon="7.08137">
        <ele>60.794677734375</ele>
        <time>2016-05-14T09:22:39.000Z</time>
      </trkpt>
      <trkpt lat="43.62616" lon="7.08131">
        <ele>60.958179473877</ele>
        <time>2016-05-14T09:23:04.000Z</time>
      </trkpt>
      <trkpt lat="43.62619" lon="7.08128">
        <ele>61.037525177002</ele>
        <time>2016-05-14T09:23:07.000Z</time>
      </trkpt>
      <trkpt lat="43.62619" lon="7.08125">
        <ele>61.035057067871</ele>
        <time>2016-05-14T09:23:09.000Z</time>
      </trkpt>
      <trkpt lat="43.62622" lon="7.08121">
        <ele>60.987770080566</ele>
        <time>2016-05-14T09:23:12.000Z</time>
      </trkpt>
      <trkpt lat="43.62625" lon="7.08115">
        <ele>60.86181640625</ele>
        <time>2016-05-14T09:23:15.000Z</time>
      </trkpt>
      <trkpt lat="43.62627" lon="7.08111">
        <ele>60.658252716064</ele>
        <time>2016-05-14T09:23:17.000Z</time>
      </trkpt>
      <trkpt lat="43.62629" lon="7.08106">
        <ele>60.348625183105</ele>
        <time>2016-05-14T09:23:20.000Z</time>
      </trkpt>
      <trkpt lat="43.6263" lon="7.08104">
        <ele>60.054454803467</ele>
        <time>2016-05-14T09:23:22.000Z</time>
      </trkpt>
      <trkpt lat="43.62633" lon="7.08101">
        <ele>59.739856719971</ele>
        <time>2016-05-14T09:23:25.000Z</time>
      </trkpt>
      <trkpt lat="43.62634" lon="7.08097">
        <ele>59.382850646973</ele>
        <time>2016-05-14T09:23:28.000Z</time>
      </trkpt>
      <trkpt lat="43.62634" lon="7.08094">
        <ele>58.976421356201</ele>
        <time>2016-05-14T09:23:30.000Z</time>
      </trkpt>
      <trkpt lat="43.62634" lon="7.0809">
        <ele>58.502075195312</ele>
        <time>2016-05-14T09:23:33.000Z</time>
      </trkpt>
      <trkpt lat="43.62635" lon="7.08086">
        <ele>57.961051940918</ele>
        <time>2016-05-14T09:23:35.000Z</time>
      </trkpt>
      <trkpt lat="43.62636" lon="7.08083">
        <ele>57.363891601562</ele>
        <time>2016-05-14T09:23:37.000Z</time>
      </trkpt>
      <trkpt lat="43.62636" lon="7.08079">
        <ele>56.890441894531</ele>
        <time>2016-05-14T09:23:40.000Z</time>
      </trkpt>
      <trkpt lat="43.62637" lon="7.08076">
        <ele>56.560009002686</ele>
        <time>2016-05-14T09:23:42.000Z</time>
      </trkpt>
      <trkpt lat="43.6264" lon="7.08071">
        <ele>56.422912597656</ele>
        <time>2016-05-14T09:23:45.000Z</time>
      </trkpt>
      <trkpt lat="43.62641" lon="7.08069">
        <ele>56.421897888184</ele>
        <time>2016-05-14T09:23:48.000Z</time>
      </trkpt>
      <trkpt lat="43.62642" lon="7.08068">
        <ele>56.522529602051</ele>
        <time>2016-05-14T09:23:51.000Z</time>
      </trkpt>
      <trkpt lat="43.62644" lon="7.08066">
        <ele>56.600696563721</ele>
        <time>2016-05-14T09:23:55.000Z</time>
      </trkpt>
      <trkpt lat="43.62645" lon="7.08062">
        <ele>56.657958984375</ele>
        <time>2016-05-14T09:23:57.000Z</time>
      </trkpt>
      <trkpt lat="43.62645" lon="7.0806">
        <ele>56.68115234375</ele>
        <time>2016-05-14T09:23:59.000Z</time>
      </trkpt>
      <trkpt lat="43.62645" lon="7.08057">
        <ele>56.691345214844</ele>
        <time>2016-05-14T09:24:01.000Z</time>
      </trkpt>
      <trkpt lat="43.62648" lon="7.08052">
        <ele>56.666187286377</ele>
        <time>2016-05-14T09:24:10.000Z</time>
      </trkpt>
      <trkpt lat="43.62651" lon="7.08048">
        <ele>56.594108581543</ele>
        <time>2016-05-14T09:24:23.000Z</time>
      </trkpt>
      <trkpt lat="43.62653" lon="7.08042">
        <ele>56.460258483887</ele>
        <time>2016-05-14T09:24:26.000Z</time>
      </trkpt>
      <trkpt lat="43.62655" lon="7.08036">
        <ele>56.265605926514</ele>
        <time>2016-05-14T09:24:28.000Z</time>
      </trkpt>
      <trkpt lat="43.62656" lon="7.08033">
        <ele>56.021606445312</ele>
        <time>2016-05-14T09:24:30.000Z</time>
      </trkpt>
      <trkpt lat="43.62658" lon="7.0803">
        <ele>55.744873046875</ele>
        <time>2016-05-14T09:24:32.000Z</time>
      </trkpt>
      <trkpt lat="43.62661" lon="7.08029">
        <ele>55.43741607666</ele>
        <time>2016-05-14T09:24:34.000Z</time>
      </trkpt>
      <trkpt lat="43.62664" lon="7.08026">
        <ele>55.061157226562</ele>
        <time>2016-05-14T09:24:37.000Z</time>
      </trkpt>
      <trkpt lat="43.62667" lon="7.08022">
        <ele>54.650413513184</ele>
        <time>2016-05-14T09:24:40.000Z</time>
      </trkpt>
      <trkpt lat="43.6267" lon="7.08018">
        <ele>54.286140441895</ele>
        <time>2016-05-14T09:24:43.000Z</time>
      </trkpt>
      <trkpt lat="43.62672" lon="7.08016">
        <ele>54.025493621826</ele>
        <time>2016-05-14T09:24:46.000Z</time>
      </trkpt>
      <trkpt lat="43.62674" lon="7.08013">
        <ele>53.828685760498</ele>
        <time>2016-05-14T09:24:48.000Z</time>
      </trkpt>
      <trkpt lat="43.62676" lon="7.08009">
        <ele>53.727989196777</ele>
        <time>2016-05-14T09:24:51.000Z</time>
      </trkpt>
      <trkpt lat="43.62677" lon="7.08005">
        <ele>53.666515350342</ele>
        <time>2016-05-14T09:24:53.000Z</time>
      </trkpt>
      <trkpt lat="43.62678" lon="7.08">
        <ele>53.53271484375</ele>
        <time>2016-05-14T09:24:55.000Z</time>
      </trkpt>
      <trkpt lat="43.62679" lon="7.07994">
        <ele>53.540637969971</ele>
        <time>2016-05-14T09:24:58.000Z</time>
      </trkpt>
      <trkpt lat="43.6268" lon="7.07988">
        <ele>53.698760986328</ele>
        <time>2016-05-14T09:25:01.000Z</time>
      </trkpt>
      <trkpt lat="43.62682" lon="7.07986">
        <ele>53.962474822998</ele>
        <time>2016-05-14T09:25:04.000Z</time>
      </trkpt>
      <trkpt lat="43.62684" lon="7.07984">
        <ele>54.337779998779</ele>
        <time>2016-05-14T09:25:07.000Z</time>
      </trkpt>
      <trkpt lat="43.62687" lon="7.07981">
        <ele>54.866973876953</ele>
        <time>2016-05-14T09:25:10.000Z</time>
      </trkpt>
      <trkpt lat="43.62691" lon="7.07981">
        <ele>55.224998474121</ele>
        <time>2016-05-14T09:25:13.000Z</time>
      </trkpt>
      <trkpt lat="43.62693" lon="7.07979">
        <ele>55.467094421387</ele>
        <time>2016-05-14T09:25:16.000Z</time>
      </trkpt>
      <trkpt lat="43.62694" lon="7.07977">
        <ele>55.668811798096</ele>
        <time>2016-05-14T09:25:18.000Z</time>
      </trkpt>
      <trkpt lat="43.62693" lon="7.07975">
        <ele>55.845397949219</ele>
        <time>2016-05-14T09:25:25.000Z</time>
      </trkpt>
      <trkpt lat="43.62693" lon="7.07973">
        <ele>55.981121063232</ele>
        <time>2016-05-14T09:25:28.000Z</time>
      </trkpt>
      <trkpt lat="43.62695" lon="7.0797">
        <ele>56.143882751465</ele>
        <time>2016-05-14T09:25:31.000Z</time>
      </trkpt>
      <trkpt lat="43.62696" lon="7.07966">
        <ele>56.317279815674</ele>
        <time>2016-05-14T09:25:34.000Z</time>
      </trkpt>
      <trkpt lat="43.62697" lon="7.07965">
        <ele>56.466911315918</ele>
        <time>2016-05-14T09:25:36.000Z</time>
      </trkpt>
      <trkpt lat="43.62701" lon="7.07962">
        <ele>56.575000762939</ele>
        <time>2016-05-14T09:25:39.000Z</time>
      </trkpt>
      <trkpt lat="43.62702" lon="7.0796">
        <ele>56.650196075439</ele>
        <time>2016-05-14T09:25:41.000Z</time>
      </trkpt>
      <trkpt lat="43.62704" lon="7.07955">
        <ele>56.694213867188</ele>
        <time>2016-05-14T09:25:44.000Z</time>
      </trkpt>
      <trkpt lat="43.62705" lon="7.07952">
        <ele>56.69482421875</ele>
        <time>2016-05-14T09:25:46.000Z</time>
      </trkpt>
      <trkpt lat="43.62707" lon="7.07949">
        <ele>56.661487579346</ele>
        <time>2016-05-14T09:25:49.000Z</time>
      </trkpt>
      <trkpt lat="43.62709" lon="7.07946">
        <ele>56.601917266846</ele>
        <time>2016-05-14T09:25:51.000Z</time>
      </trkpt>
      <trkpt lat="43.6271" lon="7.0794">
        <ele>56.518871307373</ele>
        <time>2016-05-14T09:25:54.000Z</time>
      </trkpt>
      <trkpt lat="43.62712" lon="7.07936">
        <ele>56.386058807373</ele>
        <time>2016-05-14T09:25:57.000Z</time>
      </trkpt>
      <trkpt lat="43.62713" lon="7.07934">
        <ele>56.218360900879</ele>
        <time>2016-05-14T09:25:59.000Z</time>
      </trkpt>
      <trkpt lat="43.62715" lon="7.07933">
        <ele>56.004405975342</ele>
        <time>2016-05-14T09:26:01.000Z</time>
      </trkpt>
      <trkpt lat="43.62718" lon="7.07932">
        <ele>55.738899230957</ele>
        <time>2016-05-14T09:26:04.000Z</time>
      </trkpt>
      <trkpt lat="43.6272" lon="7.07931">
        <ele>55.413482666016</ele>
        <time>2016-05-14T09:26:06.000Z</time>
      </trkpt>
      <trkpt lat="43.62723" lon="7.07928">
        <ele>54.992481231689</ele>
        <time>2016-05-14T09:26:09.000Z</time>
      </trkpt>
      <trkpt lat="43.62725" lon="7.07925">
        <ele>54.500865936279</ele>
        <time>2016-05-14T09:26:12.000Z</time>
      </trkpt>
      <trkpt lat="43.62727" lon="7.07923">
        <ele>53.973949432373</ele>
        <time>2016-05-14T09:26:14.000Z</time>
      </trkpt>
      <trkpt lat="43.62729" lon="7.07921">
        <ele>53.445625305176</ele>
        <time>2016-05-14T09:26:16.000Z</time>
      </trkpt>
      <trkpt lat="43.62731" lon="7.07918">
        <ele>52.845039367676</ele>
        <time>2016-05-14T09:26:19.000Z</time>
      </trkpt>
      <trkpt lat="43.62733" lon="7.07916">
        <ele>52.319267272949</ele>
        <time>2016-05-14T09:26:21.000Z</time>
      </trkpt>
      <trkpt lat="43.62735" lon="7.07914">
        <ele>51.98628616333</ele>
        <time>2016-05-14T09:26:24.000Z</time>
      </trkpt>
      <trkpt lat="43.62736" lon="7.07913">
        <ele>51.798400878906</ele>
        <time>2016-05-14T09:26:26.000Z</time>
      </trkpt>
      <trkpt lat="43.62737" lon="7.07913">
        <ele>51.621509552002</ele>
        <time>2016-05-14T09:26:28.000Z</time>
      </trkpt>
      <trkpt lat="43.6274" lon="7.07912">
        <ele>51.519794464111</ele>
        <time>2016-05-14T09:26:31.000Z</time>
      </trkpt>
      <trkpt lat="43.62741" lon="7.07911">
        <ele>51.478950500488</ele>
        <time>2016-05-14T09:26:33.000Z</time>
      </trkpt>
      <trkpt lat="43.62743" lon="7.07908">
        <ele>51.539512634277</ele>
        <time>2016-05-14T09:26:36.000Z</time>
      </trkpt>
      <trkpt lat="43.62743" lon="7.07903">
        <ele>51.931251525879</ele>
        <time>2016-05-14T09:26:38.000Z</time>
      </trkpt>
      <trkpt lat="43.62744" lon="7.07899">
        <ele>52.646850585938</ele>
        <time>2016-05-14T09:26:40.000Z</time>
      </trkpt>
      <trkpt lat="43.62746" lon="7.07896">
        <ele>53.54940032959</ele>
        <time>2016-05-14T09:26:42.000Z</time>
      </trkpt>
      <trkpt lat="43.62747" lon="7.07896">
        <ele>54.403453826904</ele>
        <time>2016-05-14T09:26:45.000Z</time>
      </trkpt>
      <trkpt lat="43.62749" lon="7.07895">
        <ele>55.004508972168</ele>
        <time>2016-05-14T09:26:48.000Z</time>
      </trkpt>
      <trkpt lat="43.62751" lon="7.07894">
        <ele>55.315132141113</ele>
        <time>2016-05-14T09:26:51.000Z</time>
      </trkpt>
      <trkpt lat="43.62753" lon="7.07894">
        <ele>55.388816833496</ele>
        <time>2016-05-14T09:26:54.000Z</time>
      </trkpt>
      <trkpt lat="43.62754" lon="7.07895">
        <ele>55.259315490723</ele>
        <time>2016-05-14T09:26:57.000Z</time>
      </trkpt>
      <trkpt lat="43.62757" lon="7.07895">
        <ele>55.195243835449</ele>
        <time>2016-05-14T09:27:00.000Z</time>
      </trkpt>
      <trkpt lat="43.62758" lon="7.07895">
        <ele>55.258892059326</ele>
        <time>2016-05-14T09:27:02.000Z</time>
      </trkpt>
      <trkpt lat="43.62761" lon="7.07894">
        <ele>55.301109313965</ele>
        <time>2016-05-14T09:27:05.000Z</time>
      </trkpt>
      <trkpt lat="43.62762" lon="7.07894">
        <ele>55.33617401123</ele>
        <time>2016-05-14T09:27:07.000Z</time>
      </trkpt>
      <trkpt lat="43.62765" lon="7.07894">
        <ele>55.519691467285</ele>
        <time>2016-05-14T09:27:10.000Z</time>
      </trkpt>
      <trkpt lat="43.62768" lon="7.07895">
        <ele>55.629570007324</ele>
        <time>2016-05-14T09:27:13.000Z</time>
      </trkpt>
      <trkpt lat="43.6277" lon="7.07894">
        <ele>55.695457458496</ele>
        <time>2016-05-14T09:27:15.000Z</time>
      </trkpt>
      <trkpt lat="43.62774" lon="7.07894">
        <ele>55.781547546387</ele>
        <time>2016-05-14T09:27:18.000Z</time>
      </trkpt>
      <trkpt lat="43.62776" lon="7.07894">
        <ele>55.814807891846</ele>
        <time>2016-05-14T09:27:21.000Z</time>
      </trkpt>
      <trkpt lat="43.62778" lon="7.07894">
        <ele>55.851970672607</ele>
        <time>2016-05-14T09:27:23.000Z</time>
      </trkpt>
      <trkpt lat="43.62779" lon="7.07892">
        <ele>56.075630187988</ele>
        <time>2016-05-14T09:27:25.000Z</time>
      </trkpt>
      <trkpt lat="43.62781" lon="7.07889">
        <ele>56.525524139404</ele>
        <time>2016-05-14T09:27:28.000Z</time>
      </trkpt>
      <trkpt lat="43.62782" lon="7.07889">
        <ele>56.878498077393</ele>
        <time>2016-05-14T09:27:30.000Z</time>
      </trkpt>
      <trkpt lat="43.62786" lon="7.07891">
        <ele>57.202747344971</ele>
        <time>2016-05-14T09:27:33.000Z</time>
      </trkpt>
      <trkpt lat="43.62789" lon="7.0789">
        <ele>57.516181945801</ele>
        <time>2016-05-14T09:27:36.000Z</time>
      </trkpt>
      <trkpt lat="43.62791" lon="7.07891">
        <ele>57.614551544189</ele>
        <time>2016-05-14T09:27:38.000Z</time>
      </trkpt>
      <trkpt lat="43.62792" lon="7.07893">
        <ele>57.395851135254</ele>
        <time>2016-05-14T09:27:40.000Z</time>
      </trkpt>
      <trkpt lat="43.62794" lon="7.07893">
        <ele>57.164234161377</ele>
        <time>2016-05-14T09:27:42.000Z</time>
      </trkpt>
      <trkpt lat="43.62797" lon="7.07893">
        <ele>57.011772155762</ele>
        <time>2016-05-14T09:27:44.000Z</time>
      </trkpt>
      <trkpt lat="43.62799" lon="7.07894">
        <ele>56.787609100342</ele>
        <time>2016-05-14T09:27:47.000Z</time>
      </trkpt>
      <trkpt lat="43.62803" lon="7.07894">
        <ele>56.663471221924</ele>
        <time>2016-05-14T09:27:50.000Z</time>
      </trkpt>
      <trkpt lat="43.62804" lon="7.07895">
        <ele>56.565406799316</ele>
        <time>2016-05-14T09:27:52.000Z</time>
      </trkpt>
      <trkpt lat="43.62807" lon="7.07898">
        <ele>56.282341003418</ele>
        <time>2016-05-14T09:27:55.000Z</time>
      </trkpt>
      <trkpt lat="43.62809" lon="7.07898">
        <ele>55.977703094482</ele>
        <time>2016-05-14T09:27:57.000Z</time>
      </trkpt>
      <trkpt lat="43.62812" lon="7.079">
        <ele>55.575572967529</ele>
        <time>2016-05-14T09:28:00.000Z</time>
      </trkpt>
      <trkpt lat="43.62814" lon="7.07902">
        <ele>55.015552520752</ele>
        <time>2016-05-14T09:28:03.000Z</time>
      </trkpt>
      <trkpt lat="43.62818" lon="7.07903">
        <ele>54.468940734863</ele>
        <time>2016-05-14T09:28:06.000Z</time>
      </trkpt>
      <trkpt lat="43.6282" lon="7.07904">
        <ele>54.102882385254</ele>
        <time>2016-05-14T09:28:08.000Z</time>
      </trkpt>
      <trkpt lat="43.62821" lon="7.07905">
        <ele>53.647106170654</ele>
        <time>2016-05-14T09:28:12.000Z</time>
      </trkpt>
      <trkpt lat="43.62823" lon="7.07905">
        <ele>53.29736328125</ele>
        <time>2016-05-14T09:28:14.000Z</time>
      </trkpt>
      <trkpt lat="43.62824" lon="7.07906">
        <ele>53.07181930542</ele>
        <time>2016-05-14T09:28:16.000Z</time>
      </trkpt>
      <trkpt lat="43.62825" lon="7.07906">
        <ele>52.889183044434</ele>
        <time>2016-05-14T09:28:18.000Z</time>
      </trkpt>
      <trkpt lat="43.62826" lon="7.07907">
        <ele>52.68111038208</ele>
        <time>2016-05-14T09:28:25.000Z</time>
      </trkpt>
      <trkpt lat="43.62827" lon="7.07908">
        <ele>52.513813018799</ele>
        <time>2016-05-14T09:28:28.000Z</time>
      </trkpt>
      <trkpt lat="43.6283" lon="7.07911">
        <ele>52.143238067627</ele>
        <time>2016-05-14T09:28:35.000Z</time>
      </trkpt>
      <trkpt lat="43.62831" lon="7.07915">
        <ele>51.501720428467</ele>
        <time>2016-05-14T09:28:38.000Z</time>
      </trkpt>
      <trkpt lat="43.62832" lon="7.07916">
        <ele>50.777992248535</ele>
        <time>2016-05-14T09:28:40.000Z</time>
      </trkpt>
      <trkpt lat="43.62834" lon="7.0792">
        <ele>50.154155731201</ele>
        <time>2016-05-14T09:28:43.000Z</time>
      </trkpt>
      <trkpt lat="43.62834" lon="7.07923">
        <ele>49.651103973389</ele>
        <time>2016-05-14T09:28:45.000Z</time>
      </trkpt>
      <trkpt lat="43.62835" lon="7.07926">
        <ele>49.427101135254</ele>
        <time>2016-05-14T09:28:48.000Z</time>
      </trkpt>
      <trkpt lat="43.62836" lon="7.07928">
        <ele>49.546943664551</ele>
        <time>2016-05-14T09:28:51.000Z</time>
      </trkpt>
      <trkpt lat="43.62838" lon="7.0793">
        <ele>49.780742645264</ele>
        <time>2016-05-14T09:28:53.000Z</time>
      </trkpt>
      <trkpt lat="43.62842" lon="7.07933">
        <ele>50.027309417725</ele>
        <time>2016-05-14T09:28:56.000Z</time>
      </trkpt>
      <trkpt lat="43.62844" lon="7.07934">
        <ele>50.251457214355</ele>
        <time>2016-05-14T09:28:59.000Z</time>
      </trkpt>
      <trkpt lat="43.62846" lon="7.07935">
        <ele>50.428997039795</ele>
        <time>2016-05-14T09:29:01.000Z</time>
      </trkpt>
      <trkpt lat="43.62848" lon="7.07937">
        <ele>50.590072631836</ele>
        <time>2016-05-14T09:29:04.000Z</time>
      </trkpt>
      <trkpt lat="43.62849" lon="7.07939">
        <ele>50.732471466064</ele>
        <time>2016-05-14T09:29:06.000Z</time>
      </trkpt>
      <trkpt lat="43.62852" lon="7.07941">
        <ele>50.85359954834</ele>
        <time>2016-05-14T09:29:09.000Z</time>
      </trkpt>
      <trkpt lat="43.62854" lon="7.07944">
        <ele>50.976825714111</ele>
        <time>2016-05-14T09:29:12.000Z</time>
      </trkpt>
      <trkpt lat="43.62854" lon="7.07948">
        <ele>51.121467590332</ele>
        <time>2016-05-14T09:29:15.000Z</time>
      </trkpt>
      <trkpt lat="43.62855" lon="7.07952">
        <ele>51.266090393066</ele>
        <time>2016-05-14T09:29:18.000Z</time>
      </trkpt>
      <trkpt lat="43.62857" lon="7.07954">
        <ele>51.402061462402</ele>
        <time>2016-05-14T09:29:21.000Z</time>
      </trkpt>
      <trkpt lat="43.62858" lon="7.07956">
        <ele>51.516960144043</ele>
        <time>2016-05-14T09:29:24.000Z</time>
      </trkpt>
      <trkpt lat="43.6286" lon="7.07958">
        <ele>51.603302001953</ele>
        <time>2016-05-14T09:29:26.000Z</time>
      </trkpt>
      <trkpt lat="43.62862" lon="7.0796">
        <ele>51.660461425781</ele>
        <time>2016-05-14T09:29:28.000Z</time>
      </trkpt>
      <trkpt lat="43.62864" lon="7.07964">
        <ele>51.687530517578</ele>
        <time>2016-05-14T09:29:31.000Z</time>
      </trkpt>
      <trkpt lat="43.62868" lon="7.07969">
        <ele>51.685882568359</ele>
        <time>2016-05-14T09:29:34.000Z</time>
      </trkpt>
      <trkpt lat="43.62872" lon="7.07973">
        <ele>51.656707763672</ele>
        <time>2016-05-14T09:29:37.000Z</time>
      </trkpt>
      <trkpt lat="43.62874" lon="7.07974">
        <ele>51.602519989014</ele>
        <time>2016-05-14T09:29:39.000Z</time>
      </trkpt>
      <trkpt lat="43.62875" lon="7.07976">
        <ele>51.528705596924</ele>
        <time>2016-05-14T09:29:41.000Z</time>
      </trkpt>
      <trkpt lat="43.62879" lon="7.07979">
        <ele>51.400245666504</ele>
        <time>2016-05-14T09:29:44.000Z</time>
      </trkpt>
      <trkpt lat="43.62884" lon="7.0798">
        <ele>51.220264434814</ele>
        <time>2016-05-14T09:29:47.000Z</time>
      </trkpt>
      <trkpt lat="43.62886" lon="7.0798">
        <ele>51.031913757324</ele>
        <time>2016-05-14T09:29:49.000Z</time>
      </trkpt>
      <trkpt lat="43.62888" lon="7.07981">
        <ele>50.834865570068</ele>
        <time>2016-05-14T09:29:52.000Z</time>
      </trkpt>
      <trkpt lat="43.6289" lon="7.07983">
        <ele>50.619968414307</ele>
        <time>2016-05-14T09:29:55.000Z</time>
      </trkpt>
      <trkpt lat="43.62891" lon="7.07985">
        <ele>50.428974151611</ele>
        <time>2016-05-14T09:29:57.000Z</time>
      </trkpt>
      <trkpt lat="43.62893" lon="7.07987">
        <ele>50.25793838501</ele>
        <time>2016-05-14T09:30:00.000Z</time>
      </trkpt>
      <trkpt lat="43.62895" lon="7.07989">
        <ele>50.072570800781</ele>
        <time>2016-05-14T09:30:02.000Z</time>
      </trkpt>
      <trkpt lat="43.62896" lon="7.07992">
        <ele>49.882499694824</ele>
        <time>2016-05-14T09:30:05.000Z</time>
      </trkpt>
      <trkpt lat="43.62898" lon="7.07993">
        <ele>49.681842803955</ele>
        <time>2016-05-14T09:30:07.000Z</time>
      </trkpt>
      <trkpt lat="43.629" lon="7.07994">
        <ele>49.463600158691</ele>
        <time>2016-05-14T09:30:09.000Z</time>
      </trkpt>
      <trkpt lat="43.62902" lon="7.07997">
        <ele>49.227073669434</ele>
        <time>2016-05-14T09:30:12.000Z</time>
      </trkpt>
      <trkpt lat="43.62905" lon="7.07999">
        <ele>48.957408905029</ele>
        <time>2016-05-14T09:30:14.000Z</time>
      </trkpt>
      <trkpt lat="43.62907" lon="7.08001">
        <ele>48.678573608398</ele>
        <time>2016-05-14T09:30:16.000Z</time>
      </trkpt>
      <trkpt lat="43.62909" lon="7.08005">
        <ele>48.424034118652</ele>
        <time>2016-05-14T09:30:19.000Z</time>
      </trkpt>
      <trkpt lat="43.6291" lon="7.08008">
        <ele>48.212604522705</ele>
        <time>2016-05-14T09:30:21.000Z</time>
      </trkpt>
      <trkpt lat="43.62912" lon="7.08012">
        <ele>48.052116394043</ele>
        <time>2016-05-14T09:30:24.000Z</time>
      </trkpt>
      <trkpt lat="43.62913" lon="7.08016">
        <ele>47.974460601807</ele>
        <time>2016-05-14T09:30:26.000Z</time>
      </trkpt>
      <trkpt lat="43.62914" lon="7.08019">
        <ele>47.935871124268</ele>
        <time>2016-05-14T09:30:29.000Z</time>
      </trkpt>
      <trkpt lat="43.62915" lon="7.08022">
        <ele>47.882266998291</ele>
        <time>2016-05-14T09:30:32.000Z</time>
      </trkpt>
      <trkpt lat="43.62916" lon="7.08024">
        <ele>47.814228057861</ele>
        <time>2016-05-14T09:30:35.000Z</time>
      </trkpt>
      <trkpt lat="43.62918" lon="7.08025">
        <ele>47.865467071533</ele>
        <time>2016-05-14T09:30:37.000Z</time>
      </trkpt>
      <trkpt lat="43.6292" lon="7.08027">
        <ele>47.998176574707</ele>
        <time>2016-05-14T09:30:39.000Z</time>
      </trkpt>
      <trkpt lat="43.62923" lon="7.0803">
        <ele>48.393260955811</ele>
        <time>2016-05-14T09:30:42.000Z</time>
      </trkpt>
      <trkpt lat="43.62925" lon="7.08032">
        <ele>48.908027648926</ele>
        <time>2016-05-14T09:30:44.000Z</time>
      </trkpt>
      <trkpt lat="43.62926" lon="7.08034">
        <ele>49.580383300781</ele>
        <time>2016-05-14T09:30:47.000Z</time>
      </trkpt>
      <trkpt lat="43.62926" lon="7.08037">
        <ele>50.157676696777</ele>
        <time>2016-05-14T09:30:49.000Z</time>
      </trkpt>
      <trkpt lat="43.62926" lon="7.08042">
        <ele>50.636913299561</ele>
        <time>2016-05-14T09:30:52.000Z</time>
      </trkpt>
      <trkpt lat="43.62926" lon="7.08046">
        <ele>50.846202850342</ele>
        <time>2016-05-14T09:30:54.000Z</time>
      </trkpt>
      <trkpt lat="43.62928" lon="7.08052">
        <ele>51.112125396729</ele>
        <time>2016-05-14T09:30:57.000Z</time>
      </trkpt>
      <trkpt lat="43.6293" lon="7.08056">
        <ele>51.420318603516</ele>
        <time>2016-05-14T09:31:00.000Z</time>
      </trkpt>
      <trkpt lat="43.62931" lon="7.0806">
        <ele>51.75537109375</ele>
        <time>2016-05-14T09:31:03.000Z</time>
      </trkpt>
      <trkpt lat="43.62933" lon="7.08063">
        <ele>52.20072555542</ele>
        <time>2016-05-14T09:31:05.000Z</time>
      </trkpt>
      <trkpt lat="43.62933" lon="7.08065">
        <ele>52.713081359863</ele>
        <time>2016-05-14T09:31:07.000Z</time>
      </trkpt>
      <trkpt lat="43.62932" lon="7.08069">
        <ele>53.015758514404</ele>
        <time>2016-05-14T09:31:10.000Z</time>
      </trkpt>
      <trkpt lat="43.62931" lon="7.08072">
        <ele>53.047973632812</ele>
        <time>2016-05-14T09:31:13.000Z</time>
      </trkpt>
      <trkpt lat="43.62931" lon="7.08073">
        <ele>53.095420837402</ele>
        <time>2016-05-14T09:31:19.000Z</time>
      </trkpt>
      <trkpt lat="43.62932" lon="7.08075">
        <ele>53.091297149658</ele>
        <time>2016-05-14T09:31:22.000Z</time>
      </trkpt>
      <trkpt lat="43.62933" lon="7.08076">
        <ele>53.084381103516</ele>
        <time>2016-05-14T09:31:24.000Z</time>
      </trkpt>
      <trkpt lat="43.62934" lon="7.08076">
        <ele>53.235473632812</ele>
        <time>2016-05-14T09:31:27.000Z</time>
      </trkpt>
      <trkpt lat="43.62934" lon="7.08077">
        <ele>53.452991485596</ele>
        <time>2016-05-14T09:31:29.000Z</time>
      </trkpt>
      <trkpt lat="43.62934" lon="7.08078">
        <ele>53.600486755371</ele>
        <time>2016-05-14T09:31:31.000Z</time>
      </trkpt>
      <trkpt lat="43.62935" lon="7.08084">
        <ele>53.775951385498</ele>
        <time>2016-05-14T09:31:34.000Z</time>
      </trkpt>
      <trkpt lat="43.62934" lon="7.08085">
        <ele>53.831378936768</ele>
        <time>2016-05-14T09:31:42.000Z</time>
      </trkpt>
      <trkpt lat="43.62932" lon="7.08086">
        <ele>53.660804748535</ele>
        <time>2016-05-14T09:31:45.000Z</time>
      </trkpt>
      <trkpt lat="43.62931" lon="7.08092">
        <ele>53.314094543457</ele>
        <time>2016-05-14T09:31:52.000Z</time>
      </trkpt>
      <trkpt lat="43.6293" lon="7.08096">
        <ele>52.923057556152</ele>
        <time>2016-05-14T09:31:54.000Z</time>
      </trkpt>
      <trkpt lat="43.62931" lon="7.08098">
        <ele>52.423004150391</ele>
        <time>2016-05-14T09:31:57.000Z</time>
      </trkpt>
      <trkpt lat="43.62931" lon="7.081">
        <ele>51.958660125732</ele>
        <time>2016-05-14T09:31:59.000Z</time>
      </trkpt>
      <trkpt lat="43.62932" lon="7.08104">
        <ele>51.631996154785</ele>
        <time>2016-05-14T09:32:02.000Z</time>
      </trkpt>
      <trkpt lat="43.62931" lon="7.08108">
        <ele>51.389671325684</ele>
        <time>2016-05-14T09:32:05.000Z</time>
      </trkpt>
      <trkpt lat="43.62932" lon="7.0811">
        <ele>51.214790344238</ele>
        <time>2016-05-14T09:32:07.000Z</time>
      </trkpt>
      <trkpt lat="43.62933" lon="7.08115">
        <ele>51.039375305176</ele>
        <time>2016-05-14T09:32:10.000Z</time>
      </trkpt>
      <trkpt lat="43.62933" lon="7.08118">
        <ele>50.863182067871</ele>
        <time>2016-05-14T09:32:12.000Z</time>
      </trkpt>
      <trkpt lat="43.62933" lon="7.08121">
        <ele>50.627700805664</ele>
        <time>2016-05-14T09:32:14.000Z</time>
      </trkpt>
      <trkpt lat="43.62933" lon="7.08124">
        <ele>50.449409484863</ele>
        <time>2016-05-14T09:32:17.000Z</time>
      </trkpt>
      <trkpt lat="43.62933" lon="7.08127">
        <ele>50.198436737061</ele>
        <time>2016-05-14T09:32:19.000Z</time>
      </trkpt>
      <trkpt lat="43.62933" lon="7.08131">
        <ele>49.93416595459</ele>
        <time>2016-05-14T09:32:22.000Z</time>
      </trkpt>
      <trkpt lat="43.62933" lon="7.08133">
        <ele>49.669776916504</ele>
        <time>2016-05-14T09:32:24.000Z</time>
      </trkpt>
      <trkpt lat="43.62933" lon="7.08137">
        <ele>49.373584747314</ele>
        <time>2016-05-14T09:32:27.000Z</time>
      </trkpt>
      <trkpt lat="43.6293" lon="7.08142">
        <ele>48.948291778564</ele>
        <time>2016-05-14T09:32:30.000Z</time>
      </trkpt>
      <trkpt lat="43.62928" lon="7.08144">
        <ele>48.439926147461</ele>
        <time>2016-05-14T09:32:32.000Z</time>
      </trkpt>
      <trkpt lat="43.62926" lon="7.08148">
        <ele>47.826118469238</ele>
        <time>2016-05-14T09:32:35.000Z</time>
      </trkpt>
      <trkpt lat="43.62925" lon="7.0815">
        <ele>47.194843292236</ele>
        <time>2016-05-14T09:32:38.000Z</time>
      </trkpt>
      <trkpt lat="43.62925" lon="7.08153">
        <ele>46.606910705566</ele>
        <time>2016-05-14T09:32:40.000Z</time>
      </trkpt>
      <trkpt lat="43.62926" lon="7.08156">
        <ele>46.184349060059</ele>
        <time>2016-05-14T09:32:42.000Z</time>
      </trkpt>
      <trkpt lat="43.62925" lon="7.08159">
        <ele>45.832862854004</ele>
        <time>2016-05-14T09:32:45.000Z</time>
      </trkpt>
      <trkpt lat="43.62925" lon="7.08161">
        <ele>45.575057983398</ele>
        <time>2016-05-14T09:32:47.000Z</time>
      </trkpt>
      <trkpt lat="43.62925" lon="7.08165">
        <ele>45.326580047607</ele>
        <time>2016-05-14T09:32:50.000Z</time>
      </trkpt>
      <trkpt lat="43.62925" lon="7.0817">
        <ele>45.051826477051</ele>
        <time>2016-05-14T09:32:52.000Z</time>
      </trkpt>
      <trkpt lat="43.62925" lon="7.08172">
        <ele>44.784141540527</ele>
        <time>2016-05-14T09:32:55.000Z</time>
      </trkpt>
      <trkpt lat="43.62923" lon="7.08173">
        <ele>44.553489685059</ele>
        <time>2016-05-14T09:32:58.000Z</time>
      </trkpt>
      <trkpt lat="43.62923" lon="7.08176">
        <ele>44.323745727539</ele>
        <time>2016-05-14T09:33:00.000Z</time>
      </trkpt>
      <trkpt lat="43.62922" lon="7.0818">
        <ele>44.061016082764</ele>
        <time>2016-05-14T09:33:02.000Z</time>
      </trkpt>
      <trkpt lat="43.6292" lon="7.08184">
        <ele>43.775596618652</ele>
        <time>2016-05-14T09:33:04.000Z</time>
      </trkpt>
      <trkpt lat="43.62917" lon="7.08188">
        <ele>43.373870849609</ele>
        <time>2016-05-14T09:33:07.000Z</time>
      </trkpt>
      <trkpt lat="43.62917" lon="7.08191">
        <ele>42.970623016357</ele>
        <time>2016-05-14T09:33:09.000Z</time>
      </trkpt>
      <trkpt lat="43.62915" lon="7.08196">
        <ele>42.667259216309</ele>
        <time>2016-05-14T09:33:12.000Z</time>
      </trkpt>
      <trkpt lat="43.62914" lon="7.082">
        <ele>42.549491882324</ele>
        <time>2016-05-14T09:33:14.000Z</time>
      </trkpt>
      <trkpt lat="43.62913" lon="7.08202">
        <ele>42.535339355469</ele>
        <time>2016-05-14T09:33:16.000Z</time>
      </trkpt>
      <trkpt lat="43.62913" lon="7.08204">
        <ele>42.65771484375</ele>
        <time>2016-05-14T09:33:18.000Z</time>
      </trkpt>
      <trkpt lat="43.62912" lon="7.08207">
        <ele>42.858390808105</ele>
        <time>2016-05-14T09:33:21.000Z</time>
      </trkpt>
      <trkpt lat="43.62912" lon="7.0821">
        <ele>42.991333007812</ele>
        <time>2016-05-14T09:33:24.000Z</time>
      </trkpt>
      <trkpt lat="43.62911" lon="7.08213">
        <ele>43.047416687012</ele>
        <time>2016-05-14T09:33:26.000Z</time>
      </trkpt>
      <trkpt lat="43.62909" lon="7.08215">
        <ele>43.228256225586</ele>
        <time>2016-05-14T09:33:29.000Z</time>
      </trkpt>
      <trkpt lat="43.62908" lon="7.08218">
        <ele>43.401863098145</ele>
        <time>2016-05-14T09:33:32.000Z</time>
      </trkpt>
      <trkpt lat="43.62909" lon="7.08222">
        <ele>43.462898254395</ele>
        <time>2016-05-14T09:33:35.000Z</time>
      </trkpt>
      <trkpt lat="43.62909" lon="7.08225">
        <ele>43.495513916016</ele>
        <time>2016-05-14T09:33:37.000Z</time>
      </trkpt>
      <trkpt lat="43.62908" lon="7.08227">
        <ele>43.552165985107</ele>
        <time>2016-05-14T09:33:39.000Z</time>
      </trkpt>
      <trkpt lat="43.62907" lon="7.08228">
        <ele>43.537754058838</ele>
        <time>2016-05-14T09:33:41.000Z</time>
      </trkpt>
      <trkpt lat="43.62907" lon="7.08231">
        <ele>43.528411865234</ele>
        <time>2016-05-14T09:33:44.000Z</time>
      </trkpt>
      <trkpt lat="43.62907" lon="7.08235">
        <ele>43.535346984863</ele>
        <time>2016-05-14T09:33:47.000Z</time>
      </trkpt>
      <trkpt lat="43.62907" lon="7.08238">
        <ele>43.570880889893</ele>
        <time>2016-05-14T09:33:49.000Z</time>
      </trkpt>
      <trkpt lat="43.62906" lon="7.08239">
        <ele>43.587257385254</ele>
        <time>2016-05-14T09:33:51.000Z</time>
      </trkpt>
      <trkpt lat="43.62905" lon="7.08242">
        <ele>43.58752822876</ele>
        <time>2016-05-14T09:33:53.000Z</time>
      </trkpt>
      <trkpt lat="43.62902" lon="7.08246">
        <ele>43.690139770508</ele>
        <time>2016-05-14T09:33:56.000Z</time>
      </trkpt>
      <trkpt lat="43.62901" lon="7.08248">
        <ele>43.907890319824</ele>
        <time>2016-05-14T09:33:58.000Z</time>
      </trkpt>
      <trkpt lat="43.62899" lon="7.0825">
        <ele>44.223827362061</ele>
        <time>2016-05-14T09:34:01.000Z</time>
      </trkpt>
      <trkpt lat="43.62899" lon="7.08251">
        <ele>44.548873901367</ele>
        <time>2016-05-14T09:34:03.000Z</time>
      </trkpt>
      <trkpt lat="43.62898" lon="7.08252">
        <ele>44.87230682373</ele>
        <time>2016-05-14T09:34:05.000Z</time>
      </trkpt>
      <trkpt lat="43.62896" lon="7.08256">
        <ele>45.204803466797</ele>
        <time>2016-05-14T09:34:08.000Z</time>
      </trkpt>
      <trkpt lat="43.62895" lon="7.08258">
        <ele>45.556880950928</ele>
        <time>2016-05-14T09:34:10.000Z</time>
      </trkpt>
      <trkpt lat="43.62894" lon="7.08261">
        <ele>45.880149841309</ele>
        <time>2016-05-14T09:34:12.000Z</time>
      </trkpt>
      <trkpt lat="43.62893" lon="7.08266">
        <ele>46.22550201416</ele>
        <time>2016-05-14T09:34:15.000Z</time>
      </trkpt>
      <trkpt lat="43.6289" lon="7.08271">
        <ele>46.65678024292</ele>
        <time>2016-05-14T09:34:18.000Z</time>
      </trkpt>
      <trkpt lat="43.62889" lon="7.08274">
        <ele>47.058895111084</ele>
        <time>2016-05-14T09:34:20.000Z</time>
      </trkpt>
      <trkpt lat="43.62886" lon="7.08277">
        <ele>47.499732971191</ele>
        <time>2016-05-14T09:34:23.000Z</time>
      </trkpt>
      <trkpt lat="43.62885" lon="7.0828">
        <ele>48.002006530762</ele>
        <time>2016-05-14T09:34:26.000Z</time>
      </trkpt>
      <trkpt lat="43.62883" lon="7.08281">
        <ele>48.523506164551</ele>
        <time>2016-05-14T09:34:28.000Z</time>
      </trkpt>
      <trkpt lat="43.62882" lon="7.08284">
        <ele>48.973472595215</ele>
        <time>2016-05-14T09:34:30.000Z</time>
      </trkpt>
      <trkpt lat="43.6288" lon="7.08289">
        <ele>49.392681121826</ele>
        <time>2016-05-14T09:34:33.000Z</time>
      </trkpt>
      <trkpt lat="43.62879" lon="7.08292">
        <ele>49.783882141113</ele>
        <time>2016-05-14T09:34:36.000Z</time>
      </trkpt>
      <trkpt lat="43.62878" lon="7.08296">
        <ele>50.102653503418</ele>
        <time>2016-05-14T09:34:39.000Z</time>
      </trkpt>
      <trkpt lat="43.62876" lon="7.08301">
        <ele>50.432395935059</ele>
        <time>2016-05-14T09:34:42.000Z</time>
      </trkpt>
      <trkpt lat="43.62875" lon="7.08303">
        <ele>50.737300872803</ele>
        <time>2016-05-14T09:34:44.000Z</time>
      </trkpt>
      <trkpt lat="43.62875" lon="7.0831">
        <ele>50.96936416626</ele>
        <time>2016-05-14T09:34:47.000Z</time>
      </trkpt>
      <trkpt lat="43.62874" lon="7.08315">
        <ele>51.149299621582</ele>
        <time>2016-05-14T09:34:50.000Z</time>
      </trkpt>
      <trkpt lat="43.62873" lon="7.08319">
        <ele>51.346385955811</ele>
        <time>2016-05-14T09:34:52.000Z</time>
      </trkpt>
      <trkpt lat="43.62872" lon="7.08322">
        <ele>51.498893737793</ele>
        <time>2016-05-14T09:34:54.000Z</time>
      </trkpt>
      <trkpt lat="43.62872" lon="7.08323">
        <ele>51.629783630371</ele>
        <time>2016-05-14T09:34:56.000Z</time>
      </trkpt>
      <trkpt lat="43.62871" lon="7.08327">
        <ele>51.786804199219</ele>
        <time>2016-05-14T09:34:58.000Z</time>
      </trkpt>
      <trkpt lat="43.6287" lon="7.0833">
        <ele>51.945178985596</ele>
        <time>2016-05-14T09:35:01.000Z</time>
      </trkpt>
      <trkpt lat="43.6287" lon="7.08333">
        <ele>52.083885192871</ele>
        <time>2016-05-14T09:35:03.000Z</time>
      </trkpt>
      <trkpt lat="43.62869" lon="7.08335">
        <ele>52.192058563232</ele>
        <time>2016-05-14T09:35:05.000Z</time>
      </trkpt>
      <trkpt lat="43.62869" lon="7.0834">
        <ele>52.35523223877</ele>
        <time>2016-05-14T09:35:08.000Z</time>
      </trkpt>
      <trkpt lat="43.62868" lon="7.08346">
        <ele>52.613838195801</ele>
        <time>2016-05-14T09:35:11.000Z</time>
      </trkpt>
      <trkpt lat="43.62867" lon="7.08351">
        <ele>52.960083007812</ele>
        <time>2016-05-14T09:35:14.000Z</time>
      </trkpt>
      <trkpt lat="43.62867" lon="7.08353">
        <ele>53.28267288208</ele>
        <time>2016-05-14T09:35:16.000Z</time>
      </trkpt>
      <trkpt lat="43.62868" lon="7.08358">
        <ele>53.588703155518</ele>
        <time>2016-05-14T09:35:19.000Z</time>
      </trkpt>
      <trkpt lat="43.62868" lon="7.08362">
        <ele>53.872447967529</ele>
        <time>2016-05-14T09:35:21.000Z</time>
      </trkpt>
      <trkpt lat="43.62869" lon="7.08368">
        <ele>54.051490783691</ele>
        <time>2016-05-14T09:35:24.000Z</time>
      </trkpt>
      <trkpt lat="43.62869" lon="7.08372">
        <ele>54.177795410156</ele>
        <time>2016-05-14T09:35:26.000Z</time>
      </trkpt>
      <trkpt lat="43.6287" lon="7.08377">
        <ele>54.281303405762</ele>
        <time>2016-05-14T09:35:29.000Z</time>
      </trkpt>
      <trkpt lat="43.62873" lon="7.08381">
        <ele>54.279876708984</ele>
        <time>2016-05-14T09:35:32.000Z</time>
      </trkpt>
      <trkpt lat="43.62874" lon="7.08387">
        <ele>54.193744659424</ele>
        <time>2016-05-14T09:35:35.000Z</time>
      </trkpt>
      <trkpt lat="43.62876" lon="7.0839">
        <ele>54.038463592529</ele>
        <time>2016-05-14T09:35:37.000Z</time>
      </trkpt>
      <trkpt lat="43.6288" lon="7.08392">
        <ele>53.60863494873</ele>
        <time>2016-05-14T09:35:39.000Z</time>
      </trkpt>
      <trkpt lat="43.62884" lon="7.08395">
        <ele>52.942420959473</ele>
        <time>2016-05-14T09:35:42.000Z</time>
      </trkpt>
      <trkpt lat="43.62887" lon="7.08397">
        <ele>52.212291717529</ele>
        <time>2016-05-14T09:35:44.000Z</time>
      </trkpt>
      <trkpt lat="43.6289" lon="7.084">
        <ele>51.360038757324</ele>
        <time>2016-05-14T09:35:47.000Z</time>
      </trkpt>
      <trkpt lat="43.6289" lon="7.08406">
        <ele>50.584655761719</ele>
        <time>2016-05-14T09:35:50.000Z</time>
      </trkpt>
      <trkpt lat="43.62891" lon="7.0841">
        <ele>49.9928855896</ele>
        <time>2016-05-14T09:35:53.000Z</time>
      </trkpt>
      <trkpt lat="43.62894" lon="7.08411">
        <ele>49.46817779541</ele>
        <time>2016-05-14T09:35:55.000Z</time>
      </trkpt>
      <trkpt lat="43.62898" lon="7.08411">
        <ele>48.838882446289</ele>
        <time>2016-05-14T09:35:57.000Z</time>
      </trkpt>
      <trkpt lat="43.62904" lon="7.08411">
        <ele>47.965309143066</ele>
        <time>2016-05-14T09:36:00.000Z</time>
      </trkpt>
      <trkpt lat="43.62908" lon="7.08411">
        <ele>46.841594696045</ele>
        <time>2016-05-14T09:36:02.000Z</time>
      </trkpt>
      <trkpt lat="43.62912" lon="7.08409">
        <ele>45.475624084473</ele>
        <time>2016-05-14T09:36:04.000Z</time>
      </trkpt>
      <trkpt lat="43.62916" lon="7.08406">
        <ele>43.999969482422</ele>
        <time>2016-05-14T09:36:07.000Z</time>
      </trkpt>
      <trkpt lat="43.62919" lon="7.08405">
        <ele>42.822021484375</ele>
        <time>2016-05-14T09:36:10.000Z</time>
      </trkpt>
      <trkpt lat="43.62921" lon="7.08405">
        <ele>42.115608215332</ele>
        <time>2016-05-14T09:36:12.000Z</time>
      </trkpt>
      <trkpt lat="43.62923" lon="7.08404">
        <ele>41.708354949951</ele>
        <time>2016-05-14T09:36:15.000Z</time>
      </trkpt>
      <trkpt lat="43.62926" lon="7.08404">
        <ele>41.639110565186</ele>
        <time>2016-05-14T09:36:24.000Z</time>
      </trkpt>
      <trkpt lat="43.62928" lon="7.08405">
        <ele>41.926441192627</ele>
        <time>2016-05-14T09:36:26.000Z</time>
      </trkpt>
      <trkpt lat="43.62931" lon="7.08407">
        <ele>42.25630569458</ele>
        <time>2016-05-14T09:36:29.000Z</time>
      </trkpt>
      <trkpt lat="43.62935" lon="7.08409">
        <ele>42.615947723389</ele>
        <time>2016-05-14T09:36:32.000Z</time>
      </trkpt>
      <trkpt lat="43.62937" lon="7.0841">
        <ele>42.965194702148</ele>
        <time>2016-05-14T09:36:34.000Z</time>
      </trkpt>
      <trkpt lat="43.62942" lon="7.08412">
        <ele>43.370399475098</ele>
        <time>2016-05-14T09:36:37.000Z</time>
      </trkpt>
      <trkpt lat="43.62944" lon="7.08413">
        <ele>43.751243591309</ele>
        <time>2016-05-14T09:36:39.000Z</time>
      </trkpt>
      <trkpt lat="43.62946" lon="7.08416">
        <ele>44.088424682617</ele>
        <time>2016-05-14T09:36:41.000Z</time>
      </trkpt>
      <trkpt lat="43.62948" lon="7.0842">
        <ele>44.363609313965</ele>
        <time>2016-05-14T09:36:44.000Z</time>
      </trkpt>
      <trkpt lat="43.62951" lon="7.08422">
        <ele>44.647525787354</ele>
        <time>2016-05-14T09:36:47.000Z</time>
      </trkpt>
      <trkpt lat="43.62954" lon="7.08425">
        <ele>44.861320495605</ele>
        <time>2016-05-14T09:36:50.000Z</time>
      </trkpt>
      <trkpt lat="43.62955" lon="7.08426">
        <ele>45.036182403564</ele>
        <time>2016-05-14T09:36:52.000Z</time>
      </trkpt>
      <trkpt lat="43.62957" lon="7.08427">
        <ele>45.22078704834</ele>
        <time>2016-05-14T09:36:54.000Z</time>
      </trkpt>
      <trkpt lat="43.6296" lon="7.08428">
        <ele>45.405323028564</ele>
        <time>2016-05-14T09:36:56.000Z</time>
      </trkpt>
      <trkpt lat="43.62961" lon="7.08429">
        <ele>45.541820526123</ele>
        <time>2016-05-14T09:36:58.000Z</time>
      </trkpt>
      <trkpt lat="43.62965" lon="7.0843">
        <ele>45.670043945312</ele>
        <time>2016-05-14T09:37:01.000Z</time>
      </trkpt>
      <trkpt lat="43.62967" lon="7.0843">
        <ele>45.834693908691</ele>
        <time>2016-05-14T09:37:03.000Z</time>
      </trkpt>
      <trkpt lat="43.62969" lon="7.0843">
        <ele>45.996841430664</ele>
        <time>2016-05-14T09:37:05.000Z</time>
      </trkpt>
      <trkpt lat="43.62972" lon="7.0843">
        <ele>46.167137145996</ele>
        <time>2016-05-14T09:37:08.000Z</time>
      </trkpt>
      <trkpt lat="43.62974" lon="7.08431">
        <ele>46.342620849609</ele>
        <time>2016-05-14T09:37:10.000Z</time>
      </trkpt>
      <trkpt lat="43.62977" lon="7.08432">
        <ele>46.496356964111</ele>
        <time>2016-05-14T09:37:12.000Z</time>
      </trkpt>
      <trkpt lat="43.6298" lon="7.08433">
        <ele>46.632289886475</ele>
        <time>2016-05-14T09:37:15.000Z</time>
      </trkpt>
      <trkpt lat="43.62982" lon="7.08434">
        <ele>46.74934387207</ele>
        <time>2016-05-14T09:37:17.000Z</time>
      </trkpt>
      <trkpt lat="43.62984" lon="7.08436">
        <ele>46.815498352051</ele>
        <time>2016-05-14T09:37:20.000Z</time>
      </trkpt>
      <trkpt lat="43.62986" lon="7.08437">
        <ele>46.848892211914</ele>
        <time>2016-05-14T09:37:23.000Z</time>
      </trkpt>
      <trkpt lat="43.62989" lon="7.08439">
        <ele>46.833335876465</ele>
        <time>2016-05-14T09:37:26.000Z</time>
      </trkpt>
      <trkpt lat="43.6299" lon="7.08441">
        <ele>46.757484436035</ele>
        <time>2016-05-14T09:37:28.000Z</time>
      </trkpt>
      <trkpt lat="43.62992" lon="7.08444">
        <ele>46.606575012207</ele>
        <time>2016-05-14T09:37:30.000Z</time>
      </trkpt>
      <trkpt lat="43.62996" lon="7.08445">
        <ele>46.436962127686</ele>
        <time>2016-05-14T09:37:33.000Z</time>
      </trkpt>
      <trkpt lat="43.62997" lon="7.08446">
        <ele>46.274627685547</ele>
        <time>2016-05-14T09:37:35.000Z</time>
      </trkpt>
      <trkpt lat="43.62999" lon="7.08448">
        <ele>46.066799163818</ele>
        <time>2016-05-14T09:37:38.000Z</time>
      </trkpt>
      <trkpt lat="43.63001" lon="7.08451">
        <ele>45.85774230957</ele>
        <time>2016-05-14T09:37:41.000Z</time>
      </trkpt>
      <trkpt lat="43.63004" lon="7.08454">
        <ele>45.756488800049</ele>
        <time>2016-05-14T09:37:44.000Z</time>
      </trkpt>
      <trkpt lat="43.63005" lon="7.08455">
        <ele>45.710468292236</ele>
        <time>2016-05-14T09:37:46.000Z</time>
      </trkpt>
      <trkpt lat="43.63007" lon="7.08456">
        <ele>45.713020324707</ele>
        <time>2016-05-14T09:37:48.000Z</time>
      </trkpt>
      <trkpt lat="43.6301" lon="7.08458">
        <ele>45.840858459473</ele>
        <time>2016-05-14T09:37:51.000Z</time>
      </trkpt>
      <trkpt lat="43.63012" lon="7.0846">
        <ele>46.053771972656</ele>
        <time>2016-05-14T09:37:53.000Z</time>
      </trkpt>
      <trkpt lat="43.63014" lon="7.08462">
        <ele>46.267566680908</ele>
        <time>2016-05-14T09:37:55.000Z</time>
      </trkpt>
      <trkpt lat="43.63018" lon="7.08466">
        <ele>46.445304870605</ele>
        <time>2016-05-14T09:37:58.000Z</time>
      </trkpt>
      <trkpt lat="43.63019" lon="7.08468">
        <ele>46.589668273926</ele>
        <time>2016-05-14T09:38:01.000Z</time>
      </trkpt>
      <trkpt lat="43.6302" lon="7.0847">
        <ele>46.629203796387</ele>
        <time>2016-05-14T09:38:04.000Z</time>
      </trkpt>
      <trkpt lat="43.63023" lon="7.08471">
        <ele>46.749431610107</ele>
        <time>2016-05-14T09:38:07.000Z</time>
      </trkpt>
      <trkpt lat="43.63025" lon="7.08473">
        <ele>46.834625244141</ele>
        <time>2016-05-14T09:38:09.000Z</time>
      </trkpt>
      <trkpt lat="43.63027" lon="7.08476">
        <ele>46.863136291504</ele>
        <time>2016-05-14T09:38:12.000Z</time>
      </trkpt>
      <trkpt lat="43.63028" lon="7.08478">
        <ele>46.824371337891</ele>
        <time>2016-05-14T09:38:15.000Z</time>
      </trkpt>
      <trkpt lat="43.63028" lon="7.0848">
        <ele>46.767246246338</ele>
        <time>2016-05-14T09:38:17.000Z</time>
      </trkpt>
      <trkpt lat="43.6303" lon="7.08483">
        <ele>46.536796569824</ele>
        <time>2016-05-14T09:38:20.000Z</time>
      </trkpt>
      <trkpt lat="43.63031" lon="7.08485">
        <ele>46.254783630371</ele>
        <time>2016-05-14T09:38:22.000Z</time>
      </trkpt>
      <trkpt lat="43.63034" lon="7.08487">
        <ele>46.076484680176</ele>
        <time>2016-05-14T09:38:25.000Z</time>
      </trkpt>
      <trkpt lat="43.63037" lon="7.08489">
        <ele>46.030902862549</ele>
        <time>2016-05-14T09:38:28.000Z</time>
      </trkpt>
      <trkpt lat="43.6304" lon="7.08492">
        <ele>46.026920318604</ele>
        <time>2016-05-14T09:38:31.000Z</time>
      </trkpt>
      <trkpt lat="43.6304" lon="7.08492">
        <ele>46.026920318604</ele>
        <time>2016-05-14T09:38:51.000Z</time>
      </trkpt>
      <trkpt lat="43.63042" lon="7.0849">
        <ele>46.222175598145</ele>
        <time>2016-05-14T09:39:43.000Z</time>
      </trkpt>
      <trkpt lat="43.63039" lon="7.08485">
        <ele>46.542869567871</ele>
        <time>2016-05-14T09:39:46.000Z</time>
      </trkpt>
      <trkpt lat="43.63036" lon="7.08478">
        <ele>47.026966094971</ele>
        <time>2016-05-14T09:39:49.000Z</time>
      </trkpt>
      <trkpt lat="43.63034" lon="7.08474">
        <ele>47.537952423096</ele>
        <time>2016-05-14T09:39:51.000Z</time>
      </trkpt>
      <trkpt lat="43.63032" lon="7.0847">
        <ele>48.169612884521</ele>
        <time>2016-05-14T09:39:53.000Z</time>
      </trkpt>
      <trkpt lat="43.63029" lon="7.08467">
        <ele>48.610038757324</ele>
        <time>2016-05-14T09:39:56.000Z</time>
      </trkpt>
      <trkpt lat="43.63026" lon="7.08466">
        <ele>48.897647857666</ele>
        <time>2016-05-14T09:39:58.000Z</time>
      </trkpt>
      <trkpt lat="43.63023" lon="7.08464">
        <ele>48.87281036377</ele>
        <time>2016-05-14T09:40:00.000Z</time>
      </trkpt>
      <trkpt lat="43.63021" lon="7.08463">
        <ele>48.75919342041</ele>
        <time>2016-05-14T09:40:02.000Z</time>
      </trkpt>
      <trkpt lat="43.6302" lon="7.0846">
        <ele>48.555778503418</ele>
        <time>2016-05-14T09:40:05.000Z</time>
      </trkpt>
      <trkpt lat="43.63019" lon="7.08457">
        <ele>48.467586517334</ele>
        <time>2016-05-14T09:40:07.000Z</time>
      </trkpt>
      <trkpt lat="43.63017" lon="7.08451">
        <ele>48.599555969238</ele>
        <time>2016-05-14T09:40:10.000Z</time>
      </trkpt>
      <trkpt lat="43.63016" lon="7.0845">
        <ele>48.850860595703</ele>
        <time>2016-05-14T09:40:12.000Z</time>
      </trkpt>
      <trkpt lat="43.63014" lon="7.08449">
        <ele>49.015918731689</ele>
        <time>2016-05-14T09:40:15.000Z</time>
      </trkpt>
      <trkpt lat="43.63011" lon="7.08448">
        <ele>49.080345153809</ele>
        <time>2016-05-14T09:40:18.000Z</time>
      </trkpt>
      <trkpt lat="43.63008" lon="7.08446">
        <ele>48.97700881958</ele>
        <time>2016-05-14T09:40:21.000Z</time>
      </trkpt>
      <trkpt lat="43.63005" lon="7.08444">
        <ele>48.64102935791</ele>
        <time>2016-05-14T09:40:23.000Z</time>
      </trkpt>
      <trkpt lat="43.63003" lon="7.08442">
        <ele>48.247451782227</ele>
        <time>2016-05-14T09:40:25.000Z</time>
      </trkpt>
      <trkpt lat="43.63001" lon="7.0844">
        <ele>47.922199249268</ele>
        <time>2016-05-14T09:40:28.000Z</time>
      </trkpt>
      <trkpt lat="43.62999" lon="7.08437">
        <ele>47.681640625</ele>
        <time>2016-05-14T09:40:31.000Z</time>
      </trkpt>
      <trkpt lat="43.62996" lon="7.08435">
        <ele>47.600257873535</ele>
        <time>2016-05-14T09:40:33.000Z</time>
      </trkpt>
      <trkpt lat="43.62993" lon="7.08431">
        <ele>47.646011352539</ele>
        <time>2016-05-14T09:40:36.000Z</time>
      </trkpt>
      <trkpt lat="43.62991" lon="7.0843">
        <ele>47.762928009033</ele>
        <time>2016-05-14T09:40:38.000Z</time>
      </trkpt>
      <trkpt lat="43.62987" lon="7.08427">
        <ele>47.874267578125</ele>
        <time>2016-05-14T09:40:41.000Z</time>
      </trkpt>
      <trkpt lat="43.62983" lon="7.08427">
        <ele>47.93497467041</ele>
        <time>2016-05-14T09:40:44.000Z</time>
      </trkpt>
      <trkpt lat="43.62981" lon="7.08426">
        <ele>47.910255432129</ele>
        <time>2016-05-14T09:40:46.000Z</time>
      </trkpt>
      <trkpt lat="43.62978" lon="7.08425">
        <ele>47.815238952637</ele>
        <time>2016-05-14T09:40:49.000Z</time>
      </trkpt>
      <trkpt lat="43.62975" lon="7.08425">
        <ele>47.649772644043</ele>
        <time>2016-05-14T09:40:51.000Z</time>
      </trkpt>
      <trkpt lat="43.62973" lon="7.08424">
        <ele>47.468997955322</ele>
        <time>2016-05-14T09:40:54.000Z</time>
      </trkpt>
      <trkpt lat="43.62971" lon="7.08424">
        <ele>47.314903259277</ele>
        <time>2016-05-14T09:40:57.000Z</time>
      </trkpt>
      <trkpt lat="43.62967" lon="7.08421">
        <ele>47.143737792969</ele>
        <time>2016-05-14T09:41:00.000Z</time>
      </trkpt>
      <trkpt lat="43.62963" lon="7.0842">
        <ele>46.915721893311</ele>
        <time>2016-05-14T09:41:03.000Z</time>
      </trkpt>
      <trkpt lat="43.6296" lon="7.08419">
        <ele>46.69225692749</ele>
        <time>2016-05-14T09:41:05.000Z</time>
      </trkpt>
      <trkpt lat="43.62957" lon="7.08417">
        <ele>46.422527313232</ele>
        <time>2016-05-14T09:41:08.000Z</time>
      </trkpt>
      <trkpt lat="43.62954" lon="7.08415">
        <ele>46.159706115723</ele>
        <time>2016-05-14T09:41:10.000Z</time>
      </trkpt>
      <trkpt lat="43.62951" lon="7.08411">
        <ele>45.898845672607</ele>
        <time>2016-05-14T09:41:13.000Z</time>
      </trkpt>
      <trkpt lat="43.6295" lon="7.08409">
        <ele>45.704410552979</ele>
        <time>2016-05-14T09:41:15.000Z</time>
      </trkpt>
      <trkpt lat="43.62947" lon="7.08407">
        <ele>45.497119903564</ele>
        <time>2016-05-14T09:41:18.000Z</time>
      </trkpt>
      <trkpt lat="43.62944" lon="7.08406">
        <ele>45.282634735107</ele>
        <time>2016-05-14T09:41:20.000Z</time>
      </trkpt>
      <trkpt lat="43.62942" lon="7.08406">
        <ele>45.051071166992</ele>
        <time>2016-05-14T09:41:22.000Z</time>
      </trkpt>
      <trkpt lat="43.62941" lon="7.08404">
        <ele>44.851886749268</ele>
        <time>2016-05-14T09:41:25.000Z</time>
      </trkpt>
      <trkpt lat="43.62941" lon="7.08401">
        <ele>44.659545898438</ele>
        <time>2016-05-14T09:41:27.000Z</time>
      </trkpt>
      <trkpt lat="43.6294" lon="7.08399">
        <ele>44.516780853271</ele>
        <time>2016-05-14T09:41:29.000Z</time>
      </trkpt>
      <trkpt lat="43.6294" lon="7.08396">
        <ele>44.493267059326</ele>
        <time>2016-05-14T09:41:32.000Z</time>
      </trkpt>
      <trkpt lat="43.62939" lon="7.08395">
        <ele>44.486381530762</ele>
        <time>2016-05-14T09:41:35.000Z</time>
      </trkpt>
      <trkpt lat="43.62938" lon="7.08393">
        <ele>44.442394256592</ele>
        <time>2016-05-14T09:41:37.000Z</time>
      </trkpt>
      <trkpt lat="43.62935" lon="7.08393">
        <ele>44.341495513916</ele>
        <time>2016-05-14T09:41:40.000Z</time>
      </trkpt>
      <trkpt lat="43.62932" lon="7.08393">
        <ele>44.139579772949</ele>
        <time>2016-05-14T09:41:43.000Z</time>
      </trkpt>
      <trkpt lat="43.62928" lon="7.08393">
        <ele>43.763473510742</ele>
        <time>2016-05-14T09:41:45.000Z</time>
      </trkpt>
      <trkpt lat="43.62924" lon="7.08393">
        <ele>43.301280975342</ele>
        <time>2016-05-14T09:41:47.000Z</time>
      </trkpt>
      <trkpt lat="43.62922" lon="7.08393">
        <ele>42.817497253418</ele>
        <time>2016-05-14T09:41:49.000Z</time>
      </trkpt>
      <trkpt lat="43.6292" lon="7.08392">
        <ele>42.329471588135</ele>
        <time>2016-05-14T09:41:52.000Z</time>
      </trkpt>
      <trkpt lat="43.62915" lon="7.08393">
        <ele>41.919525146484</ele>
        <time>2016-05-14T09:42:00.000Z</time>
      </trkpt>
      <trkpt lat="43.62912" lon="7.08394">
        <ele>41.877471923828</ele>
        <time>2016-05-14T09:42:13.000Z</time>
      </trkpt>
      <trkpt lat="43.62909" lon="7.08393">
        <ele>42.099781036377</ele>
        <time>2016-05-14T09:42:15.000Z</time>
      </trkpt>
      <trkpt lat="43.62904" lon="7.0839">
        <ele>42.678058624268</ele>
        <time>2016-05-14T09:42:18.000Z</time>
      </trkpt>
      <trkpt lat="43.62902" lon="7.08387">
        <ele>43.459564208984</ele>
        <time>2016-05-14T09:42:20.000Z</time>
      </trkpt>
      <trkpt lat="43.62898" lon="7.08384">
        <ele>44.476398468018</ele>
        <time>2016-05-14T09:42:23.000Z</time>
      </trkpt>
      <trkpt lat="43.62894" lon="7.08383">
        <ele>45.501819610596</ele>
        <time>2016-05-14T09:42:25.000Z</time>
      </trkpt>
      <trkpt lat="43.6289" lon="7.0838">
        <ele>46.628028869629</ele>
        <time>2016-05-14T09:42:28.000Z</time>
      </trkpt>
      <trkpt lat="43.62887" lon="7.08377">
        <ele>47.585067749023</ele>
        <time>2016-05-14T09:42:31.000Z</time>
      </trkpt>
      <trkpt lat="43.62885" lon="7.08373">
        <ele>48.491157531738</ele>
        <time>2016-05-14T09:42:34.000Z</time>
      </trkpt>
      <trkpt lat="43.62883" lon="7.0837">
        <ele>49.329978942871</ele>
        <time>2016-05-14T09:42:37.000Z</time>
      </trkpt>
      <trkpt lat="43.62881" lon="7.08368">
        <ele>50.007926940918</ele>
        <time>2016-05-14T09:42:39.000Z</time>
      </trkpt>
      <trkpt lat="43.62881" lon="7.08365">
        <ele>50.408554077148</ele>
        <time>2016-05-14T09:42:42.000Z</time>
      </trkpt>
      <trkpt lat="43.62881" lon="7.08361">
        <ele>50.606670379639</ele>
        <time>2016-05-14T09:42:45.000Z</time>
      </trkpt>
      <trkpt lat="43.6288" lon="7.08359">
        <ele>50.767753601074</ele>
        <time>2016-05-14T09:42:47.000Z</time>
      </trkpt>
      <trkpt lat="43.6288" lon="7.08358">
        <ele>50.777450561523</ele>
        <time>2016-05-14T09:42:49.000Z</time>
      </trkpt>
      <trkpt lat="43.62882" lon="7.08354">
        <ele>50.619911193848</ele>
        <time>2016-05-14T09:42:52.000Z</time>
      </trkpt>
      <trkpt lat="43.62883" lon="7.0835">
        <ele>50.409797668457</ele>
        <time>2016-05-14T09:42:55.000Z</time>
      </trkpt>
      <trkpt lat="43.62882" lon="7.08346">
        <ele>50.271781921387</ele>
        <time>2016-05-14T09:42:57.000Z</time>
      </trkpt>
      <trkpt lat="43.62882" lon="7.08344">
        <ele>50.08256149292</ele>
        <time>2016-05-14T09:42:59.000Z</time>
      </trkpt>
      <trkpt lat="43.62882" lon="7.0834">
        <ele>49.875663757324</ele>
        <time>2016-05-14T09:43:01.000Z</time>
      </trkpt>
      <trkpt lat="43.62881" lon="7.08336">
        <ele>49.726398468018</ele>
        <time>2016-05-14T09:43:04.000Z</time>
      </trkpt>
      <trkpt lat="43.62883" lon="7.0833">
        <ele>49.583393096924</ele>
        <time>2016-05-14T09:43:07.000Z</time>
      </trkpt>
      <trkpt lat="43.62885" lon="7.08327">
        <ele>49.35200881958</ele>
        <time>2016-05-14T09:43:09.000Z</time>
      </trkpt>
      <trkpt lat="43.62886" lon="7.08325">
        <ele>49.084095001221</ele>
        <time>2016-05-14T09:43:11.000Z</time>
      </trkpt>
      <trkpt lat="43.62886" lon="7.08321">
        <ele>48.849548339844</ele>
        <time>2016-05-14T09:43:13.000Z</time>
      </trkpt>
      <trkpt lat="43.62885" lon="7.08315">
        <ele>48.677131652832</ele>
        <time>2016-05-14T09:43:16.000Z</time>
      </trkpt>
      <trkpt lat="43.62886" lon="7.08309">
        <ele>48.542793273926</ele>
        <time>2016-05-14T09:43:19.000Z</time>
      </trkpt>
      <trkpt lat="43.62887" lon="7.08307">
        <ele>48.444011688232</ele>
        <time>2016-05-14T09:43:21.000Z</time>
      </trkpt>
      <trkpt lat="43.62888" lon="7.08303">
        <ele>48.385166168213</ele>
        <time>2016-05-14T09:43:24.000Z</time>
      </trkpt>
      <trkpt lat="43.62888" lon="7.08301">
        <ele>48.32373046875</ele>
        <time>2016-05-14T09:43:26.000Z</time>
      </trkpt>
      <trkpt lat="43.62889" lon="7.08297">
        <ele>48.17488861084</ele>
        <time>2016-05-14T09:43:28.000Z</time>
      </trkpt>
      <trkpt lat="43.62892" lon="7.08292">
        <ele>47.893768310547</ele>
        <time>2016-05-14T09:43:31.000Z</time>
      </trkpt>
      <trkpt lat="43.62893" lon="7.08288">
        <ele>47.630603790283</ele>
        <time>2016-05-14T09:43:34.000Z</time>
      </trkpt>
      <trkpt lat="43.62893" lon="7.08286">
        <ele>47.320995330811</ele>
        <time>2016-05-14T09:43:36.000Z</time>
      </trkpt>
      <trkpt lat="43.62895" lon="7.08284">
        <ele>46.922508239746</ele>
        <time>2016-05-14T09:43:39.000Z</time>
      </trkpt>
      <trkpt lat="43.62897" lon="7.0828">
        <ele>46.474250793457</ele>
        <time>2016-05-14T09:43:42.000Z</time>
      </trkpt>
      <trkpt lat="43.62899" lon="7.08277">
        <ele>46.060081481934</ele>
        <time>2016-05-14T09:43:44.000Z</time>
      </trkpt>
      <trkpt lat="43.62902" lon="7.08276">
        <ele>45.55313873291</ele>
        <time>2016-05-14T09:43:46.000Z</time>
      </trkpt>
      <trkpt lat="43.62904" lon="7.08275">
        <ele>44.954444885254</ele>
        <time>2016-05-14T09:43:48.000Z</time>
      </trkpt>
      <trkpt lat="43.62906" lon="7.08273">
        <ele>44.352012634277</ele>
        <time>2016-05-14T09:43:50.000Z</time>
      </trkpt>
      <trkpt lat="43.62908" lon="7.0827">
        <ele>43.743511199951</ele>
        <time>2016-05-14T09:43:53.000Z</time>
      </trkpt>
      <trkpt lat="43.6291" lon="7.08267">
        <ele>43.172645568848</ele>
        <time>2016-05-14T09:43:56.000Z</time>
      </trkpt>
      <trkpt lat="43.62911" lon="7.08261">
        <ele>42.658020019531</ele>
        <time>2016-05-14T09:43:59.000Z</time>
      </trkpt>
      <trkpt lat="43.62911" lon="7.08257">
        <ele>42.247764587402</ele>
        <time>2016-05-14T09:44:02.000Z</time>
      </trkpt>
      <trkpt lat="43.62912" lon="7.08253">
        <ele>41.897560119629</ele>
        <time>2016-05-14T09:44:04.000Z</time>
      </trkpt>
      <trkpt lat="43.62913" lon="7.0825">
        <ele>41.589378356934</ele>
        <time>2016-05-14T09:44:06.000Z</time>
      </trkpt>
      <trkpt lat="43.62915" lon="7.08247">
        <ele>41.283561706543</ele>
        <time>2016-05-14T09:44:09.000Z</time>
      </trkpt>
      <trkpt lat="43.62916" lon="7.08245">
        <ele>41.019840240479</ele>
        <time>2016-05-14T09:44:11.000Z</time>
      </trkpt>
      <trkpt lat="43.62917" lon="7.08242">
        <ele>40.761817932129</ele>
        <time>2016-05-14T09:44:13.000Z</time>
      </trkpt>
      <trkpt lat="43.62917" lon="7.08237">
        <ele>40.592559814453</ele>
        <time>2016-05-14T09:44:16.000Z</time>
      </trkpt>
      <trkpt lat="43.62919" lon="7.08233">
        <ele>40.581695556641</ele>
        <time>2016-05-14T09:44:18.000Z</time>
      </trkpt>
      <trkpt lat="43.62922" lon="7.08228">
        <ele>40.775131225586</ele>
        <time>2016-05-14T09:44:21.000Z</time>
      </trkpt>
      <trkpt lat="43.62922" lon="7.08225">
        <ele>41.054821014404</ele>
        <time>2016-05-14T09:44:23.000Z</time>
      </trkpt>
      <trkpt lat="43.62923" lon="7.08222">
        <ele>41.4260597229</ele>
        <time>2016-05-14T09:44:25.000Z</time>
      </trkpt>
      <trkpt lat="43.62925" lon="7.08217">
        <ele>41.835823059082</ele>
        <time>2016-05-14T09:44:28.000Z</time>
      </trkpt>
      <trkpt lat="43.62925" lon="7.08212">
        <ele>42.18408203125</ele>
        <time>2016-05-14T09:44:31.000Z</time>
      </trkpt>
      <trkpt lat="43.62925" lon="7.08209">
        <ele>42.459266662598</ele>
        <time>2016-05-14T09:44:34.000Z</time>
      </trkpt>
      <trkpt lat="43.62926" lon="7.08207">
        <ele>42.744228363037</ele>
        <time>2016-05-14T09:44:36.000Z</time>
      </trkpt>
      <trkpt lat="43.62929" lon="7.08203">
        <ele>43.084815979004</ele>
        <time>2016-05-14T09:44:39.000Z</time>
      </trkpt>
      <trkpt lat="43.6293" lon="7.082">
        <ele>43.404975891113</ele>
        <time>2016-05-14T09:44:42.000Z</time>
      </trkpt>
      <trkpt lat="43.62931" lon="7.08193">
        <ele>43.805870056152</ele>
        <time>2016-05-14T09:44:45.000Z</time>
      </trkpt>
      <trkpt lat="43.62931" lon="7.08188">
        <ele>44.216655731201</ele>
        <time>2016-05-14T09:44:48.000Z</time>
      </trkpt>
      <trkpt lat="43.62932" lon="7.08185">
        <ele>44.623310089111</ele>
        <time>2016-05-14T09:44:50.000Z</time>
      </trkpt>
      <trkpt lat="43.62933" lon="7.08181">
        <ele>44.95947265625</ele>
        <time>2016-05-14T09:44:53.000Z</time>
      </trkpt>
      <trkpt lat="43.62932" lon="7.08178">
        <ele>45.223529815674</ele>
        <time>2016-05-14T09:44:55.000Z</time>
      </trkpt>
      <trkpt lat="43.62931" lon="7.08175">
        <ele>45.392097473145</ele>
        <time>2016-05-14T09:44:57.000Z</time>
      </trkpt>
      <trkpt lat="43.62931" lon="7.08172">
        <ele>45.542198181152</ele>
        <time>2016-05-14T09:45:00.000Z</time>
      </trkpt>
      <trkpt lat="43.62933" lon="7.08167">
        <ele>45.761127471924</ele>
        <time>2016-05-14T09:45:03.000Z</time>
      </trkpt>
      <trkpt lat="43.62935" lon="7.08163">
        <ele>46.059276580811</ele>
        <time>2016-05-14T09:45:05.000Z</time>
      </trkpt>
      <trkpt lat="43.62938" lon="7.0816">
        <ele>46.515464782715</ele>
        <time>2016-05-14T09:45:08.000Z</time>
      </trkpt>
      <trkpt lat="43.62941" lon="7.08154">
        <ele>47.201942443848</ele>
        <time>2016-05-14T09:45:11.000Z</time>
      </trkpt>
      <trkpt lat="43.62942" lon="7.08151">
        <ele>47.979187011719</ele>
        <time>2016-05-14T09:45:13.000Z</time>
      </trkpt>
      <trkpt lat="43.62943" lon="7.08148">
        <ele>48.729404449463</ele>
        <time>2016-05-14T09:45:15.000Z</time>
      </trkpt>
      <trkpt lat="43.62944" lon="7.08144">
        <ele>49.459667205811</ele>
        <time>2016-05-14T09:45:18.000Z</time>
      </trkpt>
      <trkpt lat="43.62943" lon="7.0814">
        <ele>50.075008392334</ele>
        <time>2016-05-14T09:45:20.000Z</time>
      </trkpt>
      <trkpt lat="43.62943" lon="7.08134">
        <ele>50.566692352295</ele>
        <time>2016-05-14T09:45:23.000Z</time>
      </trkpt>
      <trkpt lat="43.62944" lon="7.08131">
        <ele>51.008472442627</ele>
        <time>2016-05-14T09:45:25.000Z</time>
      </trkpt>
      <trkpt lat="43.62944" lon="7.08127">
        <ele>51.442394256592</ele>
        <time>2016-05-14T09:45:28.000Z</time>
      </trkpt>
      <trkpt lat="43.62944" lon="7.08122">
        <ele>51.879566192627</ele>
        <time>2016-05-14T09:45:31.000Z</time>
      </trkpt>
      <trkpt lat="43.62944" lon="7.08118">
        <ele>52.334480285645</ele>
        <time>2016-05-14T09:45:34.000Z</time>
      </trkpt>
      <trkpt lat="43.62943" lon="7.08116">
        <ele>52.674121856689</ele>
        <time>2016-05-14T09:45:36.000Z</time>
      </trkpt>
      <trkpt lat="43.62943" lon="7.08114">
        <ele>52.985027313232</ele>
        <time>2016-05-14T09:45:38.000Z</time>
      </trkpt>
      <trkpt lat="43.62943" lon="7.0811">
        <ele>53.283058166504</ele>
        <time>2016-05-14T09:45:41.000Z</time>
      </trkpt>
      <trkpt lat="43.62944" lon="7.08106">
        <ele>53.580493927002</ele>
        <time>2016-05-14T09:45:44.000Z</time>
      </trkpt>
      <trkpt lat="43.62943" lon="7.08105">
        <ele>53.766563415527</ele>
        <time>2016-05-14T09:45:46.000Z</time>
      </trkpt>
      <trkpt lat="43.6294" lon="7.08101">
        <ele>53.885284423828</ele>
        <time>2016-05-14T09:45:49.000Z</time>
      </trkpt>
      <trkpt lat="43.62938" lon="7.08098">
        <ele>53.935707092285</ele>
        <time>2016-05-14T09:45:51.000Z</time>
      </trkpt>
      <trkpt lat="43.62938" lon="7.08098">
        <ele>53.935707092285</ele>
        <time>2016-05-14T09:46:11.000Z</time>
      </trkpt>
      <trkpt lat="43.62937" lon="7.08091">
        <ele>53.939323425293</ele>
        <time>2016-05-14T09:46:13.000Z</time>
      </trkpt>
      <trkpt lat="43.62936" lon="7.08085">
        <ele>53.886791229248</ele>
        <time>2016-05-14T09:46:16.000Z</time>
      </trkpt>
      <trkpt lat="43.62936" lon="7.08078">
        <ele>53.936725616455</ele>
        <time>2016-05-14T09:46:19.000Z</time>
      </trkpt>
      <trkpt lat="43.62937" lon="7.08072">
        <ele>54.072563171387</ele>
        <time>2016-05-14T09:46:21.000Z</time>
      </trkpt>
      <trkpt lat="43.62937" lon="7.08067">
        <ele>54.230846405029</ele>
        <time>2016-05-14T09:46:23.000Z</time>
      </trkpt>
      <trkpt lat="43.62937" lon="7.0806">
        <ele>54.353626251221</ele>
        <time>2016-05-14T09:46:26.000Z</time>
      </trkpt>
      <trkpt lat="43.62937" lon="7.08055">
        <ele>54.43941116333</ele>
        <time>2016-05-14T09:46:29.000Z</time>
      </trkpt>
      <trkpt lat="43.62936" lon="7.08052">
        <ele>54.416374206543</ele>
        <time>2016-05-14T09:46:31.000Z</time>
      </trkpt>
      <trkpt lat="43.62936" lon="7.08048">
        <ele>54.346580505371</ele>
        <time>2016-05-14T09:46:34.000Z</time>
      </trkpt>
      <trkpt lat="43.62934" lon="7.08046">
        <ele>54.176708221436</ele>
        <time>2016-05-14T09:46:36.000Z</time>
      </trkpt>
      <trkpt lat="43.62934" lon="7.08044">
        <ele>53.983985900879</ele>
        <time>2016-05-14T09:46:38.000Z</time>
      </trkpt>
      <trkpt lat="43.62932" lon="7.0804">
        <ele>53.661399841309</ele>
        <time>2016-05-14T09:46:41.000Z</time>
      </trkpt>
      <trkpt lat="43.62929" lon="7.08036">
        <ele>53.172576904297</ele>
        <time>2016-05-14T09:46:44.000Z</time>
      </trkpt>
      <trkpt lat="43.62925" lon="7.0803">
        <ele>52.459320068359</ele>
        <time>2016-05-14T09:46:47.000Z</time>
      </trkpt>
      <trkpt lat="43.62923" lon="7.08027">
        <ele>51.731884002686</ele>
        <time>2016-05-14T09:46:49.000Z</time>
      </trkpt>
      <trkpt lat="43.62922" lon="7.08024">
        <ele>50.912338256836</ele>
        <time>2016-05-14T09:46:51.000Z</time>
      </trkpt>
      <trkpt lat="43.6292" lon="7.08019">
        <ele>50.017066955566</ele>
        <time>2016-05-14T09:46:54.000Z</time>
      </trkpt>
      <trkpt lat="43.62918" lon="7.08016">
        <ele>49.244243621826</ele>
        <time>2016-05-14T09:46:56.000Z</time>
      </trkpt>
      <trkpt lat="43.62917" lon="7.08013">
        <ele>48.627628326416</ele>
        <time>2016-05-14T09:46:58.000Z</time>
      </trkpt>
      <trkpt lat="43.62915" lon="7.08009">
        <ele>48.114322662354</ele>
        <time>2016-05-14T09:47:01.000Z</time>
      </trkpt>
      <trkpt lat="43.62914" lon="7.08005">
        <ele>47.745357513428</ele>
        <time>2016-05-14T09:47:04.000Z</time>
      </trkpt>
      <trkpt lat="43.62913" lon="7.08003">
        <ele>47.56823348999</ele>
        <time>2016-05-14T09:47:06.000Z</time>
      </trkpt>
      <trkpt lat="43.62911" lon="7.07998">
        <ele>47.515022277832</ele>
        <time>2016-05-14T09:47:09.000Z</time>
      </trkpt>
      <trkpt lat="43.6291" lon="7.07995">
        <ele>47.625030517578</ele>
        <time>2016-05-14T09:47:11.000Z</time>
      </trkpt>
      <trkpt lat="43.62909" lon="7.07991">
        <ele>47.819435119629</ele>
        <time>2016-05-14T09:47:14.000Z</time>
      </trkpt>
      <trkpt lat="43.62907" lon="7.07989">
        <ele>48.04190826416</ele>
        <time>2016-05-14T09:47:16.000Z</time>
      </trkpt>
      <trkpt lat="43.62907" lon="7.07985">
        <ele>48.309070587158</ele>
        <time>2016-05-14T09:47:19.000Z</time>
      </trkpt>
      <trkpt lat="43.62906" lon="7.07981">
        <ele>48.595081329346</ele>
        <time>2016-05-14T09:47:22.000Z</time>
      </trkpt>
      <trkpt lat="43.62902" lon="7.0798">
        <ele>48.885509490967</ele>
        <time>2016-05-14T09:47:25.000Z</time>
      </trkpt>
      <trkpt lat="43.629" lon="7.07978">
        <ele>49.157531738281</ele>
        <time>2016-05-14T09:47:27.000Z</time>
      </trkpt>
      <trkpt lat="43.62898" lon="7.07976">
        <ele>49.412490844727</ele>
        <time>2016-05-14T09:47:29.000Z</time>
      </trkpt>
      <trkpt lat="43.62897" lon="7.07975">
        <ele>49.639099121094</ele>
        <time>2016-05-14T09:47:31.000Z</time>
      </trkpt>
      <trkpt lat="43.62895" lon="7.07974">
        <ele>49.851661682129</ele>
        <time>2016-05-14T09:47:34.000Z</time>
      </trkpt>
      <trkpt lat="43.62891" lon="7.07973">
        <ele>50.041442871094</ele>
        <time>2016-05-14T09:47:37.000Z</time>
      </trkpt>
      <trkpt lat="43.62889" lon="7.07971">
        <ele>50.211883544922</ele>
        <time>2016-05-14T09:47:39.000Z</time>
      </trkpt>
      <trkpt lat="43.62886" lon="7.07968">
        <ele>50.390632629395</ele>
        <time>2016-05-14T09:47:42.000Z</time>
      </trkpt>
      <trkpt lat="43.62883" lon="7.07967">
        <ele>50.572593688965</ele>
        <time>2016-05-14T09:47:44.000Z</time>
      </trkpt>
      <trkpt lat="43.6288" lon="7.07965">
        <ele>50.749980926514</ele>
        <time>2016-05-14T09:47:46.000Z</time>
      </trkpt>
      <trkpt lat="43.62878" lon="7.07962">
        <ele>50.90258026123</ele>
        <time>2016-05-14T09:47:49.000Z</time>
      </trkpt>
      <trkpt lat="43.62877" lon="7.0796">
        <ele>51.031352996826</ele>
        <time>2016-05-14T09:47:51.000Z</time>
      </trkpt>
      <trkpt lat="43.62876" lon="7.07958">
        <ele>51.117443084717</ele>
        <time>2016-05-14T09:47:54.000Z</time>
      </trkpt>
      <trkpt lat="43.62874" lon="7.07955">
        <ele>51.181770324707</ele>
        <time>2016-05-14T09:47:57.000Z</time>
      </trkpt>
      <trkpt lat="43.62873" lon="7.07952">
        <ele>51.219585418701</ele>
        <time>2016-05-14T09:47:59.000Z</time>
      </trkpt>
      <trkpt lat="43.6287" lon="7.0795">
        <ele>51.237098693848</ele>
        <time>2016-05-14T09:48:02.000Z</time>
      </trkpt>
      <trkpt lat="43.62867" lon="7.07946">
        <ele>51.238746643066</ele>
        <time>2016-05-14T09:48:05.000Z</time>
      </trkpt>
      <trkpt lat="43.62865" lon="7.07941">
        <ele>51.22127532959</ele>
        <time>2016-05-14T09:48:08.000Z</time>
      </trkpt>
      <trkpt lat="43.62861" lon="7.07937">
        <ele>51.169731140137</ele>
        <time>2016-05-14T09:48:11.000Z</time>
      </trkpt>
      <trkpt lat="43.62859" lon="7.07932">
        <ele>51.077854156494</ele>
        <time>2016-05-14T09:48:14.000Z</time>
      </trkpt>
      <trkpt lat="43.62856" lon="7.0793">
        <ele>50.952342987061</ele>
        <time>2016-05-14T09:48:17.000Z</time>
      </trkpt>
      <trkpt lat="43.62856" lon="7.07925">
        <ele>50.797477722168</ele>
        <time>2016-05-14T09:48:20.000Z</time>
      </trkpt>
      <trkpt lat="43.62855" lon="7.07924">
        <ele>50.642833709717</ele>
        <time>2016-05-14T09:48:22.000Z</time>
      </trkpt>
      <trkpt lat="43.62852" lon="7.07922">
        <ele>50.479816436768</ele>
        <time>2016-05-14T09:48:25.000Z</time>
      </trkpt>
      <trkpt lat="43.62851" lon="7.07921">
        <ele>50.328330993652</ele>
        <time>2016-05-14T09:48:27.000Z</time>
      </trkpt>
      <trkpt lat="43.62848" lon="7.07918">
        <ele>50.154106140137</ele>
        <time>2016-05-14T09:48:30.000Z</time>
      </trkpt>
      <trkpt lat="43.62845" lon="7.07915">
        <ele>50.094635009766</ele>
        <time>2016-05-14T09:48:32.000Z</time>
      </trkpt>
      <trkpt lat="43.62843" lon="7.07913">
        <ele>50.195137023926</ele>
        <time>2016-05-14T09:48:34.000Z</time>
      </trkpt>
      <trkpt lat="43.62839" lon="7.07907">
        <ele>50.665733337402</ele>
        <time>2016-05-14T09:48:52.000Z</time>
      </trkpt>
      <trkpt lat="43.62836" lon="7.07904">
        <ele>51.362010955811</ele>
        <time>2016-05-14T09:48:55.000Z</time>
      </trkpt>
      <trkpt lat="43.62832" lon="7.079">
        <ele>52.410083770752</ele>
        <time>2016-05-14T09:48:58.000Z</time>
      </trkpt>
      <trkpt lat="43.6283" lon="7.07897">
        <ele>53.55757522583</ele>
        <time>2016-05-14T09:49:01.000Z</time>
      </trkpt>
      <trkpt lat="43.62827" lon="7.07894">
        <ele>54.760547637939</ele>
        <time>2016-05-14T09:49:04.000Z</time>
      </trkpt>
      <trkpt lat="43.62824" lon="7.07892">
        <ele>55.787822723389</ele>
        <time>2016-05-14T09:49:06.000Z</time>
      </trkpt>
      <trkpt lat="43.62821" lon="7.0789">
        <ele>56.75821685791</ele>
        <time>2016-05-14T09:49:09.000Z</time>
      </trkpt>
      <trkpt lat="43.62819" lon="7.07889">
        <ele>57.497406005859</ele>
        <time>2016-05-14T09:49:11.000Z</time>
      </trkpt>
      <trkpt lat="43.62815" lon="7.07887">
        <ele>58.166034698486</ele>
        <time>2016-05-14T09:49:14.000Z</time>
      </trkpt>
      <trkpt lat="43.62812" lon="7.07887">
        <ele>58.646026611328</ele>
        <time>2016-05-14T09:49:16.000Z</time>
      </trkpt>
      <trkpt lat="43.6281" lon="7.07886">
        <ele>59.018604278564</ele>
        <time>2016-05-14T09:49:18.000Z</time>
      </trkpt>
      <trkpt lat="43.62807" lon="7.07884">
        <ele>59.394207000732</ele>
        <time>2016-05-14T09:49:21.000Z</time>
      </trkpt>
      <trkpt lat="43.62804" lon="7.07882">
        <ele>59.819862365723</ele>
        <time>2016-05-14T09:49:24.000Z</time>
      </trkpt>
      <trkpt lat="43.62803" lon="7.07881">
        <ele>60.212821960449</ele>
        <time>2016-05-14T09:49:26.000Z</time>
      </trkpt>
      <trkpt lat="43.628" lon="7.07882">
        <ele>60.548454284668</ele>
        <time>2016-05-14T09:49:29.000Z</time>
      </trkpt>
      <trkpt lat="43.62798" lon="7.07881">
        <ele>60.852851867676</ele>
        <time>2016-05-14T09:49:32.000Z</time>
      </trkpt>
      <trkpt lat="43.62796" lon="7.07881">
        <ele>61.053588867188</ele>
        <time>2016-05-14T09:49:34.000Z</time>
      </trkpt>
      <trkpt lat="43.62793" lon="7.07881">
        <ele>61.098888397217</ele>
        <time>2016-05-14T09:49:37.000Z</time>
      </trkpt>
      <trkpt lat="43.62792" lon="7.07882">
        <ele>61.025413513184</ele>
        <time>2016-05-14T09:49:39.000Z</time>
      </trkpt>
      <trkpt lat="43.6279" lon="7.07883">
        <ele>60.921936035156</ele>
        <time>2016-05-14T09:49:42.000Z</time>
      </trkpt>
      <trkpt lat="43.62789" lon="7.07883">
        <ele>60.802356719971</ele>
        <time>2016-05-14T09:49:44.000Z</time>
      </trkpt>
      <trkpt lat="43.62786" lon="7.07882">
        <ele>60.646217346191</ele>
        <time>2016-05-14T09:49:47.000Z</time>
      </trkpt>
      <trkpt lat="43.62783" lon="7.07882">
        <ele>60.517509460449</ele>
        <time>2016-05-14T09:49:50.000Z</time>
      </trkpt>
      <trkpt lat="43.6278" lon="7.07882">
        <ele>60.467498779297</ele>
        <time>2016-05-14T09:49:53.000Z</time>
      </trkpt>
      <trkpt lat="43.62777" lon="7.07881">
        <ele>60.54443359375</ele>
        <time>2016-05-14T09:49:56.000Z</time>
      </trkpt>
      <trkpt lat="43.62775" lon="7.07882">
        <ele>60.53129196167</ele>
        <time>2016-05-14T09:49:58.000Z</time>
      </trkpt>
      <trkpt lat="43.62772" lon="7.07883">
        <ele>60.41918182373</ele>
        <time>2016-05-14T09:50:01.000Z</time>
      </trkpt>
      <trkpt lat="43.62768" lon="7.07883">
        <ele>60.287292480469</ele>
        <time>2016-05-14T09:50:04.000Z</time>
      </trkpt>
      <trkpt lat="43.62766" lon="7.07884">
        <ele>60.078430175781</ele>
        <time>2016-05-14T09:50:07.000Z</time>
      </trkpt>
      <trkpt lat="43.62762" lon="7.07884">
        <ele>59.773742675781</ele>
        <time>2016-05-14T09:50:12.000Z</time>
      </trkpt>
      <trkpt lat="43.62757" lon="7.07885">
        <ele>59.492168426514</ele>
        <time>2016-05-14T09:50:15.000Z</time>
      </trkpt>
      <trkpt lat="43.62754" lon="7.07887">
        <ele>59.111541748047</ele>
        <time>2016-05-14T09:50:18.000Z</time>
      </trkpt>
      <trkpt lat="43.62753" lon="7.07888">
        <ele>58.684894561768</ele>
        <time>2016-05-14T09:50:20.000Z</time>
      </trkpt>
      <trkpt lat="43.62751" lon="7.0789">
        <ele>58.201072692871</ele>
        <time>2016-05-14T09:50:23.000Z</time>
      </trkpt>
      <trkpt lat="43.6275" lon="7.07892">
        <ele>57.558662414551</ele>
        <time>2016-05-14T09:50:26.000Z</time>
      </trkpt>
      <trkpt lat="43.62749" lon="7.07894">
        <ele>56.904956817627</ele>
        <time>2016-05-14T09:50:28.000Z</time>
      </trkpt>
      <trkpt lat="43.62747" lon="7.07897">
        <ele>56.277900695801</ele>
        <time>2016-05-14T09:50:31.000Z</time>
      </trkpt>
      <trkpt lat="43.62746" lon="7.07898">
        <ele>55.741893768311</ele>
        <time>2016-05-14T09:50:33.000Z</time>
      </trkpt>
      <trkpt lat="43.62743" lon="7.07899">
        <ele>55.359241485596</ele>
        <time>2016-05-14T09:50:36.000Z</time>
      </trkpt>
      <trkpt lat="43.62741" lon="7.079">
        <ele>55.245079040527</ele>
        <time>2016-05-14T09:50:39.000Z</time>
      </trkpt>
      <trkpt lat="43.6274" lon="7.079">
        <ele>55.224811553955</ele>
        <time>2016-05-14T09:50:41.000Z</time>
      </trkpt>
      <trkpt lat="43.62738" lon="7.07902">
        <ele>55.339984893799</ele>
        <time>2016-05-14T09:50:43.000Z</time>
      </trkpt>
      <trkpt lat="43.62735" lon="7.07905">
        <ele>55.339550018311</ele>
        <time>2016-05-14T09:50:46.000Z</time>
      </trkpt>
      <trkpt lat="43.62734" lon="7.07907">
        <ele>55.219779968262</ele>
        <time>2016-05-14T09:50:48.000Z</time>
      </trkpt>
      <trkpt lat="43.62732" lon="7.07906">
        <ele>55.147247314453</ele>
        <time>2016-05-14T09:50:53.000Z</time>
      </trkpt>
      <trkpt lat="43.62729" lon="7.07907">
        <ele>55.165626525879</ele>
        <time>2016-05-14T09:50:56.000Z</time>
      </trkpt>
      <trkpt lat="43.62727" lon="7.07909">
        <ele>55.163501739502</ele>
        <time>2016-05-14T09:50:59.000Z</time>
      </trkpt>
      <trkpt lat="43.62727" lon="7.07911">
        <ele>55.14404296875</ele>
        <time>2016-05-14T09:51:01.000Z</time>
      </trkpt>
      <trkpt lat="43.62725" lon="7.07914">
        <ele>55.058433532715</ele>
        <time>2016-05-14T09:51:04.000Z</time>
      </trkpt>
      <trkpt lat="43.62724" lon="7.07915">
        <ele>54.782329559326</ele>
        <time>2016-05-14T09:51:06.000Z</time>
      </trkpt>
      <trkpt lat="43.62722" lon="7.07919">
        <ele>54.395374298096</ele>
        <time>2016-05-14T09:51:09.000Z</time>
      </trkpt>
      <trkpt lat="43.62721" lon="7.0792">
        <ele>54.106758117676</ele>
        <time>2016-05-14T09:51:11.000Z</time>
      </trkpt>
      <trkpt lat="43.6272" lon="7.07923">
        <ele>53.987285614014</ele>
        <time>2016-05-14T09:51:14.000Z</time>
      </trkpt>
      <trkpt lat="43.62718" lon="7.07925">
        <ele>54.118644714355</ele>
        <time>2016-05-14T09:51:17.000Z</time>
      </trkpt>
      <trkpt lat="43.62716" lon="7.07928">
        <ele>54.419605255127</ele>
        <time>2016-05-14T09:51:19.000Z</time>
      </trkpt>
      <trkpt lat="43.62713" lon="7.07931">
        <ele>54.836071014404</ele>
        <time>2016-05-14T09:51:22.000Z</time>
      </trkpt>
      <trkpt lat="43.6271" lon="7.07934">
        <ele>55.306541442871</ele>
        <time>2016-05-14T09:51:25.000Z</time>
      </trkpt>
      <trkpt lat="43.62708" lon="7.07936">
        <ele>55.786785125732</ele>
        <time>2016-05-14T09:51:28.000Z</time>
      </trkpt>
      <trkpt lat="43.62705" lon="7.07938">
        <ele>56.243370056152</ele>
        <time>2016-05-14T09:51:31.000Z</time>
      </trkpt>
      <trkpt lat="43.62703" lon="7.0794">
        <ele>56.646644592285</ele>
        <time>2016-05-14T09:51:34.000Z</time>
      </trkpt>
      <trkpt lat="43.62702" lon="7.07942">
        <ele>56.958515167236</ele>
        <time>2016-05-14T09:51:36.000Z</time>
      </trkpt>
      <trkpt lat="43.62701" lon="7.07944">
        <ele>57.178760528564</ele>
        <time>2016-05-14T09:51:38.000Z</time>
      </trkpt>
      <trkpt lat="43.627" lon="7.07947">
        <ele>57.342174530029</ele>
        <time>2016-05-14T09:51:41.000Z</time>
      </trkpt>
      <trkpt lat="43.62699" lon="7.0795">
        <ele>57.418071746826</ele>
        <time>2016-05-14T09:51:44.000Z</time>
      </trkpt>
      <trkpt lat="43.62698" lon="7.07951">
        <ele>57.459144592285</ele>
        <time>2016-05-14T09:51:47.000Z</time>
      </trkpt>
      <trkpt lat="43.62695" lon="7.07954">
        <ele>57.489360809326</ele>
        <time>2016-05-14T09:51:49.000Z</time>
      </trkpt>
      <trkpt lat="43.62693" lon="7.07957">
        <ele>57.522789001465</ele>
        <time>2016-05-14T09:51:52.000Z</time>
      </trkpt>
      <trkpt lat="43.62691" lon="7.07959">
        <ele>57.543937683105</ele>
        <time>2016-05-14T09:51:54.000Z</time>
      </trkpt>
      <trkpt lat="43.62689" lon="7.0796">
        <ele>57.572429656982</ele>
        <time>2016-05-14T09:51:56.000Z</time>
      </trkpt>
      <trkpt lat="43.62685" lon="7.07961">
        <ele>57.613677978516</ele>
        <time>2016-05-14T09:51:59.000Z</time>
      </trkpt>
      <trkpt lat="43.62683" lon="7.07964">
        <ele>57.626434326172</ele>
        <time>2016-05-14T09:52:02.000Z</time>
      </trkpt>
      <trkpt lat="43.62682" lon="7.07967">
        <ele>57.563140869141</ele>
        <time>2016-05-14T09:52:05.000Z</time>
      </trkpt>
      <trkpt lat="43.62681" lon="7.07971">
        <ele>57.409778594971</ele>
        <time>2016-05-14T09:52:08.000Z</time>
      </trkpt>
      <trkpt lat="43.6268" lon="7.07974">
        <ele>57.173847198486</ele>
        <time>2016-05-14T09:52:10.000Z</time>
      </trkpt>
      <trkpt lat="43.62679" lon="7.07977">
        <ele>56.85209274292</ele>
        <time>2016-05-14T09:52:12.000Z</time>
      </trkpt>
      <trkpt lat="43.62679" lon="7.0798">
        <ele>56.459148406982</ele>
        <time>2016-05-14T09:52:14.000Z</time>
      </trkpt>
      <trkpt lat="43.62679" lon="7.07985">
        <ele>56.005931854248</ele>
        <time>2016-05-14T09:52:17.000Z</time>
      </trkpt>
      <trkpt lat="43.62676" lon="7.07989">
        <ele>55.53084564209</ele>
        <time>2016-05-14T09:52:20.000Z</time>
      </trkpt>
      <trkpt lat="43.62675" lon="7.0799">
        <ele>55.076396942139</ele>
        <time>2016-05-14T09:52:22.000Z</time>
      </trkpt>
      <trkpt lat="43.62675" lon="7.07992">
        <ele>54.637809753418</ele>
        <time>2016-05-14T09:52:26.000Z</time>
      </trkpt>
      <trkpt lat="43.62675" lon="7.07994">
        <ele>54.230567932129</ele>
        <time>2016-05-14T09:52:28.000Z</time>
      </trkpt>
      <trkpt lat="43.62673" lon="7.07995">
        <ele>53.892436981201</ele>
        <time>2016-05-14T09:52:30.000Z</time>
      </trkpt>
      <trkpt lat="43.62672" lon="7.07997">
        <ele>53.609642028809</ele>
        <time>2016-05-14T09:52:32.000Z</time>
      </trkpt>
      <trkpt lat="43.6267" lon="7.07999">
        <ele>53.247917175293</ele>
        <time>2016-05-14T09:52:35.000Z</time>
      </trkpt>
      <trkpt lat="43.62669" lon="7.08002">
        <ele>52.927845001221</ele>
        <time>2016-05-14T09:52:38.000Z</time>
      </trkpt>
      <trkpt lat="43.62668" lon="7.08003">
        <ele>52.671409606934</ele>
        <time>2016-05-14T09:52:40.000Z</time>
      </trkpt>
      <trkpt lat="43.62668" lon="7.08007">
        <ele>52.519248962402</ele>
        <time>2016-05-14T09:52:43.000Z</time>
      </trkpt>
      <trkpt lat="43.62666" lon="7.08008">
        <ele>52.44038772583</ele>
        <time>2016-05-14T09:52:46.000Z</time>
      </trkpt>
      <trkpt lat="43.62664" lon="7.08011">
        <ele>52.631233215332</ele>
        <time>2016-05-14T09:52:49.000Z</time>
      </trkpt>
      <trkpt lat="43.62661" lon="7.08015">
        <ele>52.985523223877</ele>
        <time>2016-05-14T09:52:52.000Z</time>
      </trkpt>
      <trkpt lat="43.62658" lon="7.08017">
        <ele>53.447166442871</ele>
        <time>2016-05-14T09:52:54.000Z</time>
      </trkpt>
      <trkpt lat="43.62654" lon="7.0802">
        <ele>53.995185852051</ele>
        <time>2016-05-14T09:52:57.000Z</time>
      </trkpt>
      <trkpt lat="43.62654" lon="7.08026">
        <ele>54.577808380127</ele>
        <time>2016-05-14T09:53:00.000Z</time>
      </trkpt>
      <trkpt lat="43.62653" lon="7.08029">
        <ele>55.048431396484</ele>
        <time>2016-05-14T09:53:02.000Z</time>
      </trkpt>
      <trkpt lat="43.62651" lon="7.08034">
        <ele>55.447521209717</ele>
        <time>2016-05-14T09:53:05.000Z</time>
      </trkpt>
      <trkpt lat="43.6265" lon="7.08036">
        <ele>55.765033721924</ele>
        <time>2016-05-14T09:53:07.000Z</time>
      </trkpt>
      <trkpt lat="43.62649" lon="7.08038">
        <ele>55.968635559082</ele>
        <time>2016-05-14T09:53:09.000Z</time>
      </trkpt>
      <trkpt lat="43.62646" lon="7.08043">
        <ele>56.190746307373</ele>
        <time>2016-05-14T09:53:12.000Z</time>
      </trkpt>
      <trkpt lat="43.62643" lon="7.08044">
        <ele>56.416679382324</ele>
        <time>2016-05-14T09:53:15.000Z</time>
      </trkpt>
      <trkpt lat="43.62642" lon="7.08045">
        <ele>56.586204528809</ele>
        <time>2016-05-14T09:53:17.000Z</time>
      </trkpt>
      <trkpt lat="43.6264" lon="7.08048">
        <ele>56.74195098877</ele>
        <time>2016-05-14T09:53:20.000Z</time>
      </trkpt>
      <trkpt lat="43.62638" lon="7.0805">
        <ele>56.886894226074</ele>
        <time>2016-05-14T09:53:23.000Z</time>
      </trkpt>
      <trkpt lat="43.62636" lon="7.08052">
        <ele>56.971672058105</ele>
        <time>2016-05-14T09:53:25.000Z</time>
      </trkpt>
      <trkpt lat="43.62634" lon="7.08057">
        <ele>57.009208679199</ele>
        <time>2016-05-14T09:53:28.000Z</time>
      </trkpt>
      <trkpt lat="43.62632" lon="7.08061">
        <ele>57.002338409424</ele>
        <time>2016-05-14T09:53:31.000Z</time>
      </trkpt>
      <trkpt lat="43.6263" lon="7.08063">
        <ele>56.95906829834</ele>
        <time>2016-05-14T09:53:33.000Z</time>
      </trkpt>
      <trkpt lat="43.62627" lon="7.08067">
        <ele>56.868629455566</ele>
        <time>2016-05-14T09:53:36.000Z</time>
      </trkpt>
      <trkpt lat="43.62626" lon="7.08069">
        <ele>56.740608215332</ele>
        <time>2016-05-14T09:53:38.000Z</time>
      </trkpt>
      <trkpt lat="43.62625" lon="7.08072">
        <ele>56.583763122559</ele>
        <time>2016-05-14T09:53:40.000Z</time>
      </trkpt>
      <trkpt lat="43.62624" lon="7.08078">
        <ele>56.377174377441</ele>
        <time>2016-05-14T09:53:43.000Z</time>
      </trkpt>
      <trkpt lat="43.62623" lon="7.08082">
        <ele>56.124481201172</ele>
        <time>2016-05-14T09:53:46.000Z</time>
      </trkpt>
      <trkpt lat="43.62622" lon="7.08082">
        <ele>55.877830505371</ele>
        <time>2016-05-14T09:53:49.000Z</time>
      </trkpt>
      <trkpt lat="43.62619" lon="7.08082">
        <ele>55.633666992188</ele>
        <time>2016-05-14T09:53:52.000Z</time>
      </trkpt>
      <trkpt lat="43.62617" lon="7.08087">
        <ele>55.479393005371</ele>
        <time>2016-05-14T09:53:55.000Z</time>
      </trkpt>
      <trkpt lat="43.62616" lon="7.08093">
        <ele>55.532722473145</ele>
        <time>2016-05-14T09:53:58.000Z</time>
      </trkpt>
      <trkpt lat="43.62613" lon="7.08095">
        <ele>55.646675109863</ele>
        <time>2016-05-14T09:54:01.000Z</time>
      </trkpt>
      <trkpt lat="43.62612" lon="7.08098">
        <ele>55.856224060059</ele>
        <time>2016-05-14T09:54:03.000Z</time>
      </trkpt>
      <trkpt lat="43.62612" lon="7.08106">
        <ele>56.272300720215</ele>
        <time>2016-05-14T09:54:06.000Z</time>
      </trkpt>
      <trkpt lat="43.62611" lon="7.08109">
        <ele>56.696117401123</ele>
        <time>2016-05-14T09:54:08.000Z</time>
      </trkpt>
      <trkpt lat="43.62611" lon="7.08115">
        <ele>57.107067108154</ele>
        <time>2016-05-14T09:54:11.000Z</time>
      </trkpt>
      <trkpt lat="43.62609" lon="7.08118">
        <ele>57.537525177002</ele>
        <time>2016-05-14T09:54:13.000Z</time>
      </trkpt>
      <trkpt lat="43.62607" lon="7.08121">
        <ele>57.886089324951</ele>
        <time>2016-05-14T09:54:16.000Z</time>
      </trkpt>
      <trkpt lat="43.62605" lon="7.08123">
        <ele>58.008869171143</ele>
        <time>2016-05-14T09:54:18.000Z</time>
      </trkpt>
      <trkpt lat="43.62602" lon="7.08125">
        <ele>57.998229980469</ele>
        <time>2016-05-14T09:54:20.000Z</time>
      </trkpt>
      <trkpt lat="43.626" lon="7.08127">
        <ele>57.842552185059</ele>
        <time>2016-05-14T09:54:23.000Z</time>
      </trkpt>
      <trkpt lat="43.62598" lon="7.08129">
        <ele>57.63383102417</ele>
        <time>2016-05-14T09:54:25.000Z</time>
      </trkpt>
      <trkpt lat="43.62595" lon="7.08134">
        <ele>57.364479064941</ele>
        <time>2016-05-14T09:54:28.000Z</time>
      </trkpt>
      <trkpt lat="43.62594" lon="7.08136">
        <ele>57.116100311279</ele>
        <time>2016-05-14T09:54:30.000Z</time>
      </trkpt>
      <trkpt lat="43.6259" lon="7.08138">
        <ele>56.764179229736</ele>
        <time>2016-05-14T09:54:33.000Z</time>
      </trkpt>
      <trkpt lat="43.62588" lon="7.08139">
        <ele>56.366874694824</ele>
        <time>2016-05-14T09:54:35.000Z</time>
      </trkpt>
      <trkpt lat="43.62586" lon="7.0814">
        <ele>55.938995361328</ele>
        <time>2016-05-14T09:54:38.000Z</time>
      </trkpt>
      <trkpt lat="43.62585" lon="7.08141">
        <ele>55.515930175781</ele>
        <time>2016-05-14T09:54:40.000Z</time>
      </trkpt>
      <trkpt lat="43.62584" lon="7.08144">
        <ele>55.103187561035</ele>
        <time>2016-05-14T09:54:42.000Z</time>
      </trkpt>
      <trkpt lat="43.62584" lon="7.08149">
        <ele>54.873878479004</ele>
        <time>2016-05-14T09:54:45.000Z</time>
      </trkpt>
      <trkpt lat="43.62585" lon="7.08153">
        <ele>54.801414489746</ele>
        <time>2016-05-14T09:54:48.000Z</time>
      </trkpt>
      <trkpt lat="43.62584" lon="7.08156">
        <ele>54.740440368652</ele>
        <time>2016-05-14T09:54:50.000Z</time>
      </trkpt>
      <trkpt lat="43.6258" lon="7.08158">
        <ele>54.800720214844</ele>
        <time>2016-05-14T09:54:53.000Z</time>
      </trkpt>
      <trkpt lat="43.62578" lon="7.08159">
        <ele>54.926410675049</ele>
        <time>2016-05-14T09:54:55.000Z</time>
      </trkpt>
      <trkpt lat="43.62574" lon="7.08159">
        <ele>55.12378692627</ele>
        <time>2016-05-14T09:54:58.000Z</time>
      </trkpt>
      <trkpt lat="43.62571" lon="7.08159">
        <ele>55.282440185547</ele>
        <time>2016-05-14T09:55:00.000Z</time>
      </trkpt>
      <trkpt lat="43.62566" lon="7.08159">
        <ele>55.563800811768</ele>
        <time>2016-05-14T09:55:03.000Z</time>
      </trkpt>
      <trkpt lat="43.62564" lon="7.08158">
        <ele>55.818126678467</ele>
        <time>2016-05-14T09:55:05.000Z</time>
      </trkpt>
      <trkpt lat="43.62561" lon="7.08158">
        <ele>56.071876525879</ele>
        <time>2016-05-14T09:55:08.000Z</time>
      </trkpt>
      <trkpt lat="43.62559" lon="7.08157">
        <ele>56.284557342529</ele>
        <time>2016-05-14T09:55:10.000Z</time>
      </trkpt>
      <trkpt lat="43.62557" lon="7.08156">
        <ele>56.460517883301</ele>
        <time>2016-05-14T09:55:12.000Z</time>
      </trkpt>
      <trkpt lat="43.62555" lon="7.08156">
        <ele>56.606578826904</ele>
        <time>2016-05-14T09:55:15.000Z</time>
      </trkpt>
      <trkpt lat="43.62553" lon="7.08155">
        <ele>56.762939453125</ele>
        <time>2016-05-14T09:55:18.000Z</time>
      </trkpt>
      <trkpt lat="43.6255" lon="7.08155">
        <ele>56.903991699219</ele>
        <time>2016-05-14T09:55:20.000Z</time>
      </trkpt>
      <trkpt lat="43.62549" lon="7.08154">
        <ele>57.027320861816</ele>
        <time>2016-05-14T09:55:22.000Z</time>
      </trkpt>
      <trkpt lat="43.62547" lon="7.08154">
        <ele>57.163429260254</ele>
        <time>2016-05-14T09:55:25.000Z</time>
      </trkpt>
      <trkpt lat="43.62546" lon="7.08154">
        <ele>57.278999328613</ele>
        <time>2016-05-14T09:55:28.000Z</time>
      </trkpt>
      <trkpt lat="43.62544" lon="7.08152">
        <ele>57.375312805176</ele>
        <time>2016-05-14T09:55:31.000Z</time>
      </trkpt>
      <trkpt lat="43.62543" lon="7.0815">
        <ele>57.446441650391</ele>
        <time>2016-05-14T09:55:33.000Z</time>
      </trkpt>
      <trkpt lat="43.62542" lon="7.0815">
        <ele>57.506233215332</ele>
        <time>2016-05-14T09:55:35.000Z</time>
      </trkpt>
      <trkpt lat="43.62541" lon="7.08148">
        <ele>57.533893585205</ele>
        <time>2016-05-14T09:55:38.000Z</time>
      </trkpt>
      <trkpt lat="43.6254" lon="7.08148">
        <ele>57.556846618652</ele>
        <time>2016-05-14T09:55:42.000Z</time>
      </trkpt>
      <trkpt lat="43.62538" lon="7.08147">
        <ele>57.595073699951</ele>
        <time>2016-05-14T09:55:45.000Z</time>
      </trkpt>
      <trkpt lat="43.62537" lon="7.08145">
        <ele>57.619758605957</ele>
        <time>2016-05-14T09:55:48.000Z</time>
      </trkpt>
      <trkpt lat="43.62535" lon="7.08143">
        <ele>57.635913848877</ele>
        <time>2016-05-14T09:55:51.000Z</time>
      </trkpt>
      <trkpt lat="43.62535" lon="7.08142">
        <ele>57.659294128418</ele>
        <time>2016-05-14T09:55:53.000Z</time>
      </trkpt>
      <trkpt lat="43.62535" lon="7.08143">
        <ele>57.678943634033</ele>
        <time>2016-05-14T09:55:55.000Z</time>
      </trkpt>
      <trkpt lat="43.62535" lon="7.08137">
        <ele>57.591484069824</ele>
        <time>2016-05-14T09:56:01.000Z</time>
      </trkpt>
      <trkpt lat="43.62534" lon="7.08131">
        <ele>57.464275360107</ele>
        <time>2016-05-14T09:56:10.000Z</time>
      </trkpt>
      <trkpt lat="43.62533" lon="7.0813">
        <ele>57.335166931152</ele>
        <time>2016-05-14T09:56:14.000Z</time>
      </trkpt>
      <trkpt lat="43.62531" lon="7.08127">
        <ele>57.185901641846</ele>
        <time>2016-05-14T09:56:16.000Z</time>
      </trkpt>
      <trkpt lat="43.62528" lon="7.08122">
        <ele>57.005084991455</ele>
        <time>2016-05-14T09:56:18.000Z</time>
      </trkpt>
      <trkpt lat="43.62525" lon="7.08117">
        <ele>56.864330291748</ele>
        <time>2016-05-14T09:56:21.000Z</time>
      </trkpt>
      <trkpt lat="43.62524" lon="7.08112">
        <ele>56.724620819092</ele>
        <time>2016-05-14T09:56:24.000Z</time>
      </trkpt>
      <trkpt lat="43.62524" lon="7.08103">
        <ele>56.477619171143</ele>
        <time>2016-05-14T09:56:27.000Z</time>
      </trkpt>
      <trkpt lat="43.62524" lon="7.08095">
        <ele>56.139656066895</ele>
        <time>2016-05-14T09:56:29.000Z</time>
      </trkpt>
      <trkpt lat="43.62526" lon="7.08085">
        <ele>55.682880401611</ele>
        <time>2016-05-14T09:56:32.000Z</time>
      </trkpt>
      <trkpt lat="43.62524" lon="7.08081">
        <ele>55.286823272705</ele>
        <time>2016-05-14T09:56:35.000Z</time>
      </trkpt>
      <trkpt lat="43.62523" lon="7.08075">
        <ele>55.049091339111</ele>
        <time>2016-05-14T09:56:38.000Z</time>
      </trkpt>
      <trkpt lat="43.62521" lon="7.08071">
        <ele>54.990043640137</ele>
        <time>2016-05-14T09:56:41.000Z</time>
      </trkpt>
      <trkpt lat="43.62519" lon="7.0807">
        <ele>55.057289123535</ele>
        <time>2016-05-14T09:56:43.000Z</time>
      </trkpt>
      <trkpt lat="43.62518" lon="7.08068">
        <ele>55.287860870361</ele>
        <time>2016-05-14T09:56:46.000Z</time>
      </trkpt>
      <trkpt lat="43.62519" lon="7.08065">
        <ele>55.547748565674</ele>
        <time>2016-05-14T09:56:49.000Z</time>
      </trkpt>
      <trkpt lat="43.62519" lon="7.08061">
        <ele>55.751976013184</ele>
        <time>2016-05-14T09:56:51.000Z</time>
      </trkpt>
      <trkpt lat="43.62519" lon="7.08059">
        <ele>55.93416595459</ele>
        <time>2016-05-14T09:56:53.000Z</time>
      </trkpt>
      <trkpt lat="43.62521" lon="7.08052">
        <ele>56.218254089355</ele>
        <time>2016-05-14T09:56:56.000Z</time>
      </trkpt>
      <trkpt lat="43.62519" lon="7.0805">
        <ele>56.489036560059</ele>
        <time>2016-05-14T09:56:58.000Z</time>
      </trkpt>
      <trkpt lat="43.62517" lon="7.08048">
        <ele>56.72241973877</ele>
        <time>2016-05-14T09:57:00.000Z</time>
      </trkpt>
      <trkpt lat="43.62515" lon="7.08044">
        <ele>56.942089080811</ele>
        <time>2016-05-14T09:57:03.000Z</time>
      </trkpt>
      <trkpt lat="43.62514" lon="7.0804">
        <ele>57.162403106689</ele>
        <time>2016-05-14T09:57:06.000Z</time>
      </trkpt>
      <trkpt lat="43.62514" lon="7.08037">
        <ele>57.302528381348</ele>
        <time>2016-05-14T09:57:09.000Z</time>
      </trkpt>
      <trkpt lat="43.62514" lon="7.08036">
        <ele>57.450378417969</ele>
        <time>2016-05-14T09:57:11.000Z</time>
      </trkpt>
      <trkpt lat="43.62513" lon="7.08031">
        <ele>57.629791259766</ele>
        <time>2016-05-14T09:57:14.000Z</time>
      </trkpt>
      <trkpt lat="43.62513" lon="7.08029">
        <ele>57.787040710449</ele>
        <time>2016-05-14T09:57:16.000Z</time>
      </trkpt>
      <trkpt lat="43.62511" lon="7.08027">
        <ele>57.881286621094</ele>
        <time>2016-05-14T09:57:19.000Z</time>
      </trkpt>
      <trkpt lat="43.62508" lon="7.08025">
        <ele>57.918567657471</ele>
        <time>2016-05-14T09:57:21.000Z</time>
      </trkpt>
      <trkpt lat="43.62506" lon="7.08023">
        <ele>57.92183303833</ele>
        <time>2016-05-14T09:57:23.000Z</time>
      </trkpt>
      <trkpt lat="43.62503" lon="7.08019">
        <ele>57.855171203613</ele>
        <time>2016-05-14T09:57:26.000Z</time>
      </trkpt>
      <trkpt lat="43.62501" lon="7.08017">
        <ele>57.748718261719</ele>
        <time>2016-05-14T09:57:28.000Z</time>
      </trkpt>
      <trkpt lat="43.625" lon="7.08015">
        <ele>57.650695800781</ele>
        <time>2016-05-14T09:57:31.000Z</time>
      </trkpt>
      <trkpt lat="43.62497" lon="7.08013">
        <ele>57.61714553833</ele>
        <time>2016-05-14T09:57:34.000Z</time>
      </trkpt>
      <trkpt lat="43.62497" lon="7.08013">
        <ele>57.61714553833</ele>
        <time>2016-05-14T09:57:54.000Z</time>
      </trkpt>
      <trkpt lat="43.62494" lon="7.08015">
        <ele>57.621448516846</ele>
        <time>2016-05-14T09:58:01.000Z</time>
      </trkpt>
      <trkpt lat="43.62494" lon="7.08015">
        <ele>57.621448516846</ele>
        <time>2016-05-14T09:58:21.000Z</time>
      </trkpt>
      <trkpt lat="43.62492" lon="7.08017">
        <ele>57.662864685059</ele>
        <time>2016-05-14T09:58:43.000Z</time>
      </trkpt>
      <trkpt lat="43.62492" lon="7.08017">
        <ele>57.662864685059</ele>
        <time>2016-05-14T09:59:03.000Z</time>
      </trkpt>
      <trkpt lat="43.6249" lon="7.08017">
        <ele>57.743152618408</ele>
        <time>2016-05-14T09:59:06.000Z</time>
      </trkpt>
      <trkpt lat="43.62489" lon="7.08018">
        <ele>57.849571228027</ele>
        <time>2016-05-14T09:59:08.000Z</time>
      </trkpt>
      <trkpt lat="43.62486" lon="7.08019">
        <ele>57.947937011719</ele>
        <time>2016-05-14T09:59:11.000Z</time>
      </trkpt>
      <trkpt lat="43.62484" lon="7.08017">
        <ele>58.05704498291</ele>
        <time>2016-05-14T09:59:14.000Z</time>
      </trkpt>
      <trkpt lat="43.62482" lon="7.08016">
        <ele>58.176433563232</ele>
        <time>2016-05-14T09:59:17.000Z</time>
      </trkpt>
      <trkpt lat="43.6248" lon="7.08015">
        <ele>58.308837890625</ele>
        <time>2016-05-14T09:59:20.000Z</time>
      </trkpt>
      <trkpt lat="43.62477" lon="7.08014">
        <ele>58.450695037842</ele>
        <time>2016-05-14T09:59:35.000Z</time>
      </trkpt>
      <trkpt lat="43.62476" lon="7.08012">
        <ele>58.57133102417</ele>
        <time>2016-05-14T09:59:37.000Z</time>
      </trkpt>
      <trkpt lat="43.62474" lon="7.0801">
        <ele>58.684192657471</ele>
        <time>2016-05-14T09:59:39.000Z</time>
      </trkpt>
      <trkpt lat="43.62472" lon="7.08004">
        <ele>58.794811248779</ele>
        <time>2016-05-14T09:59:42.000Z</time>
      </trkpt>
      <trkpt lat="43.6247" lon="7.07999">
        <ele>58.906269073486</ele>
        <time>2016-05-14T09:59:45.000Z</time>
      </trkpt>
      <trkpt lat="43.62468" lon="7.07996">
        <ele>59.042804718018</ele>
        <time>2016-05-14T09:59:47.000Z</time>
      </trkpt>
      <trkpt lat="43.62465" lon="7.07992">
        <ele>59.240303039551</ele>
        <time>2016-05-14T09:59:50.000Z</time>
      </trkpt>
      <trkpt lat="43.62462" lon="7.07986">
        <ele>59.489868164062</ele>
        <time>2016-05-14T09:59:53.000Z</time>
      </trkpt>
      <trkpt lat="43.62461" lon="7.07983">
        <ele>59.759777069092</ele>
        <time>2016-05-14T09:59:55.000Z</time>
      </trkpt>
      <trkpt lat="43.62457" lon="7.07977">
        <ele>60.047370910645</ele>
        <time>2016-05-14T09:59:58.000Z</time>
      </trkpt>
      <trkpt lat="43.62455" lon="7.07974">
        <ele>60.301647186279</ele>
        <time>2016-05-14T10:00:00.000Z</time>
      </trkpt>
      <trkpt lat="43.62453" lon="7.07971">
        <ele>60.494178771973</ele>
        <time>2016-05-14T10:00:03.000Z</time>
      </trkpt>
      <trkpt lat="43.62451" lon="7.07968">
        <ele>60.614063262939</ele>
        <time>2016-05-14T10:00:05.000Z</time>
      </trkpt>
      <trkpt lat="43.62449" lon="7.07964">
        <ele>60.700927734375</ele>
        <time>2016-05-14T10:00:08.000Z</time>
      </trkpt>
      <trkpt lat="43.62447" lon="7.07962">
        <ele>60.737358093262</ele>
        <time>2016-05-14T10:00:10.000Z</time>
      </trkpt>
      <trkpt lat="43.62445" lon="7.0796">
        <ele>60.739715576172</ele>
        <time>2016-05-14T10:00:12.000Z</time>
      </trkpt>
      <trkpt lat="43.62441" lon="7.07956">
        <ele>60.692932128906</ele>
        <time>2016-05-14T10:00:15.000Z</time>
      </trkpt>
      <trkpt lat="43.62437" lon="7.07953">
        <ele>60.586151123047</ele>
        <time>2016-05-14T10:00:18.000Z</time>
      </trkpt>
      <trkpt lat="43.62434" lon="7.07951">
        <ele>60.427795410156</ele>
        <time>2016-05-14T10:00:20.000Z</time>
      </trkpt>
      <trkpt lat="43.6243" lon="7.07948">
        <ele>60.199146270752</ele>
        <time>2016-05-14T10:00:23.000Z</time>
      </trkpt>
      <trkpt lat="43.62427" lon="7.07946">
        <ele>59.922821044922</ele>
        <time>2016-05-14T10:00:26.000Z</time>
      </trkpt>
      <trkpt lat="43.62424" lon="7.07946">
        <ele>59.636535644531</ele>
        <time>2016-05-14T10:00:28.000Z</time>
      </trkpt>
      <trkpt lat="43.62422" lon="7.07944">
        <ele>59.350921630859</ele>
        <time>2016-05-14T10:00:31.000Z</time>
      </trkpt>
      <trkpt lat="43.62421" lon="7.07942">
        <ele>59.072471618652</ele>
        <time>2016-05-14T10:00:33.000Z</time>
      </trkpt>
      <trkpt lat="43.6242" lon="7.0794">
        <ele>58.837738037109</ele>
        <time>2016-05-14T10:00:35.000Z</time>
      </trkpt>
      <trkpt lat="43.6242" lon="7.07939">
        <ele>58.648551940918</ele>
        <time>2016-05-14T10:00:37.000Z</time>
      </trkpt>
      <trkpt lat="43.62417" lon="7.07934">
        <ele>58.406028747559</ele>
        <time>2016-05-14T10:00:40.000Z</time>
      </trkpt>
      <trkpt lat="43.62414" lon="7.0793">
        <ele>58.377838134766</ele>
        <time>2016-05-14T10:00:43.000Z</time>
      </trkpt>
      <trkpt lat="43.62411" lon="7.07929">
        <ele>58.537422180176</ele>
        <time>2016-05-14T10:00:45.000Z</time>
      </trkpt>
      <trkpt lat="43.62409" lon="7.07927">
        <ele>58.842578887939</ele>
        <time>2016-05-14T10:00:47.000Z</time>
      </trkpt>
      <trkpt lat="43.62407" lon="7.07924">
        <ele>59.304756164551</ele>
        <time>2016-05-14T10:00:50.000Z</time>
      </trkpt>
      <trkpt lat="43.62405" lon="7.07923">
        <ele>59.993217468262</ele>
        <time>2016-05-14T10:00:52.000Z</time>
      </trkpt>
      <trkpt lat="43.62402" lon="7.07922">
        <ele>60.735511779785</ele>
        <time>2016-05-14T10:00:55.000Z</time>
      </trkpt>
      <trkpt lat="43.624" lon="7.0792">
        <ele>61.436714172363</ele>
        <time>2016-05-14T10:00:58.000Z</time>
      </trkpt>
      <trkpt lat="43.62399" lon="7.07915">
        <ele>62.026084899902</ele>
        <time>2016-05-14T10:01:01.000Z</time>
      </trkpt>
      <trkpt lat="43.62398" lon="7.0791">
        <ele>62.569053649902</ele>
        <time>2016-05-14T10:01:04.000Z</time>
      </trkpt>
      <trkpt lat="43.62397" lon="7.07909">
        <ele>63.068244934082</ele>
        <time>2016-05-14T10:01:06.000Z</time>
      </trkpt>
      <trkpt lat="43.62396" lon="7.07906">
        <ele>63.389831542969</ele>
        <time>2016-05-14T10:01:09.000Z</time>
      </trkpt>
      <trkpt lat="43.62395" lon="7.07904">
        <ele>63.660621643066</ele>
        <time>2016-05-14T10:01:11.000Z</time>
      </trkpt>
      <trkpt lat="43.62395" lon="7.07901">
        <ele>63.959190368652</ele>
        <time>2016-05-14T10:01:14.000Z</time>
      </trkpt>
      <trkpt lat="43.62394" lon="7.07899">
        <ele>64.224426269531</ele>
        <time>2016-05-14T10:01:16.000Z</time>
      </trkpt>
      <trkpt lat="43.62394" lon="7.07896">
        <ele>64.437789916992</ele>
        <time>2016-05-14T10:01:19.000Z</time>
      </trkpt>
      <trkpt lat="43.62394" lon="7.07893">
        <ele>64.624313354492</ele>
        <time>2016-05-14T10:01:22.000Z</time>
      </trkpt>
      <trkpt lat="43.62392" lon="7.07891">
        <ele>64.836776733398</ele>
        <time>2016-05-14T10:01:25.000Z</time>
      </trkpt>
      <trkpt lat="43.62392" lon="7.07889">
        <ele>65.074775695801</ele>
        <time>2016-05-14T10:01:28.000Z</time>
      </trkpt>
      <trkpt lat="43.62392" lon="7.07886">
        <ele>65.205200195312</ele>
        <time>2016-05-14T10:01:30.000Z</time>
      </trkpt>
      <trkpt lat="43.62393" lon="7.07884">
        <ele>65.28002166748</ele>
        <time>2016-05-14T10:01:32.000Z</time>
      </trkpt>
      <trkpt lat="43.62394" lon="7.07881">
        <ele>65.327499389648</ele>
        <time>2016-05-14T10:01:35.000Z</time>
      </trkpt>
      <trkpt lat="43.62394" lon="7.07878">
        <ele>65.241638183594</ele>
        <time>2016-05-14T10:01:38.000Z</time>
      </trkpt>
      <trkpt lat="43.62395" lon="7.07877">
        <ele>65.073440551758</ele>
        <time>2016-05-14T10:01:40.000Z</time>
      </trkpt>
      <trkpt lat="43.62395" lon="7.07873">
        <ele>64.961471557617</ele>
        <time>2016-05-14T10:01:43.000Z</time>
      </trkpt>
      <trkpt lat="43.62394" lon="7.07869">
        <ele>64.933326721191</ele>
        <time>2016-05-14T10:01:45.000Z</time>
      </trkpt>
      <trkpt lat="43.62393" lon="7.07865">
        <ele>64.961654663086</ele>
        <time>2016-05-14T10:01:48.000Z</time>
      </trkpt>
      <trkpt lat="43.62393" lon="7.07861">
        <ele>65.07194519043</ele>
        <time>2016-05-14T10:01:50.000Z</time>
      </trkpt>
      <trkpt lat="43.62393" lon="7.07858">
        <ele>65.212661743164</ele>
        <time>2016-05-14T10:01:52.000Z</time>
      </trkpt>
      <trkpt lat="43.62392" lon="7.07853">
        <ele>65.381813049316</ele>
        <time>2016-05-14T10:01:55.000Z</time>
      </trkpt>
      <trkpt lat="43.62393" lon="7.07849">
        <ele>65.470252990723</ele>
        <time>2016-05-14T10:01:58.000Z</time>
      </trkpt>
      <trkpt lat="43.62393" lon="7.07847">
        <ele>65.501052856445</ele>
        <time>2016-05-14T10:02:00.000Z</time>
      </trkpt>
      <trkpt lat="43.62393" lon="7.07845">
        <ele>65.501365661621</ele>
        <time>2016-05-14T10:02:03.000Z</time>
      </trkpt>
      <trkpt lat="43.62395" lon="7.07842">
        <ele>65.395492553711</ele>
        <time>2016-05-14T10:02:06.000Z</time>
      </trkpt>
      <trkpt lat="43.62395" lon="7.07839">
        <ele>65.233520507812</ele>
        <time>2016-05-14T10:02:09.000Z</time>
      </trkpt>
      <trkpt lat="43.62395" lon="7.07834">
        <ele>65.100051879883</ele>
        <time>2016-05-14T10:02:12.000Z</time>
      </trkpt>
      <trkpt lat="43.62395" lon="7.07829">
        <ele>65.090560913086</ele>
        <time>2016-05-14T10:02:15.000Z</time>
      </trkpt>
      <trkpt lat="43.62395" lon="7.07825">
        <ele>65.19115447998</ele>
        <time>2016-05-14T10:02:17.000Z</time>
      </trkpt>
      <trkpt lat="43.62395" lon="7.07819">
        <ele>65.53092956543</ele>
        <time>2016-05-14T10:02:20.000Z</time>
      </trkpt>
      <trkpt lat="43.62395" lon="7.07815">
        <ele>65.97388458252</ele>
        <time>2016-05-14T10:02:23.000Z</time>
      </trkpt>
      <trkpt lat="43.62396" lon="7.07813">
        <ele>66.392860412598</ele>
        <time>2016-05-14T10:02:25.000Z</time>
      </trkpt>
      <trkpt lat="43.62398" lon="7.07808">
        <ele>66.667640686035</ele>
        <time>2016-05-14T10:02:28.000Z</time>
      </trkpt>
      <trkpt lat="43.624" lon="7.07804">
        <ele>66.801612854004</ele>
        <time>2016-05-14T10:02:31.000Z</time>
      </trkpt>
      <trkpt lat="43.62402" lon="7.078">
        <ele>66.764114379883</ele>
        <time>2016-05-14T10:02:34.000Z</time>
      </trkpt>
      <trkpt lat="43.62403" lon="7.07799">
        <ele>66.561767578125</ele>
        <time>2016-05-14T10:02:37.000Z</time>
      </trkpt>
      <trkpt lat="43.62403" lon="7.07796">
        <ele>66.396781921387</ele>
        <time>2016-05-14T10:02:39.000Z</time>
      </trkpt>
      <trkpt lat="43.62404" lon="7.07795">
        <ele>66.25611114502</ele>
        <time>2016-05-14T10:02:41.000Z</time>
      </trkpt>
      <trkpt lat="43.62406" lon="7.07791">
        <ele>66.095237731934</ele>
        <time>2016-05-14T10:02:44.000Z</time>
      </trkpt>
      <trkpt lat="43.6241" lon="7.07787">
        <ele>65.763107299805</ele>
        <time>2016-05-14T10:02:47.000Z</time>
      </trkpt>
      <trkpt lat="43.62412" lon="7.07785">
        <ele>65.439338684082</ele>
        <time>2016-05-14T10:02:49.000Z</time>
      </trkpt>
      <trkpt lat="43.62413" lon="7.07781">
        <ele>65.082275390625</ele>
        <time>2016-05-14T10:02:52.000Z</time>
      </trkpt>
      <trkpt lat="43.62414" lon="7.07779">
        <ele>64.705368041992</ele>
        <time>2016-05-14T10:02:55.000Z</time>
      </trkpt>
      <trkpt lat="43.62416" lon="7.07778">
        <ele>64.267150878906</ele>
        <time>2016-05-14T10:02:58.000Z</time>
      </trkpt>
      <trkpt lat="43.62417" lon="7.07778">
        <ele>63.989326477051</ele>
        <time>2016-05-14T10:03:00.000Z</time>
      </trkpt>
      <trkpt lat="43.62418" lon="7.07775">
        <ele>63.859210968018</ele>
        <time>2016-05-14T10:03:02.000Z</time>
      </trkpt>
      <trkpt lat="43.62421" lon="7.07773">
        <ele>63.839965820312</ele>
        <time>2016-05-14T10:03:04.000Z</time>
      </trkpt>
      <trkpt lat="43.62423" lon="7.07771">
        <ele>63.956157684326</ele>
        <time>2016-05-14T10:03:06.000Z</time>
      </trkpt>
      <trkpt lat="43.62425" lon="7.0777">
        <ele>64.246078491211</ele>
        <time>2016-05-14T10:03:09.000Z</time>
      </trkpt>
      <trkpt lat="43.62427" lon="7.07766">
        <ele>64.682960510254</ele>
        <time>2016-05-14T10:03:12.000Z</time>
      </trkpt>
      <trkpt lat="43.62428" lon="7.07762">
        <ele>65.148788452148</ele>
        <time>2016-05-14T10:03:14.000Z</time>
      </trkpt>
      <trkpt lat="43.6243" lon="7.07755">
        <ele>65.646217346191</ele>
        <time>2016-05-14T10:03:17.000Z</time>
      </trkpt>
      <trkpt lat="43.62431" lon="7.07753">
        <ele>66.079238891602</ele>
        <time>2016-05-14T10:03:19.000Z</time>
      </trkpt>
      <trkpt lat="43.62431" lon="7.07749">
        <ele>66.510467529297</ele>
        <time>2016-05-14T10:03:21.000Z</time>
      </trkpt>
      <trkpt lat="43.62432" lon="7.07743">
        <ele>66.916435241699</ele>
        <time>2016-05-14T10:03:24.000Z</time>
      </trkpt>
      <trkpt lat="43.62434" lon="7.0774">
        <ele>67.261619567871</ele>
        <time>2016-05-14T10:03:27.000Z</time>
      </trkpt>
      <trkpt lat="43.62434" lon="7.07739">
        <ele>67.492630004883</ele>
        <time>2016-05-14T10:03:32.000Z</time>
      </trkpt>
      <trkpt lat="43.62437" lon="7.07736">
        <ele>67.748184204102</ele>
        <time>2016-05-14T10:03:35.000Z</time>
      </trkpt>
      <trkpt lat="43.6244" lon="7.07733">
        <ele>67.990859985352</ele>
        <time>2016-05-14T10:03:38.000Z</time>
      </trkpt>
      <trkpt lat="43.62442" lon="7.07729">
        <ele>68.197441101074</ele>
        <time>2016-05-14T10:03:41.000Z</time>
      </trkpt>
      <trkpt lat="43.62443" lon="7.07725">
        <ele>68.390090942383</ele>
        <time>2016-05-14T10:03:44.000Z</time>
      </trkpt>
      <trkpt lat="43.62443" lon="7.07722">
        <ele>68.578918457031</ele>
        <time>2016-05-14T10:03:46.000Z</time>
      </trkpt>
      <trkpt lat="43.62443" lon="7.0772">
        <ele>68.717544555664</ele>
        <time>2016-05-14T10:03:49.000Z</time>
      </trkpt>
      <trkpt lat="43.62445" lon="7.07714">
        <ele>68.840492248535</ele>
        <time>2016-05-14T10:03:55.000Z</time>
      </trkpt>
      <trkpt lat="43.62445" lon="7.07711">
        <ele>68.93531036377</ele>
        <time>2016-05-14T10:03:58.000Z</time>
      </trkpt>
      <trkpt lat="43.62446" lon="7.07708">
        <ele>69.016944885254</ele>
        <time>2016-05-14T10:04:00.000Z</time>
      </trkpt>
      <trkpt lat="43.62447" lon="7.07701">
        <ele>69.105735778809</ele>
        <time>2016-05-14T10:04:03.000Z</time>
      </trkpt>
      <trkpt lat="43.62448" lon="7.07695">
        <ele>69.20401763916</ele>
        <time>2016-05-14T10:04:05.000Z</time>
      </trkpt>
      <trkpt lat="43.62449" lon="7.07689">
        <ele>69.280265808105</ele>
        <time>2016-05-14T10:04:07.000Z</time>
      </trkpt>
      <trkpt lat="43.62449" lon="7.07685">
        <ele>69.352844238281</ele>
        <time>2016-05-14T10:04:09.000Z</time>
      </trkpt>
      <trkpt lat="43.62449" lon="7.0768">
        <ele>69.418533325195</ele>
        <time>2016-05-14T10:04:12.000Z</time>
      </trkpt>
      <trkpt lat="43.62453" lon="7.07676">
        <ele>69.431655883789</ele>
        <time>2016-05-14T10:04:15.000Z</time>
      </trkpt>
      <trkpt lat="43.62454" lon="7.07674">
        <ele>69.416465759277</ele>
        <time>2016-05-14T10:04:18.000Z</time>
      </trkpt>
      <trkpt lat="43.62453" lon="7.07671">
        <ele>69.39591217041</ele>
        <time>2016-05-14T10:04:20.000Z</time>
      </trkpt>
      <trkpt lat="43.62453" lon="7.07667">
        <ele>69.373100280762</ele>
        <time>2016-05-14T10:04:22.000Z</time>
      </trkpt>
      <trkpt lat="43.62453" lon="7.07664">
        <ele>69.359893798828</ele>
        <time>2016-05-14T10:04:24.000Z</time>
      </trkpt>
      <trkpt lat="43.62454" lon="7.0766">
        <ele>69.375076293945</ele>
        <time>2016-05-14T10:04:27.000Z</time>
      </trkpt>
      <trkpt lat="43.62454" lon="7.07657">
        <ele>69.405555725098</ele>
        <time>2016-05-14T10:04:29.000Z</time>
      </trkpt>
      <trkpt lat="43.62455" lon="7.07655">
        <ele>69.43017578125</ele>
        <time>2016-05-14T10:04:31.000Z</time>
      </trkpt>
      <trkpt lat="43.62456" lon="7.07651">
        <ele>69.436264038086</ele>
        <time>2016-05-14T10:04:34.000Z</time>
      </trkpt>
      <trkpt lat="43.62457" lon="7.07648">
        <ele>69.419784545898</ele>
        <time>2016-05-14T10:04:36.000Z</time>
      </trkpt>
      <trkpt lat="43.62458" lon="7.07643">
        <ele>69.403465270996</ele>
        <time>2016-05-14T10:04:39.000Z</time>
      </trkpt>
      <trkpt lat="43.62459" lon="7.0764">
        <ele>69.366226196289</ele>
        <time>2016-05-14T10:04:41.000Z</time>
      </trkpt>
      <trkpt lat="43.62459" lon="7.07636">
        <ele>69.327705383301</ele>
        <time>2016-05-14T10:04:44.000Z</time>
      </trkpt>
      <trkpt lat="43.62461" lon="7.07629">
        <ele>69.283706665039</ele>
        <time>2016-05-14T10:04:49.000Z</time>
      </trkpt>
      <trkpt lat="43.62462" lon="7.07626">
        <ele>69.20777130127</ele>
        <time>2016-05-14T10:04:52.000Z</time>
      </trkpt>
      <trkpt lat="43.62464" lon="7.07624">
        <ele>69.095016479492</ele>
        <time>2016-05-14T10:04:54.000Z</time>
      </trkpt>
      <trkpt lat="43.62464" lon="7.07619">
        <ele>68.992156982422</ele>
        <time>2016-05-14T10:04:57.000Z</time>
      </trkpt>
      <trkpt lat="43.62463" lon="7.07612">
        <ele>68.918960571289</ele>
        <time>2016-05-14T10:05:00.000Z</time>
      </trkpt>
      <trkpt lat="43.62462" lon="7.07605">
        <ele>68.908676147461</ele>
        <time>2016-05-14T10:05:03.000Z</time>
      </trkpt>
      <trkpt lat="43.62463" lon="7.07601">
        <ele>68.927352905273</ele>
        <time>2016-05-14T10:05:05.000Z</time>
      </trkpt>
      <trkpt lat="43.62463" lon="7.07598">
        <ele>68.962348937988</ele>
        <time>2016-05-14T10:05:07.000Z</time>
      </trkpt>
      <trkpt lat="43.62463" lon="7.07594">
        <ele>69.008911132812</ele>
        <time>2016-05-14T10:05:10.000Z</time>
      </trkpt>
      <trkpt lat="43.62465" lon="7.07589">
        <ele>68.986145019531</ele>
        <time>2016-05-14T10:05:13.000Z</time>
      </trkpt>
      <trkpt lat="43.62466" lon="7.07586">
        <ele>68.857383728027</ele>
        <time>2016-05-14T10:05:15.000Z</time>
      </trkpt>
      <trkpt lat="43.62466" lon="7.07582">
        <ele>68.722938537598</ele>
        <time>2016-05-14T10:05:18.000Z</time>
      </trkpt>
      <trkpt lat="43.62467" lon="7.07579">
        <ele>68.61408996582</ele>
        <time>2016-05-14T10:05:20.000Z</time>
      </trkpt>
      <trkpt lat="43.62467" lon="7.07574">
        <ele>68.503799438477</ele>
        <time>2016-05-14T10:05:23.000Z</time>
      </trkpt>
      <trkpt lat="43.62467" lon="7.07572">
        <ele>68.434707641602</ele>
        <time>2016-05-14T10:05:25.000Z</time>
      </trkpt>
      <trkpt lat="43.62469" lon="7.07569">
        <ele>68.345603942871</ele>
        <time>2016-05-14T10:05:28.000Z</time>
      </trkpt>
      <trkpt lat="43.62469" lon="7.07567">
        <ele>68.271560668945</ele>
        <time>2016-05-14T10:05:30.000Z</time>
      </trkpt>
      <trkpt lat="43.62468" lon="7.07565">
        <ele>68.229347229004</ele>
        <time>2016-05-14T10:05:32.000Z</time>
      </trkpt>
      <trkpt lat="43.62468" lon="7.07562">
        <ele>68.169395446777</ele>
        <time>2016-05-14T10:05:34.000Z</time>
      </trkpt>
      <trkpt lat="43.6247" lon="7.07558">
        <ele>68.04402923584</ele>
        <time>2016-05-14T10:05:37.000Z</time>
      </trkpt>
      <trkpt lat="43.62471" lon="7.07556">
        <ele>67.94864654541</ele>
        <time>2016-05-14T10:05:39.000Z</time>
      </trkpt>
      <trkpt lat="43.62472" lon="7.07553">
        <ele>67.802856445312</ele>
        <time>2016-05-14T10:05:41.000Z</time>
      </trkpt>
      <trkpt lat="43.62474" lon="7.07551">
        <ele>67.540092468262</ele>
        <time>2016-05-14T10:05:44.000Z</time>
      </trkpt>
      <trkpt lat="43.62476" lon="7.0755">
        <ele>67.208221435547</ele>
        <time>2016-05-14T10:05:46.000Z</time>
      </trkpt>
      <trkpt lat="43.62478" lon="7.07547">
        <ele>66.872108459473</ele>
        <time>2016-05-14T10:05:49.000Z</time>
      </trkpt>
      <trkpt lat="43.62479" lon="7.07543">
        <ele>66.549331665039</ele>
        <time>2016-05-14T10:05:51.000Z</time>
      </trkpt>
      <trkpt lat="43.62479" lon="7.0754">
        <ele>66.274879455566</ele>
        <time>2016-05-14T10:05:53.000Z</time>
      </trkpt>
      <trkpt lat="43.62481" lon="7.07535">
        <ele>66.011993408203</ele>
        <time>2016-05-14T10:05:56.000Z</time>
      </trkpt>
      <trkpt lat="43.62482" lon="7.07532">
        <ele>65.761413574219</ele>
        <time>2016-05-14T10:05:58.000Z</time>
      </trkpt>
      <trkpt lat="43.62483" lon="7.07528">
        <ele>65.523941040039</ele>
        <time>2016-05-14T10:06:00.000Z</time>
      </trkpt>
      <trkpt lat="43.62484" lon="7.07525">
        <ele>65.301414489746</ele>
        <time>2016-05-14T10:06:02.000Z</time>
      </trkpt>
      <trkpt lat="43.62486" lon="7.07522">
        <ele>65.006309509277</ele>
        <time>2016-05-14T10:06:05.000Z</time>
      </trkpt>
      <trkpt lat="43.62487" lon="7.0752">
        <ele>64.728073120117</ele>
        <time>2016-05-14T10:06:07.000Z</time>
      </trkpt>
      <trkpt lat="43.62488" lon="7.07517">
        <ele>64.446220397949</ele>
        <time>2016-05-14T10:06:10.000Z</time>
      </trkpt>
      <trkpt lat="43.62489" lon="7.07514">
        <ele>64.161796569824</ele>
        <time>2016-05-14T10:06:12.000Z</time>
      </trkpt>
      <trkpt lat="43.6249" lon="7.07511">
        <ele>63.876171112061</ele>
        <time>2016-05-14T10:06:14.000Z</time>
      </trkpt>
      <trkpt lat="43.62492" lon="7.07508">
        <ele>63.549354553223</ele>
        <time>2016-05-14T10:06:17.000Z</time>
      </trkpt>
      <trkpt lat="43.62494" lon="7.07504">
        <ele>63.216331481934</ele>
        <time>2016-05-14T10:06:20.000Z</time>
      </trkpt>
      <trkpt lat="43.62495" lon="7.075">
        <ele>62.898509979248</ele>
        <time>2016-05-14T10:06:22.000Z</time>
      </trkpt>
      <trkpt lat="43.62496" lon="7.07496">
        <ele>62.598560333252</ele>
        <time>2016-05-14T10:06:25.000Z</time>
      </trkpt>
      <trkpt lat="43.62497" lon="7.07494">
        <ele>62.297351837158</ele>
        <time>2016-05-14T10:06:27.000Z</time>
      </trkpt>
      <trkpt lat="43.62499" lon="7.07489">
        <ele>62.068695068359</ele>
        <time>2016-05-14T10:06:30.000Z</time>
      </trkpt>
      <trkpt lat="43.625" lon="7.07488">
        <ele>61.897216796875</ele>
        <time>2016-05-14T10:06:33.000Z</time>
      </trkpt>
      <trkpt lat="43.62502" lon="7.07486">
        <ele>61.905113220215</ele>
        <time>2016-05-14T10:06:36.000Z</time>
      </trkpt>
      <trkpt lat="43.62505" lon="7.07483">
        <ele>62.070899963379</ele>
        <time>2016-05-14T10:06:39.000Z</time>
      </trkpt>
      <trkpt lat="43.62506" lon="7.07481">
        <ele>62.331871032715</ele>
        <time>2016-05-14T10:06:41.000Z</time>
      </trkpt>
      <trkpt lat="43.62506" lon="7.07478">
        <ele>62.689891815186</ele>
        <time>2016-05-14T10:06:43.000Z</time>
      </trkpt>
      <trkpt lat="43.62508" lon="7.07476">
        <ele>63.13525390625</ele>
        <time>2016-05-14T10:06:45.000Z</time>
      </trkpt>
      <trkpt lat="43.62511" lon="7.07473">
        <ele>63.594799041748</ele>
        <time>2016-05-14T10:06:48.000Z</time>
      </trkpt>
      <trkpt lat="43.62514" lon="7.07469">
        <ele>64.065414428711</ele>
        <time>2016-05-14T10:06:51.000Z</time>
      </trkpt>
      <trkpt lat="43.62515" lon="7.07465">
        <ele>64.51774597168</ele>
        <time>2016-05-14T10:06:53.000Z</time>
      </trkpt>
      <trkpt lat="43.62516" lon="7.07462">
        <ele>64.950149536133</ele>
        <time>2016-05-14T10:06:55.000Z</time>
      </trkpt>
      <trkpt lat="43.62517" lon="7.07461">
        <ele>65.344268798828</ele>
        <time>2016-05-14T10:06:57.000Z</time>
      </trkpt>
      <trkpt lat="43.62518" lon="7.07459">
        <ele>65.648147583008</ele>
        <time>2016-05-14T10:06:59.000Z</time>
      </trkpt>
      <trkpt lat="43.6252" lon="7.07456">
        <ele>65.876510620117</ele>
        <time>2016-05-14T10:07:01.000Z</time>
      </trkpt>
      <trkpt lat="43.62521" lon="7.07452">
        <ele>66.085311889648</ele>
        <time>2016-05-14T10:07:04.000Z</time>
      </trkpt>
      <trkpt lat="43.62522" lon="7.0745">
        <ele>66.281173706055</ele>
        <time>2016-05-14T10:07:06.000Z</time>
      </trkpt>
      <trkpt lat="43.62523" lon="7.07447">
        <ele>66.461486816406</ele>
        <time>2016-05-14T10:07:08.000Z</time>
      </trkpt>
      <trkpt lat="43.62525" lon="7.07444">
        <ele>66.633804321289</ele>
        <time>2016-05-14T10:07:11.000Z</time>
      </trkpt>
      <trkpt lat="43.62526" lon="7.07441">
        <ele>66.783798217773</ele>
        <time>2016-05-14T10:07:14.000Z</time>
      </trkpt>
      <trkpt lat="43.62529" lon="7.07439">
        <ele>66.946144104004</ele>
        <time>2016-05-14T10:07:17.000Z</time>
      </trkpt>
      <trkpt lat="43.6253" lon="7.07437">
        <ele>67.10578918457</ele>
        <time>2016-05-14T10:07:19.000Z</time>
      </trkpt>
      <trkpt lat="43.62531" lon="7.07434">
        <ele>67.227760314941</ele>
        <time>2016-05-14T10:07:22.000Z</time>
      </trkpt>
      <trkpt lat="43.62532" lon="7.07433">
        <ele>67.32967376709</ele>
        <time>2016-05-14T10:07:25.000Z</time>
      </trkpt>
      <trkpt lat="43.62533" lon="7.07432">
        <ele>67.419410705566</ele>
        <time>2016-05-14T10:07:28.000Z</time>
      </trkpt>
      <trkpt lat="43.62534" lon="7.0743">
        <ele>67.475196838379</ele>
        <time>2016-05-14T10:07:31.000Z</time>
      </trkpt>
      <trkpt lat="43.62535" lon="7.07429">
        <ele>67.508979797363</ele>
        <time>2016-05-14T10:07:34.000Z</time>
      </trkpt>
      <trkpt lat="43.62537" lon="7.07423">
        <ele>67.548690795898</ele>
        <time>2016-05-14T10:07:41.000Z</time>
      </trkpt>
      <trkpt lat="43.62539" lon="7.07419">
        <ele>67.548324584961</ele>
        <time>2016-05-14T10:07:44.000Z</time>
      </trkpt>
      <trkpt lat="43.6254" lon="7.07414">
        <ele>67.568176269531</ele>
        <time>2016-05-14T10:07:47.000Z</time>
      </trkpt>
      <trkpt lat="43.62541" lon="7.07408">
        <ele>67.672203063965</ele>
        <time>2016-05-14T10:07:50.000Z</time>
      </trkpt>
      <trkpt lat="43.62543" lon="7.07403">
        <ele>67.857383728027</ele>
        <time>2016-05-14T10:07:53.000Z</time>
      </trkpt>
      <trkpt lat="43.62543" lon="7.07401">
        <ele>68.068290710449</ele>
        <time>2016-05-14T10:07:55.000Z</time>
      </trkpt>
      <trkpt lat="43.62544" lon="7.07398">
        <ele>68.341857910156</ele>
        <time>2016-05-14T10:07:57.000Z</time>
      </trkpt>
      <trkpt lat="43.62545" lon="7.07395">
        <ele>68.609817504883</ele>
        <time>2016-05-14T10:08:00.000Z</time>
      </trkpt>
      <trkpt lat="43.62546" lon="7.07392">
        <ele>68.81591796875</ele>
        <time>2016-05-14T10:08:03.000Z</time>
      </trkpt>
      <trkpt lat="43.62547" lon="7.07389">
        <ele>68.973678588867</ele>
        <time>2016-05-14T10:08:05.000Z</time>
      </trkpt>
      <trkpt lat="43.62547" lon="7.07387">
        <ele>69.121383666992</ele>
        <time>2016-05-14T10:08:08.000Z</time>
      </trkpt>
      <trkpt lat="43.62549" lon="7.07381">
        <ele>69.257675170898</ele>
        <time>2016-05-14T10:08:12.000Z</time>
      </trkpt>
      <trkpt lat="43.62552" lon="7.07378">
        <ele>69.341201782227</ele>
        <time>2016-05-14T10:08:15.000Z</time>
      </trkpt>
      <trkpt lat="43.62554" lon="7.07377">
        <ele>69.363174438477</ele>
        <time>2016-05-14T10:08:17.000Z</time>
      </trkpt>
      <trkpt lat="43.62557" lon="7.07374">
        <ele>69.3125</ele>
        <time>2016-05-14T10:08:20.000Z</time>
      </trkpt>
      <trkpt lat="43.62558" lon="7.07371">
        <ele>69.231468200684</ele>
        <time>2016-05-14T10:08:23.000Z</time>
      </trkpt>
      <trkpt lat="43.6256" lon="7.07368">
        <ele>69.099403381348</ele>
        <time>2016-05-14T10:08:25.000Z</time>
      </trkpt>
      <trkpt lat="43.62561" lon="7.07363">
        <ele>68.946990966797</ele>
        <time>2016-05-14T10:08:28.000Z</time>
      </trkpt>
      <trkpt lat="43.62562" lon="7.07357">
        <ele>68.781143188477</ele>
        <time>2016-05-14T10:08:31.000Z</time>
      </trkpt>
      <trkpt lat="43.62563" lon="7.07353">
        <ele>68.611549377441</ele>
        <time>2016-05-14T10:08:33.000Z</time>
      </trkpt>
      <trkpt lat="43.62564" lon="7.0735">
        <ele>68.421188354492</ele>
        <time>2016-05-14T10:08:35.000Z</time>
      </trkpt>
      <trkpt lat="43.62568" lon="7.07348">
        <ele>68.123695373535</ele>
        <time>2016-05-14T10:08:38.000Z</time>
      </trkpt>
      <trkpt lat="43.6257" lon="7.07349">
        <ele>67.774955749512</ele>
        <time>2016-05-14T10:08:41.000Z</time>
      </trkpt>
      <trkpt lat="43.62572" lon="7.07349">
        <ele>67.401542663574</ele>
        <time>2016-05-14T10:08:44.000Z</time>
      </trkpt>
      <trkpt lat="43.62572" lon="7.07345">
        <ele>67.015586853027</ele>
        <time>2016-05-14T10:08:47.000Z</time>
      </trkpt>
      <trkpt lat="43.62574" lon="7.07339">
        <ele>66.517395019531</ele>
        <time>2016-05-14T10:08:50.000Z</time>
      </trkpt>
      <trkpt lat="43.62576" lon="7.07336">
        <ele>66.039596557617</ele>
        <time>2016-05-14T10:08:52.000Z</time>
      </trkpt>
      <trkpt lat="43.62577" lon="7.07332">
        <ele>65.594772338867</ele>
        <time>2016-05-14T10:08:54.000Z</time>
      </trkpt>
      <trkpt lat="43.62579" lon="7.07328">
        <ele>65.224472045898</ele>
        <time>2016-05-14T10:08:56.000Z</time>
      </trkpt>
      <trkpt lat="43.62581" lon="7.07321">
        <ele>64.903579711914</ele>
        <time>2016-05-14T10:08:59.000Z</time>
      </trkpt>
      <trkpt lat="43.62582" lon="7.07316">
        <ele>64.746932983398</ele>
        <time>2016-05-14T10:09:01.000Z</time>
      </trkpt>
      <trkpt lat="43.62584" lon="7.07312">
        <ele>64.714134216309</ele>
        <time>2016-05-14T10:09:03.000Z</time>
      </trkpt>
      <trkpt lat="43.62584" lon="7.07306">
        <ele>64.836723327637</ele>
        <time>2016-05-14T10:09:06.000Z</time>
      </trkpt>
      <trkpt lat="43.62585" lon="7.07303">
        <ele>65.101661682129</ele>
        <time>2016-05-14T10:09:08.000Z</time>
      </trkpt>
      <trkpt lat="43.62587" lon="7.073">
        <ele>65.487464904785</ele>
        <time>2016-05-14T10:09:10.000Z</time>
      </trkpt>
      <trkpt lat="43.62589" lon="7.07297">
        <ele>65.990325927734</ele>
        <time>2016-05-14T10:09:12.000Z</time>
      </trkpt>
      <trkpt lat="43.62591" lon="7.07294">
        <ele>66.610244750977</ele>
        <time>2016-05-14T10:09:15.000Z</time>
      </trkpt>
      <trkpt lat="43.62592" lon="7.07291">
        <ele>67.201232910156</ele>
        <time>2016-05-14T10:09:17.000Z</time>
      </trkpt>
      <trkpt lat="43.62594" lon="7.07288">
        <ele>67.772811889648</ele>
        <time>2016-05-14T10:09:20.000Z</time>
      </trkpt>
      <trkpt lat="43.62596" lon="7.07288">
        <ele>68.303665161133</ele>
        <time>2016-05-14T10:09:22.000Z</time>
      </trkpt>
      <trkpt lat="43.626" lon="7.07286">
        <ele>68.875877380371</ele>
        <time>2016-05-14T10:09:25.000Z</time>
      </trkpt>
      <trkpt lat="43.62601" lon="7.07284">
        <ele>69.36075592041</ele>
        <time>2016-05-14T10:09:27.000Z</time>
      </trkpt>
      <trkpt lat="43.62603" lon="7.07283">
        <ele>69.859954833984</ele>
        <time>2016-05-14T10:09:30.000Z</time>
      </trkpt>
      <trkpt lat="43.62604" lon="7.07281">
        <ele>70.276817321777</ele>
        <time>2016-05-14T10:09:32.000Z</time>
      </trkpt>
      <trkpt lat="43.62606" lon="7.07278">
        <ele>70.742813110352</ele>
        <time>2016-05-14T10:09:35.000Z</time>
      </trkpt>
      <trkpt lat="43.62609" lon="7.07275">
        <ele>71.120010375977</ele>
        <time>2016-05-14T10:09:38.000Z</time>
      </trkpt>
      <trkpt lat="43.62609" lon="7.07272">
        <ele>71.498962402344</ele>
        <time>2016-05-14T10:09:40.000Z</time>
      </trkpt>
      <trkpt lat="43.62612" lon="7.07267">
        <ele>71.904258728027</ele>
        <time>2016-05-14T10:09:43.000Z</time>
      </trkpt>
      <trkpt lat="43.62616" lon="7.07263">
        <ele>72.376861572266</ele>
        <time>2016-05-14T10:09:46.000Z</time>
      </trkpt>
      <trkpt lat="43.62619" lon="7.07258">
        <ele>72.816383361816</ele>
        <time>2016-05-14T10:09:49.000Z</time>
      </trkpt>
      <trkpt lat="43.62622" lon="7.07254">
        <ele>73.253929138184</ele>
        <time>2016-05-14T10:09:52.000Z</time>
      </trkpt>
      <trkpt lat="43.62624" lon="7.07252">
        <ele>73.702735900879</ele>
        <time>2016-05-14T10:09:55.000Z</time>
      </trkpt>
      <trkpt lat="43.62626" lon="7.07252">
        <ele>74.079040527344</ele>
        <time>2016-05-14T10:09:59.000Z</time>
      </trkpt>
      <trkpt lat="43.62626" lon="7.07252">
        <ele>74.079040527344</ele>
        <time>2016-05-14T10:10:19.000Z</time>
      </trkpt>
      <trkpt lat="43.62626" lon="7.07245">
        <ele>74.331436157227</ele>
        <time>2016-05-14T10:11:11.000Z</time>
      </trkpt>
      <trkpt lat="43.62627" lon="7.07242">
        <ele>74.516624450684</ele>
        <time>2016-05-14T10:11:23.000Z</time>
      </trkpt>
      <trkpt lat="43.62627" lon="7.07242">
        <ele>74.516624450684</ele>
        <time>2016-05-14T10:11:43.000Z</time>
      </trkpt>
      <trkpt lat="43.62628" lon="7.07244">
        <ele>74.64289855957</ele>
        <time>2016-05-14T10:12:05.000Z</time>
      </trkpt>
      <trkpt lat="43.62629" lon="7.07242">
        <ele>74.747009277344</ele>
        <time>2016-05-14T10:12:07.000Z</time>
      </trkpt>
      <trkpt lat="43.6263" lon="7.07239">
        <ele>74.83772277832</ele>
        <time>2016-05-14T10:12:10.000Z</time>
      </trkpt>
      <trkpt lat="43.62632" lon="7.07234">
        <ele>74.95524597168</ele>
        <time>2016-05-14T10:12:12.000Z</time>
      </trkpt>
      <trkpt lat="43.62632" lon="7.07231">
        <ele>75.058921813965</ele>
        <time>2016-05-14T10:12:14.000Z</time>
      </trkpt>
      <trkpt lat="43.62635" lon="7.07223">
        <ele>75.176010131836</ele>
        <time>2016-05-14T10:12:17.000Z</time>
      </trkpt>
      <trkpt lat="43.62637" lon="7.07219">
        <ele>75.287170410156</ele>
        <time>2016-05-14T10:12:19.000Z</time>
      </trkpt>
      <trkpt lat="43.6264" lon="7.07215">
        <ele>75.39444732666</ele>
        <time>2016-05-14T10:12:21.000Z</time>
      </trkpt>
      <trkpt lat="43.62644" lon="7.0721">
        <ele>75.519546508789</ele>
        <time>2016-05-14T10:12:24.000Z</time>
      </trkpt>
      <trkpt lat="43.62645" lon="7.07209">
        <ele>75.645973205566</ele>
        <time>2016-05-14T10:12:26.000Z</time>
      </trkpt>
      <trkpt lat="43.62646" lon="7.07204">
        <ele>75.721084594727</ele>
        <time>2016-05-14T10:12:29.000Z</time>
      </trkpt>
      <trkpt lat="43.62646" lon="7.07202">
        <ele>75.766014099121</ele>
        <time>2016-05-14T10:12:31.000Z</time>
      </trkpt>
      <trkpt lat="43.62648" lon="7.07198">
        <ele>75.793853759766</ele>
        <time>2016-05-14T10:12:34.000Z</time>
      </trkpt>
      <trkpt lat="43.6265" lon="7.07193">
        <ele>75.769866943359</ele>
        <time>2016-05-14T10:12:37.000Z</time>
      </trkpt>
      <trkpt lat="43.62651" lon="7.0719">
        <ele>75.731704711914</ele>
        <time>2016-05-14T10:12:39.000Z</time>
      </trkpt>
      <trkpt lat="43.62651" lon="7.07187">
        <ele>75.69157409668</ele>
        <time>2016-05-14T10:12:41.000Z</time>
      </trkpt>
      <trkpt lat="43.62652" lon="7.07184">
        <ele>75.640106201172</ele>
        <time>2016-05-14T10:12:44.000Z</time>
      </trkpt>
      <trkpt lat="43.62652" lon="7.0718">
        <ele>75.566116333008</ele>
        <time>2016-05-14T10:12:47.000Z</time>
      </trkpt>
      <trkpt lat="43.62652" lon="7.07177">
        <ele>75.484535217285</ele>
        <time>2016-05-14T10:12:50.000Z</time>
      </trkpt>
      <trkpt lat="43.62653" lon="7.07174">
        <ele>75.398483276367</ele>
        <time>2016-05-14T10:12:52.000Z</time>
      </trkpt>
      <trkpt lat="43.62653" lon="7.07172">
        <ele>75.313743591309</ele>
        <time>2016-05-14T10:12:54.000Z</time>
      </trkpt>
      <trkpt lat="43.62652" lon="7.07168">
        <ele>75.219551086426</ele>
        <time>2016-05-14T10:12:57.000Z</time>
      </trkpt>
      <trkpt lat="43.62652" lon="7.07162">
        <ele>75.161254882812</ele>
        <time>2016-05-14T10:13:00.000Z</time>
      </trkpt>
      <trkpt lat="43.62652" lon="7.07156">
        <ele>75.15022277832</ele>
        <time>2016-05-14T10:13:03.000Z</time>
      </trkpt>
      <trkpt lat="43.62652" lon="7.07152">
        <ele>75.167289733887</ele>
        <time>2016-05-14T10:13:05.000Z</time>
      </trkpt>
      <trkpt lat="43.62651" lon="7.07148">
        <ele>75.217796325684</ele>
        <time>2016-05-14T10:13:08.000Z</time>
      </trkpt>
      <trkpt lat="43.6265" lon="7.07145">
        <ele>75.306602478027</ele>
        <time>2016-05-14T10:13:11.000Z</time>
      </trkpt>
      <trkpt lat="43.62648" lon="7.07141">
        <ele>75.393600463867</ele>
        <time>2016-05-14T10:13:14.000Z</time>
      </trkpt>
      <trkpt lat="43.62647" lon="7.07139">
        <ele>75.464698791504</ele>
        <time>2016-05-14T10:13:16.000Z</time>
      </trkpt>
      <trkpt lat="43.62646" lon="7.07135">
        <ele>75.53678894043</ele>
        <time>2016-05-14T10:13:19.000Z</time>
      </trkpt>
      <trkpt lat="43.62645" lon="7.07133">
        <ele>75.599075317383</ele>
        <time>2016-05-14T10:13:21.000Z</time>
      </trkpt>
      <trkpt lat="43.62645" lon="7.0713">
        <ele>75.65837097168</ele>
        <time>2016-05-14T10:13:23.000Z</time>
      </trkpt>
      <trkpt lat="43.62645" lon="7.07127">
        <ele>75.717613220215</ele>
        <time>2016-05-14T10:13:26.000Z</time>
      </trkpt>
      <trkpt lat="43.62645" lon="7.07123">
        <ele>75.780387878418</ele>
        <time>2016-05-14T10:13:28.000Z</time>
      </trkpt>
      <trkpt lat="43.62644" lon="7.07121">
        <ele>75.835060119629</ele>
        <time>2016-05-14T10:13:30.000Z</time>
      </trkpt>
      <trkpt lat="43.62643" lon="7.07118">
        <ele>75.890968322754</ele>
        <time>2016-05-14T10:13:32.000Z</time>
      </trkpt>
      <trkpt lat="43.62642" lon="7.07117">
        <ele>75.938537597656</ele>
        <time>2016-05-14T10:13:34.000Z</time>
      </trkpt>
      <trkpt lat="43.62641" lon="7.07114">
        <ele>75.985397338867</ele>
        <time>2016-05-14T10:13:37.000Z</time>
      </trkpt>
      <trkpt lat="43.62639" lon="7.07109">
        <ele>76.037063598633</ele>
        <time>2016-05-14T10:13:40.000Z</time>
      </trkpt>
      <trkpt lat="43.62635" lon="7.07105">
        <ele>76.087608337402</ele>
        <time>2016-05-14T10:13:42.000Z</time>
      </trkpt>
      <trkpt lat="43.62631" lon="7.071">
        <ele>76.140151977539</ele>
        <time>2016-05-14T10:13:45.000Z</time>
      </trkpt>
      <trkpt lat="43.6263" lon="7.07096">
        <ele>76.203903198242</ele>
        <time>2016-05-14T10:13:47.000Z</time>
      </trkpt>
      <trkpt lat="43.6263" lon="7.07094">
        <ele>76.262001037598</ele>
        <time>2016-05-14T10:13:49.000Z</time>
      </trkpt>
      <trkpt lat="43.62629" lon="7.07089">
        <ele>76.317893981934</ele>
        <time>2016-05-14T10:13:53.000Z</time>
      </trkpt>
      <trkpt lat="43.62627" lon="7.07086">
        <ele>76.373519897461</ele>
        <time>2016-05-14T10:13:56.000Z</time>
      </trkpt>
      <trkpt lat="43.62624" lon="7.07083">
        <ele>76.422149658203</ele>
        <time>2016-05-14T10:13:59.000Z</time>
      </trkpt>
      <trkpt lat="43.62623" lon="7.07082">
        <ele>76.45450592041</ele>
        <time>2016-05-14T10:14:02.000Z</time>
      </trkpt>
      <trkpt lat="43.62621" lon="7.07081">
        <ele>76.47176361084</ele>
        <time>2016-05-14T10:14:04.000Z</time>
      </trkpt>
      <trkpt lat="43.62621" lon="7.07079">
        <ele>76.473518371582</ele>
        <time>2016-05-14T10:14:06.000Z</time>
      </trkpt>
      <trkpt lat="43.62621" lon="7.07076">
        <ele>76.473640441895</ele>
        <time>2016-05-14T10:14:09.000Z</time>
      </trkpt>
      <trkpt lat="43.62621" lon="7.07073">
        <ele>76.468673706055</ele>
        <time>2016-05-14T10:14:11.000Z</time>
      </trkpt>
      <trkpt lat="43.62621" lon="7.07071">
        <ele>76.463790893555</ele>
        <time>2016-05-14T10:14:14.000Z</time>
      </trkpt>
      <trkpt lat="43.62618" lon="7.07065">
        <ele>76.446853637695</ele>
        <time>2016-05-14T10:14:22.000Z</time>
      </trkpt>
      <trkpt lat="43.62617" lon="7.07061">
        <ele>76.416580200195</ele>
        <time>2016-05-14T10:14:27.000Z</time>
      </trkpt>
      <trkpt lat="43.62614" lon="7.07058">
        <ele>76.331924438477</ele>
        <time>2016-05-14T10:14:29.000Z</time>
      </trkpt>
      <trkpt lat="43.62611" lon="7.07055">
        <ele>76.197914123535</ele>
        <time>2016-05-14T10:14:31.000Z</time>
      </trkpt>
      <trkpt lat="43.62605" lon="7.07052">
        <ele>75.947105407715</ele>
        <time>2016-05-14T10:14:34.000Z</time>
      </trkpt>
      <trkpt lat="43.62604" lon="7.07048">
        <ele>75.65958404541</ele>
        <time>2016-05-14T10:14:36.000Z</time>
      </trkpt>
      <trkpt lat="43.62605" lon="7.07041">
        <ele>75.350570678711</ele>
        <time>2016-05-14T10:14:39.000Z</time>
      </trkpt>
      <trkpt lat="43.62604" lon="7.07036">
        <ele>75.04857635498</ele>
        <time>2016-05-14T10:14:41.000Z</time>
      </trkpt>
      <trkpt lat="43.62602" lon="7.07034">
        <ele>74.717636108398</ele>
        <time>2016-05-14T10:14:43.000Z</time>
      </trkpt>
      <trkpt lat="43.626" lon="7.0703">
        <ele>74.418884277344</ele>
        <time>2016-05-14T10:14:46.000Z</time>
      </trkpt>
      <trkpt lat="43.62598" lon="7.07027">
        <ele>74.094215393066</ele>
        <time>2016-05-14T10:14:48.000Z</time>
      </trkpt>
      <trkpt lat="43.62595" lon="7.07024">
        <ele>73.678268432617</ele>
        <time>2016-05-14T10:14:51.000Z</time>
      </trkpt>
      <trkpt lat="43.62592" lon="7.07021">
        <ele>73.207626342773</ele>
        <time>2016-05-14T10:14:53.000Z</time>
      </trkpt>
      <trkpt lat="43.6259" lon="7.07017">
        <ele>72.676429748535</ele>
        <time>2016-05-14T10:14:56.000Z</time>
      </trkpt>
      <trkpt lat="43.62589" lon="7.07013">
        <ele>72.154083251953</ele>
        <time>2016-05-14T10:14:58.000Z</time>
      </trkpt>
      <trkpt lat="43.62589" lon="7.07007">
        <ele>71.628761291504</ele>
        <time>2016-05-14T10:15:01.000Z</time>
      </trkpt>
      <trkpt lat="43.6259" lon="7.07">
        <ele>71.167121887207</ele>
        <time>2016-05-14T10:15:04.000Z</time>
      </trkpt>
      <trkpt lat="43.62589" lon="7.06996">
        <ele>70.759231567383</ele>
        <time>2016-05-14T10:15:07.000Z</time>
      </trkpt>
      <trkpt lat="43.62588" lon="7.06992">
        <ele>70.469017028809</ele>
        <time>2016-05-14T10:15:10.000Z</time>
      </trkpt>
      <trkpt lat="43.62587" lon="7.06989">
        <ele>70.247344970703</ele>
        <time>2016-05-14T10:15:13.000Z</time>
      </trkpt>
      <trkpt lat="43.62589" lon="7.06988">
        <ele>70.166854858398</ele>
        <time>2016-05-14T10:15:15.000Z</time>
      </trkpt>
      <trkpt lat="43.62587" lon="7.06985">
        <ele>70.103958129883</ele>
        <time>2016-05-14T10:15:18.000Z</time>
      </trkpt>
      <trkpt lat="43.62584" lon="7.06982">
        <ele>69.954162597656</ele>
        <time>2016-05-14T10:15:21.000Z</time>
      </trkpt>
      <trkpt lat="43.62583" lon="7.0698">
        <ele>69.820777893066</ele>
        <time>2016-05-14T10:15:23.000Z</time>
      </trkpt>
      <trkpt lat="43.62583" lon="7.06978">
        <ele>69.737167358398</ele>
        <time>2016-05-14T10:15:25.000Z</time>
      </trkpt>
      <trkpt lat="43.62584" lon="7.06977">
        <ele>69.54174041748</ele>
        <time>2016-05-14T10:15:28.000Z</time>
      </trkpt>
      <trkpt lat="43.62585" lon="7.06975">
        <ele>69.447540283203</ele>
        <time>2016-05-14T10:15:30.000Z</time>
      </trkpt>
      <trkpt lat="43.62585" lon="7.06972">
        <ele>69.489700317383</ele>
        <time>2016-05-14T10:15:33.000Z</time>
      </trkpt>
      <trkpt lat="43.62586" lon="7.06971">
        <ele>69.59349822998</ele>
        <time>2016-05-14T10:15:37.000Z</time>
      </trkpt>
      <trkpt lat="43.62585" lon="7.06968">
        <ele>69.62873840332</ele>
        <time>2016-05-14T10:15:40.000Z</time>
      </trkpt>
      <trkpt lat="43.62584" lon="7.06963">
        <ele>69.662895202637</ele>
        <time>2016-05-14T10:15:45.000Z</time>
      </trkpt>
      <trkpt lat="43.62582" lon="7.06959">
        <ele>69.74006652832</ele>
        <time>2016-05-14T10:15:48.000Z</time>
      </trkpt>
      <trkpt lat="43.62582" lon="7.06958">
        <ele>69.812866210938</ele>
        <time>2016-05-14T10:15:51.000Z</time>
      </trkpt>
      <trkpt lat="43.6258" lon="7.06949">
        <ele>70.01375579834</ele>
        <time>2016-05-14T10:15:54.000Z</time>
      </trkpt>
      <trkpt lat="43.62579" lon="7.06945">
        <ele>70.313705444336</ele>
        <time>2016-05-14T10:15:56.000Z</time>
      </trkpt>
      <trkpt lat="43.62579" lon="7.06942">
        <ele>70.708290100098</ele>
        <time>2016-05-14T10:15:58.000Z</time>
      </trkpt>
      <trkpt lat="43.62577" lon="7.06937">
        <ele>71.138603210449</ele>
        <time>2016-05-14T10:16:02.000Z</time>
      </trkpt>
      <trkpt lat="43.62576" lon="7.06934">
        <ele>71.696884155273</ele>
        <time>2016-05-14T10:16:04.000Z</time>
      </trkpt>
      <trkpt lat="43.62574" lon="7.06932">
        <ele>72.167251586914</ele>
        <time>2016-05-14T10:16:06.000Z</time>
      </trkpt>
      <trkpt lat="43.62571" lon="7.06928">
        <ele>72.819160461426</ele>
        <time>2016-05-14T10:16:10.000Z</time>
      </trkpt>
      <trkpt lat="43.6257" lon="7.06925">
        <ele>73.526588439941</ele>
        <time>2016-05-14T10:16:12.000Z</time>
      </trkpt>
      <trkpt lat="43.62569" lon="7.06923">
        <ele>74.159141540527</ele>
        <time>2016-05-14T10:16:15.000Z</time>
      </trkpt>
      <trkpt lat="43.62568" lon="7.06917">
        <ele>74.779861450195</ele>
        <time>2016-05-14T10:16:20.000Z</time>
      </trkpt>
      <trkpt lat="43.62566" lon="7.06913">
        <ele>75.435035705566</ele>
        <time>2016-05-14T10:16:23.000Z</time>
      </trkpt>
      <trkpt lat="43.62564" lon="7.06908">
        <ele>75.903869628906</ele>
        <time>2016-05-14T10:16:26.000Z</time>
      </trkpt>
      <trkpt lat="43.62563" lon="7.06902">
        <ele>76.368530273438</ele>
        <time>2016-05-14T10:16:29.000Z</time>
      </trkpt>
      <trkpt lat="43.62562" lon="7.069">
        <ele>76.819175720215</ele>
        <time>2016-05-14T10:16:31.000Z</time>
      </trkpt>
      <trkpt lat="43.62561" lon="7.06896">
        <ele>77.184921264648</ele>
        <time>2016-05-14T10:16:34.000Z</time>
      </trkpt>
      <trkpt lat="43.62561" lon="7.06893">
        <ele>77.407104492188</ele>
        <time>2016-05-14T10:16:37.000Z</time>
      </trkpt>
      <trkpt lat="43.62559" lon="7.06886">
        <ele>77.695419311523</ele>
        <time>2016-05-14T10:16:50.000Z</time>
      </trkpt>
      <trkpt lat="43.62558" lon="7.06884">
        <ele>77.936912536621</ele>
        <time>2016-05-14T10:16:52.000Z</time>
      </trkpt>
      <trkpt lat="43.62557" lon="7.06878">
        <ele>78.149803161621</ele>
        <time>2016-05-14T10:16:55.000Z</time>
      </trkpt>
      <trkpt lat="43.62555" lon="7.0687">
        <ele>78.394111633301</ele>
        <time>2016-05-14T10:16:58.000Z</time>
      </trkpt>
      <trkpt lat="43.62552" lon="7.06864">
        <ele>78.828506469727</ele>
        <time>2016-05-14T10:17:01.000Z</time>
      </trkpt>
      <trkpt lat="43.6255" lon="7.0686">
        <ele>79.210105895996</ele>
        <time>2016-05-14T10:17:04.000Z</time>
      </trkpt>
      <trkpt lat="43.62549" lon="7.06858">
        <ele>79.646423339844</ele>
        <time>2016-05-14T10:17:06.000Z</time>
      </trkpt>
      <trkpt lat="43.62547" lon="7.06856">
        <ele>80.204444885254</ele>
        <time>2016-05-14T10:17:09.000Z</time>
      </trkpt>
      <trkpt lat="43.62547" lon="7.06851">
        <ele>80.662353515625</ele>
        <time>2016-05-14T10:17:12.000Z</time>
      </trkpt>
      <trkpt lat="43.62547" lon="7.06848">
        <ele>80.919334411621</ele>
        <time>2016-05-14T10:17:14.000Z</time>
      </trkpt>
      <trkpt lat="43.62545" lon="7.06843">
        <ele>81.112380981445</ele>
        <time>2016-05-14T10:17:17.000Z</time>
      </trkpt>
      <trkpt lat="43.62542" lon="7.06841">
        <ele>81.420104980469</ele>
        <time>2016-05-14T10:17:20.000Z</time>
      </trkpt>
      <trkpt lat="43.6254" lon="7.06839">
        <ele>81.674949645996</ele>
        <time>2016-05-14T10:17:22.000Z</time>
      </trkpt>
      <trkpt lat="43.62539" lon="7.06838">
        <ele>82.007736206055</ele>
        <time>2016-05-14T10:17:24.000Z</time>
      </trkpt>
      <trkpt lat="43.62535" lon="7.06835">
        <ele>82.649757385254</ele>
        <time>2016-05-14T10:17:31.000Z</time>
      </trkpt>
      <trkpt lat="43.62535" lon="7.06832">
        <ele>83.26634979248</ele>
        <time>2016-05-14T10:17:33.000Z</time>
      </trkpt>
      <trkpt lat="43.62534" lon="7.06829">
        <ele>83.714286804199</ele>
        <time>2016-05-14T10:17:35.000Z</time>
      </trkpt>
      <trkpt lat="43.62534" lon="7.06827">
        <ele>84.114845275879</ele>
        <time>2016-05-14T10:17:38.000Z</time>
      </trkpt>
      <trkpt lat="43.62532" lon="7.06825">
        <ele>84.615852355957</ele>
        <time>2016-05-14T10:17:41.000Z</time>
      </trkpt>
      <trkpt lat="43.62532" lon="7.06821">
        <ele>84.806655883789</ele>
        <time>2016-05-14T10:17:44.000Z</time>
      </trkpt>
      <trkpt lat="43.62534" lon="7.06819">
        <ele>84.971626281738</ele>
        <time>2016-05-14T10:17:46.000Z</time>
      </trkpt>
      <trkpt lat="43.62535" lon="7.06815">
        <ele>85.016006469727</ele>
        <time>2016-05-14T10:17:48.000Z</time>
      </trkpt>
      <trkpt lat="43.62537" lon="7.06813">
        <ele>84.94083404541</ele>
        <time>2016-05-14T10:17:50.000Z</time>
      </trkpt>
      <trkpt lat="43.62538" lon="7.06809">
        <ele>84.672698974609</ele>
        <time>2016-05-14T10:17:52.000Z</time>
      </trkpt>
      <trkpt lat="43.62539" lon="7.06806">
        <ele>84.373680114746</ele>
        <time>2016-05-14T10:17:54.000Z</time>
      </trkpt>
      <trkpt lat="43.62541" lon="7.06806">
        <ele>84.012916564941</ele>
        <time>2016-05-14T10:17:57.000Z</time>
      </trkpt>
      <trkpt lat="43.62543" lon="7.06806">
        <ele>83.581642150879</ele>
        <time>2016-05-14T10:17:59.000Z</time>
      </trkpt>
      <trkpt lat="43.62545" lon="7.06805">
        <ele>83.089248657227</ele>
        <time>2016-05-14T10:18:01.000Z</time>
      </trkpt>
      <trkpt lat="43.62548" lon="7.06802">
        <ele>82.546516418457</ele>
        <time>2016-05-14T10:18:04.000Z</time>
      </trkpt>
      <trkpt lat="43.6255" lon="7.06801">
        <ele>81.921432495117</ele>
        <time>2016-05-14T10:18:07.000Z</time>
      </trkpt>
      <trkpt lat="43.62553" lon="7.06799">
        <ele>81.234703063965</ele>
        <time>2016-05-14T10:18:10.000Z</time>
      </trkpt>
      <trkpt lat="43.62555" lon="7.06799">
        <ele>80.572769165039</ele>
        <time>2016-05-14T10:18:12.000Z</time>
      </trkpt>
      <trkpt lat="43.62557" lon="7.06799">
        <ele>79.933372497559</ele>
        <time>2016-05-14T10:18:15.000Z</time>
      </trkpt>
      <trkpt lat="43.62558" lon="7.06796">
        <ele>79.337120056152</ele>
        <time>2016-05-14T10:18:18.000Z</time>
      </trkpt>
      <trkpt lat="43.6256" lon="7.06795">
        <ele>78.820068359375</ele>
        <time>2016-05-14T10:18:20.000Z</time>
      </trkpt>
      <trkpt lat="43.62562" lon="7.06791">
        <ele>78.34595489502</ele>
        <time>2016-05-14T10:18:23.000Z</time>
      </trkpt>
      <trkpt lat="43.62564" lon="7.0679">
        <ele>77.88436126709</ele>
        <time>2016-05-14T10:18:26.000Z</time>
      </trkpt>
      <trkpt lat="43.62567" lon="7.06788">
        <ele>77.38468170166</ele>
        <time>2016-05-14T10:18:29.000Z</time>
      </trkpt>
      <trkpt lat="43.62568" lon="7.06787">
        <ele>76.89924621582</ele>
        <time>2016-05-14T10:18:31.000Z</time>
      </trkpt>
      <trkpt lat="43.62569" lon="7.06786">
        <ele>76.414970397949</ele>
        <time>2016-05-14T10:18:33.000Z</time>
      </trkpt>
      <trkpt lat="43.6257" lon="7.06783">
        <ele>75.994369506836</ele>
        <time>2016-05-14T10:18:35.000Z</time>
      </trkpt>
      <trkpt lat="43.62572" lon="7.06782">
        <ele>75.577987670898</ele>
        <time>2016-05-14T10:18:38.000Z</time>
      </trkpt>
      <trkpt lat="43.62574" lon="7.06781">
        <ele>75.232421875</ele>
        <time>2016-05-14T10:18:41.000Z</time>
      </trkpt>
      <trkpt lat="43.62575" lon="7.06779">
        <ele>74.846656799316</ele>
        <time>2016-05-14T10:18:43.000Z</time>
      </trkpt>
      <trkpt lat="43.62579" lon="7.06778">
        <ele>74.339950561523</ele>
        <time>2016-05-14T10:18:46.000Z</time>
      </trkpt>
      <trkpt lat="43.62582" lon="7.06778">
        <ele>73.693199157715</ele>
        <time>2016-05-14T10:18:49.000Z</time>
      </trkpt>
      <trkpt lat="43.62583" lon="7.06775">
        <ele>73.131034851074</ele>
        <time>2016-05-14T10:18:51.000Z</time>
      </trkpt>
      <trkpt lat="43.62584" lon="7.06769">
        <ele>72.66584777832</ele>
        <time>2016-05-14T10:18:54.000Z</time>
      </trkpt>
      <trkpt lat="43.62586" lon="7.06767">
        <ele>72.299270629883</ele>
        <time>2016-05-14T10:18:56.000Z</time>
      </trkpt>
      <trkpt lat="43.62587" lon="7.06766">
        <ele>72.117111206055</ele>
        <time>2016-05-14T10:18:58.000Z</time>
      </trkpt>
      <trkpt lat="43.62588" lon="7.06766">
        <ele>72.129234313965</ele>
        <time>2016-05-14T10:19:00.000Z</time>
      </trkpt>
      <trkpt lat="43.62589" lon="7.06766">
        <ele>72.163421630859</ele>
        <time>2016-05-14T10:19:02.000Z</time>
      </trkpt>
      <trkpt lat="43.62592" lon="7.06765">
        <ele>72.188842773438</ele>
        <time>2016-05-14T10:19:05.000Z</time>
      </trkpt>
      <trkpt lat="43.62594" lon="7.06762">
        <ele>72.205215454102</ele>
        <time>2016-05-14T10:19:07.000Z</time>
      </trkpt>
      <trkpt lat="43.62596" lon="7.06761">
        <ele>72.214920043945</ele>
        <time>2016-05-14T10:19:09.000Z</time>
      </trkpt>
      <trkpt lat="43.626" lon="7.0676">
        <ele>72.207443237305</ele>
        <time>2016-05-14T10:19:12.000Z</time>
      </trkpt>
      <trkpt lat="43.62601" lon="7.0676">
        <ele>72.193092346191</ele>
        <time>2016-05-14T10:19:14.000Z</time>
      </trkpt>
      <trkpt lat="43.62603" lon="7.06761">
        <ele>72.16951751709</ele>
        <time>2016-05-14T10:19:17.000Z</time>
      </trkpt>
      <trkpt lat="43.62605" lon="7.06759">
        <ele>72.126098632812</ele>
        <time>2016-05-14T10:19:20.000Z</time>
      </trkpt>
      <trkpt lat="43.62607" lon="7.06759">
        <ele>72.074851989746</ele>
        <time>2016-05-14T10:19:22.000Z</time>
      </trkpt>
      <trkpt lat="43.62609" lon="7.06758">
        <ele>72.022560119629</ele>
        <time>2016-05-14T10:19:25.000Z</time>
      </trkpt>
      <trkpt lat="43.6261" lon="7.06757">
        <ele>71.969795227051</ele>
        <time>2016-05-14T10:19:27.000Z</time>
      </trkpt>
      <trkpt lat="43.62614" lon="7.06756">
        <ele>71.898254394531</ele>
        <time>2016-05-14T10:19:30.000Z</time>
      </trkpt>
      <trkpt lat="43.62617" lon="7.06756">
        <ele>71.81273651123</ele>
        <time>2016-05-14T10:19:33.000Z</time>
      </trkpt>
      <trkpt lat="43.62619" lon="7.06751">
        <ele>71.683967590332</ele>
        <time>2016-05-14T10:19:36.000Z</time>
      </trkpt>
      <trkpt lat="43.6262" lon="7.06747">
        <ele>71.594802856445</ele>
        <time>2016-05-14T10:19:38.000Z</time>
      </trkpt>
      <trkpt lat="43.62621" lon="7.06741">
        <ele>71.557312011719</ele>
        <time>2016-05-14T10:19:41.000Z</time>
      </trkpt>
      <trkpt lat="43.62622" lon="7.0674">
        <ele>71.554870605469</ele>
        <time>2016-05-14T10:19:44.000Z</time>
      </trkpt>
      <trkpt lat="43.62626" lon="7.06732">
        <ele>71.596054077148</ele>
        <time>2016-05-14T10:19:47.000Z</time>
      </trkpt>
      <trkpt lat="43.62628" lon="7.06728">
        <ele>71.688827514648</ele>
        <time>2016-05-14T10:19:49.000Z</time>
      </trkpt>
      <trkpt lat="43.6263" lon="7.06726">
        <ele>71.731430053711</ele>
        <time>2016-05-14T10:19:52.000Z</time>
      </trkpt>
      <trkpt lat="43.62632" lon="7.06724">
        <ele>71.718734741211</ele>
        <time>2016-05-14T10:19:54.000Z</time>
      </trkpt>
      <trkpt lat="43.62634" lon="7.06722">
        <ele>71.675674438477</ele>
        <time>2016-05-14T10:19:57.000Z</time>
      </trkpt>
      <trkpt lat="43.62636" lon="7.06717">
        <ele>71.601013183594</ele>
        <time>2016-05-14T10:20:00.000Z</time>
      </trkpt>
      <trkpt lat="43.62637" lon="7.06715">
        <ele>71.521408081055</ele>
        <time>2016-05-14T10:20:02.000Z</time>
      </trkpt>
      <trkpt lat="43.62638" lon="7.06711">
        <ele>71.475761413574</ele>
        <time>2016-05-14T10:20:05.000Z</time>
      </trkpt>
      <trkpt lat="43.62638" lon="7.06709">
        <ele>71.439834594727</ele>
        <time>2016-05-14T10:20:08.000Z</time>
      </trkpt>
      <trkpt lat="43.62639" lon="7.06705">
        <ele>71.424072265625</ele>
        <time>2016-05-14T10:20:11.000Z</time>
      </trkpt>
      <trkpt lat="43.62639" lon="7.06701">
        <ele>71.430992126465</ele>
        <time>2016-05-14T10:20:15.000Z</time>
      </trkpt>
      <trkpt lat="43.62639" lon="7.06699">
        <ele>71.455062866211</ele>
        <time>2016-05-14T10:20:17.000Z</time>
      </trkpt>
      <trkpt lat="43.62639" lon="7.06698">
        <ele>71.478797912598</ele>
        <time>2016-05-14T10:20:19.000Z</time>
      </trkpt>
      <trkpt lat="43.62639" lon="7.06696">
        <ele>71.510856628418</ele>
        <time>2016-05-14T10:20:23.000Z</time>
      </trkpt>
      <trkpt lat="43.62639" lon="7.06693">
        <ele>71.570518493652</ele>
        <time>2016-05-14T10:20:25.000Z</time>
      </trkpt>
      <trkpt lat="43.62637" lon="7.06683">
        <ele>71.737426757812</ele>
        <time>2016-05-14T10:20:28.000Z</time>
      </trkpt>
      <trkpt lat="43.62635" lon="7.06677">
        <ele>71.982322692871</ele>
        <time>2016-05-14T10:20:30.000Z</time>
      </trkpt>
      <trkpt lat="43.62632" lon="7.0667">
        <ele>72.372314453125</ele>
        <time>2016-05-14T10:20:33.000Z</time>
      </trkpt>
      <trkpt lat="43.62632" lon="7.06667">
        <ele>72.80403137207</ele>
        <time>2016-05-14T10:20:36.000Z</time>
      </trkpt>
      <trkpt lat="43.6263" lon="7.06662">
        <ele>73.238403320312</ele>
        <time>2016-05-14T10:20:38.000Z</time>
      </trkpt>
      <trkpt lat="43.62632" lon="7.06655">
        <ele>73.519729614258</ele>
        <time>2016-05-14T10:20:41.000Z</time>
      </trkpt>
      <trkpt lat="43.62632" lon="7.06652">
        <ele>73.693359375</ele>
        <time>2016-05-14T10:20:44.000Z</time>
      </trkpt>
      <trkpt lat="43.62635" lon="7.06647">
        <ele>73.571395874023</ele>
        <time>2016-05-14T10:20:50.000Z</time>
      </trkpt>
      <trkpt lat="43.62636" lon="7.06645">
        <ele>73.383941650391</ele>
        <time>2016-05-14T10:20:52.000Z</time>
      </trkpt>
      <trkpt lat="43.62635" lon="7.0664">
        <ele>73.177940368652</ele>
        <time>2016-05-14T10:20:55.000Z</time>
      </trkpt>
      <trkpt lat="43.62635" lon="7.06636">
        <ele>73.036727905273</ele>
        <time>2016-05-14T10:20:57.000Z</time>
      </trkpt>
      <trkpt lat="43.62631" lon="7.06631">
        <ele>73.046279907227</ele>
        <time>2016-05-14T10:21:00.000Z</time>
      </trkpt>
      <trkpt lat="43.6263" lon="7.06626">
        <ele>73.239356994629</ele>
        <time>2016-05-14T10:21:05.000Z</time>
      </trkpt>
      <trkpt lat="43.6263" lon="7.06621">
        <ele>73.444885253906</ele>
        <time>2016-05-14T10:21:07.000Z</time>
      </trkpt>
      <trkpt lat="43.62629" lon="7.06615">
        <ele>73.662155151367</ele>
        <time>2016-05-14T10:21:10.000Z</time>
      </trkpt>
      <trkpt lat="43.62628" lon="7.06607">
        <ele>73.874572753906</ele>
        <time>2016-05-14T10:21:13.000Z</time>
      </trkpt>
      <trkpt lat="43.62627" lon="7.06601">
        <ele>74.00700378418</ele>
        <time>2016-05-14T10:21:16.000Z</time>
      </trkpt>
      <trkpt lat="43.62625" lon="7.06596">
        <ele>74.152648925781</ele>
        <time>2016-05-14T10:21:19.000Z</time>
      </trkpt>
      <trkpt lat="43.62623" lon="7.06593">
        <ele>74.373123168945</ele>
        <time>2016-05-14T10:21:21.000Z</time>
      </trkpt>
      <trkpt lat="43.62622" lon="7.0659">
        <ele>74.596939086914</ele>
        <time>2016-05-14T10:21:23.000Z</time>
      </trkpt>
      <trkpt lat="43.6262" lon="7.06586">
        <ele>74.866539001465</ele>
        <time>2016-05-14T10:21:26.000Z</time>
      </trkpt>
      <trkpt lat="43.62618" lon="7.06582">
        <ele>75.141906738281</ele>
        <time>2016-05-14T10:21:28.000Z</time>
      </trkpt>
      <trkpt lat="43.62616" lon="7.06578">
        <ele>75.446060180664</ele>
        <time>2016-05-14T10:21:31.000Z</time>
      </trkpt>
      <trkpt lat="43.62617" lon="7.06576">
        <ele>75.658828735352</ele>
        <time>2016-05-14T10:21:33.000Z</time>
      </trkpt>
      <trkpt lat="43.62618" lon="7.0657">
        <ele>75.837371826172</ele>
        <time>2016-05-14T10:21:36.000Z</time>
      </trkpt>
      <trkpt lat="43.62619" lon="7.06565">
        <ele>75.936157226562</ele>
        <time>2016-05-14T10:21:39.000Z</time>
      </trkpt>
      <trkpt lat="43.6262" lon="7.06563">
        <ele>75.963180541992</ele>
        <time>2016-05-14T10:21:42.000Z</time>
      </trkpt>
      <trkpt lat="43.62621" lon="7.06561">
        <ele>75.90535736084</ele>
        <time>2016-05-14T10:21:52.000Z</time>
      </trkpt>
      <trkpt lat="43.62622" lon="7.06563">
        <ele>75.820487976074</ele>
        <time>2016-05-14T10:21:55.000Z</time>
      </trkpt>
      <trkpt lat="43.62624" lon="7.06565">
        <ele>75.68571472168</ele>
        <time>2016-05-14T10:21:57.000Z</time>
      </trkpt>
      <trkpt lat="43.62626" lon="7.06565">
        <ele>75.511390686035</ele>
        <time>2016-05-14T10:22:00.000Z</time>
      </trkpt>
      <trkpt lat="43.62627" lon="7.06565">
        <ele>75.313430786133</ele>
        <time>2016-05-14T10:22:02.000Z</time>
      </trkpt>
      <trkpt lat="43.6263" lon="7.06567">
        <ele>75.042602539062</ele>
        <time>2016-05-14T10:22:12.000Z</time>
      </trkpt>
      <trkpt lat="43.62631" lon="7.06568">
        <ele>74.775810241699</ele>
        <time>2016-05-14T10:22:14.000Z</time>
      </trkpt>
      <trkpt lat="43.62634" lon="7.06568">
        <ele>74.480827331543</ele>
        <time>2016-05-14T10:22:17.000Z</time>
      </trkpt>
      <trkpt lat="43.62638" lon="7.06566">
        <ele>74.15885925293</ele>
        <time>2016-05-14T10:22:20.000Z</time>
      </trkpt>
      <trkpt lat="43.62641" lon="7.06566">
        <ele>73.799209594727</ele>
        <time>2016-05-14T10:22:22.000Z</time>
      </trkpt>
      <trkpt lat="43.62643" lon="7.06566">
        <ele>73.459869384766</ele>
        <time>2016-05-14T10:22:24.000Z</time>
      </trkpt>
      <trkpt lat="43.62645" lon="7.06566">
        <ele>73.121025085449</ele>
        <time>2016-05-14T10:22:26.000Z</time>
      </trkpt>
      <trkpt lat="43.62648" lon="7.06568">
        <ele>72.727592468262</ele>
        <time>2016-05-14T10:22:29.000Z</time>
      </trkpt>
      <trkpt lat="43.62651" lon="7.0657">
        <ele>72.325050354004</ele>
        <time>2016-05-14T10:22:32.000Z</time>
      </trkpt>
      <trkpt lat="43.62653" lon="7.0657">
        <ele>71.928176879883</ele>
        <time>2016-05-14T10:22:34.000Z</time>
      </trkpt>
      <trkpt lat="43.62657" lon="7.0657">
        <ele>71.470504760742</ele>
        <time>2016-05-14T10:22:37.000Z</time>
      </trkpt>
      <trkpt lat="43.62659" lon="7.06571">
        <ele>70.976249694824</ele>
        <time>2016-05-14T10:22:39.000Z</time>
      </trkpt>
      <trkpt lat="43.62661" lon="7.06571">
        <ele>70.553077697754</ele>
        <time>2016-05-14T10:22:41.000Z</time>
      </trkpt>
      <trkpt lat="43.62664" lon="7.06571">
        <ele>70.11149597168</ele>
        <time>2016-05-14T10:22:44.000Z</time>
      </trkpt>
      <trkpt lat="43.62667" lon="7.06571">
        <ele>69.699310302734</ele>
        <time>2016-05-14T10:22:47.000Z</time>
      </trkpt>
      <trkpt lat="43.62668" lon="7.06571">
        <ele>69.410217285156</ele>
        <time>2016-05-14T10:22:50.000Z</time>
      </trkpt>
      <trkpt lat="43.62671" lon="7.06572">
        <ele>69.219871520996</ele>
        <time>2016-05-14T10:22:53.000Z</time>
      </trkpt>
      <trkpt lat="43.62673" lon="7.06571">
        <ele>69.151473999023</ele>
        <time>2016-05-14T10:22:56.000Z</time>
      </trkpt>
      <trkpt lat="43.62675" lon="7.06571">
        <ele>69.191841125488</ele>
        <time>2016-05-14T10:22:58.000Z</time>
      </trkpt>
      <trkpt lat="43.62678" lon="7.06572">
        <ele>69.289260864258</ele>
        <time>2016-05-14T10:23:01.000Z</time>
      </trkpt>
      <trkpt lat="43.6268" lon="7.06573">
        <ele>69.399063110352</ele>
        <time>2016-05-14T10:23:03.000Z</time>
      </trkpt>
      <trkpt lat="43.62684" lon="7.06574">
        <ele>69.497833251953</ele>
        <time>2016-05-14T10:23:06.000Z</time>
      </trkpt>
      <trkpt lat="43.62687" lon="7.06574">
        <ele>69.583351135254</ele>
        <time>2016-05-14T10:23:08.000Z</time>
      </trkpt>
      <trkpt lat="43.62691" lon="7.06573">
        <ele>69.756072998047</ele>
        <time>2016-05-14T10:23:11.000Z</time>
      </trkpt>
      <trkpt lat="43.62695" lon="7.06575">
        <ele>69.924194335938</ele>
        <time>2016-05-14T10:23:14.000Z</time>
      </trkpt>
      <trkpt lat="43.62696" lon="7.06575">
        <ele>70.08268737793</ele>
        <time>2016-05-14T10:23:16.000Z</time>
      </trkpt>
      <trkpt lat="43.627" lon="7.06576">
        <ele>70.230117797852</ele>
        <time>2016-05-14T10:23:19.000Z</time>
      </trkpt>
      <trkpt lat="43.627" lon="7.06578">
        <ele>70.312660217285</ele>
        <time>2016-05-14T10:23:21.000Z</time>
      </trkpt>
      <trkpt lat="43.62703" lon="7.06578">
        <ele>70.341232299805</ele>
        <time>2016-05-14T10:23:23.000Z</time>
      </trkpt>
      <trkpt lat="43.62706" lon="7.06577">
        <ele>70.420463562012</ele>
        <time>2016-05-14T10:23:26.000Z</time>
      </trkpt>
      <trkpt lat="43.62708" lon="7.06576">
        <ele>70.543876647949</ele>
        <time>2016-05-14T10:23:28.000Z</time>
      </trkpt>
      <trkpt lat="43.62711" lon="7.06576">
        <ele>70.731147766113</ele>
        <time>2016-05-14T10:23:31.000Z</time>
      </trkpt>
      <trkpt lat="43.62714" lon="7.06575">
        <ele>70.996765136719</ele>
        <time>2016-05-14T10:23:34.000Z</time>
      </trkpt>
      <trkpt lat="43.62717" lon="7.06575">
        <ele>71.282180786133</ele>
        <time>2016-05-14T10:23:36.000Z</time>
      </trkpt>
      <trkpt lat="43.6272" lon="7.06573">
        <ele>71.599235534668</ele>
        <time>2016-05-14T10:23:39.000Z</time>
      </trkpt>
      <trkpt lat="43.62722" lon="7.06572">
        <ele>71.926681518555</ele>
        <time>2016-05-14T10:23:41.000Z</time>
      </trkpt>
      <trkpt lat="43.62723" lon="7.06571">
        <ele>72.213577270508</ele>
        <time>2016-05-14T10:23:44.000Z</time>
      </trkpt>
      <trkpt lat="43.62727" lon="7.06572">
        <ele>72.498062133789</ele>
        <time>2016-05-14T10:23:47.000Z</time>
      </trkpt>
      <trkpt lat="43.6273" lon="7.06574">
        <ele>72.704299926758</ele>
        <time>2016-05-14T10:23:50.000Z</time>
      </trkpt>
      <trkpt lat="43.62731" lon="7.06578">
        <ele>72.727294921875</ele>
        <time>2016-05-14T10:23:53.000Z</time>
      </trkpt>
      <trkpt lat="43.62733" lon="7.0658">
        <ele>72.666717529297</ele>
        <time>2016-05-14T10:23:55.000Z</time>
      </trkpt>
      <trkpt lat="43.62737" lon="7.06581">
        <ele>72.582580566406</ele>
        <time>2016-05-14T10:23:57.000Z</time>
      </trkpt>
      <trkpt lat="43.62739" lon="7.06583">
        <ele>72.439498901367</ele>
        <time>2016-05-14T10:23:59.000Z</time>
      </trkpt>
      <trkpt lat="43.62742" lon="7.06585">
        <ele>72.371849060059</ele>
        <time>2016-05-14T10:24:01.000Z</time>
      </trkpt>
      <trkpt lat="43.62746" lon="7.06588">
        <ele>72.490989685059</ele>
        <time>2016-05-14T10:24:04.000Z</time>
      </trkpt>
      <trkpt lat="43.62748" lon="7.0659">
        <ele>72.684616088867</ele>
        <time>2016-05-14T10:24:06.000Z</time>
      </trkpt>
      <trkpt lat="43.62751" lon="7.06593">
        <ele>72.967124938965</ele>
        <time>2016-05-14T10:24:09.000Z</time>
      </trkpt>
      <trkpt lat="43.62752" lon="7.06595">
        <ele>73.30143737793</ele>
        <time>2016-05-14T10:24:11.000Z</time>
      </trkpt>
      <trkpt lat="43.62754" lon="7.06597">
        <ele>73.612091064453</ele>
        <time>2016-05-14T10:24:13.000Z</time>
      </trkpt>
      <trkpt lat="43.62756" lon="7.06597">
        <ele>73.838844299316</ele>
        <time>2016-05-14T10:24:15.000Z</time>
      </trkpt>
      <trkpt lat="43.62757" lon="7.06598">
        <ele>74.042381286621</ele>
        <time>2016-05-14T10:24:18.000Z</time>
      </trkpt>
      <trkpt lat="43.62757" lon="7.06599">
        <ele>74.190933227539</ele>
        <time>2016-05-14T10:24:20.000Z</time>
      </trkpt>
      <trkpt lat="43.6276" lon="7.06601">
        <ele>74.337303161621</ele>
        <time>2016-05-14T10:24:23.000Z</time>
      </trkpt>
      <trkpt lat="43.62762" lon="7.066">
        <ele>74.463020324707</ele>
        <time>2016-05-14T10:24:25.000Z</time>
      </trkpt>
      <trkpt lat="43.62764" lon="7.06599">
        <ele>74.573257446289</ele>
        <time>2016-05-14T10:24:28.000Z</time>
      </trkpt>
      <trkpt lat="43.62768" lon="7.06598">
        <ele>74.664894104004</ele>
        <time>2016-05-14T10:24:31.000Z</time>
      </trkpt>
      <trkpt lat="43.6277" lon="7.06597">
        <ele>74.722427368164</ele>
        <time>2016-05-14T10:24:33.000Z</time>
      </trkpt>
      <trkpt lat="43.62773" lon="7.06595">
        <ele>74.715698242188</ele>
        <time>2016-05-14T10:24:35.000Z</time>
      </trkpt>
      <trkpt lat="43.62775" lon="7.06593">
        <ele>74.653114318848</ele>
        <time>2016-05-14T10:24:37.000Z</time>
      </trkpt>
      <trkpt lat="43.62778" lon="7.06587">
        <ele>74.473419189453</ele>
        <time>2016-05-14T10:24:40.000Z</time>
      </trkpt>
      <trkpt lat="43.62779" lon="7.06585">
        <ele>74.226806640625</ele>
        <time>2016-05-14T10:24:42.000Z</time>
      </trkpt>
      <trkpt lat="43.62781" lon="7.06585">
        <ele>73.996810913086</ele>
        <time>2016-05-14T10:24:46.000Z</time>
      </trkpt>
      <trkpt lat="43.62782" lon="7.06583">
        <ele>73.758689880371</ele>
        <time>2016-05-14T10:24:48.000Z</time>
      </trkpt>
      <trkpt lat="43.62784" lon="7.0658">
        <ele>73.607299804688</ele>
        <time>2016-05-14T10:24:51.000Z</time>
      </trkpt>
      <trkpt lat="43.62786" lon="7.06579">
        <ele>73.596626281738</ele>
        <time>2016-05-14T10:24:53.000Z</time>
      </trkpt>
      <trkpt lat="43.62789" lon="7.06578">
        <ele>73.662292480469</ele>
        <time>2016-05-14T10:24:56.000Z</time>
      </trkpt>
      <trkpt lat="43.62791" lon="7.06576">
        <ele>73.73681640625</ele>
        <time>2016-05-14T10:24:58.000Z</time>
      </trkpt>
      <trkpt lat="43.62792" lon="7.06576">
        <ele>73.839782714844</ele>
        <time>2016-05-14T10:25:01.000Z</time>
      </trkpt>
      <trkpt lat="43.62794" lon="7.06575">
        <ele>73.924728393555</ele>
        <time>2016-05-14T10:25:04.000Z</time>
      </trkpt>
      <trkpt lat="43.62794" lon="7.06571">
        <ele>74.036285400391</ele>
        <time>2016-05-14T10:25:06.000Z</time>
      </trkpt>
      <trkpt lat="43.62795" lon="7.06565">
        <ele>74.187942504883</ele>
        <time>2016-05-14T10:25:09.000Z</time>
      </trkpt>
      <trkpt lat="43.62799" lon="7.06561">
        <ele>74.347946166992</ele>
        <time>2016-05-14T10:25:19.000Z</time>
      </trkpt>
      <trkpt lat="43.62802" lon="7.06556">
        <ele>74.55387878418</ele>
        <time>2016-05-14T10:25:22.000Z</time>
      </trkpt>
      <trkpt lat="43.62804" lon="7.06553">
        <ele>74.756408691406</ele>
        <time>2016-05-14T10:25:24.000Z</time>
      </trkpt>
      <trkpt lat="43.62807" lon="7.06545">
        <ele>74.94987487793</ele>
        <time>2016-05-14T10:25:27.000Z</time>
      </trkpt>
      <trkpt lat="43.62808" lon="7.06539">
        <ele>75.112678527832</ele>
        <time>2016-05-14T10:25:30.000Z</time>
      </trkpt>
      <trkpt lat="43.6281" lon="7.06534">
        <ele>75.266258239746</ele>
        <time>2016-05-14T10:25:33.000Z</time>
      </trkpt>
      <trkpt lat="43.62813" lon="7.06529">
        <ele>75.369239807129</ele>
        <time>2016-05-14T10:25:36.000Z</time>
      </trkpt>
      <trkpt lat="43.62815" lon="7.06524">
        <ele>75.446731567383</ele>
        <time>2016-05-14T10:25:39.000Z</time>
      </trkpt>
      <trkpt lat="43.62816" lon="7.06522">
        <ele>75.48136138916</ele>
        <time>2016-05-14T10:25:41.000Z</time>
      </trkpt>
      <trkpt lat="43.62819" lon="7.06518">
        <ele>75.463890075684</ele>
        <time>2016-05-14T10:25:44.000Z</time>
      </trkpt>
      <trkpt lat="43.6282" lon="7.06515">
        <ele>75.406311035156</ele>
        <time>2016-05-14T10:25:46.000Z</time>
      </trkpt>
      <trkpt lat="43.62821" lon="7.06513">
        <ele>75.350852966309</ele>
        <time>2016-05-14T10:25:48.000Z</time>
      </trkpt>
      <trkpt lat="43.62823" lon="7.0651">
        <ele>75.280418395996</ele>
        <time>2016-05-14T10:25:50.000Z</time>
      </trkpt>
      <trkpt lat="43.62823" lon="7.06504">
        <ele>75.212478637695</ele>
        <time>2016-05-14T10:25:53.000Z</time>
      </trkpt>
      <trkpt lat="43.62824" lon="7.06502">
        <ele>75.162796020508</ele>
        <time>2016-05-14T10:25:55.000Z</time>
      </trkpt>
      <trkpt lat="43.62824" lon="7.065">
        <ele>75.135925292969</ele>
        <time>2016-05-14T10:25:58.000Z</time>
      </trkpt>
      <trkpt lat="43.62826" lon="7.06499">
        <ele>75.111038208008</ele>
        <time>2016-05-14T10:26:00.000Z</time>
      </trkpt>
      <trkpt lat="43.62829" lon="7.06498">
        <ele>75.066543579102</ele>
        <time>2016-05-14T10:26:03.000Z</time>
      </trkpt>
      <trkpt lat="43.62831" lon="7.06498">
        <ele>74.999931335449</ele>
        <time>2016-05-14T10:26:05.000Z</time>
      </trkpt>
      <trkpt lat="43.62835" lon="7.06496">
        <ele>74.936828613281</ele>
        <time>2016-05-14T10:26:08.000Z</time>
      </trkpt>
      <trkpt lat="43.62836" lon="7.06495">
        <ele>74.947616577148</ele>
        <time>2016-05-14T10:26:10.000Z</time>
      </trkpt>
      <trkpt lat="43.62838" lon="7.06492">
        <ele>75.095153808594</ele>
        <time>2016-05-14T10:26:13.000Z</time>
      </trkpt>
      <trkpt lat="43.62839" lon="7.0649">
        <ele>75.356651306152</ele>
        <time>2016-05-14T10:26:15.000Z</time>
      </trkpt>
      <trkpt lat="43.62841" lon="7.06486">
        <ele>75.784339904785</ele>
        <time>2016-05-14T10:26:18.000Z</time>
      </trkpt>
      <trkpt lat="43.62843" lon="7.06482">
        <ele>76.354873657227</ele>
        <time>2016-05-14T10:26:21.000Z</time>
      </trkpt>
      <trkpt lat="43.62845" lon="7.06479">
        <ele>76.96898651123</ele>
        <time>2016-05-14T10:26:23.000Z</time>
      </trkpt>
      <trkpt lat="43.62846" lon="7.06476">
        <ele>77.525985717773</ele>
        <time>2016-05-14T10:26:25.000Z</time>
      </trkpt>
      <trkpt lat="43.62849" lon="7.06473">
        <ele>78.105293273926</ele>
        <time>2016-05-14T10:26:28.000Z</time>
      </trkpt>
      <trkpt lat="43.62851" lon="7.0647">
        <ele>78.618698120117</ele>
        <time>2016-05-14T10:26:31.000Z</time>
      </trkpt>
      <trkpt lat="43.62854" lon="7.06467">
        <ele>79.023414611816</ele>
        <time>2016-05-14T10:26:34.000Z</time>
      </trkpt>
      <trkpt lat="43.62856" lon="7.06466">
        <ele>79.331909179688</ele>
        <time>2016-05-14T10:26:36.000Z</time>
      </trkpt>
      <trkpt lat="43.62857" lon="7.06464">
        <ele>79.587890625</ele>
        <time>2016-05-14T10:26:38.000Z</time>
      </trkpt>
      <trkpt lat="43.62859" lon="7.06461">
        <ele>79.813659667969</ele>
        <time>2016-05-14T10:26:41.000Z</time>
      </trkpt>
      <trkpt lat="43.62862" lon="7.06456">
        <ele>80.03108215332</ele>
        <time>2016-05-14T10:26:44.000Z</time>
      </trkpt>
      <trkpt lat="43.62864" lon="7.06452">
        <ele>80.257270812988</ele>
        <time>2016-05-14T10:26:47.000Z</time>
      </trkpt>
      <trkpt lat="43.62865" lon="7.0645">
        <ele>80.468078613281</ele>
        <time>2016-05-14T10:26:49.000Z</time>
      </trkpt>
      <trkpt lat="43.62867" lon="7.06449">
        <ele>80.655067443848</ele>
        <time>2016-05-14T10:26:51.000Z</time>
      </trkpt>
      <trkpt lat="43.62869" lon="7.06447">
        <ele>80.753379821777</ele>
        <time>2016-05-14T10:26:54.000Z</time>
      </trkpt>
      <trkpt lat="43.62873" lon="7.06447">
        <ele>80.66854095459</ele>
        <time>2016-05-14T10:26:57.000Z</time>
      </trkpt>
      <trkpt lat="43.62876" lon="7.06446">
        <ele>80.494094848633</ele>
        <time>2016-05-14T10:26:59.000Z</time>
      </trkpt>
      <trkpt lat="43.62877" lon="7.06446">
        <ele>80.278762817383</ele>
        <time>2016-05-14T10:27:01.000Z</time>
      </trkpt>
      <trkpt lat="43.62881" lon="7.06444">
        <ele>79.982116699219</ele>
        <time>2016-05-14T10:27:04.000Z</time>
      </trkpt>
      <trkpt lat="43.62883" lon="7.06443">
        <ele>79.672264099121</ele>
        <time>2016-05-14T10:27:06.000Z</time>
      </trkpt>
      <trkpt lat="43.62886" lon="7.06441">
        <ele>79.409744262695</ele>
        <time>2016-05-14T10:27:09.000Z</time>
      </trkpt>
      <trkpt lat="43.62888" lon="7.06439">
        <ele>79.160301208496</ele>
        <time>2016-05-14T10:27:11.000Z</time>
      </trkpt>
      <trkpt lat="43.62888" lon="7.06437">
        <ele>78.934242248535</ele>
        <time>2016-05-14T10:27:13.000Z</time>
      </trkpt>
      <trkpt lat="43.6289" lon="7.06434">
        <ele>78.745948791504</ele>
        <time>2016-05-14T10:27:15.000Z</time>
      </trkpt>
      <trkpt lat="43.62891" lon="7.06431">
        <ele>78.571754455566</ele>
        <time>2016-05-14T10:27:17.000Z</time>
      </trkpt>
      <trkpt lat="43.62893" lon="7.06427">
        <ele>78.41015625</ele>
        <time>2016-05-14T10:27:20.000Z</time>
      </trkpt>
      <trkpt lat="43.62895" lon="7.06425">
        <ele>78.226211547852</ele>
        <time>2016-05-14T10:27:22.000Z</time>
      </trkpt>
      <trkpt lat="43.62897" lon="7.06421">
        <ele>77.959838867188</ele>
        <time>2016-05-14T10:27:25.000Z</time>
      </trkpt>
      <trkpt lat="43.62899" lon="7.0642">
        <ele>77.687797546387</ele>
        <time>2016-05-14T10:27:27.000Z</time>
      </trkpt>
      <trkpt lat="43.62902" lon="7.06418">
        <ele>77.315330505371</ele>
        <time>2016-05-14T10:27:30.000Z</time>
      </trkpt>
      <trkpt lat="43.62907" lon="7.06414">
        <ele>76.856590270996</ele>
        <time>2016-05-14T10:27:33.000Z</time>
      </trkpt>
      <trkpt lat="43.6291" lon="7.06411">
        <ele>76.369430541992</ele>
        <time>2016-05-14T10:27:36.000Z</time>
      </trkpt>
      <trkpt lat="43.62912" lon="7.06408">
        <ele>75.954376220703</ele>
        <time>2016-05-14T10:27:38.000Z</time>
      </trkpt>
      <trkpt lat="43.62915" lon="7.06404">
        <ele>75.539932250977</ele>
        <time>2016-05-14T10:27:41.000Z</time>
      </trkpt>
      <trkpt lat="43.62916" lon="7.06402">
        <ele>75.294570922852</ele>
        <time>2016-05-14T10:27:44.000Z</time>
      </trkpt>
      <trkpt lat="43.62917" lon="7.064">
        <ele>75.174362182617</ele>
        <time>2016-05-14T10:27:46.000Z</time>
      </trkpt>
      <trkpt lat="43.62919" lon="7.06398">
        <ele>75.199996948242</ele>
        <time>2016-05-14T10:27:49.000Z</time>
      </trkpt>
      <trkpt lat="43.6292" lon="7.06396">
        <ele>75.288696289062</ele>
        <time>2016-05-14T10:27:51.000Z</time>
      </trkpt>
      <trkpt lat="43.62921" lon="7.06393">
        <ele>75.505783081055</ele>
        <time>2016-05-14T10:27:54.000Z</time>
      </trkpt>
      <trkpt lat="43.62923" lon="7.06391">
        <ele>75.712715148926</ele>
        <time>2016-05-14T10:27:56.000Z</time>
      </trkpt>
      <trkpt lat="43.62926" lon="7.06389">
        <ele>75.967399597168</ele>
        <time>2016-05-14T10:27:58.000Z</time>
      </trkpt>
      <trkpt lat="43.6293" lon="7.06387">
        <ele>76.180374145508</ele>
        <time>2016-05-14T10:28:00.000Z</time>
      </trkpt>
      <trkpt lat="43.62933" lon="7.06385">
        <ele>76.371864318848</ele>
        <time>2016-05-14T10:28:03.000Z</time>
      </trkpt>
      <trkpt lat="43.62936" lon="7.06383">
        <ele>76.498733520508</ele>
        <time>2016-05-14T10:28:05.000Z</time>
      </trkpt>
      <trkpt lat="43.62939" lon="7.06381">
        <ele>76.591407775879</ele>
        <time>2016-05-14T10:28:08.000Z</time>
      </trkpt>
      <trkpt lat="43.62943" lon="7.0638">
        <ele>76.639167785645</ele>
        <time>2016-05-14T10:28:11.000Z</time>
      </trkpt>
      <trkpt lat="43.62946" lon="7.06378">
        <ele>76.67259979248</ele>
        <time>2016-05-14T10:28:14.000Z</time>
      </trkpt>
      <trkpt lat="43.62948" lon="7.06374">
        <ele>76.725273132324</ele>
        <time>2016-05-14T10:28:17.000Z</time>
      </trkpt>
      <trkpt lat="43.62949" lon="7.06371">
        <ele>76.804565429688</ele>
        <time>2016-05-14T10:28:19.000Z</time>
      </trkpt>
      <trkpt lat="43.62951" lon="7.06367">
        <ele>76.903625488281</ele>
        <time>2016-05-14T10:28:22.000Z</time>
      </trkpt>
      <trkpt lat="43.62954" lon="7.06365">
        <ele>76.989891052246</ele>
        <time>2016-05-14T10:28:24.000Z</time>
      </trkpt>
      <trkpt lat="43.62956" lon="7.06363">
        <ele>77.06494140625</ele>
        <time>2016-05-14T10:28:27.000Z</time>
      </trkpt>
      <trkpt lat="43.62959" lon="7.0636">
        <ele>77.098770141602</ele>
        <time>2016-05-14T10:28:30.000Z</time>
      </trkpt>
      <trkpt lat="43.62961" lon="7.06357">
        <ele>77.080711364746</ele>
        <time>2016-05-14T10:28:33.000Z</time>
      </trkpt>
      <trkpt lat="43.62963" lon="7.06355">
        <ele>77.031379699707</ele>
        <time>2016-05-14T10:28:35.000Z</time>
      </trkpt>
      <trkpt lat="43.62966" lon="7.06351">
        <ele>76.975784301758</ele>
        <time>2016-05-14T10:28:38.000Z</time>
      </trkpt>
      <trkpt lat="43.62967" lon="7.0635">
        <ele>76.910057067871</ele>
        <time>2016-05-14T10:28:40.000Z</time>
      </trkpt>
      <trkpt lat="43.62969" lon="7.06348">
        <ele>76.810691833496</ele>
        <time>2016-05-14T10:28:43.000Z</time>
      </trkpt>
      <trkpt lat="43.62971" lon="7.06348">
        <ele>76.688682556152</ele>
        <time>2016-05-14T10:28:45.000Z</time>
      </trkpt>
      <trkpt lat="43.62972" lon="7.06348">
        <ele>76.546394348145</ele>
        <time>2016-05-14T10:28:47.000Z</time>
      </trkpt>
      <trkpt lat="43.62975" lon="7.06346">
        <ele>76.399841308594</ele>
        <time>2016-05-14T10:28:49.000Z</time>
      </trkpt>
      <trkpt lat="43.62977" lon="7.06344">
        <ele>76.222618103027</ele>
        <time>2016-05-14T10:28:51.000Z</time>
      </trkpt>
      <trkpt lat="43.62978" lon="7.06341">
        <ele>76.053482055664</ele>
        <time>2016-05-14T10:28:54.000Z</time>
      </trkpt>
      <trkpt lat="43.62981" lon="7.06339">
        <ele>75.874244689941</ele>
        <time>2016-05-14T10:28:57.000Z</time>
      </trkpt>
      <trkpt lat="43.62983" lon="7.06338">
        <ele>75.677528381348</ele>
        <time>2016-05-14T10:28:59.000Z</time>
      </trkpt>
      <trkpt lat="43.62985" lon="7.06336">
        <ele>75.456802368164</ele>
        <time>2016-05-14T10:29:02.000Z</time>
      </trkpt>
      <trkpt lat="43.62987" lon="7.06334">
        <ele>75.23006439209</ele>
        <time>2016-05-14T10:29:04.000Z</time>
      </trkpt>
      <trkpt lat="43.62988" lon="7.06331">
        <ele>75.089347839355</ele>
        <time>2016-05-14T10:29:07.000Z</time>
      </trkpt>
      <trkpt lat="43.6299" lon="7.06327">
        <ele>75.075790405273</ele>
        <time>2016-05-14T10:29:13.000Z</time>
      </trkpt>
      <trkpt lat="43.62993" lon="7.06325">
        <ele>75.072128295898</ele>
        <time>2016-05-14T10:29:16.000Z</time>
      </trkpt>
      <trkpt lat="43.62996" lon="7.06322">
        <ele>75.151695251465</ele>
        <time>2016-05-14T10:29:19.000Z</time>
      </trkpt>
      <trkpt lat="43.62997" lon="7.06321">
        <ele>75.28279876709</ele>
        <time>2016-05-14T10:29:21.000Z</time>
      </trkpt>
      <trkpt lat="43.63" lon="7.06319">
        <ele>75.339065551758</ele>
        <time>2016-05-14T10:29:24.000Z</time>
      </trkpt>
      <trkpt lat="43.63002" lon="7.06318">
        <ele>75.343147277832</ele>
        <time>2016-05-14T10:29:26.000Z</time>
      </trkpt>
      <trkpt lat="43.63005" lon="7.06317">
        <ele>75.396217346191</ele>
        <time>2016-05-14T10:29:29.000Z</time>
      </trkpt>
      <trkpt lat="43.63008" lon="7.06316">
        <ele>75.459060668945</ele>
        <time>2016-05-14T10:29:32.000Z</time>
      </trkpt>
      <trkpt lat="43.63011" lon="7.06314">
        <ele>75.573440551758</ele>
        <time>2016-05-14T10:29:34.000Z</time>
      </trkpt>
      <trkpt lat="43.63013" lon="7.06313">
        <ele>75.739624023438</ele>
        <time>2016-05-14T10:29:36.000Z</time>
      </trkpt>
      <trkpt lat="43.63017" lon="7.06312">
        <ele>75.878913879395</ele>
        <time>2016-05-14T10:29:39.000Z</time>
      </trkpt>
      <trkpt lat="43.63021" lon="7.06311">
        <ele>76.041450500488</ele>
        <time>2016-05-14T10:29:42.000Z</time>
      </trkpt>
      <trkpt lat="43.63023" lon="7.06309">
        <ele>76.212440490723</ele>
        <time>2016-05-14T10:29:44.000Z</time>
      </trkpt>
      <trkpt lat="43.63025" lon="7.06309">
        <ele>76.322166442871</ele>
        <time>2016-05-14T10:29:46.000Z</time>
      </trkpt>
      <trkpt lat="43.63028" lon="7.06308">
        <ele>76.406173706055</ele>
        <time>2016-05-14T10:29:49.000Z</time>
      </trkpt>
      <trkpt lat="43.63031" lon="7.06306">
        <ele>76.543746948242</ele>
        <time>2016-05-14T10:29:51.000Z</time>
      </trkpt>
      <trkpt lat="43.63033" lon="7.06305">
        <ele>76.647750854492</ele>
        <time>2016-05-14T10:29:53.000Z</time>
      </trkpt>
      <trkpt lat="43.63035" lon="7.06305">
        <ele>76.70369720459</ele>
        <time>2016-05-14T10:29:56.000Z</time>
      </trkpt>
      <trkpt lat="43.63037" lon="7.06305">
        <ele>76.757461547852</ele>
        <time>2016-05-14T10:29:59.000Z</time>
      </trkpt>
      <trkpt lat="43.63039" lon="7.06305">
        <ele>76.802978515625</ele>
        <time>2016-05-14T10:30:01.000Z</time>
      </trkpt>
      <trkpt lat="43.63041" lon="7.06306">
        <ele>76.758842468262</ele>
        <time>2016-05-14T10:30:04.000Z</time>
      </trkpt>
      <trkpt lat="43.63042" lon="7.06307">
        <ele>76.692741394043</ele>
        <time>2016-05-14T10:30:06.000Z</time>
      </trkpt>
      <trkpt lat="43.63044" lon="7.06308">
        <ele>76.605514526367</ele>
        <time>2016-05-14T10:30:09.000Z</time>
      </trkpt>
      <trkpt lat="43.63046" lon="7.06305">
        <ele>76.581230163574</ele>
        <time>2016-05-14T10:30:12.000Z</time>
      </trkpt>
      <trkpt lat="43.63049" lon="7.06298">
        <ele>76.686813354492</ele>
        <time>2016-05-14T10:30:15.000Z</time>
      </trkpt>
      <trkpt lat="43.6305" lon="7.06294">
        <ele>76.909042358398</ele>
        <time>2016-05-14T10:30:18.000Z</time>
      </trkpt>
      <trkpt lat="43.6305" lon="7.06294">
        <ele>76.909042358398</ele>
        <time>2016-05-14T10:30:38.000Z</time>
      </trkpt>
      <trkpt lat="43.63053" lon="7.06296">
        <ele>77.094955444336</ele>
        <time>2016-05-14T10:31:03.000Z</time>
      </trkpt>
      <trkpt lat="43.63053" lon="7.06296">
        <ele>77.094955444336</ele>
        <time>2016-05-14T10:31:23.000Z</time>
      </trkpt>
      <trkpt lat="43.63055" lon="7.06296">
        <ele>77.314483642578</ele>
        <time>2016-05-14T10:31:40.000Z</time>
      </trkpt>
      <trkpt lat="43.63056" lon="7.06295">
        <ele>77.479293823242</ele>
        <time>2016-05-14T10:31:55.000Z</time>
      </trkpt>
      <trkpt lat="43.63059" lon="7.06298">
        <ele>77.447738647461</ele>
        <time>2016-05-14T10:31:58.000Z</time>
      </trkpt>
      <trkpt lat="43.63062" lon="7.063">
        <ele>77.270721435547</ele>
        <time>2016-05-14T10:32:01.000Z</time>
      </trkpt>
      <trkpt lat="43.63067" lon="7.06299">
        <ele>77.150123596191</ele>
        <time>2016-05-14T10:32:04.000Z</time>
      </trkpt>
      <trkpt lat="43.6307" lon="7.063">
        <ele>76.991218566895</ele>
        <time>2016-05-14T10:32:07.000Z</time>
      </trkpt>
      <trkpt lat="43.63072" lon="7.06302">
        <ele>76.801574707031</ele>
        <time>2016-05-14T10:32:10.000Z</time>
      </trkpt>
      <trkpt lat="43.63075" lon="7.06302">
        <ele>76.647201538086</ele>
        <time>2016-05-14T10:32:13.000Z</time>
      </trkpt>
      <trkpt lat="43.63078" lon="7.06302">
        <ele>76.546783447266</ele>
        <time>2016-05-14T10:32:15.000Z</time>
      </trkpt>
      <trkpt lat="43.63081" lon="7.06301">
        <ele>76.449508666992</ele>
        <time>2016-05-14T10:32:18.000Z</time>
      </trkpt>
      <trkpt lat="43.63084" lon="7.06301">
        <ele>76.383369445801</ele>
        <time>2016-05-14T10:32:21.000Z</time>
      </trkpt>
      <trkpt lat="43.63085" lon="7.063">
        <ele>76.361946105957</ele>
        <time>2016-05-14T10:32:23.000Z</time>
      </trkpt>
      <trkpt lat="43.63086" lon="7.06302">
        <ele>76.352233886719</ele>
        <time>2016-05-14T10:32:29.000Z</time>
      </trkpt>
      <trkpt lat="43.63088" lon="7.06301">
        <ele>76.355766296387</ele>
        <time>2016-05-14T10:32:32.000Z</time>
      </trkpt>
      <trkpt lat="43.63091" lon="7.063">
        <ele>76.388656616211</ele>
        <time>2016-05-14T10:32:36.000Z</time>
      </trkpt>
      <trkpt lat="43.63093" lon="7.063">
        <ele>76.418098449707</ele>
        <time>2016-05-14T10:32:38.000Z</time>
      </trkpt>
      <trkpt lat="43.63095" lon="7.06303">
        <ele>76.406204223633</ele>
        <time>2016-05-14T10:32:41.000Z</time>
      </trkpt>
      <trkpt lat="43.63098" lon="7.06304">
        <ele>76.402008056641</ele>
        <time>2016-05-14T10:32:43.000Z</time>
      </trkpt>
      <trkpt lat="43.631" lon="7.06306">
        <ele>76.379348754883</ele>
        <time>2016-05-14T10:32:46.000Z</time>
      </trkpt>
      <trkpt lat="43.63103" lon="7.06307">
        <ele>76.321739196777</ele>
        <time>2016-05-14T10:32:49.000Z</time>
      </trkpt>
      <trkpt lat="43.63105" lon="7.06308">
        <ele>76.260414123535</ele>
        <time>2016-05-14T10:32:52.000Z</time>
      </trkpt>
      <trkpt lat="43.63107" lon="7.0631">
        <ele>76.220474243164</ele>
        <time>2016-05-14T10:32:55.000Z</time>
      </trkpt>
      <trkpt lat="43.63109" lon="7.06312">
        <ele>76.17724609375</ele>
        <time>2016-05-14T10:32:57.000Z</time>
      </trkpt>
      <trkpt lat="43.63112" lon="7.06314">
        <ele>76.129592895508</ele>
        <time>2016-05-14T10:33:00.000Z</time>
      </trkpt>
      <trkpt lat="43.63115" lon="7.06317">
        <ele>76.066879272461</ele>
        <time>2016-05-14T10:33:03.000Z</time>
      </trkpt>
      <trkpt lat="43.63115" lon="7.06319">
        <ele>76.004325866699</ele>
        <time>2016-05-14T10:33:05.000Z</time>
      </trkpt>
      <trkpt lat="43.63119" lon="7.0632">
        <ele>75.954162597656</ele>
        <time>2016-05-14T10:33:15.000Z</time>
      </trkpt>
      <trkpt lat="43.6312" lon="7.06322">
        <ele>75.90690612793</ele>
        <time>2016-05-14T10:33:17.000Z</time>
      </trkpt>
      <trkpt lat="43.63122" lon="7.06324">
        <ele>75.867385864258</ele>
        <time>2016-05-14T10:33:20.000Z</time>
      </trkpt>
      <trkpt lat="43.63123" lon="7.06325">
        <ele>75.847602844238</ele>
        <time>2016-05-14T10:33:22.000Z</time>
      </trkpt>
      <trkpt lat="43.63127" lon="7.06328">
        <ele>75.827392578125</ele>
        <time>2016-05-14T10:33:32.000Z</time>
      </trkpt>
      <trkpt lat="43.63127" lon="7.06333">
        <ele>75.76741027832</ele>
        <time>2016-05-14T10:33:34.000Z</time>
      </trkpt>
      <trkpt lat="43.63128" lon="7.06336">
        <ele>75.791427612305</ele>
        <time>2016-05-14T10:33:37.000Z</time>
      </trkpt>
      <trkpt lat="43.6313" lon="7.0634">
        <ele>75.930603027344</ele>
        <time>2016-05-14T10:33:49.000Z</time>
      </trkpt>
      <trkpt lat="43.63129" lon="7.06339">
        <ele>76.057800292969</ele>
        <time>2016-05-14T10:33:51.000Z</time>
      </trkpt>
      <trkpt lat="43.63129" lon="7.06339">
        <ele>76.057800292969</ele>
        <time>2016-05-14T10:34:11.000Z</time>
      </trkpt>
      <trkpt lat="43.63129" lon="7.06345">
        <ele>76.332427978516</ele>
        <time>2016-05-14T10:34:24.000Z</time>
      </trkpt>
      <trkpt lat="43.63131" lon="7.06347">
        <ele>76.715957641602</ele>
        <time>2016-05-14T10:34:27.000Z</time>
      </trkpt>
      <trkpt lat="43.63131" lon="7.06347">
        <ele>76.715957641602</ele>
        <time>2016-05-14T10:34:47.000Z</time>
      </trkpt>
      <trkpt lat="43.63132" lon="7.06349">
        <ele>77.076049804688</ele>
        <time>2016-05-14T10:37:06.000Z</time>
      </trkpt>
      <trkpt lat="43.63132" lon="7.06351">
        <ele>77.378303527832</ele>
        <time>2016-05-14T10:37:10.000Z</time>
      </trkpt>
      <trkpt lat="43.63132" lon="7.06351">
        <ele>77.378303527832</ele>
        <time>2016-05-14T10:37:30.000Z</time>
      </trkpt>
      <trkpt lat="43.63134" lon="7.06352">
        <ele>77.751281738281</ele>
        <time>2016-05-14T10:38:00.000Z</time>
      </trkpt>
      <trkpt lat="43.63138" lon="7.06358">
        <ele>78.181564331055</ele>
        <time>2016-05-14T10:38:18.000Z</time>
      </trkpt>
      <trkpt lat="43.6314" lon="7.0636">
        <ele>78.634315490723</ele>
        <time>2016-05-14T10:38:21.000Z</time>
      </trkpt>
      <trkpt lat="43.63143" lon="7.06359">
        <ele>79.030311584473</ele>
        <time>2016-05-14T10:38:24.000Z</time>
      </trkpt>
      <trkpt lat="43.63143" lon="7.06359">
        <ele>79.030311584473</ele>
        <time>2016-05-14T10:38:44.000Z</time>
      </trkpt>
      <trkpt lat="43.63146" lon="7.06355">
        <ele>79.28205871582</ele>
        <time>2016-05-14T10:39:24.000Z</time>
      </trkpt>
      <trkpt lat="43.63147" lon="7.06354">
        <ele>79.450210571289</ele>
        <time>2016-05-14T10:39:29.000Z</time>
      </trkpt>
      <trkpt lat="43.63148" lon="7.06349">
        <ele>79.290939331055</ele>
        <time>2016-05-14T10:39:32.000Z</time>
      </trkpt>
      <trkpt lat="43.63149" lon="7.06347">
        <ele>79.003921508789</ele>
        <time>2016-05-14T10:39:34.000Z</time>
      </trkpt>
      <trkpt lat="43.63152" lon="7.06346">
        <ele>78.713012695312</ele>
        <time>2016-05-14T10:39:37.000Z</time>
      </trkpt>
      <trkpt lat="43.63156" lon="7.06341">
        <ele>78.419578552246</ele>
        <time>2016-05-14T10:39:40.000Z</time>
      </trkpt>
      <trkpt lat="43.63157" lon="7.06338">
        <ele>78.056381225586</ele>
        <time>2016-05-14T10:39:54.000Z</time>
      </trkpt>
      <trkpt lat="43.63157" lon="7.06335">
        <ele>77.738357543945</ele>
        <time>2016-05-14T10:39:56.000Z</time>
      </trkpt>
      <trkpt lat="43.63157" lon="7.06333">
        <ele>77.398727416992</ele>
        <time>2016-05-14T10:39:59.000Z</time>
      </trkpt>
      <trkpt lat="43.63155" lon="7.0633">
        <ele>77.071952819824</ele>
        <time>2016-05-14T10:40:02.000Z</time>
      </trkpt>
      <trkpt lat="43.63155" lon="7.06328">
        <ele>76.850120544434</ele>
        <time>2016-05-14T10:40:04.000Z</time>
      </trkpt>
      <trkpt lat="43.63154" lon="7.06326">
        <ele>76.721450805664</ele>
        <time>2016-05-14T10:40:06.000Z</time>
      </trkpt>
      <trkpt lat="43.63152" lon="7.06323">
        <ele>76.682746887207</ele>
        <time>2016-05-14T10:40:09.000Z</time>
      </trkpt>
      <trkpt lat="43.63153" lon="7.06318">
        <ele>76.720886230469</ele>
        <time>2016-05-14T10:40:12.000Z</time>
      </trkpt>
      <trkpt lat="43.63154" lon="7.06316">
        <ele>76.77116394043</ele>
        <time>2016-05-14T10:40:14.000Z</time>
      </trkpt>
      <trkpt lat="43.63155" lon="7.06311">
        <ele>76.842018127441</ele>
        <time>2016-05-14T10:40:17.000Z</time>
      </trkpt>
      <trkpt lat="43.63156" lon="7.06308">
        <ele>76.927619934082</ele>
        <time>2016-05-14T10:40:19.000Z</time>
      </trkpt>
      <trkpt lat="43.63156" lon="7.06304">
        <ele>77.022262573242</ele>
        <time>2016-05-14T10:40:22.000Z</time>
      </trkpt>
      <trkpt lat="43.63157" lon="7.06302">
        <ele>77.102394104004</ele>
        <time>2016-05-14T10:40:24.000Z</time>
      </trkpt>
      <trkpt lat="43.63157" lon="7.06301">
        <ele>77.17317199707</ele>
        <time>2016-05-14T10:40:26.000Z</time>
      </trkpt>
      <trkpt lat="43.63159" lon="7.06299">
        <ele>77.228225708008</ele>
        <time>2016-05-14T10:40:29.000Z</time>
      </trkpt>
      <trkpt lat="43.6316" lon="7.06298">
        <ele>77.275772094727</ele>
        <time>2016-05-14T10:40:31.000Z</time>
      </trkpt>
      <trkpt lat="43.63161" lon="7.06296">
        <ele>77.314720153809</ele>
        <time>2016-05-14T10:40:35.000Z</time>
      </trkpt>
      <trkpt lat="43.63161" lon="7.06292">
        <ele>77.36198425293</ele>
        <time>2016-05-14T10:40:52.000Z</time>
      </trkpt>
      <trkpt lat="43.6316" lon="7.06293">
        <ele>77.396263122559</ele>
        <time>2016-05-14T10:40:54.000Z</time>
      </trkpt>
      <trkpt lat="43.6316" lon="7.06294">
        <ele>77.414566040039</ele>
        <time>2016-05-14T10:40:57.000Z</time>
      </trkpt>
      <trkpt lat="43.63158" lon="7.06292">
        <ele>77.430252075195</ele>
        <time>2016-05-14T10:41:06.000Z</time>
      </trkpt>
      <trkpt lat="43.6316" lon="7.06293">
        <ele>77.440635681152</ele>
        <time>2016-05-14T10:41:10.000Z</time>
      </trkpt>
      <trkpt lat="43.63157" lon="7.06293">
        <ele>77.428382873535</ele>
        <time>2016-05-14T10:41:13.000Z</time>
      </trkpt>
      <trkpt lat="43.63155" lon="7.06293">
        <ele>77.420753479004</ele>
        <time>2016-05-14T10:41:15.000Z</time>
      </trkpt>
      <trkpt lat="43.63152" lon="7.06295">
        <ele>77.405654907227</ele>
        <time>2016-05-14T10:41:18.000Z</time>
      </trkpt>
      <trkpt lat="43.63149" lon="7.06296">
        <ele>77.375839233398</ele>
        <time>2016-05-14T10:41:21.000Z</time>
      </trkpt>
      <trkpt lat="43.63148" lon="7.06297">
        <ele>77.339752197266</ele>
        <time>2016-05-14T10:41:23.000Z</time>
      </trkpt>
      <trkpt lat="43.63146" lon="7.06301">
        <ele>77.283920288086</ele>
        <time>2016-05-14T10:41:26.000Z</time>
      </trkpt>
      <trkpt lat="43.63145" lon="7.06303">
        <ele>77.213485717773</ele>
        <time>2016-05-14T10:41:28.000Z</time>
      </trkpt>
      <trkpt lat="43.63145" lon="7.06305">
        <ele>77.143699645996</ele>
        <time>2016-05-14T10:41:30.000Z</time>
      </trkpt>
      <trkpt lat="43.63147" lon="7.06309">
        <ele>77.070068359375</ele>
        <time>2016-05-14T10:41:33.000Z</time>
      </trkpt>
      <trkpt lat="43.63148" lon="7.0631">
        <ele>76.999771118164</ele>
        <time>2016-05-14T10:41:35.000Z</time>
      </trkpt>
      <trkpt lat="43.63153" lon="7.06315">
        <ele>76.958923339844</ele>
        <time>2016-05-14T10:41:38.000Z</time>
      </trkpt>
      <trkpt lat="43.63154" lon="7.06316">
        <ele>76.928695678711</ele>
        <time>2016-05-14T10:41:40.000Z</time>
      </trkpt>
      <trkpt lat="43.63153" lon="7.0632">
        <ele>76.892013549805</ele>
        <time>2016-05-14T10:41:42.000Z</time>
      </trkpt>
      <trkpt lat="43.63153" lon="7.06323">
        <ele>76.854835510254</ele>
        <time>2016-05-14T10:41:44.000Z</time>
      </trkpt>
      <trkpt lat="43.63151" lon="7.06327">
        <ele>76.788833618164</ele>
        <time>2016-05-14T10:41:47.000Z</time>
      </trkpt>
      <trkpt lat="43.63149" lon="7.06329">
        <ele>76.699111938477</ele>
        <time>2016-05-14T10:41:49.000Z</time>
      </trkpt>
      <trkpt lat="43.63148" lon="7.06332">
        <ele>76.598098754883</ele>
        <time>2016-05-14T10:41:51.000Z</time>
      </trkpt>
      <trkpt lat="43.63148" lon="7.06334">
        <ele>76.514907836914</ele>
        <time>2016-05-14T10:41:53.000Z</time>
      </trkpt>
      <trkpt lat="43.63148" lon="7.06335">
        <ele>76.485198974609</ele>
        <time>2016-05-14T10:41:56.000Z</time>
      </trkpt>
      <trkpt lat="43.63148" lon="7.06335">
        <ele>76.485198974609</ele>
        <time>2016-05-14T10:42:16.000Z</time>
      </trkpt>
      <trkpt lat="43.6315" lon="7.06336">
        <ele>76.515464782715</ele>
        <time>2016-05-14T10:42:35.000Z</time>
      </trkpt>
      <trkpt lat="43.6315" lon="7.06333">
        <ele>76.504135131836</ele>
        <time>2016-05-14T10:42:37.000Z</time>
      </trkpt>
      <trkpt lat="43.63152" lon="7.06327">
        <ele>76.550979614258</ele>
        <time>2016-05-14T10:42:40.000Z</time>
      </trkpt>
      <trkpt lat="43.63155" lon="7.06323">
        <ele>76.632858276367</ele>
        <time>2016-05-14T10:42:42.000Z</time>
      </trkpt>
      <trkpt lat="43.63159" lon="7.06316">
        <ele>76.719146728516</ele>
        <time>2016-05-14T10:42:45.000Z</time>
      </trkpt>
      <trkpt lat="43.63161" lon="7.06309">
        <ele>76.812950134277</ele>
        <time>2016-05-14T10:42:48.000Z</time>
      </trkpt>
      <trkpt lat="43.63162" lon="7.06304">
        <ele>76.986129760742</ele>
        <time>2016-05-14T10:42:50.000Z</time>
      </trkpt>
      <trkpt lat="43.63164" lon="7.06301">
        <ele>77.130378723145</ele>
        <time>2016-05-14T10:42:52.000Z</time>
      </trkpt>
      <trkpt lat="43.63164" lon="7.063">
        <ele>77.242904663086</ele>
        <time>2016-05-14T10:42:54.000Z</time>
      </trkpt>
      <trkpt lat="43.63163" lon="7.06296">
        <ele>77.321800231934</ele>
        <time>2016-05-14T10:42:56.000Z</time>
      </trkpt>
      <trkpt lat="43.63162" lon="7.06296">
        <ele>77.363311767578</ele>
        <time>2016-05-14T10:42:58.000Z</time>
      </trkpt>
      <trkpt lat="43.6316" lon="7.06298">
        <ele>77.376907348633</ele>
        <time>2016-05-14T10:43:00.000Z</time>
      </trkpt>
      <trkpt lat="43.63157" lon="7.06305">
        <ele>77.344741821289</ele>
        <time>2016-05-14T10:43:03.000Z</time>
      </trkpt>
      <trkpt lat="43.63157" lon="7.06307">
        <ele>77.300003051758</ele>
        <time>2016-05-14T10:43:05.000Z</time>
      </trkpt>
      <trkpt lat="43.63158" lon="7.06311">
        <ele>77.234382629395</ele>
        <time>2016-05-14T10:43:08.000Z</time>
      </trkpt>
      <trkpt lat="43.63158" lon="7.06315">
        <ele>77.156478881836</ele>
        <time>2016-05-14T10:43:11.000Z</time>
      </trkpt>
      <trkpt lat="43.63158" lon="7.06317">
        <ele>77.084663391113</ele>
        <time>2016-05-14T10:43:13.000Z</time>
      </trkpt>
      <trkpt lat="43.6316" lon="7.0632">
        <ele>77.039993286133</ele>
        <time>2016-05-14T10:43:16.000Z</time>
      </trkpt>
      <trkpt lat="43.6316" lon="7.06322">
        <ele>77.002243041992</ele>
        <time>2016-05-14T10:43:18.000Z</time>
      </trkpt>
      <trkpt lat="43.63159" lon="7.06325">
        <ele>76.958564758301</ele>
        <time>2016-05-14T10:43:20.000Z</time>
      </trkpt>
      <trkpt lat="43.63156" lon="7.06329">
        <ele>76.895767211914</ele>
        <time>2016-05-14T10:43:23.000Z</time>
      </trkpt>
      <trkpt lat="43.63153" lon="7.06331">
        <ele>76.812400817871</ele>
        <time>2016-05-14T10:43:26.000Z</time>
      </trkpt>
      <trkpt lat="43.6315" lon="7.06335">
        <ele>76.759201049805</ele>
        <time>2016-05-14T10:43:29.000Z</time>
      </trkpt>
      <trkpt lat="43.63149" lon="7.06339">
        <ele>76.812057495117</ele>
        <time>2016-05-14T10:43:31.000Z</time>
      </trkpt>
      <trkpt lat="43.63149" lon="7.06344">
        <ele>77.023155212402</ele>
        <time>2016-05-14T10:43:34.000Z</time>
      </trkpt>
      <trkpt lat="43.63148" lon="7.06346">
        <ele>77.324668884277</ele>
        <time>2016-05-14T10:43:36.000Z</time>
      </trkpt>
      <trkpt lat="43.63147" lon="7.06347">
        <ele>77.672325134277</ele>
        <time>2016-05-14T10:43:39.000Z</time>
      </trkpt>
      <trkpt lat="43.63147" lon="7.06349">
        <ele>78.024978637695</ele>
        <time>2016-05-14T10:43:50.000Z</time>
      </trkpt>
      <trkpt lat="43.63147" lon="7.06349">
        <ele>78.024978637695</ele>
        <time>2016-05-14T10:44:10.000Z</time>
      </trkpt>
      <trkpt lat="43.63147" lon="7.0635">
        <ele>78.319145202637</ele>
        <time>2016-05-14T10:48:55.000Z</time>
      </trkpt>
      <trkpt lat="43.63147" lon="7.0635">
        <ele>78.319145202637</ele>
        <time>2016-05-14T10:49:15.000Z</time>
      </trkpt>
      <trkpt lat="43.63149" lon="7.06348">
        <ele>78.434288024902</ele>
        <time>2016-05-14T11:04:16.000Z</time>
      </trkpt>
      <trkpt lat="43.6315" lon="7.06349">
        <ele>78.519454956055</ele>
        <time>2016-05-14T11:04:19.000Z</time>
      </trkpt>
      <trkpt lat="43.63153" lon="7.06353">
        <ele>78.732292175293</ele>
        <time>2016-05-14T11:04:31.000Z</time>
      </trkpt>
      <trkpt lat="43.63153" lon="7.06353">
        <ele>78.732292175293</ele>
        <time>2016-05-14T11:04:51.000Z</time>
      </trkpt>
      <trkpt lat="43.63153" lon="7.06354">
        <ele>78.935279846191</ele>
        <time>2016-05-14T11:10:27.000Z</time>
      </trkpt>
      <trkpt lat="43.63153" lon="7.06354">
        <ele>78.935279846191</ele>
        <time>2016-05-14T11:10:47.000Z</time>
      </trkpt>
      <trkpt lat="43.63151" lon="7.06352">
        <ele>79.025634765625</ele>
        <time>2016-05-14T11:11:59.000Z</time>
      </trkpt>
      <trkpt lat="43.63148" lon="7.06353">
        <ele>79.14722442627</ele>
        <time>2016-05-14T11:12:13.000Z</time>
      </trkpt>
      <trkpt lat="43.63148" lon="7.06353">
        <ele>79.14722442627</ele>
        <time>2016-05-14T11:12:33.000Z</time>
      </trkpt>
      <trkpt lat="43.63147" lon="7.06358">
        <ele>79.383438110352</ele>
        <time>2016-05-14T11:13:08.000Z</time>
      </trkpt>
      <trkpt lat="43.63147" lon="7.06358">
        <ele>79.383438110352</ele>
        <time>2016-05-14T11:13:28.000Z</time>
      </trkpt>
      <trkpt lat="43.63149" lon="7.06357">
        <ele>79.465431213379</ele>
        <time>2016-05-14T11:14:27.000Z</time>
      </trkpt>
      <trkpt lat="43.63149" lon="7.06357">
        <ele>79.465431213379</ele>
        <time>2016-05-14T11:14:47.000Z</time>
      </trkpt>
      <trkpt lat="43.63147" lon="7.06352">
        <ele>79.361778259277</ele>
        <time>2016-05-14T11:15:39.000Z</time>
      </trkpt>
      <trkpt lat="43.63147" lon="7.06352">
        <ele>79.361778259277</ele>
        <time>2016-05-14T11:15:59.000Z</time>
      </trkpt>
      <trkpt lat="43.63144" lon="7.06351">
        <ele>79.25952911377</ele>
        <time>2016-05-14T11:16:25.000Z</time>
      </trkpt>
      <trkpt lat="43.63144" lon="7.06349">
        <ele>79.126441955566</ele>
        <time>2016-05-14T11:16:27.000Z</time>
      </trkpt>
      <trkpt lat="43.63144" lon="7.06349">
        <ele>79.126441955566</ele>
        <time>2016-05-14T11:16:47.000Z</time>
      </trkpt>
      <trkpt lat="43.63142" lon="7.06352">
        <ele>78.906188964844</ele>
        <time>2016-05-14T11:20:49.000Z</time>
      </trkpt>
      <trkpt lat="43.63142" lon="7.06352">
        <ele>78.906188964844</ele>
        <time>2016-05-14T11:21:09.000Z</time>
      </trkpt>
      <trkpt lat="43.63147" lon="7.06351">
        <ele>78.721572875977</ele>
        <time>2016-05-14T11:23:37.000Z</time>
      </trkpt>
      <trkpt lat="43.63147" lon="7.06351">
        <ele>78.721572875977</ele>
        <time>2016-05-14T11:23:57.000Z</time>
      </trkpt>
      <trkpt lat="43.63148" lon="7.06349">
        <ele>78.630844116211</ele>
        <time>2016-05-14T11:30:03.000Z</time>
      </trkpt>
      <trkpt lat="43.63148" lon="7.06349">
        <ele>78.630844116211</ele>
        <time>2016-05-14T11:30:23.000Z</time>
      </trkpt>
      <trkpt lat="43.63147" lon="7.06345">
        <ele>78.478622436523</ele>
        <time>2016-05-14T11:39:21.000Z</time>
      </trkpt>
      <trkpt lat="43.63146" lon="7.06342">
        <ele>78.274749755859</ele>
        <time>2016-05-14T11:39:24.000Z</time>
      </trkpt>
      <trkpt lat="43.63145" lon="7.06338">
        <ele>77.905899047852</ele>
        <time>2016-05-14T11:39:27.000Z</time>
      </trkpt>
      <trkpt lat="43.63144" lon="7.06335">
        <ele>77.402908325195</ele>
        <time>2016-05-14T11:39:30.000Z</time>
      </trkpt>
      <trkpt lat="43.63142" lon="7.06332">
        <ele>76.93431854248</ele>
        <time>2016-05-14T11:39:32.000Z</time>
      </trkpt>
      <trkpt lat="43.63141" lon="7.06331">
        <ele>76.592407226562</ele>
        <time>2016-05-14T11:39:34.000Z</time>
      </trkpt>
      <trkpt lat="43.63141" lon="7.06325">
        <ele>76.376312255859</ele>
        <time>2016-05-14T11:39:37.000Z</time>
      </trkpt>
      <trkpt lat="43.63141" lon="7.06322">
        <ele>76.284194946289</ele>
        <time>2016-05-14T11:39:40.000Z</time>
      </trkpt>
      <trkpt lat="43.6314" lon="7.06321">
        <ele>76.300399780273</ele>
        <time>2016-05-14T11:39:43.000Z</time>
      </trkpt>
      <trkpt lat="43.63139" lon="7.0632">
        <ele>76.353469848633</ele>
        <time>2016-05-14T11:39:46.000Z</time>
      </trkpt>
      <trkpt lat="43.63134" lon="7.0632">
        <ele>76.383323669434</ele>
        <time>2016-05-14T11:39:49.000Z</time>
      </trkpt>
      <trkpt lat="43.63134" lon="7.06318">
        <ele>76.386520385742</ele>
        <time>2016-05-14T11:39:57.000Z</time>
      </trkpt>
      <trkpt lat="43.63135" lon="7.06318">
        <ele>76.387023925781</ele>
        <time>2016-05-14T11:40:00.000Z</time>
      </trkpt>
      <trkpt lat="43.63138" lon="7.06316">
        <ele>76.409538269043</ele>
        <time>2016-05-14T11:40:03.000Z</time>
      </trkpt>
      <trkpt lat="43.6314" lon="7.06314">
        <ele>76.452857971191</ele>
        <time>2016-05-14T11:40:05.000Z</time>
      </trkpt>
      <trkpt lat="43.63142" lon="7.06312">
        <ele>76.540351867676</ele>
        <time>2016-05-14T11:40:08.000Z</time>
      </trkpt>
      <trkpt lat="43.63144" lon="7.06312">
        <ele>76.625442504883</ele>
        <time>2016-05-14T11:40:11.000Z</time>
      </trkpt>
      <trkpt lat="43.63144" lon="7.06312">
        <ele>76.625442504883</ele>
        <time>2016-05-14T11:40:31.000Z</time>
      </trkpt>
      <trkpt lat="43.63145" lon="7.0631">
        <ele>76.719039916992</ele>
        <time>2016-05-14T11:40:41.000Z</time>
      </trkpt>
      <trkpt lat="43.63148" lon="7.06308">
        <ele>76.808395385742</ele>
        <time>2016-05-14T11:40:43.000Z</time>
      </trkpt>
      <trkpt lat="43.6315" lon="7.06307">
        <ele>76.88752746582</ele>
        <time>2016-05-14T11:40:46.000Z</time>
      </trkpt>
      <trkpt lat="43.63153" lon="7.06302">
        <ele>76.979377746582</ele>
        <time>2016-05-14T11:40:49.000Z</time>
      </trkpt>
      <trkpt lat="43.63157" lon="7.06299">
        <ele>77.083557128906</ele>
        <time>2016-05-14T11:41:05.000Z</time>
      </trkpt>
      <trkpt lat="43.63157" lon="7.06299">
        <ele>77.083557128906</ele>
        <time>2016-05-14T11:41:25.000Z</time>
      </trkpt>
      <trkpt lat="43.63155" lon="7.06292">
        <ele>77.192428588867</ele>
        <time>2016-05-14T11:42:00.000Z</time>
      </trkpt>
      <trkpt lat="43.63151" lon="7.06289">
        <ele>77.287963867188</ele>
        <time>2016-05-14T11:42:17.000Z</time>
      </trkpt>
      <trkpt lat="43.63151" lon="7.06289">
        <ele>77.287963867188</ele>
        <time>2016-05-14T11:42:37.000Z</time>
      </trkpt>
      <trkpt lat="43.63152" lon="7.06295">
        <ele>77.345260620117</ele>
        <time>2016-05-14T11:44:20.000Z</time>
      </trkpt>
      <trkpt lat="43.63155" lon="7.06295">
        <ele>77.375106811523</ele>
        <time>2016-05-14T11:44:26.000Z</time>
      </trkpt>
      <trkpt lat="43.63157" lon="7.06292">
        <ele>77.400291442871</ele>
        <time>2016-05-14T11:44:29.000Z</time>
      </trkpt>
      <trkpt lat="43.6316" lon="7.06289">
        <ele>77.416030883789</ele>
        <time>2016-05-14T11:44:31.000Z</time>
      </trkpt>
      <trkpt lat="43.63164" lon="7.06285">
        <ele>77.438919067383</ele>
        <time>2016-05-14T11:44:34.000Z</time>
      </trkpt>
      <trkpt lat="43.63166" lon="7.06282">
        <ele>77.497817993164</ele>
        <time>2016-05-14T11:44:36.000Z</time>
      </trkpt>
      <trkpt lat="43.63168" lon="7.0628">
        <ele>77.607849121094</ele>
        <time>2016-05-14T11:44:38.000Z</time>
      </trkpt>
      <trkpt lat="43.63168" lon="7.06278">
        <ele>77.707458496094</ele>
        <time>2016-05-14T11:44:41.000Z</time>
      </trkpt>
      <trkpt lat="43.63171" lon="7.06276">
        <ele>77.885154724121</ele>
        <time>2016-05-14T11:44:43.000Z</time>
      </trkpt>
      <trkpt lat="43.63173" lon="7.06275">
        <ele>78.121688842773</ele>
        <time>2016-05-14T11:44:46.000Z</time>
      </trkpt>
      <trkpt lat="43.63174" lon="7.06274">
        <ele>78.423767089844</ele>
        <time>2016-05-14T11:44:49.000Z</time>
      </trkpt>
      <trkpt lat="43.63176" lon="7.0627">
        <ele>78.733024597168</ele>
        <time>2016-05-14T11:44:52.000Z</time>
      </trkpt>
      <trkpt lat="43.63178" lon="7.06269">
        <ele>79.097640991211</ele>
        <time>2016-05-14T11:44:54.000Z</time>
      </trkpt>
      <trkpt lat="43.6318" lon="7.06272">
        <ele>79.451843261719</ele>
        <time>2016-05-14T11:44:57.000Z</time>
      </trkpt>
      <trkpt lat="43.63182" lon="7.06272">
        <ele>79.803756713867</ele>
        <time>2016-05-14T11:44:59.000Z</time>
      </trkpt>
      <trkpt lat="43.63185" lon="7.06265">
        <ele>80.17497253418</ele>
        <time>2016-05-14T11:45:15.000Z</time>
      </trkpt>
      <trkpt lat="43.63186" lon="7.0626">
        <ele>80.513389587402</ele>
        <time>2016-05-14T11:45:17.000Z</time>
      </trkpt>
      <trkpt lat="43.63187" lon="7.06253">
        <ele>80.839561462402</ele>
        <time>2016-05-14T11:45:20.000Z</time>
      </trkpt>
      <trkpt lat="43.63188" lon="7.06245">
        <ele>81.13703918457</ele>
        <time>2016-05-14T11:45:23.000Z</time>
      </trkpt>
      <trkpt lat="43.63188" lon="7.06241">
        <ele>81.386276245117</ele>
        <time>2016-05-14T11:45:25.000Z</time>
      </trkpt>
      <trkpt lat="43.63187" lon="7.06233">
        <ele>81.557594299316</ele>
        <time>2016-05-14T11:45:28.000Z</time>
      </trkpt>
      <trkpt lat="43.63186" lon="7.0623">
        <ele>81.700798034668</ele>
        <time>2016-05-14T11:45:30.000Z</time>
      </trkpt>
      <trkpt lat="43.63186" lon="7.06228">
        <ele>81.795524597168</ele>
        <time>2016-05-14T11:45:32.000Z</time>
      </trkpt>
      <trkpt lat="43.63186" lon="7.06224">
        <ele>81.855621337891</ele>
        <time>2016-05-14T11:45:34.000Z</time>
      </trkpt>
      <trkpt lat="43.63188" lon="7.06219">
        <ele>81.975479125977</ele>
        <time>2016-05-14T11:45:37.000Z</time>
      </trkpt>
      <trkpt lat="43.63186" lon="7.06214">
        <ele>82.051567077637</ele>
        <time>2016-05-14T11:45:40.000Z</time>
      </trkpt>
      <trkpt lat="43.63184" lon="7.06211">
        <ele>82.065963745117</ele>
        <time>2016-05-14T11:45:42.000Z</time>
      </trkpt>
      <trkpt lat="43.63181" lon="7.06208">
        <ele>82.001182556152</ele>
        <time>2016-05-14T11:45:45.000Z</time>
      </trkpt>
      <trkpt lat="43.6318" lon="7.06206">
        <ele>81.897972106934</ele>
        <time>2016-05-14T11:45:47.000Z</time>
      </trkpt>
      <trkpt lat="43.63179" lon="7.06201">
        <ele>81.682884216309</ele>
        <time>2016-05-14T11:45:50.000Z</time>
      </trkpt>
      <trkpt lat="43.63178" lon="7.06198">
        <ele>81.483825683594</ele>
        <time>2016-05-14T11:45:52.000Z</time>
      </trkpt>
      <trkpt lat="43.63178" lon="7.06194">
        <ele>81.360313415527</ele>
        <time>2016-05-14T11:45:54.000Z</time>
      </trkpt>
      <trkpt lat="43.63177" lon="7.06189">
        <ele>81.298713684082</ele>
        <time>2016-05-14T11:45:57.000Z</time>
      </trkpt>
      <trkpt lat="43.63177" lon="7.06188">
        <ele>81.278099060059</ele>
        <time>2016-05-14T11:45:59.000Z</time>
      </trkpt>
      <trkpt lat="43.63176" lon="7.06185">
        <ele>81.271865844727</ele>
        <time>2016-05-14T11:46:01.000Z</time>
      </trkpt>
      <trkpt lat="43.63174" lon="7.06182">
        <ele>81.219863891602</ele>
        <time>2016-05-14T11:46:04.000Z</time>
      </trkpt>
      <trkpt lat="43.63172" lon="7.06181">
        <ele>81.083114624023</ele>
        <time>2016-05-14T11:46:06.000Z</time>
      </trkpt>
      <trkpt lat="43.63168" lon="7.06178">
        <ele>80.838493347168</ele>
        <time>2016-05-14T11:46:09.000Z</time>
      </trkpt>
      <trkpt lat="43.63167" lon="7.06174">
        <ele>80.545036315918</ele>
        <time>2016-05-14T11:46:11.000Z</time>
      </trkpt>
      <trkpt lat="43.63165" lon="7.06171">
        <ele>80.29963684082</ele>
        <time>2016-05-14T11:46:14.000Z</time>
      </trkpt>
      <trkpt lat="43.63165" lon="7.06167">
        <ele>80.145332336426</ele>
        <time>2016-05-14T11:46:16.000Z</time>
      </trkpt>
      <trkpt lat="43.63163" lon="7.06165">
        <ele>80.12833404541</ele>
        <time>2016-05-14T11:46:18.000Z</time>
      </trkpt>
      <trkpt lat="43.6316" lon="7.06161">
        <ele>80.34407043457</ele>
        <time>2016-05-14T11:46:21.000Z</time>
      </trkpt>
      <trkpt lat="43.63157" lon="7.06159">
        <ele>80.665748596191</ele>
        <time>2016-05-14T11:46:23.000Z</time>
      </trkpt>
      <trkpt lat="43.63154" lon="7.06157">
        <ele>81.00952911377</ele>
        <time>2016-05-14T11:46:25.000Z</time>
      </trkpt>
      <trkpt lat="43.63153" lon="7.06155">
        <ele>81.380577087402</ele>
        <time>2016-05-14T11:46:28.000Z</time>
      </trkpt>
      <trkpt lat="43.63152" lon="7.0615">
        <ele>81.754020690918</ele>
        <time>2016-05-14T11:46:31.000Z</time>
      </trkpt>
      <trkpt lat="43.6315" lon="7.0615">
        <ele>82.052131652832</ele>
        <time>2016-05-14T11:46:33.000Z</time>
      </trkpt>
      <trkpt lat="43.63147" lon="7.06147">
        <ele>82.343948364258</ele>
        <time>2016-05-14T11:46:36.000Z</time>
      </trkpt>
      <trkpt lat="43.63147" lon="7.06144">
        <ele>82.623435974121</ele>
        <time>2016-05-14T11:46:38.000Z</time>
      </trkpt>
      <trkpt lat="43.63145" lon="7.06142">
        <ele>82.890243530273</ele>
        <time>2016-05-14T11:46:40.000Z</time>
      </trkpt>
      <trkpt lat="43.63145" lon="7.06137">
        <ele>83.147842407227</ele>
        <time>2016-05-14T11:46:43.000Z</time>
      </trkpt>
      <trkpt lat="43.63145" lon="7.06135">
        <ele>83.399574279785</ele>
        <time>2016-05-14T11:46:45.000Z</time>
      </trkpt>
      <trkpt lat="43.63143" lon="7.06131">
        <ele>83.627914428711</ele>
        <time>2016-05-14T11:46:47.000Z</time>
      </trkpt>
      <trkpt lat="43.63139" lon="7.06128">
        <ele>83.906715393066</ele>
        <time>2016-05-14T11:46:50.000Z</time>
      </trkpt>
      <trkpt lat="43.63136" lon="7.06128">
        <ele>84.177383422852</ele>
        <time>2016-05-14T11:46:52.000Z</time>
      </trkpt>
      <trkpt lat="43.63132" lon="7.06128">
        <ele>84.421157836914</ele>
        <time>2016-05-14T11:46:54.000Z</time>
      </trkpt>
      <trkpt lat="43.63129" lon="7.06128">
        <ele>84.677612304688</ele>
        <time>2016-05-14T11:46:56.000Z</time>
      </trkpt>
      <trkpt lat="43.63127" lon="7.06127">
        <ele>84.929946899414</ele>
        <time>2016-05-14T11:46:59.000Z</time>
      </trkpt>
      <trkpt lat="43.63123" lon="7.06124">
        <ele>85.147613525391</ele>
        <time>2016-05-14T11:47:02.000Z</time>
      </trkpt>
      <trkpt lat="43.63123" lon="7.06122">
        <ele>85.340774536133</ele>
        <time>2016-05-14T11:47:04.000Z</time>
      </trkpt>
      <trkpt lat="43.63123" lon="7.06119">
        <ele>85.518028259277</ele>
        <time>2016-05-14T11:47:06.000Z</time>
      </trkpt>
      <trkpt lat="43.6312" lon="7.06116">
        <ele>85.710647583008</ele>
        <time>2016-05-14T11:47:09.000Z</time>
      </trkpt>
      <trkpt lat="43.63116" lon="7.06114">
        <ele>85.907806396484</ele>
        <time>2016-05-14T11:47:12.000Z</time>
      </trkpt>
      <trkpt lat="43.63113" lon="7.06113">
        <ele>86.084754943848</ele>
        <time>2016-05-14T11:47:15.000Z</time>
      </trkpt>
      <trkpt lat="43.63111" lon="7.06112">
        <ele>86.272842407227</ele>
        <time>2016-05-14T11:47:17.000Z</time>
      </trkpt>
      <trkpt lat="43.63109" lon="7.06108">
        <ele>86.477996826172</ele>
        <time>2016-05-14T11:47:20.000Z</time>
      </trkpt>
      <trkpt lat="43.63107" lon="7.06107">
        <ele>86.654403686523</ele>
        <time>2016-05-14T11:47:23.000Z</time>
      </trkpt>
      <trkpt lat="43.63106" lon="7.06106">
        <ele>86.791664123535</ele>
        <time>2016-05-14T11:47:25.000Z</time>
      </trkpt>
      <trkpt lat="43.63105" lon="7.06104">
        <ele>86.907737731934</ele>
        <time>2016-05-14T11:47:27.000Z</time>
      </trkpt>
      <trkpt lat="43.63103" lon="7.06101">
        <ele>87.024642944336</ele>
        <time>2016-05-14T11:47:30.000Z</time>
      </trkpt>
      <trkpt lat="43.63103" lon="7.06098">
        <ele>87.112030029297</ele>
        <time>2016-05-14T11:47:32.000Z</time>
      </trkpt>
      <trkpt lat="43.63105" lon="7.06094">
        <ele>87.180374145508</ele>
        <time>2016-05-14T11:47:35.000Z</time>
      </trkpt>
      <trkpt lat="43.63102" lon="7.06091">
        <ele>87.262397766113</ele>
        <time>2016-05-14T11:47:37.000Z</time>
      </trkpt>
      <trkpt lat="43.63099" lon="7.06089">
        <ele>87.35009765625</ele>
        <time>2016-05-14T11:47:39.000Z</time>
      </trkpt>
      <trkpt lat="43.63095" lon="7.06086">
        <ele>87.440254211426</ele>
        <time>2016-05-14T11:47:42.000Z</time>
      </trkpt>
      <trkpt lat="43.63093" lon="7.06085">
        <ele>87.536087036133</ele>
        <time>2016-05-14T11:47:44.000Z</time>
      </trkpt>
      <trkpt lat="43.6309" lon="7.0608">
        <ele>87.63410949707</ele>
        <time>2016-05-14T11:47:47.000Z</time>
      </trkpt>
      <trkpt lat="43.63089" lon="7.06074">
        <ele>87.694091796875</ele>
        <time>2016-05-14T11:47:50.000Z</time>
      </trkpt>
      <trkpt lat="43.63089" lon="7.06071">
        <ele>87.72184753418</ele>
        <time>2016-05-14T11:47:52.000Z</time>
      </trkpt>
      <trkpt lat="43.63089" lon="7.06067">
        <ele>87.707290649414</ele>
        <time>2016-05-14T11:47:55.000Z</time>
      </trkpt>
      <trkpt lat="43.63088" lon="7.06064">
        <ele>87.668991088867</ele>
        <time>2016-05-14T11:48:01.000Z</time>
      </trkpt>
      <trkpt lat="43.63086" lon="7.06061">
        <ele>87.608039855957</ele>
        <time>2016-05-14T11:48:04.000Z</time>
      </trkpt>
      <trkpt lat="43.63083" lon="7.06057">
        <ele>87.592247009277</ele>
        <time>2016-05-14T11:48:07.000Z</time>
      </trkpt>
      <trkpt lat="43.63079" lon="7.06053">
        <ele>87.916137695312</ele>
        <time>2016-05-14T11:48:10.000Z</time>
      </trkpt>
      <trkpt lat="43.63077" lon="7.06052">
        <ele>88.385208129883</ele>
        <time>2016-05-14T11:48:12.000Z</time>
      </trkpt>
      <trkpt lat="43.63075" lon="7.06049">
        <ele>88.99641418457</ele>
        <time>2016-05-14T11:48:15.000Z</time>
      </trkpt>
      <trkpt lat="43.63075" lon="7.06046">
        <ele>89.611717224121</ele>
        <time>2016-05-14T11:48:18.000Z</time>
      </trkpt>
      <trkpt lat="43.63076" lon="7.06043">
        <ele>90.079002380371</ele>
        <time>2016-05-14T11:48:21.000Z</time>
      </trkpt>
      <trkpt lat="43.63079" lon="7.0604">
        <ele>90.027725219727</ele>
        <time>2016-05-14T11:48:23.000Z</time>
      </trkpt>
      <trkpt lat="43.63083" lon="7.06036">
        <ele>89.432228088379</ele>
        <time>2016-05-14T11:48:26.000Z</time>
      </trkpt>
      <trkpt lat="43.63084" lon="7.06032">
        <ele>88.669639587402</ele>
        <time>2016-05-14T11:48:29.000Z</time>
      </trkpt>
      <trkpt lat="43.63083" lon="7.0603">
        <ele>87.960121154785</ele>
        <time>2016-05-14T11:48:31.000Z</time>
      </trkpt>
      <trkpt lat="43.63083" lon="7.06027">
        <ele>87.354156494141</ele>
        <time>2016-05-14T11:48:34.000Z</time>
      </trkpt>
      <trkpt lat="43.63081" lon="7.06023">
        <ele>87.103851318359</ele>
        <time>2016-05-14T11:48:37.000Z</time>
      </trkpt>
      <trkpt lat="43.63078" lon="7.0602">
        <ele>87.477600097656</ele>
        <time>2016-05-14T11:48:40.000Z</time>
      </trkpt>
      <trkpt lat="43.63076" lon="7.06017">
        <ele>88.025466918945</ele>
        <time>2016-05-14T11:48:43.000Z</time>
      </trkpt>
      <trkpt lat="43.63075" lon="7.06015">
        <ele>88.636268615723</ele>
        <time>2016-05-14T11:48:45.000Z</time>
      </trkpt>
      <trkpt lat="43.63074" lon="7.06011">
        <ele>89.400901794434</ele>
        <time>2016-05-14T11:48:48.000Z</time>
      </trkpt>
      <trkpt lat="43.63074" lon="7.06006">
        <ele>89.983383178711</ele>
        <time>2016-05-14T11:48:51.000Z</time>
      </trkpt>
      <trkpt lat="43.63074" lon="7.06004">
        <ele>90.308708190918</ele>
        <time>2016-05-14T11:48:53.000Z</time>
      </trkpt>
      <trkpt lat="43.63074" lon="7.06001">
        <ele>90.486740112305</ele>
        <time>2016-05-14T11:48:56.000Z</time>
      </trkpt>
      <trkpt lat="43.63074" lon="7.05997">
        <ele>90.577865600586</ele>
        <time>2016-05-14T11:48:59.000Z</time>
      </trkpt>
      <trkpt lat="43.63075" lon="7.05994">
        <ele>90.353591918945</ele>
        <time>2016-05-14T11:49:01.000Z</time>
      </trkpt>
      <trkpt lat="43.63075" lon="7.05991">
        <ele>90.124954223633</ele>
        <time>2016-05-14T11:49:03.000Z</time>
      </trkpt>
      <trkpt lat="43.63076" lon="7.05986">
        <ele>89.836441040039</ele>
        <time>2016-05-14T11:49:06.000Z</time>
      </trkpt>
      <trkpt lat="43.63077" lon="7.0598">
        <ele>89.442474365234</ele>
        <time>2016-05-14T11:49:09.000Z</time>
      </trkpt>
      <trkpt lat="43.63079" lon="7.05976">
        <ele>88.856964111328</ele>
        <time>2016-05-14T11:49:12.000Z</time>
      </trkpt>
      <trkpt lat="43.63079" lon="7.05973">
        <ele>88.392074584961</ele>
        <time>2016-05-14T11:49:14.000Z</time>
      </trkpt>
      <trkpt lat="43.63078" lon="7.05969">
        <ele>88.072425842285</ele>
        <time>2016-05-14T11:49:17.000Z</time>
      </trkpt>
      <trkpt lat="43.63078" lon="7.05967">
        <ele>87.810470581055</ele>
        <time>2016-05-14T11:49:19.000Z</time>
      </trkpt>
      <trkpt lat="43.63079" lon="7.05964">
        <ele>87.532188415527</ele>
        <time>2016-05-14T11:49:22.000Z</time>
      </trkpt>
      <trkpt lat="43.63078" lon="7.0596">
        <ele>87.516761779785</ele>
        <time>2016-05-14T11:49:25.000Z</time>
      </trkpt>
      <trkpt lat="43.63076" lon="7.05958">
        <ele>87.723670959473</ele>
        <time>2016-05-14T11:49:28.000Z</time>
      </trkpt>
      <trkpt lat="43.63075" lon="7.05954">
        <ele>87.815505981445</ele>
        <time>2016-05-14T11:49:31.000Z</time>
      </trkpt>
      <trkpt lat="43.63077" lon="7.0595">
        <ele>87.78857421875</ele>
        <time>2016-05-14T11:49:34.000Z</time>
      </trkpt>
      <trkpt lat="43.63079" lon="7.05947">
        <ele>87.696067810059</ele>
        <time>2016-05-14T11:49:37.000Z</time>
      </trkpt>
      <trkpt lat="43.63079" lon="7.05944">
        <ele>87.45906829834</ele>
        <time>2016-05-14T11:49:40.000Z</time>
      </trkpt>
      <trkpt lat="43.63081" lon="7.05941">
        <ele>86.899375915527</ele>
        <time>2016-05-14T11:49:42.000Z</time>
      </trkpt>
      <trkpt lat="43.63083" lon="7.05939">
        <ele>86.177345275879</ele>
        <time>2016-05-14T11:49:44.000Z</time>
      </trkpt>
      <trkpt lat="43.63083" lon="7.05936">
        <ele>85.609817504883</ele>
        <time>2016-05-14T11:49:46.000Z</time>
      </trkpt>
      <trkpt lat="43.63083" lon="7.05936">
        <ele>85.609817504883</ele>
        <time>2016-05-14T11:50:06.000Z</time>
      </trkpt>
      <trkpt lat="43.63087" lon="7.0593">
        <ele>85.21263885498</ele>
        <time>2016-05-14T11:50:51.000Z</time>
      </trkpt>
      <trkpt lat="43.63089" lon="7.05925">
        <ele>84.874336242676</ele>
        <time>2016-05-14T11:50:54.000Z</time>
      </trkpt>
      <trkpt lat="43.63093" lon="7.05918">
        <ele>84.71272277832</ele>
        <time>2016-05-14T11:50:57.000Z</time>
      </trkpt>
      <trkpt lat="43.63096" lon="7.05912">
        <ele>84.779762268066</ele>
        <time>2016-05-14T11:51:00.000Z</time>
      </trkpt>
      <trkpt lat="43.63097" lon="7.05909">
        <ele>84.915390014648</ele>
        <time>2016-05-14T11:51:02.000Z</time>
      </trkpt>
      <trkpt lat="43.63101" lon="7.05905">
        <ele>85.155616760254</ele>
        <time>2016-05-14T11:51:05.000Z</time>
      </trkpt>
      <trkpt lat="43.63102" lon="7.05903">
        <ele>85.421737670898</ele>
        <time>2016-05-14T11:51:07.000Z</time>
      </trkpt>
      <trkpt lat="43.63103" lon="7.059">
        <ele>85.708999633789</ele>
        <time>2016-05-14T11:51:09.000Z</time>
      </trkpt>
      <trkpt lat="43.63105" lon="7.05896">
        <ele>85.95824432373</ele>
        <time>2016-05-14T11:51:12.000Z</time>
      </trkpt>
      <trkpt lat="43.63105" lon="7.05893">
        <ele>86.178604125977</ele>
        <time>2016-05-14T11:51:30.000Z</time>
      </trkpt>
      <trkpt lat="43.63113" lon="7.05888">
        <ele>86.410942077637</ele>
        <time>2016-05-14T11:51:33.000Z</time>
      </trkpt>
      <trkpt lat="43.63117" lon="7.05882">
        <ele>86.664077758789</ele>
        <time>2016-05-14T11:51:36.000Z</time>
      </trkpt>
      <trkpt lat="43.6312" lon="7.05881">
        <ele>86.890823364258</ele>
        <time>2016-05-14T11:51:38.000Z</time>
      </trkpt>
      <trkpt lat="43.63124" lon="7.05876">
        <ele>87.106239318848</ele>
        <time>2016-05-14T11:51:41.000Z</time>
      </trkpt>
      <trkpt lat="43.63125" lon="7.05875">
        <ele>87.300636291504</ele>
        <time>2016-05-14T11:51:43.000Z</time>
      </trkpt>
      <trkpt lat="43.63127" lon="7.05875">
        <ele>87.408981323242</ele>
        <time>2016-05-14T11:51:45.000Z</time>
      </trkpt>
      <trkpt lat="43.63129" lon="7.05873">
        <ele>87.473838806152</ele>
        <time>2016-05-14T11:51:47.000Z</time>
      </trkpt>
      <trkpt lat="43.6313" lon="7.05873">
        <ele>87.52449798584</ele>
        <time>2016-05-14T11:51:49.000Z</time>
      </trkpt>
      <trkpt lat="43.63132" lon="7.05871">
        <ele>87.55004119873</ele>
        <time>2016-05-14T11:51:52.000Z</time>
      </trkpt>
      <trkpt lat="43.63134" lon="7.05869">
        <ele>87.570762634277</ele>
        <time>2016-05-14T11:51:54.000Z</time>
      </trkpt>
      <trkpt lat="43.63137" lon="7.05865">
        <ele>87.583450317383</ele>
        <time>2016-05-14T11:51:57.000Z</time>
      </trkpt>
      <trkpt lat="43.6314" lon="7.05864">
        <ele>87.587112426758</ele>
        <time>2016-05-14T11:51:59.000Z</time>
      </trkpt>
      <trkpt lat="43.63142" lon="7.05865">
        <ele>87.588821411133</ele>
        <time>2016-05-14T11:52:02.000Z</time>
      </trkpt>
      <trkpt lat="43.63144" lon="7.05864">
        <ele>87.58349609375</ele>
        <time>2016-05-14T11:52:04.000Z</time>
      </trkpt>
      <trkpt lat="43.63145" lon="7.05863">
        <ele>87.570121765137</ele>
        <time>2016-05-14T11:52:06.000Z</time>
      </trkpt>
      <trkpt lat="43.63146" lon="7.05862">
        <ele>87.554443359375</ele>
        <time>2016-05-14T11:52:08.000Z</time>
      </trkpt>
      <trkpt lat="43.63147" lon="7.05862">
        <ele>87.541847229004</ele>
        <time>2016-05-14T11:52:11.000Z</time>
      </trkpt>
      <trkpt lat="43.63148" lon="7.05864">
        <ele>87.532821655273</ele>
        <time>2016-05-14T11:52:18.000Z</time>
      </trkpt>
      <trkpt lat="43.6315" lon="7.05863">
        <ele>87.522994995117</ele>
        <time>2016-05-14T11:52:21.000Z</time>
      </trkpt>
      <trkpt lat="43.63152" lon="7.05862">
        <ele>87.509391784668</ele>
        <time>2016-05-14T11:52:23.000Z</time>
      </trkpt>
      <trkpt lat="43.63155" lon="7.0586">
        <ele>87.482345581055</ele>
        <time>2016-05-14T11:52:26.000Z</time>
      </trkpt>
      <trkpt lat="43.63159" lon="7.05858">
        <ele>87.434524536133</ele>
        <time>2016-05-14T11:52:28.000Z</time>
      </trkpt>
      <trkpt lat="43.63164" lon="7.05856">
        <ele>87.35823059082</ele>
        <time>2016-05-14T11:52:31.000Z</time>
      </trkpt>
      <trkpt lat="43.63166" lon="7.05856">
        <ele>87.273208618164</ele>
        <time>2016-05-14T11:52:33.000Z</time>
      </trkpt>
      <trkpt lat="43.63169" lon="7.05855">
        <ele>87.268867492676</ele>
        <time>2016-05-14T11:52:36.000Z</time>
      </trkpt>
      <trkpt lat="43.63171" lon="7.05857">
        <ele>87.35311126709</ele>
        <time>2016-05-14T11:52:38.000Z</time>
      </trkpt>
      <trkpt lat="43.63173" lon="7.05857">
        <ele>87.503227233887</ele>
        <time>2016-05-14T11:52:40.000Z</time>
      </trkpt>
      <trkpt lat="43.63175" lon="7.05857">
        <ele>87.74437713623</ele>
        <time>2016-05-14T11:52:43.000Z</time>
      </trkpt>
      <trkpt lat="43.63179" lon="7.05855">
        <ele>88.091690063477</ele>
        <time>2016-05-14T11:52:46.000Z</time>
      </trkpt>
      <trkpt lat="43.63182" lon="7.05851">
        <ele>88.379013061523</ele>
        <time>2016-05-14T11:52:48.000Z</time>
      </trkpt>
      <trkpt lat="43.63184" lon="7.05846">
        <ele>88.574081420898</ele>
        <time>2016-05-14T11:52:51.000Z</time>
      </trkpt>
      <trkpt lat="43.63184" lon="7.05843">
        <ele>88.696105957031</ele>
        <time>2016-05-14T11:52:54.000Z</time>
      </trkpt>
      <trkpt lat="43.63185" lon="7.05843">
        <ele>88.782180786133</ele>
        <time>2016-05-14T11:52:58.000Z</time>
      </trkpt>
      <trkpt lat="43.63186" lon="7.05843">
        <ele>88.800827026367</ele>
        <time>2016-05-14T11:53:01.000Z</time>
      </trkpt>
      <trkpt lat="43.63186" lon="7.05841">
        <ele>88.78050994873</ele>
        <time>2016-05-14T11:53:04.000Z</time>
      </trkpt>
      <trkpt lat="43.63186" lon="7.05839">
        <ele>88.741355895996</ele>
        <time>2016-05-14T11:53:07.000Z</time>
      </trkpt>
      <trkpt lat="43.63188" lon="7.05838">
        <ele>88.73713684082</ele>
        <time>2016-05-14T11:53:10.000Z</time>
      </trkpt>
      <trkpt lat="43.63188" lon="7.05838">
        <ele>88.73713684082</ele>
        <time>2016-05-14T11:53:30.000Z</time>
      </trkpt>
      <trkpt lat="43.63189" lon="7.05834">
        <ele>88.664710998535</ele>
        <time>2016-05-14T11:54:22.000Z</time>
      </trkpt>
      <trkpt lat="43.63193" lon="7.05833">
        <ele>88.661033630371</ele>
        <time>2016-05-14T11:54:25.000Z</time>
      </trkpt>
      <trkpt lat="43.63199" lon="7.05832">
        <ele>88.823120117188</ele>
        <time>2016-05-14T11:54:28.000Z</time>
      </trkpt>
      <trkpt lat="43.63204" lon="7.05833">
        <ele>89.123733520508</ele>
        <time>2016-05-14T11:54:31.000Z</time>
      </trkpt>
      <trkpt lat="43.63208" lon="7.05835">
        <ele>89.548988342285</ele>
        <time>2016-05-14T11:54:34.000Z</time>
      </trkpt>
      <trkpt lat="43.63212" lon="7.05837">
        <ele>90.122604370117</ele>
        <time>2016-05-14T11:54:37.000Z</time>
      </trkpt>
      <trkpt lat="43.63213" lon="7.05838">
        <ele>90.653144836426</ele>
        <time>2016-05-14T11:54:39.000Z</time>
      </trkpt>
      <trkpt lat="43.63215" lon="7.05838">
        <ele>91.113220214844</ele>
        <time>2016-05-14T11:54:41.000Z</time>
      </trkpt>
      <trkpt lat="43.63217" lon="7.05838">
        <ele>91.513610839844</ele>
        <time>2016-05-14T11:54:43.000Z</time>
      </trkpt>
      <trkpt lat="43.63221" lon="7.05836">
        <ele>91.826553344727</ele>
        <time>2016-05-14T11:54:46.000Z</time>
      </trkpt>
      <trkpt lat="43.63225" lon="7.05832">
        <ele>92.023414611816</ele>
        <time>2016-05-14T11:54:49.000Z</time>
      </trkpt>
      <trkpt lat="43.63226" lon="7.0583">
        <ele>92.19026184082</ele>
        <time>2016-05-14T11:54:51.000Z</time>
      </trkpt>
      <trkpt lat="43.63227" lon="7.05828">
        <ele>92.326904296875</ele>
        <time>2016-05-14T11:54:54.000Z</time>
      </trkpt>
      <trkpt lat="43.63227" lon="7.05825">
        <ele>92.437767028809</ele>
        <time>2016-05-14T11:54:56.000Z</time>
      </trkpt>
      <trkpt lat="43.63231" lon="7.05821">
        <ele>92.559425354004</ele>
        <time>2016-05-14T11:54:59.000Z</time>
      </trkpt>
      <trkpt lat="43.63232" lon="7.05821">
        <ele>92.711051940918</ele>
        <time>2016-05-14T11:55:02.000Z</time>
      </trkpt>
      <trkpt lat="43.63238" lon="7.05819">
        <ele>92.916931152344</ele>
        <time>2016-05-14T11:55:04.000Z</time>
      </trkpt>
      <trkpt lat="43.63241" lon="7.05813">
        <ele>93.107521057129</ele>
        <time>2016-05-14T11:55:18.000Z</time>
      </trkpt>
      <trkpt lat="43.6324" lon="7.05808">
        <ele>93.251976013184</ele>
        <time>2016-05-14T11:55:21.000Z</time>
      </trkpt>
      <trkpt lat="43.63239" lon="7.05802">
        <ele>93.299880981445</ele>
        <time>2016-05-14T11:55:24.000Z</time>
      </trkpt>
      <trkpt lat="43.63241" lon="7.05794">
        <ele>93.292755126953</ele>
        <time>2016-05-14T11:55:27.000Z</time>
      </trkpt>
      <trkpt lat="43.63241" lon="7.05787">
        <ele>93.172607421875</ele>
        <time>2016-05-14T11:55:30.000Z</time>
      </trkpt>
      <trkpt lat="43.63243" lon="7.05779">
        <ele>92.981369018555</ele>
        <time>2016-05-14T11:55:33.000Z</time>
      </trkpt>
      <trkpt lat="43.63242" lon="7.05773">
        <ele>92.797004699707</ele>
        <time>2016-05-14T11:55:36.000Z</time>
      </trkpt>
      <trkpt lat="43.63239" lon="7.05767">
        <ele>92.654754638672</ele>
        <time>2016-05-14T11:55:39.000Z</time>
      </trkpt>
      <trkpt lat="43.63238" lon="7.05763">
        <ele>92.536804199219</ele>
        <time>2016-05-14T11:55:41.000Z</time>
      </trkpt>
      <trkpt lat="43.63237" lon="7.05756">
        <ele>92.443618774414</ele>
        <time>2016-05-14T11:55:44.000Z</time>
      </trkpt>
      <trkpt lat="43.63236" lon="7.05751">
        <ele>92.398147583008</ele>
        <time>2016-05-14T11:55:46.000Z</time>
      </trkpt>
      <trkpt lat="43.63235" lon="7.05747">
        <ele>92.41064453125</ele>
        <time>2016-05-14T11:55:48.000Z</time>
      </trkpt>
      <trkpt lat="43.63232" lon="7.05742">
        <ele>92.499855041504</ele>
        <time>2016-05-14T11:55:51.000Z</time>
      </trkpt>
      <trkpt lat="43.63231" lon="7.05738">
        <ele>92.629989624023</ele>
        <time>2016-05-14T11:55:54.000Z</time>
      </trkpt>
      <trkpt lat="43.6323" lon="7.05736">
        <ele>92.794235229492</ele>
        <time>2016-05-14T11:55:56.000Z</time>
      </trkpt>
      <trkpt lat="43.63229" lon="7.05733">
        <ele>92.975738525391</ele>
        <time>2016-05-14T11:55:58.000Z</time>
      </trkpt>
      <trkpt lat="43.63227" lon="7.05731">
        <ele>93.173881530762</ele>
        <time>2016-05-14T11:56:01.000Z</time>
      </trkpt>
      <trkpt lat="43.63225" lon="7.05729">
        <ele>93.340255737305</ele>
        <time>2016-05-14T11:56:03.000Z</time>
      </trkpt>
      <trkpt lat="43.63223" lon="7.05725">
        <ele>93.530822753906</ele>
        <time>2016-05-14T11:56:06.000Z</time>
      </trkpt>
      <trkpt lat="43.63221" lon="7.05724">
        <ele>93.736404418945</ele>
        <time>2016-05-14T11:56:08.000Z</time>
      </trkpt>
      <trkpt lat="43.63221" lon="7.05721">
        <ele>93.944900512695</ele>
        <time>2016-05-14T11:56:11.000Z</time>
      </trkpt>
      <trkpt lat="43.6322" lon="7.05719">
        <ele>94.119979858398</ele>
        <time>2016-05-14T11:56:13.000Z</time>
      </trkpt>
      <trkpt lat="43.63219" lon="7.05715">
        <ele>94.278549194336</ele>
        <time>2016-05-14T11:56:16.000Z</time>
      </trkpt>
      <trkpt lat="43.63218" lon="7.05712">
        <ele>94.427185058594</ele>
        <time>2016-05-14T11:56:19.000Z</time>
      </trkpt>
      <trkpt lat="43.63213" lon="7.05707">
        <ele>94.640686035156</ele>
        <time>2016-05-14T11:56:33.000Z</time>
      </trkpt>
      <trkpt lat="43.6321" lon="7.05703">
        <ele>94.924110412598</ele>
        <time>2016-05-14T11:56:36.000Z</time>
      </trkpt>
      <trkpt lat="43.63206" lon="7.057">
        <ele>95.273124694824</ele>
        <time>2016-05-14T11:56:38.000Z</time>
      </trkpt>
      <trkpt lat="43.63203" lon="7.05694">
        <ele>95.690078735352</ele>
        <time>2016-05-14T11:56:41.000Z</time>
      </trkpt>
      <trkpt lat="43.63201" lon="7.0569">
        <ele>96.106407165527</ele>
        <time>2016-05-14T11:56:43.000Z</time>
      </trkpt>
      <trkpt lat="43.63199" lon="7.05684">
        <ele>96.484313964844</ele>
        <time>2016-05-14T11:56:46.000Z</time>
      </trkpt>
      <trkpt lat="43.63198" lon="7.05681">
        <ele>96.814170837402</ele>
        <time>2016-05-14T11:56:48.000Z</time>
      </trkpt>
      <trkpt lat="43.63197" lon="7.05678">
        <ele>97.102378845215</ele>
        <time>2016-05-14T11:56:50.000Z</time>
      </trkpt>
      <trkpt lat="43.63196" lon="7.05674">
        <ele>97.324974060059</ele>
        <time>2016-05-14T11:56:52.000Z</time>
      </trkpt>
      <trkpt lat="43.63196" lon="7.05672">
        <ele>97.50602722168</ele>
        <time>2016-05-14T11:56:55.000Z</time>
      </trkpt>
      <trkpt lat="43.63194" lon="7.05666">
        <ele>97.688278198242</ele>
        <time>2016-05-14T11:57:07.000Z</time>
      </trkpt>
      <trkpt lat="43.63195" lon="7.05661">
        <ele>97.754272460938</ele>
        <time>2016-05-14T11:57:09.000Z</time>
      </trkpt>
      <trkpt lat="43.63198" lon="7.05656">
        <ele>97.694435119629</ele>
        <time>2016-05-14T11:57:12.000Z</time>
      </trkpt>
      <trkpt lat="43.63199" lon="7.05653">
        <ele>97.553749084473</ele>
        <time>2016-05-14T11:57:14.000Z</time>
      </trkpt>
      <trkpt lat="43.63198" lon="7.05645">
        <ele>97.358276367188</ele>
        <time>2016-05-14T11:57:17.000Z</time>
      </trkpt>
      <trkpt lat="43.63197" lon="7.05641">
        <ele>97.089256286621</ele>
        <time>2016-05-14T11:57:19.000Z</time>
      </trkpt>
      <trkpt lat="43.63198" lon="7.05636">
        <ele>96.845809936523</ele>
        <time>2016-05-14T11:57:22.000Z</time>
      </trkpt>
      <trkpt lat="43.63197" lon="7.05633">
        <ele>96.680595397949</ele>
        <time>2016-05-14T11:57:25.000Z</time>
      </trkpt>
      <trkpt lat="43.63196" lon="7.0563">
        <ele>96.562377929688</ele>
        <time>2016-05-14T11:57:28.000Z</time>
      </trkpt>
      <trkpt lat="43.63198" lon="7.05625">
        <ele>96.419456481934</ele>
        <time>2016-05-14T11:57:31.000Z</time>
      </trkpt>
      <trkpt lat="43.632" lon="7.05623">
        <ele>96.251525878906</ele>
        <time>2016-05-14T11:57:33.000Z</time>
      </trkpt>
      <trkpt lat="43.63202" lon="7.05618">
        <ele>96.061889648438</ele>
        <time>2016-05-14T11:57:36.000Z</time>
      </trkpt>
      <trkpt lat="43.63203" lon="7.05613">
        <ele>95.829460144043</ele>
        <time>2016-05-14T11:57:39.000Z</time>
      </trkpt>
      <trkpt lat="43.63204" lon="7.05609">
        <ele>95.556846618652</ele>
        <time>2016-05-14T11:57:42.000Z</time>
      </trkpt>
      <trkpt lat="43.63205" lon="7.05606">
        <ele>95.326553344727</ele>
        <time>2016-05-14T11:57:44.000Z</time>
      </trkpt>
      <trkpt lat="43.63205" lon="7.05603">
        <ele>95.107566833496</ele>
        <time>2016-05-14T11:57:46.000Z</time>
      </trkpt>
      <trkpt lat="43.63205" lon="7.05599">
        <ele>94.935104370117</ele>
        <time>2016-05-14T11:57:48.000Z</time>
      </trkpt>
      <trkpt lat="43.63205" lon="7.05595">
        <ele>94.790199279785</ele>
        <time>2016-05-14T11:57:51.000Z</time>
      </trkpt>
      <trkpt lat="43.63206" lon="7.05594">
        <ele>94.67488861084</ele>
        <time>2016-05-14T11:57:53.000Z</time>
      </trkpt>
      <trkpt lat="43.63205" lon="7.05591">
        <ele>94.575408935547</ele>
        <time>2016-05-14T11:57:56.000Z</time>
      </trkpt>
      <trkpt lat="43.63205" lon="7.05586">
        <ele>94.464073181152</ele>
        <time>2016-05-14T11:57:59.000Z</time>
      </trkpt>
      <trkpt lat="43.63205" lon="7.05582">
        <ele>94.371292114258</ele>
        <time>2016-05-14T11:58:01.000Z</time>
      </trkpt>
      <trkpt lat="43.63206" lon="7.05576">
        <ele>94.325233459473</ele>
        <time>2016-05-14T11:58:04.000Z</time>
      </trkpt>
      <trkpt lat="43.63205" lon="7.05573">
        <ele>94.315795898438</ele>
        <time>2016-05-14T11:58:06.000Z</time>
      </trkpt>
      <trkpt lat="43.63205" lon="7.0557">
        <ele>94.339996337891</ele>
        <time>2016-05-14T11:58:08.000Z</time>
      </trkpt>
      <trkpt lat="43.63205" lon="7.05565">
        <ele>94.425193786621</ele>
        <time>2016-05-14T11:58:11.000Z</time>
      </trkpt>
      <trkpt lat="43.63205" lon="7.05563">
        <ele>94.525672912598</ele>
        <time>2016-05-14T11:58:13.000Z</time>
      </trkpt>
      <trkpt lat="43.63206" lon="7.05558">
        <ele>94.622001647949</ele>
        <time>2016-05-14T11:58:16.000Z</time>
      </trkpt>
      <trkpt lat="43.63207" lon="7.05555">
        <ele>94.685485839844</ele>
        <time>2016-05-14T11:58:18.000Z</time>
      </trkpt>
      <trkpt lat="43.63208" lon="7.05553">
        <ele>94.731536865234</ele>
        <time>2016-05-14T11:58:20.000Z</time>
      </trkpt>
      <trkpt lat="43.63208" lon="7.0555">
        <ele>94.764358520508</ele>
        <time>2016-05-14T11:58:23.000Z</time>
      </trkpt>
      <trkpt lat="43.63204" lon="7.05548">
        <ele>94.85612487793</ele>
        <time>2016-05-14T11:58:31.000Z</time>
      </trkpt>
      <trkpt lat="43.63206" lon="7.05543">
        <ele>94.926086425781</ele>
        <time>2016-05-14T11:58:42.000Z</time>
      </trkpt>
      <trkpt lat="43.63206" lon="7.05543">
        <ele>94.926086425781</ele>
        <time>2016-05-14T11:59:02.000Z</time>
      </trkpt>
      <trkpt lat="43.6321" lon="7.05541">
        <ele>94.95955657959</ele>
        <time>2016-05-14T11:59:52.000Z</time>
      </trkpt>
      <trkpt lat="43.63211" lon="7.05541">
        <ele>94.970359802246</ele>
        <time>2016-05-14T11:59:54.000Z</time>
      </trkpt>
      <trkpt lat="43.63214" lon="7.05539">
        <ele>94.931770324707</ele>
        <time>2016-05-14T11:59:56.000Z</time>
      </trkpt>
      <trkpt lat="43.63217" lon="7.05539">
        <ele>94.784042358398</ele>
        <time>2016-05-14T11:59:59.000Z</time>
      </trkpt>
      <trkpt lat="43.63219" lon="7.0554">
        <ele>94.607421875</ele>
        <time>2016-05-14T12:00:01.000Z</time>
      </trkpt>
      <trkpt lat="43.63221" lon="7.05541">
        <ele>94.449310302734</ele>
        <time>2016-05-14T12:00:03.000Z</time>
      </trkpt>
      <trkpt lat="43.63221" lon="7.05542">
        <ele>94.296905517578</ele>
        <time>2016-05-14T12:00:05.000Z</time>
      </trkpt>
      <trkpt lat="43.63218" lon="7.05546">
        <ele>94.222579956055</ele>
        <time>2016-05-14T12:00:12.000Z</time>
      </trkpt>
      <trkpt lat="43.63216" lon="7.05545">
        <ele>94.210914611816</ele>
        <time>2016-05-14T12:00:20.000Z</time>
      </trkpt>
      <trkpt lat="43.63213" lon="7.05545">
        <ele>94.280616760254</ele>
        <time>2016-05-14T12:00:23.000Z</time>
      </trkpt>
      <trkpt lat="43.6321" lon="7.05545">
        <ele>94.42170715332</ele>
        <time>2016-05-14T12:00:26.000Z</time>
      </trkpt>
      <trkpt lat="43.63206" lon="7.05545">
        <ele>94.622764587402</ele>
        <time>2016-05-14T12:00:29.000Z</time>
      </trkpt>
      <trkpt lat="43.63204" lon="7.05545">
        <ele>94.811431884766</ele>
        <time>2016-05-14T12:00:31.000Z</time>
      </trkpt>
      <trkpt lat="43.63203" lon="7.05545">
        <ele>94.991928100586</ele>
        <time>2016-05-14T12:00:34.000Z</time>
      </trkpt>
      <trkpt lat="43.63203" lon="7.05545">
        <ele>94.991928100586</ele>
        <time>2016-05-14T12:00:54.000Z</time>
      </trkpt>
      <trkpt lat="43.63205" lon="7.05544">
        <ele>95.109367370605</ele>
        <time>2016-05-14T12:00:56.000Z</time>
      </trkpt>
      <trkpt lat="43.63206" lon="7.05543">
        <ele>95.169212341309</ele>
        <time>2016-05-14T12:01:12.000Z</time>
      </trkpt>
      <trkpt lat="43.63206" lon="7.05543">
        <ele>95.169212341309</ele>
        <time>2016-05-14T12:01:32.000Z</time>
      </trkpt>
      <trkpt lat="43.63208" lon="7.05544">
        <ele>95.151077270508</ele>
        <time>2016-05-14T12:01:41.000Z</time>
      </trkpt>
      <trkpt lat="43.63208" lon="7.05541">
        <ele>95.126022338867</ele>
        <time>2016-05-14T12:01:44.000Z</time>
      </trkpt>
      <trkpt lat="43.63208" lon="7.05539">
        <ele>95.083938598633</ele>
        <time>2016-05-14T12:01:46.000Z</time>
      </trkpt>
      <trkpt lat="43.6321" lon="7.05538">
        <ele>95.046020507812</ele>
        <time>2016-05-14T12:01:49.000Z</time>
      </trkpt>
      <trkpt lat="43.6321" lon="7.05536">
        <ele>95.013710021973</ele>
        <time>2016-05-14T12:01:52.000Z</time>
      </trkpt>
      <trkpt lat="43.63211" lon="7.05538">
        <ele>94.999855041504</ele>
        <time>2016-05-14T12:01:57.000Z</time>
      </trkpt>
      <trkpt lat="43.63212" lon="7.05533">
        <ele>94.973785400391</ele>
        <time>2016-05-14T12:02:01.000Z</time>
      </trkpt>
      <trkpt lat="43.63215" lon="7.0553">
        <ele>94.90869140625</ele>
        <time>2016-05-14T12:02:03.000Z</time>
      </trkpt>
      <trkpt lat="43.63217" lon="7.05527">
        <ele>94.839797973633</ele>
        <time>2016-05-14T12:02:05.000Z</time>
      </trkpt>
      <trkpt lat="43.6322" lon="7.05523">
        <ele>94.74698638916</ele>
        <time>2016-05-14T12:02:08.000Z</time>
      </trkpt>
      <trkpt lat="43.6322" lon="7.05521">
        <ele>94.667152404785</ele>
        <time>2016-05-14T12:02:11.000Z</time>
      </trkpt>
      <trkpt lat="43.63222" lon="7.05518">
        <ele>94.554344177246</ele>
        <time>2016-05-14T12:02:13.000Z</time>
      </trkpt>
      <trkpt lat="43.63224" lon="7.05515">
        <ele>94.466125488281</ele>
        <time>2016-05-14T12:02:16.000Z</time>
      </trkpt>
      <trkpt lat="43.63226" lon="7.05514">
        <ele>94.358779907227</ele>
        <time>2016-05-14T12:02:18.000Z</time>
      </trkpt>
      <trkpt lat="43.63227" lon="7.05515">
        <ele>94.258262634277</ele>
        <time>2016-05-14T12:02:21.000Z</time>
      </trkpt>
      <trkpt lat="43.63229" lon="7.05514">
        <ele>94.132682800293</ele>
        <time>2016-05-14T12:02:23.000Z</time>
      </trkpt>
      <trkpt lat="43.6323" lon="7.05513">
        <ele>94.017860412598</ele>
        <time>2016-05-14T12:02:25.000Z</time>
      </trkpt>
      <trkpt lat="43.63231" lon="7.05511">
        <ele>93.897422790527</ele>
        <time>2016-05-14T12:02:28.000Z</time>
      </trkpt>
      <trkpt lat="43.63232" lon="7.05509">
        <ele>93.799293518066</ele>
        <time>2016-05-14T12:02:30.000Z</time>
      </trkpt>
      <trkpt lat="43.63234" lon="7.05507">
        <ele>93.685028076172</ele>
        <time>2016-05-14T12:02:33.000Z</time>
      </trkpt>
      <trkpt lat="43.63236" lon="7.05507">
        <ele>93.573959350586</ele>
        <time>2016-05-14T12:02:35.000Z</time>
      </trkpt>
      <trkpt lat="43.63238" lon="7.05506">
        <ele>93.438896179199</ele>
        <time>2016-05-14T12:02:38.000Z</time>
      </trkpt>
      <trkpt lat="43.63239" lon="7.05505">
        <ele>93.299575805664</ele>
        <time>2016-05-14T12:02:40.000Z</time>
      </trkpt>
      <trkpt lat="43.63241" lon="7.05505">
        <ele>93.134239196777</ele>
        <time>2016-05-14T12:02:42.000Z</time>
      </trkpt>
      <trkpt lat="43.63244" lon="7.05504">
        <ele>92.964248657227</ele>
        <time>2016-05-14T12:02:44.000Z</time>
      </trkpt>
      <trkpt lat="43.63248" lon="7.05502">
        <ele>92.741722106934</ele>
        <time>2016-05-14T12:02:47.000Z</time>
      </trkpt>
      <trkpt lat="43.63252" lon="7.055">
        <ele>92.566070556641</ele>
        <time>2016-05-14T12:02:50.000Z</time>
      </trkpt>
      <trkpt lat="43.63255" lon="7.05501">
        <ele>92.464027404785</ele>
        <time>2016-05-14T12:02:52.000Z</time>
      </trkpt>
      <trkpt lat="43.63259" lon="7.05501">
        <ele>92.505424499512</ele>
        <time>2016-05-14T12:02:55.000Z</time>
      </trkpt>
      <trkpt lat="43.63261" lon="7.05499">
        <ele>92.645751953125</ele>
        <time>2016-05-14T12:02:57.000Z</time>
      </trkpt>
      <trkpt lat="43.63263" lon="7.05495">
        <ele>92.925704956055</ele>
        <time>2016-05-14T12:03:00.000Z</time>
      </trkpt>
      <trkpt lat="43.63265" lon="7.05494">
        <ele>93.25577545166</ele>
        <time>2016-05-14T12:03:03.000Z</time>
      </trkpt>
      <trkpt lat="43.63267" lon="7.05493">
        <ele>93.575622558594</ele>
        <time>2016-05-14T12:03:05.000Z</time>
      </trkpt>
      <trkpt lat="43.63268" lon="7.0549">
        <ele>93.838325500488</ele>
        <time>2016-05-14T12:03:08.000Z</time>
      </trkpt>
      <trkpt lat="43.6327" lon="7.0549">
        <ele>94.082427978516</ele>
        <time>2016-05-14T12:03:10.000Z</time>
      </trkpt>
      <trkpt lat="43.63271" lon="7.05489">
        <ele>94.297149658203</ele>
        <time>2016-05-14T12:03:12.000Z</time>
      </trkpt>
      <trkpt lat="43.63274" lon="7.05489">
        <ele>94.506126403809</ele>
        <time>2016-05-14T12:03:15.000Z</time>
      </trkpt>
      <trkpt lat="43.63277" lon="7.05487">
        <ele>94.731956481934</ele>
        <time>2016-05-14T12:03:17.000Z</time>
      </trkpt>
      <trkpt lat="43.63278" lon="7.05486">
        <ele>94.936943054199</ele>
        <time>2016-05-14T12:03:19.000Z</time>
      </trkpt>
      <trkpt lat="43.63279" lon="7.05486">
        <ele>95.131210327148</ele>
        <time>2016-05-14T12:03:21.000Z</time>
      </trkpt>
      <trkpt lat="43.63281" lon="7.05487">
        <ele>95.316444396973</ele>
        <time>2016-05-14T12:03:24.000Z</time>
      </trkpt>
      <trkpt lat="43.63282" lon="7.05487">
        <ele>95.474090576172</ele>
        <time>2016-05-14T12:03:26.000Z</time>
      </trkpt>
      <trkpt lat="43.63285" lon="7.05487">
        <ele>95.616577148438</ele>
        <time>2016-05-14T12:03:28.000Z</time>
      </trkpt>
      <trkpt lat="43.63287" lon="7.05488">
        <ele>95.774948120117</ele>
        <time>2016-05-14T12:03:31.000Z</time>
      </trkpt>
      <trkpt lat="43.6329" lon="7.05486">
        <ele>95.963623046875</ele>
        <time>2016-05-14T12:03:34.000Z</time>
      </trkpt>
      <trkpt lat="43.63293" lon="7.05483">
        <ele>96.181030273438</ele>
        <time>2016-05-14T12:03:37.000Z</time>
      </trkpt>
      <trkpt lat="43.63295" lon="7.0548">
        <ele>96.419906616211</ele>
        <time>2016-05-14T12:03:40.000Z</time>
      </trkpt>
      <trkpt lat="43.63298" lon="7.05479">
        <ele>96.655700683594</ele>
        <time>2016-05-14T12:03:42.000Z</time>
      </trkpt>
      <trkpt lat="43.633" lon="7.05479">
        <ele>96.880035400391</ele>
        <time>2016-05-14T12:03:44.000Z</time>
      </trkpt>
      <trkpt lat="43.63301" lon="7.05478">
        <ele>97.080978393555</ele>
        <time>2016-05-14T12:03:47.000Z</time>
      </trkpt>
      <trkpt lat="43.63303" lon="7.05477">
        <ele>97.246032714844</ele>
        <time>2016-05-14T12:03:49.000Z</time>
      </trkpt>
      <trkpt lat="43.63306" lon="7.05475">
        <ele>97.401870727539</ele>
        <time>2016-05-14T12:03:52.000Z</time>
      </trkpt>
      <trkpt lat="43.63309" lon="7.05474">
        <ele>97.575790405273</ele>
        <time>2016-05-14T12:03:55.000Z</time>
      </trkpt>
      <trkpt lat="43.63313" lon="7.05473">
        <ele>97.760620117188</ele>
        <time>2016-05-14T12:03:58.000Z</time>
      </trkpt>
      <trkpt lat="43.63315" lon="7.05472">
        <ele>97.938865661621</ele>
        <time>2016-05-14T12:04:01.000Z</time>
      </trkpt>
      <trkpt lat="43.63317" lon="7.05471">
        <ele>98.136611938477</ele>
        <time>2016-05-14T12:04:04.000Z</time>
      </trkpt>
      <trkpt lat="43.63319" lon="7.05471">
        <ele>98.314315795898</ele>
        <time>2016-05-14T12:04:06.000Z</time>
      </trkpt>
      <trkpt lat="43.63321" lon="7.0547">
        <ele>98.458473205566</ele>
        <time>2016-05-14T12:04:08.000Z</time>
      </trkpt>
      <trkpt lat="43.63322" lon="7.05469">
        <ele>98.564712524414</ele>
        <time>2016-05-14T12:04:10.000Z</time>
      </trkpt>
      <trkpt lat="43.63324" lon="7.05467">
        <ele>98.66658782959</ele>
        <time>2016-05-14T12:04:13.000Z</time>
      </trkpt>
      <trkpt lat="43.63326" lon="7.05465">
        <ele>98.741188049316</ele>
        <time>2016-05-14T12:04:15.000Z</time>
      </trkpt>
      <trkpt lat="43.63328" lon="7.05463">
        <ele>98.803375244141</ele>
        <time>2016-05-14T12:04:17.000Z</time>
      </trkpt>
      <trkpt lat="43.63332" lon="7.05461">
        <ele>98.873260498047</ele>
        <time>2016-05-14T12:04:20.000Z</time>
      </trkpt>
      <trkpt lat="43.63335" lon="7.05459">
        <ele>98.981895446777</ele>
        <time>2016-05-14T12:04:23.000Z</time>
      </trkpt>
      <trkpt lat="43.63337" lon="7.05458">
        <ele>99.150497436523</ele>
        <time>2016-05-14T12:04:26.000Z</time>
      </trkpt>
      <trkpt lat="43.63338" lon="7.05457">
        <ele>99.353645324707</ele>
        <time>2016-05-14T12:04:28.000Z</time>
      </trkpt>
      <trkpt lat="43.6334" lon="7.05455">
        <ele>99.574264526367</ele>
        <time>2016-05-14T12:04:30.000Z</time>
      </trkpt>
      <trkpt lat="43.63342" lon="7.05454">
        <ele>99.824783325195</ele>
        <time>2016-05-14T12:04:32.000Z</time>
      </trkpt>
      <trkpt lat="43.63343" lon="7.05451">
        <ele>100.05767822266</ele>
        <time>2016-05-14T12:04:35.000Z</time>
      </trkpt>
      <trkpt lat="43.63345" lon="7.0545">
        <ele>100.25250244141</ele>
        <time>2016-05-14T12:04:37.000Z</time>
      </trkpt>
      <trkpt lat="43.63349" lon="7.05446">
        <ele>100.49938201904</ele>
        <time>2016-05-14T12:04:40.000Z</time>
      </trkpt>
      <trkpt lat="43.63352" lon="7.05444">
        <ele>100.78907775879</ele>
        <time>2016-05-14T12:04:43.000Z</time>
      </trkpt>
      <trkpt lat="43.63354" lon="7.05443">
        <ele>101.09394836426</ele>
        <time>2016-05-14T12:04:45.000Z</time>
      </trkpt>
      <trkpt lat="43.63358" lon="7.05441">
        <ele>101.44149017334</ele>
        <time>2016-05-14T12:04:48.000Z</time>
      </trkpt>
      <trkpt lat="43.63359" lon="7.05438">
        <ele>101.75259399414</ele>
        <time>2016-05-14T12:04:51.000Z</time>
      </trkpt>
      <trkpt lat="43.6336" lon="7.05437">
        <ele>101.97770690918</ele>
        <time>2016-05-14T12:04:53.000Z</time>
      </trkpt>
      <trkpt lat="43.63361" lon="7.05431">
        <ele>102.10145568848</ele>
        <time>2016-05-14T12:05:04.000Z</time>
      </trkpt>
      <trkpt lat="43.63362" lon="7.0543">
        <ele>102.16310119629</ele>
        <time>2016-05-14T12:05:07.000Z</time>
      </trkpt>
      <trkpt lat="43.63364" lon="7.05426">
        <ele>102.14540863037</ele>
        <time>2016-05-14T12:05:10.000Z</time>
      </trkpt>
      <trkpt lat="43.63365" lon="7.05424">
        <ele>102.12510681152</ele>
        <time>2016-05-14T12:05:12.000Z</time>
      </trkpt>
      <trkpt lat="43.63369" lon="7.05419">
        <ele>102.14087677002</ele>
        <time>2016-05-14T12:05:15.000Z</time>
      </trkpt>
      <trkpt lat="43.6337" lon="7.05412">
        <ele>102.17128753662</ele>
        <time>2016-05-14T12:05:18.000Z</time>
      </trkpt>
      <trkpt lat="43.63371" lon="7.05407">
        <ele>102.20554351807</ele>
        <time>2016-05-14T12:05:20.000Z</time>
      </trkpt>
      <trkpt lat="43.63374" lon="7.05399">
        <ele>102.29545593262</ele>
        <time>2016-05-14T12:05:23.000Z</time>
      </trkpt>
      <trkpt lat="43.63375" lon="7.05394">
        <ele>102.40071868896</ele>
        <time>2016-05-14T12:05:25.000Z</time>
      </trkpt>
      <trkpt lat="43.63378" lon="7.05387">
        <ele>102.47735595703</ele>
        <time>2016-05-14T12:05:28.000Z</time>
      </trkpt>
      <trkpt lat="43.6338" lon="7.05383">
        <ele>102.59466552734</ele>
        <time>2016-05-14T12:05:31.000Z</time>
      </trkpt>
      <trkpt lat="43.63382" lon="7.05378">
        <ele>102.69820404053</ele>
        <time>2016-05-14T12:05:34.000Z</time>
      </trkpt>
      <trkpt lat="43.63382" lon="7.05372">
        <ele>102.71608734131</ele>
        <time>2016-05-14T12:05:37.000Z</time>
      </trkpt>
      <trkpt lat="43.63381" lon="7.05368">
        <ele>102.68432617188</ele>
        <time>2016-05-14T12:05:39.000Z</time>
      </trkpt>
      <trkpt lat="43.6338" lon="7.05364">
        <ele>102.59981536865</ele>
        <time>2016-05-14T12:05:42.000Z</time>
      </trkpt>
      <trkpt lat="43.63383" lon="7.05359">
        <ele>102.48008728027</ele>
        <time>2016-05-14T12:05:45.000Z</time>
      </trkpt>
      <trkpt lat="43.63385" lon="7.05356">
        <ele>102.36295318604</ele>
        <time>2016-05-14T12:05:47.000Z</time>
      </trkpt>
      <trkpt lat="43.63391" lon="7.05351">
        <ele>102.27183532715</ele>
        <time>2016-05-14T12:05:50.000Z</time>
      </trkpt>
      <trkpt lat="43.63395" lon="7.05346">
        <ele>102.17000579834</ele>
        <time>2016-05-14T12:05:53.000Z</time>
      </trkpt>
      <trkpt lat="43.63396" lon="7.05342">
        <ele>102.05724334717</ele>
        <time>2016-05-14T12:05:56.000Z</time>
      </trkpt>
      <trkpt lat="43.63397" lon="7.05338">
        <ele>101.91499328613</ele>
        <time>2016-05-14T12:05:59.000Z</time>
      </trkpt>
      <trkpt lat="43.63398" lon="7.05333">
        <ele>101.71458435059</ele>
        <time>2016-05-14T12:06:02.000Z</time>
      </trkpt>
      <trkpt lat="43.634" lon="7.0533">
        <ele>101.52235412598</ele>
        <time>2016-05-14T12:06:04.000Z</time>
      </trkpt>
      <trkpt lat="43.634" lon="7.05327">
        <ele>101.36888885498</ele>
        <time>2016-05-14T12:06:07.000Z</time>
      </trkpt>
      <trkpt lat="43.634" lon="7.05323">
        <ele>101.25856781006</ele>
        <time>2016-05-14T12:06:10.000Z</time>
      </trkpt>
      <trkpt lat="43.634" lon="7.0532">
        <ele>101.19123840332</ele>
        <time>2016-05-14T12:06:12.000Z</time>
      </trkpt>
      <trkpt lat="43.634" lon="7.05319">
        <ele>101.17866516113</ele>
        <time>2016-05-14T12:06:15.000Z</time>
      </trkpt>
      <trkpt lat="43.63403" lon="7.05313">
        <ele>101.15376281738</ele>
        <time>2016-05-14T12:06:25.000Z</time>
      </trkpt>
      <trkpt lat="43.63405" lon="7.05308">
        <ele>101.11666107178</ele>
        <time>2016-05-14T12:06:27.000Z</time>
      </trkpt>
      <trkpt lat="43.63407" lon="7.05302">
        <ele>101.06787872314</ele>
        <time>2016-05-14T12:06:30.000Z</time>
      </trkpt>
      <trkpt lat="43.63408" lon="7.05298">
        <ele>101.00580596924</ele>
        <time>2016-05-14T12:06:32.000Z</time>
      </trkpt>
      <trkpt lat="43.63409" lon="7.05293">
        <ele>100.92985534668</ele>
        <time>2016-05-14T12:06:35.000Z</time>
      </trkpt>
      <trkpt lat="43.6341" lon="7.0529">
        <ele>100.85836029053</ele>
        <time>2016-05-14T12:06:38.000Z</time>
      </trkpt>
      <trkpt lat="43.63412" lon="7.05288">
        <ele>100.78372955322</ele>
        <time>2016-05-14T12:06:41.000Z</time>
      </trkpt>
      <trkpt lat="43.63414" lon="7.05285">
        <ele>100.70756530762</ele>
        <time>2016-05-14T12:06:44.000Z</time>
      </trkpt>
      <trkpt lat="43.63415" lon="7.05281">
        <ele>100.62298583984</ele>
        <time>2016-05-14T12:06:47.000Z</time>
      </trkpt>
      <trkpt lat="43.63417" lon="7.05275">
        <ele>100.52938079834</ele>
        <time>2016-05-14T12:06:50.000Z</time>
      </trkpt>
      <trkpt lat="43.63419" lon="7.05271">
        <ele>100.50467681885</ele>
        <time>2016-05-14T12:06:53.000Z</time>
      </trkpt>
      <trkpt lat="43.63421" lon="7.05266">
        <ele>100.54824066162</ele>
        <time>2016-05-14T12:06:55.000Z</time>
      </trkpt>
      <trkpt lat="43.63423" lon="7.0526">
        <ele>100.65628814697</ele>
        <time>2016-05-14T12:06:58.000Z</time>
      </trkpt>
      <trkpt lat="43.63423" lon="7.05254">
        <ele>100.75937652588</ele>
        <time>2016-05-14T12:07:01.000Z</time>
      </trkpt>
      <trkpt lat="43.63422" lon="7.05251">
        <ele>100.85121917725</ele>
        <time>2016-05-14T12:07:03.000Z</time>
      </trkpt>
      <trkpt lat="43.63423" lon="7.05247">
        <ele>100.91596221924</ele>
        <time>2016-05-14T12:07:06.000Z</time>
      </trkpt>
      <trkpt lat="43.63424" lon="7.05239">
        <ele>100.97385406494</ele>
        <time>2016-05-14T12:07:21.000Z</time>
      </trkpt>
      <trkpt lat="43.63422" lon="7.05237">
        <ele>100.94998168945</ele>
        <time>2016-05-14T12:07:23.000Z</time>
      </trkpt>
      <trkpt lat="43.63421" lon="7.05239">
        <ele>100.9193572998</ele>
        <time>2016-05-14T12:07:28.000Z</time>
      </trkpt>
      <trkpt lat="43.63421" lon="7.05239">
        <ele>100.9193572998</ele>
        <time>2016-05-14T12:07:48.000Z</time>
      </trkpt>
      <trkpt lat="43.63422" lon="7.05236">
        <ele>100.95301818848</ele>
        <time>2016-05-14T12:09:59.000Z</time>
      </trkpt>
      <trkpt lat="43.63422" lon="7.05236">
        <ele>100.95301818848</ele>
        <time>2016-05-14T12:10:19.000Z</time>
      </trkpt>
      <trkpt lat="43.63422" lon="7.05231">
        <ele>100.96865081787</ele>
        <time>2016-05-14T12:12:26.000Z</time>
      </trkpt>
      <trkpt lat="43.63421" lon="7.05233">
        <ele>100.92251586914</ele>
        <time>2016-05-14T12:12:29.000Z</time>
      </trkpt>
      <trkpt lat="43.6342" lon="7.05235">
        <ele>100.8851776123</ele>
        <time>2016-05-14T12:12:31.000Z</time>
      </trkpt>
      <trkpt lat="43.6342" lon="7.05235">
        <ele>100.8851776123</ele>
        <time>2016-05-14T12:12:51.000Z</time>
      </trkpt>
      <trkpt lat="43.6342" lon="7.05237">
        <ele>100.87482452393</ele>
        <time>2016-05-14T12:13:22.000Z</time>
      </trkpt>
      <trkpt lat="43.63419" lon="7.05237">
        <ele>100.79940032959</ele>
        <time>2016-05-14T12:13:24.000Z</time>
      </trkpt>
      <trkpt lat="43.63416" lon="7.05237">
        <ele>100.67346191406</ele>
        <time>2016-05-14T12:13:27.000Z</time>
      </trkpt>
      <trkpt lat="43.63414" lon="7.05235">
        <ele>100.59773254395</ele>
        <time>2016-05-14T12:13:30.000Z</time>
      </trkpt>
      <trkpt lat="43.63415" lon="7.05233">
        <ele>100.54441833496</ele>
        <time>2016-05-14T12:13:32.000Z</time>
      </trkpt>
      <trkpt lat="43.63417" lon="7.05231">
        <ele>100.48775482178</ele>
        <time>2016-05-14T12:13:35.000Z</time>
      </trkpt>
      <trkpt lat="43.63418" lon="7.05231">
        <ele>100.50325775146</ele>
        <time>2016-05-14T12:13:45.000Z</time>
      </trkpt>
      <trkpt lat="43.63416" lon="7.05232">
        <ele>100.52838134766</ele>
        <time>2016-05-14T12:13:47.000Z</time>
      </trkpt>
      <trkpt lat="43.63415" lon="7.05233">
        <ele>100.52460479736</ele>
        <time>2016-05-14T12:13:49.000Z</time>
      </trkpt>
      <trkpt lat="43.63414" lon="7.05236">
        <ele>100.52230072021</ele>
        <time>2016-05-14T12:13:52.000Z</time>
      </trkpt>
      <trkpt lat="43.63413" lon="7.05237">
        <ele>100.53439331055</ele>
        <time>2016-05-14T12:13:54.000Z</time>
      </trkpt>
      <trkpt lat="43.6341" lon="7.05242">
        <ele>100.52153778076</ele>
        <time>2016-05-14T12:13:59.000Z</time>
      </trkpt>
      <trkpt lat="43.63411" lon="7.05244">
        <ele>100.51644897461</ele>
        <time>2016-05-14T12:14:03.000Z</time>
      </trkpt>
      <trkpt lat="43.63414" lon="7.05242">
        <ele>100.48331451416</ele>
        <time>2016-05-14T12:14:06.000Z</time>
      </trkpt>
      <trkpt lat="43.63419" lon="7.05239">
        <ele>100.48309326172</ele>
        <time>2016-05-14T12:14:09.000Z</time>
      </trkpt>
      <trkpt lat="43.63422" lon="7.05238">
        <ele>100.54990386963</ele>
        <time>2016-05-14T12:14:11.000Z</time>
      </trkpt>
      <trkpt lat="43.63425" lon="7.05237">
        <ele>100.67518615723</ele>
        <time>2016-05-14T12:14:13.000Z</time>
      </trkpt>
      <trkpt lat="43.63428" lon="7.05237">
        <ele>100.90901184082</ele>
        <time>2016-05-14T12:14:16.000Z</time>
      </trkpt>
      <trkpt lat="43.63429" lon="7.05238">
        <ele>101.19537353516</ele>
        <time>2016-05-14T12:14:19.000Z</time>
      </trkpt>
      <trkpt lat="43.63431" lon="7.05238">
        <ele>101.48567962646</ele>
        <time>2016-05-14T12:14:31.000Z</time>
      </trkpt>
      <trkpt lat="43.63433" lon="7.05237">
        <ele>101.76123809814</ele>
        <time>2016-05-14T12:14:33.000Z</time>
      </trkpt>
      <trkpt lat="43.63437" lon="7.05235">
        <ele>102.04266357422</ele>
        <time>2016-05-14T12:14:36.000Z</time>
      </trkpt>
      <trkpt lat="43.63438" lon="7.05232">
        <ele>102.27285766602</ele>
        <time>2016-05-14T12:14:38.000Z</time>
      </trkpt>
      <trkpt lat="43.6344" lon="7.0523">
        <ele>102.50012207031</ele>
        <time>2016-05-14T12:14:40.000Z</time>
      </trkpt>
      <trkpt lat="43.63441" lon="7.05229">
        <ele>102.7140045166</ele>
        <time>2016-05-14T12:14:42.000Z</time>
      </trkpt>
      <trkpt lat="43.63443" lon="7.05226">
        <ele>102.91646575928</ele>
        <time>2016-05-14T12:14:45.000Z</time>
      </trkpt>
      <trkpt lat="43.63447" lon="7.05222">
        <ele>103.11518859863</ele>
        <time>2016-05-14T12:14:48.000Z</time>
      </trkpt>
      <trkpt lat="43.6345" lon="7.05219">
        <ele>103.31447601318</ele>
        <time>2016-05-14T12:14:51.000Z</time>
      </trkpt>
      <trkpt lat="43.63453" lon="7.05216">
        <ele>103.5277557373</ele>
        <time>2016-05-14T12:14:54.000Z</time>
      </trkpt>
      <trkpt lat="43.63454" lon="7.05214">
        <ele>103.72829437256</ele>
        <time>2016-05-14T12:14:56.000Z</time>
      </trkpt>
      <trkpt lat="43.63455" lon="7.05211">
        <ele>103.88857269287</ele>
        <time>2016-05-14T12:14:58.000Z</time>
      </trkpt>
      <trkpt lat="43.63456" lon="7.05208">
        <ele>103.96891784668</ele>
        <time>2016-05-14T12:15:00.000Z</time>
      </trkpt>
      <trkpt lat="43.63456" lon="7.05204">
        <ele>104.00050354004</ele>
        <time>2016-05-14T12:15:03.000Z</time>
      </trkpt>
      <trkpt lat="43.63457" lon="7.05202">
        <ele>104.00543212891</ele>
        <time>2016-05-14T12:15:08.000Z</time>
      </trkpt>
      <trkpt lat="43.63461" lon="7.05199">
        <ele>104.02772521973</ele>
        <time>2016-05-14T12:15:11.000Z</time>
      </trkpt>
      <trkpt lat="43.63464" lon="7.05197">
        <ele>104.07566833496</ele>
        <time>2016-05-14T12:15:13.000Z</time>
      </trkpt>
      <trkpt lat="43.63467" lon="7.05193">
        <ele>104.14094543457</ele>
        <time>2016-05-14T12:15:16.000Z</time>
      </trkpt>
      <trkpt lat="43.6347" lon="7.05188">
        <ele>104.20069885254</ele>
        <time>2016-05-14T12:15:19.000Z</time>
      </trkpt>
      <trkpt lat="43.63472" lon="7.05186">
        <ele>104.25187683105</ele>
        <time>2016-05-14T12:15:21.000Z</time>
      </trkpt>
      <trkpt lat="43.63476" lon="7.05183">
        <ele>104.28300476074</ele>
        <time>2016-05-14T12:15:24.000Z</time>
      </trkpt>
      <trkpt lat="43.63477" lon="7.05181">
        <ele>104.26454925537</ele>
        <time>2016-05-14T12:15:26.000Z</time>
      </trkpt>
      <trkpt lat="43.63478" lon="7.05178">
        <ele>104.21865081787</ele>
        <time>2016-05-14T12:15:29.000Z</time>
      </trkpt>
      <trkpt lat="43.63481" lon="7.05175">
        <ele>104.17230224609</ele>
        <time>2016-05-14T12:15:32.000Z</time>
      </trkpt>
      <trkpt lat="43.63483" lon="7.05171">
        <ele>104.09366607666</ele>
        <time>2016-05-14T12:15:35.000Z</time>
      </trkpt>
      <trkpt lat="43.63487" lon="7.05167">
        <ele>103.97511291504</ele>
        <time>2016-05-14T12:15:38.000Z</time>
      </trkpt>
      <trkpt lat="43.6349" lon="7.05164">
        <ele>103.87348937988</ele>
        <time>2016-05-14T12:15:41.000Z</time>
      </trkpt>
      <trkpt lat="43.63491" lon="7.05159">
        <ele>103.77140045166</ele>
        <time>2016-05-14T12:15:44.000Z</time>
      </trkpt>
      <trkpt lat="43.63491" lon="7.05156">
        <ele>103.67649078369</ele>
        <time>2016-05-14T12:15:46.000Z</time>
      </trkpt>
      <trkpt lat="43.63493" lon="7.05153">
        <ele>103.5955581665</ele>
        <time>2016-05-14T12:15:49.000Z</time>
      </trkpt>
      <trkpt lat="43.63492" lon="7.05149">
        <ele>103.52442932129</ele>
        <time>2016-05-14T12:15:52.000Z</time>
      </trkpt>
      <trkpt lat="43.63491" lon="7.05144">
        <ele>103.43147277832</ele>
        <time>2016-05-14T12:15:54.000Z</time>
      </trkpt>
      <trkpt lat="43.6349" lon="7.05139">
        <ele>103.33641052246</ele>
        <time>2016-05-14T12:15:56.000Z</time>
      </trkpt>
      <trkpt lat="43.63489" lon="7.05132">
        <ele>103.22812652588</ele>
        <time>2016-05-14T12:15:59.000Z</time>
      </trkpt>
      <trkpt lat="43.6349" lon="7.05129">
        <ele>103.11533355713</ele>
        <time>2016-05-14T12:16:01.000Z</time>
      </trkpt>
      <trkpt lat="43.63491" lon="7.05125">
        <ele>102.9963760376</ele>
        <time>2016-05-14T12:16:04.000Z</time>
      </trkpt>
      <trkpt lat="43.63493" lon="7.05121">
        <ele>102.87707519531</ele>
        <time>2016-05-14T12:16:06.000Z</time>
      </trkpt>
      <trkpt lat="43.63494" lon="7.05117">
        <ele>102.7425994873</ele>
        <time>2016-05-14T12:16:09.000Z</time>
      </trkpt>
      <trkpt lat="43.63496" lon="7.05114">
        <ele>102.60624694824</ele>
        <time>2016-05-14T12:16:12.000Z</time>
      </trkpt>
      <trkpt lat="43.63497" lon="7.05112">
        <ele>102.46408843994</ele>
        <time>2016-05-14T12:16:14.000Z</time>
      </trkpt>
      <trkpt lat="43.63498" lon="7.05111">
        <ele>102.33504486084</ele>
        <time>2016-05-14T12:16:16.000Z</time>
      </trkpt>
      <trkpt lat="43.63496" lon="7.05105">
        <ele>102.20474243164</ele>
        <time>2016-05-14T12:16:19.000Z</time>
      </trkpt>
      <trkpt lat="43.63493" lon="7.051">
        <ele>102.12763977051</ele>
        <time>2016-05-14T12:16:22.000Z</time>
      </trkpt>
      <trkpt lat="43.63491" lon="7.05096">
        <ele>102.06985473633</ele>
        <time>2016-05-14T12:16:24.000Z</time>
      </trkpt>
      <trkpt lat="43.63489" lon="7.0509">
        <ele>102.04508209229</ele>
        <time>2016-05-14T12:16:27.000Z</time>
      </trkpt>
      <trkpt lat="43.63488" lon="7.05085">
        <ele>102.03178405762</ele>
        <time>2016-05-14T12:16:30.000Z</time>
      </trkpt>
      <trkpt lat="43.63488" lon="7.05079">
        <ele>102.02964019775</ele>
        <time>2016-05-14T12:16:33.000Z</time>
      </trkpt>
      <trkpt lat="43.63488" lon="7.05074">
        <ele>101.9772567749</ele>
        <time>2016-05-14T12:16:36.000Z</time>
      </trkpt>
      <trkpt lat="43.63488" lon="7.05072">
        <ele>101.92460632324</ele>
        <time>2016-05-14T12:16:38.000Z</time>
      </trkpt>
      <trkpt lat="43.63489" lon="7.05066">
        <ele>101.83708953857</ele>
        <time>2016-05-14T12:16:41.000Z</time>
      </trkpt>
      <trkpt lat="43.63489" lon="7.05062">
        <ele>101.72703552246</ele>
        <time>2016-05-14T12:16:44.000Z</time>
      </trkpt>
      <trkpt lat="43.63489" lon="7.05058">
        <ele>101.62623596191</ele>
        <time>2016-05-14T12:16:47.000Z</time>
      </trkpt>
      <trkpt lat="43.63486" lon="7.05055">
        <ele>101.59323120117</ele>
        <time>2016-05-14T12:16:50.000Z</time>
      </trkpt>
      <trkpt lat="43.63483" lon="7.05054">
        <ele>101.63521575928</ele>
        <time>2016-05-14T12:16:54.000Z</time>
      </trkpt>
      <trkpt lat="43.63482" lon="7.05048">
        <ele>101.70222473145</ele>
        <time>2016-05-14T12:16:57.000Z</time>
      </trkpt>
      <trkpt lat="43.6348" lon="7.05042">
        <ele>101.80884552002</ele>
        <time>2016-05-14T12:17:00.000Z</time>
      </trkpt>
      <trkpt lat="43.6348" lon="7.05039">
        <ele>101.91926574707</ele>
        <time>2016-05-14T12:17:02.000Z</time>
      </trkpt>
      <trkpt lat="43.63481" lon="7.05036">
        <ele>101.96915435791</ele>
        <time>2016-05-14T12:17:05.000Z</time>
      </trkpt>
      <trkpt lat="43.63482" lon="7.05032">
        <ele>101.92335510254</ele>
        <time>2016-05-14T12:17:07.000Z</time>
      </trkpt>
      <trkpt lat="43.63481" lon="7.05027">
        <ele>101.87229919434</ele>
        <time>2016-05-14T12:17:10.000Z</time>
      </trkpt>
      <trkpt lat="43.63482" lon="7.05022">
        <ele>101.78174591064</ele>
        <time>2016-05-14T12:17:13.000Z</time>
      </trkpt>
      <trkpt lat="43.63481" lon="7.05017">
        <ele>101.68564605713</ele>
        <time>2016-05-14T12:17:16.000Z</time>
      </trkpt>
      <trkpt lat="43.6348" lon="7.05014">
        <ele>101.63488769531</ele>
        <time>2016-05-14T12:17:18.000Z</time>
      </trkpt>
      <trkpt lat="43.63479" lon="7.0501">
        <ele>101.62144470215</ele>
        <time>2016-05-14T12:17:21.000Z</time>
      </trkpt>
      <trkpt lat="43.63477" lon="7.05007">
        <ele>101.65279388428</ele>
        <time>2016-05-14T12:17:24.000Z</time>
      </trkpt>
      <trkpt lat="43.63477" lon="7.05003">
        <ele>101.7100982666</ele>
        <time>2016-05-14T12:17:26.000Z</time>
      </trkpt>
      <trkpt lat="43.63476" lon="7.05">
        <ele>101.78460693359</ele>
        <time>2016-05-14T12:17:28.000Z</time>
      </trkpt>
      <trkpt lat="43.63475" lon="7.04997">
        <ele>101.85631561279</ele>
        <time>2016-05-14T12:17:30.000Z</time>
      </trkpt>
      <trkpt lat="43.63474" lon="7.04992">
        <ele>101.95150756836</ele>
        <time>2016-05-14T12:17:33.000Z</time>
      </trkpt>
      <trkpt lat="43.63475" lon="7.0499">
        <ele>101.97871398926</ele>
        <time>2016-05-14T12:17:36.000Z</time>
      </trkpt>
      <trkpt lat="43.63474" lon="7.04987">
        <ele>102.02914428711</ele>
        <time>2016-05-14T12:17:38.000Z</time>
      </trkpt>
      <trkpt lat="43.6347" lon="7.04986">
        <ele>102.13887786865</ele>
        <time>2016-05-14T12:17:40.000Z</time>
      </trkpt>
      <trkpt lat="43.63466" lon="7.04985">
        <ele>102.3201751709</ele>
        <time>2016-05-14T12:17:43.000Z</time>
      </trkpt>
      <trkpt lat="43.63464" lon="7.04984">
        <ele>102.50241851807</ele>
        <time>2016-05-14T12:17:46.000Z</time>
      </trkpt>
      <trkpt lat="43.63463" lon="7.04978">
        <ele>102.73231506348</ele>
        <time>2016-05-14T12:17:49.000Z</time>
      </trkpt>
      <trkpt lat="43.63462" lon="7.04976">
        <ele>102.94075012207</ele>
        <time>2016-05-14T12:17:51.000Z</time>
      </trkpt>
      <trkpt lat="43.63462" lon="7.04972">
        <ele>103.06711578369</ele>
        <time>2016-05-14T12:17:54.000Z</time>
      </trkpt>
      <trkpt lat="43.63462" lon="7.04968">
        <ele>103.09648132324</ele>
        <time>2016-05-14T12:17:56.000Z</time>
      </trkpt>
      <trkpt lat="43.63463" lon="7.04964">
        <ele>103.06496429443</ele>
        <time>2016-05-14T12:17:59.000Z</time>
      </trkpt>
      <trkpt lat="43.63464" lon="7.04961">
        <ele>102.98680114746</ele>
        <time>2016-05-14T12:18:02.000Z</time>
      </trkpt>
      <trkpt lat="43.63467" lon="7.04959">
        <ele>102.8550567627</ele>
        <time>2016-05-14T12:18:07.000Z</time>
      </trkpt>
      <trkpt lat="43.63466" lon="7.04955">
        <ele>102.74073791504</ele>
        <time>2016-05-14T12:18:10.000Z</time>
      </trkpt>
      <trkpt lat="43.63465" lon="7.04953">
        <ele>102.63818359375</ele>
        <time>2016-05-14T12:18:12.000Z</time>
      </trkpt>
      <trkpt lat="43.63464" lon="7.04951">
        <ele>102.5785369873</ele>
        <time>2016-05-14T12:18:14.000Z</time>
      </trkpt>
      <trkpt lat="43.63464" lon="7.04948">
        <ele>102.55628967285</ele>
        <time>2016-05-14T12:18:16.000Z</time>
      </trkpt>
      <trkpt lat="43.63463" lon="7.04943">
        <ele>102.57741546631</ele>
        <time>2016-05-14T12:18:22.000Z</time>
      </trkpt>
      <trkpt lat="43.63462" lon="7.04941">
        <ele>102.60446929932</ele>
        <time>2016-05-14T12:18:24.000Z</time>
      </trkpt>
      <trkpt lat="43.6346" lon="7.04938">
        <ele>102.64628601074</ele>
        <time>2016-05-14T12:18:28.000Z</time>
      </trkpt>
      <trkpt lat="43.63459" lon="7.04935">
        <ele>102.68729400635</ele>
        <time>2016-05-14T12:18:30.000Z</time>
      </trkpt>
      <trkpt lat="43.63457" lon="7.0493">
        <ele>102.72651672363</ele>
        <time>2016-05-14T12:18:33.000Z</time>
      </trkpt>
      <trkpt lat="43.63456" lon="7.04927">
        <ele>102.77893066406</ele>
        <time>2016-05-14T12:18:35.000Z</time>
      </trkpt>
      <trkpt lat="43.63454" lon="7.04923">
        <ele>102.8260269165</ele>
        <time>2016-05-14T12:18:38.000Z</time>
      </trkpt>
      <trkpt lat="43.63454" lon="7.04921">
        <ele>102.84956359863</ele>
        <time>2016-05-14T12:18:40.000Z</time>
      </trkpt>
      <trkpt lat="43.63455" lon="7.04918">
        <ele>102.82991027832</ele>
        <time>2016-05-14T12:18:43.000Z</time>
      </trkpt>
      <trkpt lat="43.63456" lon="7.04919">
        <ele>102.80419921875</ele>
        <time>2016-05-14T12:18:51.000Z</time>
      </trkpt>
      <trkpt lat="43.63454" lon="7.04921">
        <ele>102.79460144043</ele>
        <time>2016-05-14T12:19:01.000Z</time>
      </trkpt>
      <trkpt lat="43.63454" lon="7.04921">
        <ele>102.79460144043</ele>
        <time>2016-05-14T12:19:21.000Z</time>
      </trkpt>
      <trkpt lat="43.63454" lon="7.0492">
        <ele>102.78428649902</ele>
        <time>2016-05-14T12:19:26.000Z</time>
      </trkpt>
      <trkpt lat="43.63455" lon="7.04915">
        <ele>102.75024414062</ele>
        <time>2016-05-14T12:19:37.000Z</time>
      </trkpt>
      <trkpt lat="43.63457" lon="7.04914">
        <ele>102.73349761963</ele>
        <time>2016-05-14T12:19:39.000Z</time>
      </trkpt>
      <trkpt lat="43.63457" lon="7.04919">
        <ele>102.72341156006</ele>
        <time>2016-05-14T12:19:48.000Z</time>
      </trkpt>
      <trkpt lat="43.63458" lon="7.0492">
        <ele>102.67575836182</ele>
        <time>2016-05-14T12:19:50.000Z</time>
      </trkpt>
      <trkpt lat="43.63462" lon="7.04922">
        <ele>102.58564758301</ele>
        <time>2016-05-14T12:19:53.000Z</time>
      </trkpt>
      <trkpt lat="43.63464" lon="7.04922">
        <ele>102.49195861816</ele>
        <time>2016-05-14T12:19:55.000Z</time>
      </trkpt>
      <trkpt lat="43.6347" lon="7.04923">
        <ele>102.34434509277</ele>
        <time>2016-05-14T12:19:58.000Z</time>
      </trkpt>
      <trkpt lat="43.63473" lon="7.04925">
        <ele>102.14508056641</ele>
        <time>2016-05-14T12:20:01.000Z</time>
      </trkpt>
      <trkpt lat="43.63475" lon="7.04924">
        <ele>101.940284729</ele>
        <time>2016-05-14T12:20:03.000Z</time>
      </trkpt>
      <trkpt lat="43.63477" lon="7.04923">
        <ele>101.73954772949</ele>
        <time>2016-05-14T12:20:05.000Z</time>
      </trkpt>
      <trkpt lat="43.6348" lon="7.04922">
        <ele>101.54076385498</ele>
        <time>2016-05-14T12:20:08.000Z</time>
      </trkpt>
      <trkpt lat="43.63483" lon="7.04919">
        <ele>101.36171722412</ele>
        <time>2016-05-14T12:20:11.000Z</time>
      </trkpt>
      <trkpt lat="43.63486" lon="7.04918">
        <ele>101.2032699585</ele>
        <time>2016-05-14T12:20:13.000Z</time>
      </trkpt>
      <trkpt lat="43.63488" lon="7.04916">
        <ele>101.04958343506</ele>
        <time>2016-05-14T12:20:15.000Z</time>
      </trkpt>
      <trkpt lat="43.6349" lon="7.04915">
        <ele>100.90719604492</ele>
        <time>2016-05-14T12:20:18.000Z</time>
      </trkpt>
      <trkpt lat="43.63492" lon="7.04915">
        <ele>100.78133392334</ele>
        <time>2016-05-14T12:20:20.000Z</time>
      </trkpt>
      <trkpt lat="43.63494" lon="7.04914">
        <ele>100.68257141113</ele>
        <time>2016-05-14T12:20:23.000Z</time>
      </trkpt>
      <trkpt lat="43.63496" lon="7.04912">
        <ele>100.62487792969</ele>
        <time>2016-05-14T12:20:26.000Z</time>
      </trkpt>
      <trkpt lat="43.63496" lon="7.04907">
        <ele>100.64585113525</ele>
        <time>2016-05-14T12:20:29.000Z</time>
      </trkpt>
      <trkpt lat="43.63496" lon="7.04904">
        <ele>100.71925354004</ele>
        <time>2016-05-14T12:20:32.000Z</time>
      </trkpt>
      <trkpt lat="43.63498" lon="7.04903">
        <ele>100.81340026855</ele>
        <time>2016-05-14T12:20:34.000Z</time>
      </trkpt>
      <trkpt lat="43.63501" lon="7.04902">
        <ele>100.93691253662</ele>
        <time>2016-05-14T12:20:37.000Z</time>
      </trkpt>
      <trkpt lat="43.63503" lon="7.04901">
        <ele>101.12924957275</ele>
        <time>2016-05-14T12:20:39.000Z</time>
      </trkpt>
      <trkpt lat="43.63505" lon="7.04898">
        <ele>101.34595489502</ele>
        <time>2016-05-14T12:20:42.000Z</time>
      </trkpt>
      <trkpt lat="43.63507" lon="7.04897">
        <ele>101.60028076172</ele>
        <time>2016-05-14T12:20:45.000Z</time>
      </trkpt>
      <trkpt lat="43.63508" lon="7.04896">
        <ele>101.90277099609</ele>
        <time>2016-05-14T12:20:48.000Z</time>
      </trkpt>
      <trkpt lat="43.63511" lon="7.04893">
        <ele>102.27866363525</ele>
        <time>2016-05-14T12:20:51.000Z</time>
      </trkpt>
      <trkpt lat="43.63512" lon="7.04891">
        <ele>102.6263885498</ele>
        <time>2016-05-14T12:20:53.000Z</time>
      </trkpt>
      <trkpt lat="43.63513" lon="7.04891">
        <ele>102.92910003662</ele>
        <time>2016-05-14T12:20:56.000Z</time>
      </trkpt>
      <trkpt lat="43.63515" lon="7.04891">
        <ele>103.21199798584</ele>
        <time>2016-05-14T12:21:06.000Z</time>
      </trkpt>
      <trkpt lat="43.63517" lon="7.0489">
        <ele>103.51192474365</ele>
        <time>2016-05-14T12:21:09.000Z</time>
      </trkpt>
      <trkpt lat="43.6352" lon="7.04888">
        <ele>103.83068847656</ele>
        <time>2016-05-14T12:21:12.000Z</time>
      </trkpt>
      <trkpt lat="43.63522" lon="7.04887">
        <ele>104.14863586426</ele>
        <time>2016-05-14T12:21:14.000Z</time>
      </trkpt>
      <trkpt lat="43.63525" lon="7.04885">
        <ele>104.49868011475</ele>
        <time>2016-05-14T12:21:17.000Z</time>
      </trkpt>
      <trkpt lat="43.63527" lon="7.04885">
        <ele>104.8628692627</ele>
        <time>2016-05-14T12:21:19.000Z</time>
      </trkpt>
      <trkpt lat="43.6353" lon="7.04883">
        <ele>105.25566101074</ele>
        <time>2016-05-14T12:21:22.000Z</time>
      </trkpt>
      <trkpt lat="43.63531" lon="7.04881">
        <ele>105.59963226318</ele>
        <time>2016-05-14T12:21:24.000Z</time>
      </trkpt>
      <trkpt lat="43.63531" lon="7.04876">
        <ele>105.93813323975</ele>
        <time>2016-05-14T12:21:27.000Z</time>
      </trkpt>
      <trkpt lat="43.63531" lon="7.04873">
        <ele>106.227684021</ele>
        <time>2016-05-14T12:21:29.000Z</time>
      </trkpt>
      <trkpt lat="43.63531" lon="7.04869">
        <ele>106.48691558838</ele>
        <time>2016-05-14T12:21:32.000Z</time>
      </trkpt>
      <trkpt lat="43.63532" lon="7.04867">
        <ele>106.68853759766</ele>
        <time>2016-05-14T12:21:34.000Z</time>
      </trkpt>
      <trkpt lat="43.63533" lon="7.04864">
        <ele>106.89009857178</ele>
        <time>2016-05-14T12:21:36.000Z</time>
      </trkpt>
      <trkpt lat="43.63535" lon="7.0486">
        <ele>107.10654449463</ele>
        <time>2016-05-14T12:21:39.000Z</time>
      </trkpt>
      <trkpt lat="43.63537" lon="7.04858">
        <ele>107.36741638184</ele>
        <time>2016-05-14T12:21:42.000Z</time>
      </trkpt>
      <trkpt lat="43.63539" lon="7.04855">
        <ele>107.66474914551</ele>
        <time>2016-05-14T12:21:45.000Z</time>
      </trkpt>
      <trkpt lat="43.63541" lon="7.04854">
        <ele>107.96110534668</ele>
        <time>2016-05-14T12:21:48.000Z</time>
      </trkpt>
      <trkpt lat="43.63543" lon="7.04854">
        <ele>108.25927734375</ele>
        <time>2016-05-14T12:21:51.000Z</time>
      </trkpt>
      <trkpt lat="43.63546" lon="7.04852">
        <ele>108.55277252197</ele>
        <time>2016-05-14T12:21:53.000Z</time>
      </trkpt>
      <trkpt lat="43.63547" lon="7.0485">
        <ele>108.81162261963</ele>
        <time>2016-05-14T12:21:55.000Z</time>
      </trkpt>
      <trkpt lat="43.63548" lon="7.04846">
        <ele>109.04166412354</ele>
        <time>2016-05-14T12:21:58.000Z</time>
      </trkpt>
      <trkpt lat="43.63549" lon="7.04845">
        <ele>109.2670135498</ele>
        <time>2016-05-14T12:22:00.000Z</time>
      </trkpt>
      <trkpt lat="43.63551" lon="7.04843">
        <ele>109.4966583252</ele>
        <time>2016-05-14T12:22:03.000Z</time>
      </trkpt>
      <trkpt lat="43.63553" lon="7.04839">
        <ele>109.72812652588</ele>
        <time>2016-05-14T12:22:06.000Z</time>
      </trkpt>
      <trkpt lat="43.63554" lon="7.04835">
        <ele>109.95948791504</ele>
        <time>2016-05-14T12:22:09.000Z</time>
      </trkpt>
      <trkpt lat="43.63555" lon="7.04832">
        <ele>110.19773101807</ele>
        <time>2016-05-14T12:22:11.000Z</time>
      </trkpt>
      <trkpt lat="43.63558" lon="7.04832">
        <ele>110.45336914062</ele>
        <time>2016-05-14T12:22:14.000Z</time>
      </trkpt>
      <trkpt lat="43.6356" lon="7.0483">
        <ele>110.69868469238</ele>
        <time>2016-05-14T12:22:16.000Z</time>
      </trkpt>
      <trkpt lat="43.63562" lon="7.04826">
        <ele>110.9499130249</ele>
        <time>2016-05-14T12:22:19.000Z</time>
      </trkpt>
      <trkpt lat="43.63563" lon="7.04823">
        <ele>111.20863342285</ele>
        <time>2016-05-14T12:22:21.000Z</time>
      </trkpt>
      <trkpt lat="43.63565" lon="7.0482">
        <ele>111.48638916016</ele>
        <time>2016-05-14T12:22:24.000Z</time>
      </trkpt>
      <trkpt lat="43.63567" lon="7.04816">
        <ele>111.7646484375</ele>
        <time>2016-05-14T12:22:27.000Z</time>
      </trkpt>
      <trkpt lat="43.63567" lon="7.04814">
        <ele>112.02597808838</ele>
        <time>2016-05-14T12:22:29.000Z</time>
      </trkpt>
      <trkpt lat="43.63569" lon="7.04812">
        <ele>112.26831054688</ele>
        <time>2016-05-14T12:22:32.000Z</time>
      </trkpt>
      <trkpt lat="43.6357" lon="7.04809">
        <ele>112.51908111572</ele>
        <time>2016-05-14T12:22:34.000Z</time>
      </trkpt>
      <trkpt lat="43.63572" lon="7.04806">
        <ele>112.76867675781</ele>
        <time>2016-05-14T12:22:37.000Z</time>
      </trkpt>
      <trkpt lat="43.63573" lon="7.04802">
        <ele>113.013671875</ele>
        <time>2016-05-14T12:22:40.000Z</time>
      </trkpt>
      <trkpt lat="43.63574" lon="7.04799">
        <ele>113.27323913574</ele>
        <time>2016-05-14T12:22:43.000Z</time>
      </trkpt>
      <trkpt lat="43.63576" lon="7.04798">
        <ele>113.53256988525</ele>
        <time>2016-05-14T12:22:46.000Z</time>
      </trkpt>
      <trkpt lat="43.63577" lon="7.04796">
        <ele>113.77983093262</ele>
        <time>2016-05-14T12:22:48.000Z</time>
      </trkpt>
      <trkpt lat="43.63578" lon="7.04793">
        <ele>114.00720214844</ele>
        <time>2016-05-14T12:22:51.000Z</time>
      </trkpt>
      <trkpt lat="43.63579" lon="7.04791">
        <ele>114.2202911377</ele>
        <time>2016-05-14T12:22:53.000Z</time>
      </trkpt>
      <trkpt lat="43.63581" lon="7.04787">
        <ele>114.47418212891</ele>
        <time>2016-05-14T12:22:56.000Z</time>
      </trkpt>
      <trkpt lat="43.63583" lon="7.04785">
        <ele>114.72480773926</ele>
        <time>2016-05-14T12:22:58.000Z</time>
      </trkpt>
      <trkpt lat="43.63585" lon="7.04781">
        <ele>115.01921081543</ele>
        <time>2016-05-14T12:23:01.000Z</time>
      </trkpt>
      <trkpt lat="43.63588" lon="7.04777">
        <ele>115.34661865234</ele>
        <time>2016-05-14T12:23:04.000Z</time>
      </trkpt>
      <trkpt lat="43.63589" lon="7.04775">
        <ele>115.67970275879</ele>
        <time>2016-05-14T12:23:06.000Z</time>
      </trkpt>
      <trkpt lat="43.63589" lon="7.04774">
        <ele>115.94924163818</ele>
        <time>2016-05-14T12:23:08.000Z</time>
      </trkpt>
      <trkpt lat="43.63593" lon="7.04772">
        <ele>116.23567199707</ele>
        <time>2016-05-14T12:23:11.000Z</time>
      </trkpt>
      <trkpt lat="43.63594" lon="7.04769">
        <ele>116.48504638672</ele>
        <time>2016-05-14T12:23:14.000Z</time>
      </trkpt>
      <trkpt lat="43.63595" lon="7.04766">
        <ele>116.69645690918</ele>
        <time>2016-05-14T12:23:16.000Z</time>
      </trkpt>
      <trkpt lat="43.63595" lon="7.04763">
        <ele>116.89384460449</ele>
        <time>2016-05-14T12:23:19.000Z</time>
      </trkpt>
      <trkpt lat="43.63594" lon="7.0476">
        <ele>117.07670593262</ele>
        <time>2016-05-14T12:23:21.000Z</time>
      </trkpt>
      <trkpt lat="43.63593" lon="7.04758">
        <ele>117.19528961182</ele>
        <time>2016-05-14T12:23:23.000Z</time>
      </trkpt>
      <trkpt lat="43.63593" lon="7.04757">
        <ele>117.27220153809</ele>
        <time>2016-05-14T12:23:26.000Z</time>
      </trkpt>
      <trkpt lat="43.63593" lon="7.04754">
        <ele>117.33235168457</ele>
        <time>2016-05-14T12:23:29.000Z</time>
      </trkpt>
      <trkpt lat="43.63593" lon="7.0475">
        <ele>117.39685058594</ele>
        <time>2016-05-14T12:23:32.000Z</time>
      </trkpt>
      <trkpt lat="43.63595" lon="7.04746">
        <ele>117.52740478516</ele>
        <time>2016-05-14T12:23:35.000Z</time>
      </trkpt>
      <trkpt lat="43.63595" lon="7.04744">
        <ele>117.69814300537</ele>
        <time>2016-05-14T12:23:37.000Z</time>
      </trkpt>
      <trkpt lat="43.63596" lon="7.04739">
        <ele>117.93357086182</ele>
        <time>2016-05-14T12:23:40.000Z</time>
      </trkpt>
      <trkpt lat="43.63597" lon="7.04736">
        <ele>118.19130706787</ele>
        <time>2016-05-14T12:23:42.000Z</time>
      </trkpt>
      <trkpt lat="43.63597" lon="7.04732">
        <ele>118.48323059082</ele>
        <time>2016-05-14T12:23:45.000Z</time>
      </trkpt>
      <trkpt lat="43.63598" lon="7.0473">
        <ele>118.74195861816</ele>
        <time>2016-05-14T12:23:47.000Z</time>
      </trkpt>
      <trkpt lat="43.63599" lon="7.04729">
        <ele>118.98934173584</ele>
        <time>2016-05-14T12:23:50.000Z</time>
      </trkpt>
      <trkpt lat="43.63601" lon="7.04728">
        <ele>119.2025604248</ele>
        <time>2016-05-14T12:23:53.000Z</time>
      </trkpt>
      <trkpt lat="43.63604" lon="7.04725">
        <ele>119.43565368652</ele>
        <time>2016-05-14T12:23:56.000Z</time>
      </trkpt>
      <trkpt lat="43.63606" lon="7.04722">
        <ele>119.66654205322</ele>
        <time>2016-05-14T12:23:58.000Z</time>
      </trkpt>
      <trkpt lat="43.6361" lon="7.04719">
        <ele>119.93202209473</ele>
        <time>2016-05-14T12:24:01.000Z</time>
      </trkpt>
      <trkpt lat="43.63612" lon="7.04717">
        <ele>120.21723937988</ele>
        <time>2016-05-14T12:24:03.000Z</time>
      </trkpt>
      <trkpt lat="43.63614" lon="7.04715">
        <ele>120.51656341553</ele>
        <time>2016-05-14T12:24:05.000Z</time>
      </trkpt>
      <trkpt lat="43.63616" lon="7.04712">
        <ele>120.79817962646</ele>
        <time>2016-05-14T12:24:07.000Z</time>
      </trkpt>
      <trkpt lat="43.63618" lon="7.04708">
        <ele>121.08585357666</ele>
        <time>2016-05-14T12:24:10.000Z</time>
      </trkpt>
      <trkpt lat="43.63618" lon="7.04705">
        <ele>121.35288238525</ele>
        <time>2016-05-14T12:24:13.000Z</time>
      </trkpt>
      <trkpt lat="43.63619" lon="7.04702">
        <ele>121.60524749756</ele>
        <time>2016-05-14T12:24:15.000Z</time>
      </trkpt>
      <trkpt lat="43.63622" lon="7.04699">
        <ele>121.87077331543</ele>
        <time>2016-05-14T12:24:18.000Z</time>
      </trkpt>
      <trkpt lat="43.63624" lon="7.04697">
        <ele>122.13305664062</ele>
        <time>2016-05-14T12:24:20.000Z</time>
      </trkpt>
      <trkpt lat="43.63627" lon="7.04696">
        <ele>122.37159729004</ele>
        <time>2016-05-14T12:24:23.000Z</time>
      </trkpt>
      <trkpt lat="43.6363" lon="7.04696">
        <ele>122.58393859863</ele>
        <time>2016-05-14T12:24:26.000Z</time>
      </trkpt>
      <trkpt lat="43.63632" lon="7.04696">
        <ele>122.77335357666</ele>
        <time>2016-05-14T12:24:29.000Z</time>
      </trkpt>
      <trkpt lat="43.63636" lon="7.04696">
        <ele>122.94374847412</ele>
        <time>2016-05-14T12:24:32.000Z</time>
      </trkpt>
      <trkpt lat="43.6364" lon="7.04695">
        <ele>123.11093902588</ele>
        <time>2016-05-14T12:24:35.000Z</time>
      </trkpt>
      <trkpt lat="43.63642" lon="7.04694">
        <ele>123.26823425293</ele>
        <time>2016-05-14T12:24:37.000Z</time>
      </trkpt>
      <trkpt lat="43.63644" lon="7.04692">
        <ele>123.43823242188</ele>
        <time>2016-05-14T12:24:40.000Z</time>
      </trkpt>
      <trkpt lat="43.63647" lon="7.04689">
        <ele>123.6554107666</ele>
        <time>2016-05-14T12:24:43.000Z</time>
      </trkpt>
      <trkpt lat="43.6365" lon="7.04687">
        <ele>123.87013244629</ele>
        <time>2016-05-14T12:24:46.000Z</time>
      </trkpt>
      <trkpt lat="43.63652" lon="7.04685">
        <ele>124.08425140381</ele>
        <time>2016-05-14T12:24:48.000Z</time>
      </trkpt>
      <trkpt lat="43.63654" lon="7.04683">
        <ele>124.29996490479</ele>
        <time>2016-05-14T12:24:50.000Z</time>
      </trkpt>
      <trkpt lat="43.63655" lon="7.0468">
        <ele>124.50531005859</ele>
        <time>2016-05-14T12:24:52.000Z</time>
      </trkpt>
      <trkpt lat="43.63656" lon="7.04678">
        <ele>124.69470214844</ele>
        <time>2016-05-14T12:24:55.000Z</time>
      </trkpt>
      <trkpt lat="43.63656" lon="7.04676">
        <ele>124.86376953125</ele>
        <time>2016-05-14T12:24:57.000Z</time>
      </trkpt>
      <trkpt lat="43.63656" lon="7.04674">
        <ele>125.0121307373</ele>
        <time>2016-05-14T12:24:59.000Z</time>
      </trkpt>
      <trkpt lat="43.63657" lon="7.04671">
        <ele>125.15847015381</ele>
        <time>2016-05-14T12:25:02.000Z</time>
      </trkpt>
      <trkpt lat="43.63659" lon="7.0467">
        <ele>125.29679870605</ele>
        <time>2016-05-14T12:25:04.000Z</time>
      </trkpt>
      <trkpt lat="43.63662" lon="7.0467">
        <ele>125.41870117188</ele>
        <time>2016-05-14T12:25:07.000Z</time>
      </trkpt>
      <trkpt lat="43.63663" lon="7.04667">
        <ele>125.5548324585</ele>
        <time>2016-05-14T12:25:10.000Z</time>
      </trkpt>
      <trkpt lat="43.63665" lon="7.04666">
        <ele>125.69641113281</ele>
        <time>2016-05-14T12:25:12.000Z</time>
      </trkpt>
      <trkpt lat="43.63666" lon="7.04663">
        <ele>125.8498916626</ele>
        <time>2016-05-14T12:25:15.000Z</time>
      </trkpt>
      <trkpt lat="43.63668" lon="7.04661">
        <ele>126.0166015625</ele>
        <time>2016-05-14T12:25:17.000Z</time>
      </trkpt>
      <trkpt lat="43.63669" lon="7.04659">
        <ele>126.18988037109</ele>
        <time>2016-05-14T12:25:20.000Z</time>
      </trkpt>
      <trkpt lat="43.63671" lon="7.04657">
        <ele>126.37532806396</ele>
        <time>2016-05-14T12:25:23.000Z</time>
      </trkpt>
      <trkpt lat="43.63673" lon="7.04656">
        <ele>126.573097229</ele>
        <time>2016-05-14T12:25:25.000Z</time>
      </trkpt>
      <trkpt lat="43.63678" lon="7.04653">
        <ele>126.7880859375</ele>
        <time>2016-05-14T12:25:28.000Z</time>
      </trkpt>
      <trkpt lat="43.63679" lon="7.04651">
        <ele>127.00162506104</ele>
        <time>2016-05-14T12:25:30.000Z</time>
      </trkpt>
      <trkpt lat="43.63681" lon="7.0465">
        <ele>127.22221374512</ele>
        <time>2016-05-14T12:25:33.000Z</time>
      </trkpt>
      <trkpt lat="43.63683" lon="7.04647">
        <ele>127.44267272949</ele>
        <time>2016-05-14T12:25:36.000Z</time>
      </trkpt>
      <trkpt lat="43.63684" lon="7.04642">
        <ele>127.68642425537</ele>
        <time>2016-05-14T12:25:39.000Z</time>
      </trkpt>
      <trkpt lat="43.63686" lon="7.04637">
        <ele>127.9330291748</ele>
        <time>2016-05-14T12:25:42.000Z</time>
      </trkpt>
      <trkpt lat="43.63687" lon="7.04635">
        <ele>128.1806640625</ele>
        <time>2016-05-14T12:25:44.000Z</time>
      </trkpt>
      <trkpt lat="43.63689" lon="7.04631">
        <ele>128.44206237793</ele>
        <time>2016-05-14T12:25:49.000Z</time>
      </trkpt>
      <trkpt lat="43.63688" lon="7.0463">
        <ele>128.66917419434</ele>
        <time>2016-05-14T12:25:53.000Z</time>
      </trkpt>
      <trkpt lat="43.63689" lon="7.04628">
        <ele>128.86367797852</ele>
        <time>2016-05-14T12:26:00.000Z</time>
      </trkpt>
      <trkpt lat="43.6369" lon="7.04627">
        <ele>129.0071105957</ele>
        <time>2016-05-14T12:26:04.000Z</time>
      </trkpt>
      <trkpt lat="43.63691" lon="7.04625">
        <ele>129.13954162598</ele>
        <time>2016-05-14T12:26:06.000Z</time>
      </trkpt>
      <trkpt lat="43.63693" lon="7.04622">
        <ele>129.26718139648</ele>
        <time>2016-05-14T12:26:09.000Z</time>
      </trkpt>
      <trkpt lat="43.63695" lon="7.04621">
        <ele>129.41543579102</ele>
        <time>2016-05-14T12:26:11.000Z</time>
      </trkpt>
      <trkpt lat="43.63699" lon="7.04619">
        <ele>129.58053588867</ele>
        <time>2016-05-14T12:26:14.000Z</time>
      </trkpt>
      <trkpt lat="43.63701" lon="7.04617">
        <ele>129.75636291504</ele>
        <time>2016-05-14T12:26:16.000Z</time>
      </trkpt>
      <trkpt lat="43.63705" lon="7.04615">
        <ele>129.95346069336</ele>
        <time>2016-05-14T12:26:19.000Z</time>
      </trkpt>
      <trkpt lat="43.63708" lon="7.04613">
        <ele>130.14729309082</ele>
        <time>2016-05-14T12:26:22.000Z</time>
      </trkpt>
      <trkpt lat="43.63709" lon="7.04608">
        <ele>130.36320495605</ele>
        <time>2016-05-14T12:26:25.000Z</time>
      </trkpt>
      <trkpt lat="43.63711" lon="7.04604">
        <ele>130.58700561523</ele>
        <time>2016-05-14T12:26:28.000Z</time>
      </trkpt>
      <trkpt lat="43.63713" lon="7.04599">
        <ele>130.8381652832</ele>
        <time>2016-05-14T12:26:31.000Z</time>
      </trkpt>
      <trkpt lat="43.63713" lon="7.04594">
        <ele>131.09591674805</ele>
        <time>2016-05-14T12:26:34.000Z</time>
      </trkpt>
      <trkpt lat="43.63712" lon="7.0459">
        <ele>131.34111022949</ele>
        <time>2016-05-14T12:26:36.000Z</time>
      </trkpt>
      <trkpt lat="43.63712" lon="7.04586">
        <ele>131.56680297852</ele>
        <time>2016-05-14T12:26:39.000Z</time>
      </trkpt>
      <trkpt lat="43.63711" lon="7.04583">
        <ele>131.76110839844</ele>
        <time>2016-05-14T12:26:42.000Z</time>
      </trkpt>
      <trkpt lat="43.63709" lon="7.04582">
        <ele>131.90617370605</ele>
        <time>2016-05-14T12:26:44.000Z</time>
      </trkpt>
      <trkpt lat="43.63706" lon="7.0458">
        <ele>132.00547790527</ele>
        <time>2016-05-14T12:26:47.000Z</time>
      </trkpt>
      <trkpt lat="43.63705" lon="7.04578">
        <ele>132.09634399414</ele>
        <time>2016-05-14T12:26:49.000Z</time>
      </trkpt>
      <trkpt lat="43.63705" lon="7.04575">
        <ele>132.18701171875</ele>
        <time>2016-05-14T12:26:51.000Z</time>
      </trkpt>
      <trkpt lat="43.63704" lon="7.04571">
        <ele>132.29797363281</ele>
        <time>2016-05-14T12:26:54.000Z</time>
      </trkpt>
      <trkpt lat="43.63703" lon="7.04567">
        <ele>132.45361328125</ele>
        <time>2016-05-14T12:26:57.000Z</time>
      </trkpt>
      <trkpt lat="43.63703" lon="7.04565">
        <ele>132.62170410156</ele>
        <time>2016-05-14T12:26:59.000Z</time>
      </trkpt>
      <trkpt lat="43.63702" lon="7.04562">
        <ele>132.80444335938</ele>
        <time>2016-05-14T12:27:01.000Z</time>
      </trkpt>
      <trkpt lat="43.637" lon="7.04557">
        <ele>132.99523925781</ele>
        <time>2016-05-14T12:27:04.000Z</time>
      </trkpt>
      <trkpt lat="43.637" lon="7.04554">
        <ele>133.17822265625</ele>
        <time>2016-05-14T12:27:06.000Z</time>
      </trkpt>
      <trkpt lat="43.637" lon="7.0455">
        <ele>133.3603515625</ele>
        <time>2016-05-14T12:27:09.000Z</time>
      </trkpt>
      <trkpt lat="43.63698" lon="7.04547">
        <ele>133.55419921875</ele>
        <time>2016-05-14T12:27:23.000Z</time>
      </trkpt>
      <trkpt lat="43.63697" lon="7.04545">
        <ele>133.72485351562</ele>
        <time>2016-05-14T12:27:26.000Z</time>
      </trkpt>
      <trkpt lat="43.63696" lon="7.04542">
        <ele>133.88781738281</ele>
        <time>2016-05-14T12:27:28.000Z</time>
      </trkpt>
      <trkpt lat="43.63694" lon="7.04537">
        <ele>134.06311035156</ele>
        <time>2016-05-14T12:27:31.000Z</time>
      </trkpt>
      <trkpt lat="43.63693" lon="7.04533">
        <ele>134.2412109375</ele>
        <time>2016-05-14T12:27:34.000Z</time>
      </trkpt>
      <trkpt lat="43.63692" lon="7.04529">
        <ele>134.42932128906</ele>
        <time>2016-05-14T12:27:37.000Z</time>
      </trkpt>
      <trkpt lat="43.63691" lon="7.04525">
        <ele>134.64672851562</ele>
        <time>2016-05-14T12:27:39.000Z</time>
      </trkpt>
      <trkpt lat="43.63691" lon="7.0452">
        <ele>134.88488769531</ele>
        <time>2016-05-14T12:27:42.000Z</time>
      </trkpt>
      <trkpt lat="43.6369" lon="7.04517">
        <ele>135.11315917969</ele>
        <time>2016-05-14T12:27:44.000Z</time>
      </trkpt>
      <trkpt lat="43.6369" lon="7.04513">
        <ele>135.34301757812</ele>
        <time>2016-05-14T12:27:47.000Z</time>
      </trkpt>
      <trkpt lat="43.63691" lon="7.04508">
        <ele>135.59057617188</ele>
        <time>2016-05-14T12:27:50.000Z</time>
      </trkpt>
      <trkpt lat="43.63694" lon="7.04504">
        <ele>135.84887695312</ele>
        <time>2016-05-14T12:27:53.000Z</time>
      </trkpt>
      <trkpt lat="43.63697" lon="7.04501">
        <ele>136.10339355469</ele>
        <time>2016-05-14T12:27:56.000Z</time>
      </trkpt>
      <trkpt lat="43.637" lon="7.04499">
        <ele>136.36067199707</ele>
        <time>2016-05-14T12:27:59.000Z</time>
      </trkpt>
      <trkpt lat="43.63704" lon="7.04496">
        <ele>136.61067199707</ele>
        <time>2016-05-14T12:28:02.000Z</time>
      </trkpt>
      <trkpt lat="43.63707" lon="7.04495">
        <ele>136.8212890625</ele>
        <time>2016-05-14T12:28:04.000Z</time>
      </trkpt>
      <trkpt lat="43.63709" lon="7.04494">
        <ele>136.99365234375</ele>
        <time>2016-05-14T12:28:06.000Z</time>
      </trkpt>
      <trkpt lat="43.63711" lon="7.04493">
        <ele>137.13854980469</ele>
        <time>2016-05-14T12:28:08.000Z</time>
      </trkpt>
      <trkpt lat="43.63713" lon="7.0449">
        <ele>137.28007507324</ele>
        <time>2016-05-14T12:28:11.000Z</time>
      </trkpt>
      <trkpt lat="43.63713" lon="7.04488">
        <ele>137.39749145508</ele>
        <time>2016-05-14T12:28:13.000Z</time>
      </trkpt>
      <trkpt lat="43.63713" lon="7.04486">
        <ele>137.50807189941</ele>
        <time>2016-05-14T12:28:16.000Z</time>
      </trkpt>
      <trkpt lat="43.63712" lon="7.04484">
        <ele>137.61079406738</ele>
        <time>2016-05-14T12:28:20.000Z</time>
      </trkpt>
      <trkpt lat="43.63712" lon="7.04481">
        <ele>137.71646118164</ele>
        <time>2016-05-14T12:28:23.000Z</time>
      </trkpt>
      <trkpt lat="43.63711" lon="7.04478">
        <ele>137.80606079102</ele>
        <time>2016-05-14T12:28:25.000Z</time>
      </trkpt>
      <trkpt lat="43.63709" lon="7.04476">
        <ele>137.88012695312</ele>
        <time>2016-05-14T12:28:28.000Z</time>
      </trkpt>
      <trkpt lat="43.63707" lon="7.04474">
        <ele>137.94665527344</ele>
        <time>2016-05-14T12:28:30.000Z</time>
      </trkpt>
      <trkpt lat="43.63706" lon="7.04472">
        <ele>138.01361083984</ele>
        <time>2016-05-14T12:28:33.000Z</time>
      </trkpt>
      <trkpt lat="43.63706" lon="7.0447">
        <ele>138.07238769531</ele>
        <time>2016-05-14T12:28:39.000Z</time>
      </trkpt>
      <trkpt lat="43.63706" lon="7.04467">
        <ele>138.13735961914</ele>
        <time>2016-05-14T12:28:41.000Z</time>
      </trkpt>
      <trkpt lat="43.63705" lon="7.04463">
        <ele>138.22756958008</ele>
        <time>2016-05-14T12:28:44.000Z</time>
      </trkpt>
      <trkpt lat="43.63704" lon="7.04459">
        <ele>138.3332824707</ele>
        <time>2016-05-14T12:28:47.000Z</time>
      </trkpt>
      <trkpt lat="43.63703" lon="7.04458">
        <ele>138.43719482422</ele>
        <time>2016-05-14T12:28:49.000Z</time>
      </trkpt>
      <trkpt lat="43.63704" lon="7.04453">
        <ele>138.56433105469</ele>
        <time>2016-05-14T12:28:52.000Z</time>
      </trkpt>
      <trkpt lat="43.63705" lon="7.04451">
        <ele>138.69535827637</ele>
        <time>2016-05-14T12:28:54.000Z</time>
      </trkpt>
      <trkpt lat="43.63707" lon="7.04449">
        <ele>138.81970214844</ele>
        <time>2016-05-14T12:28:56.000Z</time>
      </trkpt>
      <trkpt lat="43.63707" lon="7.04447">
        <ele>138.94297790527</ele>
        <time>2016-05-14T12:28:59.000Z</time>
      </trkpt>
      <trkpt lat="43.63707" lon="7.04444">
        <ele>139.07759094238</ele>
        <time>2016-05-14T12:29:06.000Z</time>
      </trkpt>
      <trkpt lat="43.63708" lon="7.04443">
        <ele>139.19100952148</ele>
        <time>2016-05-14T12:29:08.000Z</time>
      </trkpt>
      <trkpt lat="43.63711" lon="7.0444">
        <ele>139.31266784668</ele>
        <time>2016-05-14T12:29:11.000Z</time>
      </trkpt>
      <trkpt lat="43.63714" lon="7.04439">
        <ele>139.44567871094</ele>
        <time>2016-05-14T12:29:14.000Z</time>
      </trkpt>
      <trkpt lat="43.63717" lon="7.04436">
        <ele>139.59548950195</ele>
        <time>2016-05-14T12:29:17.000Z</time>
      </trkpt>
      <trkpt lat="43.6372" lon="7.04433">
        <ele>139.77569580078</ele>
        <time>2016-05-14T12:29:20.000Z</time>
      </trkpt>
      <trkpt lat="43.63721" lon="7.0443">
        <ele>139.97105407715</ele>
        <time>2016-05-14T12:29:22.000Z</time>
      </trkpt>
      <trkpt lat="43.63721" lon="7.04425">
        <ele>140.17617797852</ele>
        <time>2016-05-14T12:29:25.000Z</time>
      </trkpt>
      <trkpt lat="43.63721" lon="7.04423">
        <ele>140.3649597168</ele>
        <time>2016-05-14T12:29:27.000Z</time>
      </trkpt>
      <trkpt lat="43.63721" lon="7.0442">
        <ele>140.53889465332</ele>
        <time>2016-05-14T12:29:45.000Z</time>
      </trkpt>
      <trkpt lat="43.63721" lon="7.0442">
        <ele>140.65615844727</ele>
        <time>2016-05-14T12:29:47.000Z</time>
      </trkpt>
      <trkpt lat="43.63718" lon="7.04421">
        <ele>140.71537780762</ele>
        <time>2016-05-14T12:29:50.000Z</time>
      </trkpt>
      <trkpt lat="43.63715" lon="7.0442">
        <ele>140.71752929688</ele>
        <time>2016-05-14T12:29:53.000Z</time>
      </trkpt>
      <trkpt lat="43.63714" lon="7.04417">
        <ele>140.7131652832</ele>
        <time>2016-05-14T12:29:55.000Z</time>
      </trkpt>
      <trkpt lat="43.63713" lon="7.04413">
        <ele>140.72004699707</ele>
        <time>2016-05-14T12:29:58.000Z</time>
      </trkpt>
      <trkpt lat="43.63713" lon="7.04411">
        <ele>140.75912475586</ele>
        <time>2016-05-14T12:30:00.000Z</time>
      </trkpt>
      <trkpt lat="43.63713" lon="7.04408">
        <ele>140.84713745117</ele>
        <time>2016-05-14T12:30:02.000Z</time>
      </trkpt>
      <trkpt lat="43.63712" lon="7.04403">
        <ele>140.98667907715</ele>
        <time>2016-05-14T12:30:05.000Z</time>
      </trkpt>
      <trkpt lat="43.63714" lon="7.044">
        <ele>141.15908813477</ele>
        <time>2016-05-14T12:30:08.000Z</time>
      </trkpt>
      <trkpt lat="43.63715" lon="7.04395">
        <ele>141.35313415527</ele>
        <time>2016-05-14T12:30:11.000Z</time>
      </trkpt>
      <trkpt lat="43.63713" lon="7.04392">
        <ele>141.54899597168</ele>
        <time>2016-05-14T12:30:14.000Z</time>
      </trkpt>
      <trkpt lat="43.63713" lon="7.04388">
        <ele>141.74472045898</ele>
        <time>2016-05-14T12:30:16.000Z</time>
      </trkpt>
      <trkpt lat="43.6371" lon="7.04385">
        <ele>141.90501403809</ele>
        <time>2016-05-14T12:30:19.000Z</time>
      </trkpt>
      <trkpt lat="43.63708" lon="7.04381">
        <ele>142.02763366699</ele>
        <time>2016-05-14T12:30:21.000Z</time>
      </trkpt>
      <trkpt lat="43.63706" lon="7.04379">
        <ele>142.09199523926</ele>
        <time>2016-05-14T12:30:23.000Z</time>
      </trkpt>
      <trkpt lat="43.63705" lon="7.04376">
        <ele>142.14852905273</ele>
        <time>2016-05-14T12:30:25.000Z</time>
      </trkpt>
      <trkpt lat="43.63704" lon="7.04373">
        <ele>142.19714355469</ele>
        <time>2016-05-14T12:30:27.000Z</time>
      </trkpt>
      <trkpt lat="43.63702" lon="7.04368">
        <ele>142.26126098633</ele>
        <time>2016-05-14T12:30:30.000Z</time>
      </trkpt>
      <trkpt lat="43.63701" lon="7.04364">
        <ele>142.33918762207</ele>
        <time>2016-05-14T12:30:32.000Z</time>
      </trkpt>
      <trkpt lat="43.637" lon="7.04361">
        <ele>142.43502807617</ele>
        <time>2016-05-14T12:30:34.000Z</time>
      </trkpt>
      <trkpt lat="43.637" lon="7.04357">
        <ele>142.53823852539</ele>
        <time>2016-05-14T12:30:37.000Z</time>
      </trkpt>
      <trkpt lat="43.63699" lon="7.04354">
        <ele>142.63833618164</ele>
        <time>2016-05-14T12:30:39.000Z</time>
      </trkpt>
      <trkpt lat="43.63697" lon="7.0435">
        <ele>142.7321472168</ele>
        <time>2016-05-14T12:30:42.000Z</time>
      </trkpt>
      <trkpt lat="43.63697" lon="7.04345">
        <ele>142.8408203125</ele>
        <time>2016-05-14T12:30:44.000Z</time>
      </trkpt>
      <trkpt lat="43.63696" lon="7.04339">
        <ele>142.96635437012</ele>
        <time>2016-05-14T12:30:47.000Z</time>
      </trkpt>
      <trkpt lat="43.63696" lon="7.04336">
        <ele>143.08793640137</ele>
        <time>2016-05-14T12:30:49.000Z</time>
      </trkpt>
      <trkpt lat="43.63696" lon="7.04332">
        <ele>143.2428894043</ele>
        <time>2016-05-14T12:30:51.000Z</time>
      </trkpt>
      <trkpt lat="43.63697" lon="7.04329">
        <ele>143.43186950684</ele>
        <time>2016-05-14T12:30:53.000Z</time>
      </trkpt>
      <trkpt lat="43.63696" lon="7.04324">
        <ele>143.63307189941</ele>
        <time>2016-05-14T12:30:56.000Z</time>
      </trkpt>
      <trkpt lat="43.63697" lon="7.04321">
        <ele>143.8581237793</ele>
        <time>2016-05-14T12:30:58.000Z</time>
      </trkpt>
      <trkpt lat="43.63697" lon="7.04318">
        <ele>144.1148223877</ele>
        <time>2016-05-14T12:31:00.000Z</time>
      </trkpt>
      <trkpt lat="43.63697" lon="7.04313">
        <ele>144.39158630371</ele>
        <time>2016-05-14T12:31:03.000Z</time>
      </trkpt>
      <trkpt lat="43.63696" lon="7.04319">
        <ele>144.51988220215</ele>
        <time>2016-05-14T12:31:06.000Z</time>
      </trkpt>
      <trkpt lat="43.63696" lon="7.04319">
        <ele>144.51988220215</ele>
        <time>2016-05-14T12:31:26.000Z</time>
      </trkpt>
      <trkpt lat="43.63694" lon="7.04318">
        <ele>144.56977844238</ele>
        <time>2016-05-14T12:31:56.000Z</time>
      </trkpt>
      <trkpt lat="43.63696" lon="7.04318">
        <ele>144.59889221191</ele>
        <time>2016-05-14T12:32:05.000Z</time>
      </trkpt>
      <trkpt lat="43.63696" lon="7.04317">
        <ele>144.57214355469</ele>
        <time>2016-05-14T12:32:12.000Z</time>
      </trkpt>
      <trkpt lat="43.63695" lon="7.04314">
        <ele>144.51402282715</ele>
        <time>2016-05-14T12:32:14.000Z</time>
      </trkpt>
      <trkpt lat="43.63696" lon="7.04312">
        <ele>144.5927734375</ele>
        <time>2016-05-14T12:32:17.000Z</time>
      </trkpt>
      <trkpt lat="43.63697" lon="7.0431">
        <ele>144.74694824219</ele>
        <time>2016-05-14T12:32:19.000Z</time>
      </trkpt>
      <trkpt lat="43.63697" lon="7.04304">
        <ele>144.96418762207</ele>
        <time>2016-05-14T12:32:22.000Z</time>
      </trkpt>
      <trkpt lat="43.63696" lon="7.04297">
        <ele>145.24353027344</ele>
        <time>2016-05-14T12:32:25.000Z</time>
      </trkpt>
      <trkpt lat="43.63696" lon="7.04295">
        <ele>145.51481628418</ele>
        <time>2016-05-14T12:32:27.000Z</time>
      </trkpt>
      <trkpt lat="43.63697" lon="7.04292">
        <ele>145.80429077148</ele>
        <time>2016-05-14T12:32:30.000Z</time>
      </trkpt>
      <trkpt lat="43.63696" lon="7.04289">
        <ele>146.07696533203</ele>
        <time>2016-05-14T12:32:33.000Z</time>
      </trkpt>
      <trkpt lat="43.63694" lon="7.04287">
        <ele>146.2447052002</ele>
        <time>2016-05-14T12:32:36.000Z</time>
      </trkpt>
      <trkpt lat="43.63692" lon="7.04285">
        <ele>146.33894348145</ele>
        <time>2016-05-14T12:32:39.000Z</time>
      </trkpt>
      <trkpt lat="43.63687" lon="7.04282">
        <ele>146.34384155273</ele>
        <time>2016-05-14T12:32:42.000Z</time>
      </trkpt>
      <trkpt lat="43.63684" lon="7.04281">
        <ele>146.25360107422</ele>
        <time>2016-05-14T12:32:44.000Z</time>
      </trkpt>
      <trkpt lat="43.63683" lon="7.0428">
        <ele>146.12072753906</ele>
        <time>2016-05-14T12:32:47.000Z</time>
      </trkpt>
      <trkpt lat="43.63681" lon="7.04276">
        <ele>146.00486755371</ele>
        <time>2016-05-14T12:32:50.000Z</time>
      </trkpt>
      <trkpt lat="43.63678" lon="7.04273">
        <ele>145.8791809082</ele>
        <time>2016-05-14T12:32:52.000Z</time>
      </trkpt>
      <trkpt lat="43.63674" lon="7.0427">
        <ele>145.77355957031</ele>
        <time>2016-05-14T12:32:55.000Z</time>
      </trkpt>
      <trkpt lat="43.63671" lon="7.04268">
        <ele>145.66928100586</ele>
        <time>2016-05-14T12:32:57.000Z</time>
      </trkpt>
      <trkpt lat="43.63668" lon="7.04265">
        <ele>145.55270385742</ele>
        <time>2016-05-14T12:32:59.000Z</time>
      </trkpt>
      <trkpt lat="43.63665" lon="7.04263">
        <ele>145.40634155273</ele>
        <time>2016-05-14T12:33:01.000Z</time>
      </trkpt>
      <trkpt lat="43.63662" lon="7.0426">
        <ele>145.28143310547</ele>
        <time>2016-05-14T12:33:04.000Z</time>
      </trkpt>
      <trkpt lat="43.63661" lon="7.04258">
        <ele>145.20425415039</ele>
        <time>2016-05-14T12:33:06.000Z</time>
      </trkpt>
      <trkpt lat="43.63658" lon="7.04255">
        <ele>145.15422058105</ele>
        <time>2016-05-14T12:33:09.000Z</time>
      </trkpt>
      <trkpt lat="43.63656" lon="7.04253">
        <ele>145.14059448242</ele>
        <time>2016-05-14T12:33:11.000Z</time>
      </trkpt>
      <trkpt lat="43.63654" lon="7.0425">
        <ele>145.16110229492</ele>
        <time>2016-05-14T12:33:14.000Z</time>
      </trkpt>
      <trkpt lat="43.63653" lon="7.04249">
        <ele>145.20855712891</ele>
        <time>2016-05-14T12:33:16.000Z</time>
      </trkpt>
      <trkpt lat="43.63651" lon="7.04245">
        <ele>145.30674743652</ele>
        <time>2016-05-14T12:33:19.000Z</time>
      </trkpt>
      <trkpt lat="43.63647" lon="7.04242">
        <ele>145.45718383789</ele>
        <time>2016-05-14T12:33:22.000Z</time>
      </trkpt>
      <trkpt lat="43.63643" lon="7.0424">
        <ele>145.59326171875</ele>
        <time>2016-05-14T12:33:25.000Z</time>
      </trkpt>
      <trkpt lat="43.6364" lon="7.04238">
        <ele>145.72627258301</ele>
        <time>2016-05-14T12:33:27.000Z</time>
      </trkpt>
      <trkpt lat="43.63636" lon="7.04236">
        <ele>145.83511352539</ele>
        <time>2016-05-14T12:33:30.000Z</time>
      </trkpt>
      <trkpt lat="43.63633" lon="7.04235">
        <ele>145.88873291016</ele>
        <time>2016-05-14T12:33:32.000Z</time>
      </trkpt>
      <trkpt lat="43.63628" lon="7.04233">
        <ele>145.88578796387</ele>
        <time>2016-05-14T12:33:35.000Z</time>
      </trkpt>
      <trkpt lat="43.63624" lon="7.04232">
        <ele>145.88848876953</ele>
        <time>2016-05-14T12:33:38.000Z</time>
      </trkpt>
      <trkpt lat="43.63622" lon="7.0423">
        <ele>145.89511108398</ele>
        <time>2016-05-14T12:33:40.000Z</time>
      </trkpt>
      <trkpt lat="43.6362" lon="7.04229">
        <ele>145.90629577637</ele>
        <time>2016-05-14T12:33:42.000Z</time>
      </trkpt>
      <trkpt lat="43.63618" lon="7.04228">
        <ele>145.91659545898</ele>
        <time>2016-05-14T12:33:45.000Z</time>
      </trkpt>
      <trkpt lat="43.63615" lon="7.04227">
        <ele>145.93637084961</ele>
        <time>2016-05-14T12:33:48.000Z</time>
      </trkpt>
      <trkpt lat="43.63612" lon="7.04226">
        <ele>145.95886230469</ele>
        <time>2016-05-14T12:33:50.000Z</time>
      </trkpt>
      <trkpt lat="43.63608" lon="7.04224">
        <ele>145.97952270508</ele>
        <time>2016-05-14T12:33:53.000Z</time>
      </trkpt>
      <trkpt lat="43.63604" lon="7.04222">
        <ele>146.0170135498</ele>
        <time>2016-05-14T12:33:56.000Z</time>
      </trkpt>
      <trkpt lat="43.63602" lon="7.0422">
        <ele>146.08613586426</ele>
        <time>2016-05-14T12:33:58.000Z</time>
      </trkpt>
      <trkpt lat="43.636" lon="7.04217">
        <ele>146.20707702637</ele>
        <time>2016-05-14T12:34:00.000Z</time>
      </trkpt>
      <trkpt lat="43.63593" lon="7.04216">
        <ele>146.2808380127</ele>
        <time>2016-05-14T12:34:03.000Z</time>
      </trkpt>
      <trkpt lat="43.6359" lon="7.04215">
        <ele>146.33874511719</ele>
        <time>2016-05-14T12:34:05.000Z</time>
      </trkpt>
      <trkpt lat="43.63586" lon="7.04213">
        <ele>146.40484619141</ele>
        <time>2016-05-14T12:34:08.000Z</time>
      </trkpt>
      <trkpt lat="43.63584" lon="7.04211">
        <ele>146.46022033691</ele>
        <time>2016-05-14T12:34:10.000Z</time>
      </trkpt>
      <trkpt lat="43.63579" lon="7.04209">
        <ele>146.45303344727</ele>
        <time>2016-05-14T12:34:13.000Z</time>
      </trkpt>
      <trkpt lat="43.63578" lon="7.04208">
        <ele>146.50302124023</ele>
        <time>2016-05-14T12:34:15.000Z</time>
      </trkpt>
      <trkpt lat="43.63577" lon="7.04206">
        <ele>146.57104492188</ele>
        <time>2016-05-14T12:34:18.000Z</time>
      </trkpt>
      <trkpt lat="43.63573" lon="7.04206">
        <ele>146.56620788574</ele>
        <time>2016-05-14T12:34:21.000Z</time>
      </trkpt>
      <trkpt lat="43.6357" lon="7.04205">
        <ele>146.50845336914</ele>
        <time>2016-05-14T12:34:23.000Z</time>
      </trkpt>
      <trkpt lat="43.63567" lon="7.04205">
        <ele>146.40133666992</ele>
        <time>2016-05-14T12:34:26.000Z</time>
      </trkpt>
      <trkpt lat="43.63565" lon="7.04205">
        <ele>146.24731445312</ele>
        <time>2016-05-14T12:34:28.000Z</time>
      </trkpt>
      <trkpt lat="43.6356" lon="7.04205">
        <ele>145.99761962891</ele>
        <time>2016-05-14T12:34:31.000Z</time>
      </trkpt>
      <trkpt lat="43.63557" lon="7.04205">
        <ele>145.74058532715</ele>
        <time>2016-05-14T12:34:33.000Z</time>
      </trkpt>
      <trkpt lat="43.63555" lon="7.04205">
        <ele>145.46368408203</ele>
        <time>2016-05-14T12:34:35.000Z</time>
      </trkpt>
      <trkpt lat="43.63551" lon="7.04206">
        <ele>145.16122436523</ele>
        <time>2016-05-14T12:34:38.000Z</time>
      </trkpt>
      <trkpt lat="43.63548" lon="7.04206">
        <ele>144.82083129883</ele>
        <time>2016-05-14T12:34:40.000Z</time>
      </trkpt>
      <trkpt lat="43.63546" lon="7.04206">
        <ele>144.52490234375</ele>
        <time>2016-05-14T12:34:42.000Z</time>
      </trkpt>
      <trkpt lat="43.63541" lon="7.04205">
        <ele>144.21192932129</ele>
        <time>2016-05-14T12:34:45.000Z</time>
      </trkpt>
      <trkpt lat="43.63538" lon="7.04205">
        <ele>143.89848327637</ele>
        <time>2016-05-14T12:34:47.000Z</time>
      </trkpt>
      <trkpt lat="43.63532" lon="7.04206">
        <ele>143.5556640625</ele>
        <time>2016-05-14T12:34:50.000Z</time>
      </trkpt>
      <trkpt lat="43.63529" lon="7.04205">
        <ele>143.23970031738</ele>
        <time>2016-05-14T12:34:52.000Z</time>
      </trkpt>
      <trkpt lat="43.63526" lon="7.04202">
        <ele>142.99453735352</ele>
        <time>2016-05-14T12:34:55.000Z</time>
      </trkpt>
      <trkpt lat="43.63524" lon="7.042">
        <ele>142.8148651123</ele>
        <time>2016-05-14T12:34:57.000Z</time>
      </trkpt>
      <trkpt lat="43.63522" lon="7.04199">
        <ele>142.70243835449</ele>
        <time>2016-05-14T12:35:00.000Z</time>
      </trkpt>
      <trkpt lat="43.63519" lon="7.04197">
        <ele>142.70155334473</ele>
        <time>2016-05-14T12:35:02.000Z</time>
      </trkpt>
      <trkpt lat="43.63517" lon="7.04195">
        <ele>142.75357055664</ele>
        <time>2016-05-14T12:35:04.000Z</time>
      </trkpt>
      <trkpt lat="43.63513" lon="7.04191">
        <ele>142.79125976562</ele>
        <time>2016-05-14T12:35:07.000Z</time>
      </trkpt>
      <trkpt lat="43.63511" lon="7.0419">
        <ele>142.83512878418</ele>
        <time>2016-05-14T12:35:09.000Z</time>
      </trkpt>
      <trkpt lat="43.63509" lon="7.04186">
        <ele>142.91911315918</ele>
        <time>2016-05-14T12:35:12.000Z</time>
      </trkpt>
      <trkpt lat="43.63507" lon="7.04184">
        <ele>143.03506469727</ele>
        <time>2016-05-14T12:35:14.000Z</time>
      </trkpt>
      <trkpt lat="43.63506" lon="7.04182">
        <ele>143.1932220459</ele>
        <time>2016-05-14T12:35:16.000Z</time>
      </trkpt>
      <trkpt lat="43.63504" lon="7.04177">
        <ele>143.42646789551</ele>
        <time>2016-05-14T12:35:19.000Z</time>
      </trkpt>
      <trkpt lat="43.63501" lon="7.04174">
        <ele>143.66590881348</ele>
        <time>2016-05-14T12:35:21.000Z</time>
      </trkpt>
      <trkpt lat="43.63498" lon="7.04172">
        <ele>143.81481933594</ele>
        <time>2016-05-14T12:35:23.000Z</time>
      </trkpt>
      <trkpt lat="43.63497" lon="7.0417">
        <ele>143.95291137695</ele>
        <time>2016-05-14T12:35:25.000Z</time>
      </trkpt>
      <trkpt lat="43.63495" lon="7.04167">
        <ele>144.07705688477</ele>
        <time>2016-05-14T12:35:28.000Z</time>
      </trkpt>
      <trkpt lat="43.63493" lon="7.04161">
        <ele>144.1794128418</ele>
        <time>2016-05-14T12:35:31.000Z</time>
      </trkpt>
      <trkpt lat="43.63489" lon="7.04158">
        <ele>144.2646484375</ele>
        <time>2016-05-14T12:35:34.000Z</time>
      </trkpt>
      <trkpt lat="43.63486" lon="7.04157">
        <ele>144.30807495117</ele>
        <time>2016-05-14T12:35:36.000Z</time>
      </trkpt>
      <trkpt lat="43.63483" lon="7.04156">
        <ele>144.2964630127</ele>
        <time>2016-05-14T12:35:38.000Z</time>
      </trkpt>
      <trkpt lat="43.63481" lon="7.04151">
        <ele>144.29824829102</ele>
        <time>2016-05-14T12:35:41.000Z</time>
      </trkpt>
      <trkpt lat="43.6348" lon="7.04148">
        <ele>144.26588439941</ele>
        <time>2016-05-14T12:35:43.000Z</time>
      </trkpt>
      <trkpt lat="43.63475" lon="7.04144">
        <ele>144.22508239746</ele>
        <time>2016-05-14T12:35:46.000Z</time>
      </trkpt>
      <trkpt lat="43.63471" lon="7.04141">
        <ele>144.22514343262</ele>
        <time>2016-05-14T12:35:49.000Z</time>
      </trkpt>
      <trkpt lat="43.63469" lon="7.04138">
        <ele>144.24580383301</ele>
        <time>2016-05-14T12:35:51.000Z</time>
      </trkpt>
      <trkpt lat="43.63466" lon="7.04136">
        <ele>144.19813537598</ele>
        <time>2016-05-14T12:35:53.000Z</time>
      </trkpt>
      <trkpt lat="43.63461" lon="7.04133">
        <ele>144.04499816895</ele>
        <time>2016-05-14T12:35:56.000Z</time>
      </trkpt>
      <trkpt lat="43.63458" lon="7.04129">
        <ele>143.91751098633</ele>
        <time>2016-05-14T12:35:59.000Z</time>
      </trkpt>
      <trkpt lat="43.63456" lon="7.04126">
        <ele>143.82583618164</ele>
        <time>2016-05-14T12:36:01.000Z</time>
      </trkpt>
      <trkpt lat="43.63454" lon="7.04122">
        <ele>143.81143188477</ele>
        <time>2016-05-14T12:36:04.000Z</time>
      </trkpt>
      <trkpt lat="43.63451" lon="7.04117">
        <ele>143.8653717041</ele>
        <time>2016-05-14T12:36:07.000Z</time>
      </trkpt>
      <trkpt lat="43.63449" lon="7.04112">
        <ele>144.041015625</ele>
        <time>2016-05-14T12:36:10.000Z</time>
      </trkpt>
      <trkpt lat="43.63448" lon="7.04109">
        <ele>144.25643920898</ele>
        <time>2016-05-14T12:36:12.000Z</time>
      </trkpt>
      <trkpt lat="43.63447" lon="7.04104">
        <ele>144.58561706543</ele>
        <time>2016-05-14T12:36:15.000Z</time>
      </trkpt>
      <trkpt lat="43.63446" lon="7.04101">
        <ele>144.90565490723</ele>
        <time>2016-05-14T12:36:17.000Z</time>
      </trkpt>
      <trkpt lat="43.63443" lon="7.04098">
        <ele>145.14572143555</ele>
        <time>2016-05-14T12:36:20.000Z</time>
      </trkpt>
      <trkpt lat="43.63441" lon="7.04096">
        <ele>145.31164550781</ele>
        <time>2016-05-14T12:36:22.000Z</time>
      </trkpt>
      <trkpt lat="43.63437" lon="7.04092">
        <ele>145.3932800293</ele>
        <time>2016-05-14T12:36:25.000Z</time>
      </trkpt>
      <trkpt lat="43.63435" lon="7.04089">
        <ele>145.38485717773</ele>
        <time>2016-05-14T12:36:27.000Z</time>
      </trkpt>
      <trkpt lat="43.63433" lon="7.04086">
        <ele>145.32460021973</ele>
        <time>2016-05-14T12:36:29.000Z</time>
      </trkpt>
      <trkpt lat="43.63429" lon="7.04084">
        <ele>145.23722839355</ele>
        <time>2016-05-14T12:36:32.000Z</time>
      </trkpt>
      <trkpt lat="43.63427" lon="7.04082">
        <ele>145.1106262207</ele>
        <time>2016-05-14T12:36:34.000Z</time>
      </trkpt>
      <trkpt lat="43.63424" lon="7.0408">
        <ele>144.97402954102</ele>
        <time>2016-05-14T12:36:36.000Z</time>
      </trkpt>
      <trkpt lat="43.6342" lon="7.04077">
        <ele>144.71260070801</ele>
        <time>2016-05-14T12:36:39.000Z</time>
      </trkpt>
      <trkpt lat="43.63419" lon="7.04075">
        <ele>144.4260559082</ele>
        <time>2016-05-14T12:36:41.000Z</time>
      </trkpt>
      <trkpt lat="43.63416" lon="7.04072">
        <ele>144.15077209473</ele>
        <time>2016-05-14T12:36:44.000Z</time>
      </trkpt>
      <trkpt lat="43.63415" lon="7.04071">
        <ele>143.88204956055</ele>
        <time>2016-05-14T12:36:46.000Z</time>
      </trkpt>
      <trkpt lat="43.63412" lon="7.04069">
        <ele>143.5859375</ele>
        <time>2016-05-14T12:36:48.000Z</time>
      </trkpt>
      <trkpt lat="43.63409" lon="7.04065">
        <ele>143.28671264648</ele>
        <time>2016-05-14T12:36:51.000Z</time>
      </trkpt>
      <trkpt lat="43.63406" lon="7.04063">
        <ele>142.94424438477</ele>
        <time>2016-05-14T12:36:53.000Z</time>
      </trkpt>
      <trkpt lat="43.63404" lon="7.04061">
        <ele>142.59571838379</ele>
        <time>2016-05-14T12:36:55.000Z</time>
      </trkpt>
      <trkpt lat="43.634" lon="7.04057">
        <ele>142.18313598633</ele>
        <time>2016-05-14T12:36:58.000Z</time>
      </trkpt>
      <trkpt lat="43.63399" lon="7.04056">
        <ele>141.82675170898</ele>
        <time>2016-05-14T12:37:00.000Z</time>
      </trkpt>
      <trkpt lat="43.63397" lon="7.04052">
        <ele>141.53517150879</ele>
        <time>2016-05-14T12:37:03.000Z</time>
      </trkpt>
      <trkpt lat="43.63396" lon="7.04047">
        <ele>141.33920288086</ele>
        <time>2016-05-14T12:37:05.000Z</time>
      </trkpt>
      <trkpt lat="43.63396" lon="7.04041">
        <ele>141.24829101562</ele>
        <time>2016-05-14T12:37:08.000Z</time>
      </trkpt>
      <trkpt lat="43.63395" lon="7.04038">
        <ele>141.25918579102</ele>
        <time>2016-05-14T12:37:10.000Z</time>
      </trkpt>
      <trkpt lat="43.63393" lon="7.04034">
        <ele>141.27044677734</ele>
        <time>2016-05-14T12:37:13.000Z</time>
      </trkpt>
      <trkpt lat="43.63391" lon="7.04029">
        <ele>141.28723144531</ele>
        <time>2016-05-14T12:37:16.000Z</time>
      </trkpt>
      <trkpt lat="43.63391" lon="7.04026">
        <ele>141.32038879395</ele>
        <time>2016-05-14T12:37:18.000Z</time>
      </trkpt>
      <trkpt lat="43.63391" lon="7.04021">
        <ele>141.34922790527</ele>
        <time>2016-05-14T12:37:21.000Z</time>
      </trkpt>
      <trkpt lat="43.63392" lon="7.04015">
        <ele>141.49046325684</ele>
        <time>2016-05-14T12:37:24.000Z</time>
      </trkpt>
      <trkpt lat="43.63393" lon="7.0401">
        <ele>141.77128601074</ele>
        <time>2016-05-14T12:37:27.000Z</time>
      </trkpt>
      <trkpt lat="43.63394" lon="7.04005">
        <ele>142.15921020508</ele>
        <time>2016-05-14T12:37:30.000Z</time>
      </trkpt>
      <trkpt lat="43.63393" lon="7.04">
        <ele>142.53288269043</ele>
        <time>2016-05-14T12:37:33.000Z</time>
      </trkpt>
      <trkpt lat="43.63394" lon="7.03998">
        <ele>142.8911895752</ele>
        <time>2016-05-14T12:37:35.000Z</time>
      </trkpt>
      <trkpt lat="43.63394" lon="7.03995">
        <ele>143.16854858398</ele>
        <time>2016-05-14T12:37:38.000Z</time>
      </trkpt>
      <trkpt lat="43.63394" lon="7.03989">
        <ele>143.30964660645</ele>
        <time>2016-05-14T12:37:41.000Z</time>
      </trkpt>
      <trkpt lat="43.63394" lon="7.03985">
        <ele>143.39529418945</ele>
        <time>2016-05-14T12:37:43.000Z</time>
      </trkpt>
      <trkpt lat="43.63395" lon="7.03982">
        <ele>143.45941162109</ele>
        <time>2016-05-14T12:37:45.000Z</time>
      </trkpt>
      <trkpt lat="43.63395" lon="7.03977">
        <ele>143.50834655762</ele>
        <time>2016-05-14T12:37:48.000Z</time>
      </trkpt>
      <trkpt lat="43.63395" lon="7.0397">
        <ele>143.54342651367</ele>
        <time>2016-05-14T12:37:51.000Z</time>
      </trkpt>
      <trkpt lat="43.63395" lon="7.03966">
        <ele>143.59281921387</ele>
        <time>2016-05-14T12:37:53.000Z</time>
      </trkpt>
      <trkpt lat="43.63395" lon="7.0396">
        <ele>143.62727355957</ele>
        <time>2016-05-14T12:37:56.000Z</time>
      </trkpt>
      <trkpt lat="43.63395" lon="7.03958">
        <ele>143.66122436523</ele>
        <time>2016-05-14T12:37:58.000Z</time>
      </trkpt>
      <trkpt lat="43.63395" lon="7.03953">
        <ele>143.67904663086</ele>
        <time>2016-05-14T12:38:00.000Z</time>
      </trkpt>
      <trkpt lat="43.63396" lon="7.03947">
        <ele>143.73699951172</ele>
        <time>2016-05-14T12:38:03.000Z</time>
      </trkpt>
      <trkpt lat="43.63398" lon="7.03942">
        <ele>143.84773254395</ele>
        <time>2016-05-14T12:38:06.000Z</time>
      </trkpt>
      <trkpt lat="43.63399" lon="7.03939">
        <ele>143.9940032959</ele>
        <time>2016-05-14T12:38:08.000Z</time>
      </trkpt>
      <trkpt lat="43.634" lon="7.03937">
        <ele>144.17727661133</ele>
        <time>2016-05-14T12:38:10.000Z</time>
      </trkpt>
      <trkpt lat="43.63402" lon="7.03933">
        <ele>144.42068481445</ele>
        <time>2016-05-14T12:38:13.000Z</time>
      </trkpt>
      <trkpt lat="43.63404" lon="7.0393">
        <ele>144.66813659668</ele>
        <time>2016-05-14T12:38:15.000Z</time>
      </trkpt>
      <trkpt lat="43.63405" lon="7.03929">
        <ele>144.89669799805</ele>
        <time>2016-05-14T12:38:17.000Z</time>
      </trkpt>
      <trkpt lat="43.63406" lon="7.03926">
        <ele>145.13220214844</ele>
        <time>2016-05-14T12:38:20.000Z</time>
      </trkpt>
      <trkpt lat="43.63409" lon="7.03922">
        <ele>145.39685058594</ele>
        <time>2016-05-14T12:38:23.000Z</time>
      </trkpt>
      <trkpt lat="43.63411" lon="7.0392">
        <ele>145.6676940918</ele>
        <time>2016-05-14T12:38:25.000Z</time>
      </trkpt>
      <trkpt lat="43.63414" lon="7.03919">
        <ele>145.95724487305</ele>
        <time>2016-05-14T12:38:28.000Z</time>
      </trkpt>
      <trkpt lat="43.63416" lon="7.03917">
        <ele>146.25436401367</ele>
        <time>2016-05-14T12:38:30.000Z</time>
      </trkpt>
      <trkpt lat="43.63418" lon="7.03914">
        <ele>146.50245666504</ele>
        <time>2016-05-14T12:38:33.000Z</time>
      </trkpt>
      <trkpt lat="43.6342" lon="7.03912">
        <ele>146.68008422852</ele>
        <time>2016-05-14T12:38:35.000Z</time>
      </trkpt>
      <trkpt lat="43.63424" lon="7.03911">
        <ele>146.86088562012</ele>
        <time>2016-05-14T12:38:38.000Z</time>
      </trkpt>
      <trkpt lat="43.63425" lon="7.03912">
        <ele>147.0344543457</ele>
        <time>2016-05-14T12:38:40.000Z</time>
      </trkpt>
      <trkpt lat="43.6343" lon="7.03913">
        <ele>147.32174682617</ele>
        <time>2016-05-14T12:38:43.000Z</time>
      </trkpt>
      <trkpt lat="43.63432" lon="7.03913">
        <ele>147.67793273926</ele>
        <time>2016-05-14T12:38:45.000Z</time>
      </trkpt>
      <trkpt lat="43.63434" lon="7.03913">
        <ele>148.09872436523</ele>
        <time>2016-05-14T12:38:47.000Z</time>
      </trkpt>
      <trkpt lat="43.63438" lon="7.03912">
        <ele>148.53666687012</ele>
        <time>2016-05-14T12:38:50.000Z</time>
      </trkpt>
      <trkpt lat="43.63439" lon="7.03912">
        <ele>148.93008422852</ele>
        <time>2016-05-14T12:38:53.000Z</time>
      </trkpt>
      <trkpt lat="43.63442" lon="7.03911">
        <ele>149.21774291992</ele>
        <time>2016-05-14T12:38:55.000Z</time>
      </trkpt>
      <trkpt lat="43.63446" lon="7.03911">
        <ele>149.55081176758</ele>
        <time>2016-05-14T12:38:58.000Z</time>
      </trkpt>
      <trkpt lat="43.63447" lon="7.03911">
        <ele>149.85830688477</ele>
        <time>2016-05-14T12:39:01.000Z</time>
      </trkpt>
      <trkpt lat="43.63451" lon="7.03912">
        <ele>150.20263671875</ele>
        <time>2016-05-14T12:39:10.000Z</time>
      </trkpt>
      <trkpt lat="43.63456" lon="7.03911">
        <ele>150.63066101074</ele>
        <time>2016-05-14T12:39:13.000Z</time>
      </trkpt>
      <trkpt lat="43.63459" lon="7.0391">
        <ele>151.04183959961</ele>
        <time>2016-05-14T12:39:15.000Z</time>
      </trkpt>
      <trkpt lat="43.63462" lon="7.03908">
        <ele>151.36729431152</ele>
        <time>2016-05-14T12:39:17.000Z</time>
      </trkpt>
      <trkpt lat="43.63465" lon="7.03908">
        <ele>151.75776672363</ele>
        <time>2016-05-14T12:39:20.000Z</time>
      </trkpt>
      <trkpt lat="43.63468" lon="7.03907">
        <ele>152.07090759277</ele>
        <time>2016-05-14T12:39:22.000Z</time>
      </trkpt>
      <trkpt lat="43.63471" lon="7.03907">
        <ele>152.34162902832</ele>
        <time>2016-05-14T12:39:24.000Z</time>
      </trkpt>
      <trkpt lat="43.63476" lon="7.03906">
        <ele>152.66914367676</ele>
        <time>2016-05-14T12:39:27.000Z</time>
      </trkpt>
      <trkpt lat="43.6348" lon="7.03906">
        <ele>153.09895324707</ele>
        <time>2016-05-14T12:39:29.000Z</time>
      </trkpt>
      <trkpt lat="43.63485" lon="7.03905">
        <ele>153.51152038574</ele>
        <time>2016-05-14T12:39:32.000Z</time>
      </trkpt>
      <trkpt lat="43.63488" lon="7.03905">
        <ele>153.9457244873</ele>
        <time>2016-05-14T12:39:35.000Z</time>
      </trkpt>
      <trkpt lat="43.63491" lon="7.03901">
        <ele>154.26077270508</ele>
        <time>2016-05-14T12:39:38.000Z</time>
      </trkpt>
      <trkpt lat="43.63494" lon="7.03897">
        <ele>154.37155151367</ele>
        <time>2016-05-14T12:39:40.000Z</time>
      </trkpt>
      <trkpt lat="43.63495" lon="7.03895">
        <ele>154.28713989258</ele>
        <time>2016-05-14T12:39:43.000Z</time>
      </trkpt>
      <trkpt lat="43.63498" lon="7.03893">
        <ele>154.09646606445</ele>
        <time>2016-05-14T12:39:45.000Z</time>
      </trkpt>
      <trkpt lat="43.63501" lon="7.0389">
        <ele>153.84700012207</ele>
        <time>2016-05-14T12:39:48.000Z</time>
      </trkpt>
      <trkpt lat="43.63505" lon="7.03889">
        <ele>153.76220703125</ele>
        <time>2016-05-14T12:39:50.000Z</time>
      </trkpt>
      <trkpt lat="43.63508" lon="7.03888">
        <ele>153.92575073242</ele>
        <time>2016-05-14T12:39:52.000Z</time>
      </trkpt>
      <trkpt lat="43.63512" lon="7.03884">
        <ele>154.22142028809</ele>
        <time>2016-05-14T12:39:55.000Z</time>
      </trkpt>
      <trkpt lat="43.63515" lon="7.03883">
        <ele>154.6363067627</ele>
        <time>2016-05-14T12:39:57.000Z</time>
      </trkpt>
      <trkpt lat="43.63519" lon="7.03881">
        <ele>155.17225646973</ele>
        <time>2016-05-14T12:40:00.000Z</time>
      </trkpt>
      <trkpt lat="43.63522" lon="7.03878">
        <ele>155.66958618164</ele>
        <time>2016-05-14T12:40:02.000Z</time>
      </trkpt>
      <trkpt lat="43.63524" lon="7.03876">
        <ele>156.06221008301</ele>
        <time>2016-05-14T12:40:04.000Z</time>
      </trkpt>
      <trkpt lat="43.63525" lon="7.03875">
        <ele>156.37348937988</ele>
        <time>2016-05-14T12:40:06.000Z</time>
      </trkpt>
      <trkpt lat="43.63528" lon="7.03871">
        <ele>156.65379333496</ele>
        <time>2016-05-14T12:40:09.000Z</time>
      </trkpt>
      <trkpt lat="43.63533" lon="7.03866">
        <ele>156.88735961914</ele>
        <time>2016-05-14T12:40:12.000Z</time>
      </trkpt>
      <trkpt lat="43.63536" lon="7.03861">
        <ele>157.04747009277</ele>
        <time>2016-05-14T12:40:15.000Z</time>
      </trkpt>
      <trkpt lat="43.63537" lon="7.03858">
        <ele>157.14280700684</ele>
        <time>2016-05-14T12:40:17.000Z</time>
      </trkpt>
      <trkpt lat="43.63539" lon="7.03854">
        <ele>157.28616333008</ele>
        <time>2016-05-14T12:40:20.000Z</time>
      </trkpt>
      <trkpt lat="43.63541" lon="7.03852">
        <ele>157.39706420898</ele>
        <time>2016-05-14T12:40:22.000Z</time>
      </trkpt>
      <trkpt lat="43.63544" lon="7.03848">
        <ele>157.49601745605</ele>
        <time>2016-05-14T12:40:25.000Z</time>
      </trkpt>
      <trkpt lat="43.63548" lon="7.03842">
        <ele>157.66018676758</ele>
        <time>2016-05-14T12:40:28.000Z</time>
      </trkpt>
      <trkpt lat="43.63549" lon="7.03839">
        <ele>157.87612915039</ele>
        <time>2016-05-14T12:40:30.000Z</time>
      </trkpt>
      <trkpt lat="43.63551" lon="7.03836">
        <ele>158.06088256836</ele>
        <time>2016-05-14T12:40:33.000Z</time>
      </trkpt>
      <trkpt lat="43.63551" lon="7.03832">
        <ele>158.19111633301</ele>
        <time>2016-05-14T12:40:35.000Z</time>
      </trkpt>
      <trkpt lat="43.63552" lon="7.03828">
        <ele>158.22360229492</ele>
        <time>2016-05-14T12:40:37.000Z</time>
      </trkpt>
      <trkpt lat="43.63552" lon="7.03822">
        <ele>158.17408752441</ele>
        <time>2016-05-14T12:40:40.000Z</time>
      </trkpt>
      <trkpt lat="43.63554" lon="7.03818">
        <ele>158.10932922363</ele>
        <time>2016-05-14T12:40:42.000Z</time>
      </trkpt>
      <trkpt lat="43.63554" lon="7.03813">
        <ele>157.9977722168</ele>
        <time>2016-05-14T12:40:45.000Z</time>
      </trkpt>
      <trkpt lat="43.63555" lon="7.03806">
        <ele>157.87266540527</ele>
        <time>2016-05-14T12:40:48.000Z</time>
      </trkpt>
      <trkpt lat="43.63556" lon="7.038">
        <ele>157.75379943848</ele>
        <time>2016-05-14T12:40:51.000Z</time>
      </trkpt>
      <trkpt lat="43.63557" lon="7.03797">
        <ele>157.68499755859</ele>
        <time>2016-05-14T12:40:53.000Z</time>
      </trkpt>
      <trkpt lat="43.63557" lon="7.03792">
        <ele>157.56298828125</ele>
        <time>2016-05-14T12:40:56.000Z</time>
      </trkpt>
      <trkpt lat="43.63557" lon="7.03789">
        <ele>157.39807128906</ele>
        <time>2016-05-14T12:40:58.000Z</time>
      </trkpt>
      <trkpt lat="43.63557" lon="7.03786">
        <ele>157.24946594238</ele>
        <time>2016-05-14T12:41:00.000Z</time>
      </trkpt>
      <trkpt lat="43.63558" lon="7.03783">
        <ele>157.13349914551</ele>
        <time>2016-05-14T12:41:02.000Z</time>
      </trkpt>
      <trkpt lat="43.6356" lon="7.03779">
        <ele>157.00370788574</ele>
        <time>2016-05-14T12:41:05.000Z</time>
      </trkpt>
      <trkpt lat="43.63561" lon="7.03776">
        <ele>156.91806030273</ele>
        <time>2016-05-14T12:41:07.000Z</time>
      </trkpt>
      <trkpt lat="43.63561" lon="7.03771">
        <ele>156.84651184082</ele>
        <time>2016-05-14T12:41:10.000Z</time>
      </trkpt>
      <trkpt lat="43.6356" lon="7.03765">
        <ele>156.66777038574</ele>
        <time>2016-05-14T12:41:13.000Z</time>
      </trkpt>
      <trkpt lat="43.6356" lon="7.03759">
        <ele>156.40405273438</ele>
        <time>2016-05-14T12:41:16.000Z</time>
      </trkpt>
      <trkpt lat="43.6356" lon="7.03756">
        <ele>156.07038879395</ele>
        <time>2016-05-14T12:41:19.000Z</time>
      </trkpt>
      <trkpt lat="43.63561" lon="7.03751">
        <ele>155.70133972168</ele>
        <time>2016-05-14T12:41:22.000Z</time>
      </trkpt>
      <trkpt lat="43.63561" lon="7.03747">
        <ele>155.35906982422</ele>
        <time>2016-05-14T12:41:24.000Z</time>
      </trkpt>
      <trkpt lat="43.6356" lon="7.03739">
        <ele>155.08320617676</ele>
        <time>2016-05-14T12:41:27.000Z</time>
      </trkpt>
      <trkpt lat="43.6356" lon="7.03735">
        <ele>154.85507202148</ele>
        <time>2016-05-14T12:41:29.000Z</time>
      </trkpt>
      <trkpt lat="43.6356" lon="7.03732">
        <ele>154.6568145752</ele>
        <time>2016-05-14T12:41:31.000Z</time>
      </trkpt>
      <trkpt lat="43.63559" lon="7.03727">
        <ele>154.45263671875</ele>
        <time>2016-05-14T12:41:34.000Z</time>
      </trkpt>
      <trkpt lat="43.63558" lon="7.03724">
        <ele>154.26095581055</ele>
        <time>2016-05-14T12:41:36.000Z</time>
      </trkpt>
      <trkpt lat="43.63557" lon="7.0372">
        <ele>154.08564758301</ele>
        <time>2016-05-14T12:41:38.000Z</time>
      </trkpt>
      <trkpt lat="43.63556" lon="7.03716">
        <ele>153.89961242676</ele>
        <time>2016-05-14T12:41:40.000Z</time>
      </trkpt>
      <trkpt lat="43.63556" lon="7.03711">
        <ele>153.71322631836</ele>
        <time>2016-05-14T12:41:43.000Z</time>
      </trkpt>
      <trkpt lat="43.63554" lon="7.03708">
        <ele>153.54429626465</ele>
        <time>2016-05-14T12:41:45.000Z</time>
      </trkpt>
      <trkpt lat="43.6355" lon="7.03702">
        <ele>153.34403991699</ele>
        <time>2016-05-14T12:41:48.000Z</time>
      </trkpt>
      <trkpt lat="43.63549" lon="7.03699">
        <ele>153.16633605957</ele>
        <time>2016-05-14T12:41:50.000Z</time>
      </trkpt>
      <trkpt lat="43.63548" lon="7.03695">
        <ele>153.01455688477</ele>
        <time>2016-05-14T12:41:52.000Z</time>
      </trkpt>
      <trkpt lat="43.63548" lon="7.03691">
        <ele>152.89767456055</ele>
        <time>2016-05-14T12:41:54.000Z</time>
      </trkpt>
      <trkpt lat="43.63549" lon="7.03688">
        <ele>152.81393432617</ele>
        <time>2016-05-14T12:41:57.000Z</time>
      </trkpt>
      <trkpt lat="43.63548" lon="7.03684">
        <ele>152.79428100586</ele>
        <time>2016-05-14T12:41:59.000Z</time>
      </trkpt>
      <trkpt lat="43.63547" lon="7.03679">
        <ele>152.79649353027</ele>
        <time>2016-05-14T12:42:02.000Z</time>
      </trkpt>
      <trkpt lat="43.63546" lon="7.03674">
        <ele>152.81134033203</ele>
        <time>2016-05-14T12:42:04.000Z</time>
      </trkpt>
      <trkpt lat="43.63547" lon="7.0367">
        <ele>152.82489013672</ele>
        <time>2016-05-14T12:42:06.000Z</time>
      </trkpt>
      <trkpt lat="43.63548" lon="7.03667">
        <ele>152.8331451416</ele>
        <time>2016-05-14T12:42:08.000Z</time>
      </trkpt>
      <trkpt lat="43.63549" lon="7.03663">
        <ele>152.8609161377</ele>
        <time>2016-05-14T12:42:11.000Z</time>
      </trkpt>
      <trkpt lat="43.63552" lon="7.03661">
        <ele>152.87976074219</ele>
        <time>2016-05-14T12:42:14.000Z</time>
      </trkpt>
      <trkpt lat="43.63553" lon="7.03659">
        <ele>152.88948059082</ele>
        <time>2016-05-14T12:42:16.000Z</time>
      </trkpt>
      <trkpt lat="43.63555" lon="7.03656">
        <ele>152.88778686523</ele>
        <time>2016-05-14T12:42:19.000Z</time>
      </trkpt>
      <trkpt lat="43.63558" lon="7.03654">
        <ele>152.86471557617</ele>
        <time>2016-05-14T12:42:22.000Z</time>
      </trkpt>
      <trkpt lat="43.63559" lon="7.03654">
        <ele>152.81771850586</ele>
        <time>2016-05-14T12:42:24.000Z</time>
      </trkpt>
      <trkpt lat="43.6356" lon="7.03653">
        <ele>152.76502990723</ele>
        <time>2016-05-14T12:42:26.000Z</time>
      </trkpt>
      <trkpt lat="43.63562" lon="7.03653">
        <ele>152.68775939941</ele>
        <time>2016-05-14T12:42:29.000Z</time>
      </trkpt>
      <trkpt lat="43.63565" lon="7.03651">
        <ele>152.58460998535</ele>
        <time>2016-05-14T12:42:32.000Z</time>
      </trkpt>
      <trkpt lat="43.63568" lon="7.0365">
        <ele>152.46241760254</ele>
        <time>2016-05-14T12:42:35.000Z</time>
      </trkpt>
      <trkpt lat="43.63571" lon="7.03649">
        <ele>152.31318664551</ele>
        <time>2016-05-14T12:42:37.000Z</time>
      </trkpt>
      <trkpt lat="43.63573" lon="7.03649">
        <ele>152.1520690918</ele>
        <time>2016-05-14T12:42:39.000Z</time>
      </trkpt>
      <trkpt lat="43.63576" lon="7.03648">
        <ele>151.96534729004</ele>
        <time>2016-05-14T12:42:42.000Z</time>
      </trkpt>
      <trkpt lat="43.63578" lon="7.03647">
        <ele>151.78276062012</ele>
        <time>2016-05-14T12:42:44.000Z</time>
      </trkpt>
      <trkpt lat="43.6358" lon="7.03645">
        <ele>151.59854125977</ele>
        <time>2016-05-14T12:42:47.000Z</time>
      </trkpt>
      <trkpt lat="43.63582" lon="7.03645">
        <ele>151.40908813477</ele>
        <time>2016-05-14T12:42:49.000Z</time>
      </trkpt>
      <trkpt lat="43.63583" lon="7.03643">
        <ele>151.22773742676</ele>
        <time>2016-05-14T12:42:53.000Z</time>
      </trkpt>
      <trkpt lat="43.63583" lon="7.03643">
        <ele>151.22773742676</ele>
        <time>2016-05-14T12:43:13.000Z</time>
      </trkpt>
      <trkpt lat="43.63583" lon="7.03639">
        <ele>151.05386352539</ele>
        <time>2016-05-14T12:43:37.000Z</time>
      </trkpt>
      <trkpt lat="43.63587" lon="7.03635">
        <ele>151.16793823242</ele>
        <time>2016-05-14T12:43:40.000Z</time>
      </trkpt>
      <trkpt lat="43.6359" lon="7.03634">
        <ele>151.53215026855</ele>
        <time>2016-05-14T12:43:43.000Z</time>
      </trkpt>
      <trkpt lat="43.63595" lon="7.03632">
        <ele>152.30776977539</ele>
        <time>2016-05-14T12:43:46.000Z</time>
      </trkpt>
      <trkpt lat="43.63599" lon="7.03632">
        <ele>153.33779907227</ele>
        <time>2016-05-14T12:43:48.000Z</time>
      </trkpt>
      <trkpt lat="43.63604" lon="7.03628">
        <ele>154.77700805664</ele>
        <time>2016-05-14T12:43:51.000Z</time>
      </trkpt>
      <trkpt lat="43.63607" lon="7.03624">
        <ele>156.12852478027</ele>
        <time>2016-05-14T12:43:54.000Z</time>
      </trkpt>
      <trkpt lat="43.6361" lon="7.03618">
        <ele>157.31936645508</ele>
        <time>2016-05-14T12:43:57.000Z</time>
      </trkpt>
      <trkpt lat="43.63609" lon="7.03612">
        <ele>157.97770690918</ele>
        <time>2016-05-14T12:44:00.000Z</time>
      </trkpt>
      <trkpt lat="43.6361" lon="7.03607">
        <ele>158.38656616211</ele>
        <time>2016-05-14T12:44:03.000Z</time>
      </trkpt>
      <trkpt lat="43.63614" lon="7.03602">
        <ele>158.58290100098</ele>
        <time>2016-05-14T12:44:06.000Z</time>
      </trkpt>
      <trkpt lat="43.63615" lon="7.03597">
        <ele>158.62942504883</ele>
        <time>2016-05-14T12:44:09.000Z</time>
      </trkpt>
      <trkpt lat="43.63614" lon="7.03595">
        <ele>158.49922180176</ele>
        <time>2016-05-14T12:44:11.000Z</time>
      </trkpt>
      <trkpt lat="43.6361" lon="7.03592">
        <ele>158.24633789062</ele>
        <time>2016-05-14T12:44:14.000Z</time>
      </trkpt>
      <trkpt lat="43.63609" lon="7.03593">
        <ele>157.89482116699</ele>
        <time>2016-05-14T12:44:17.000Z</time>
      </trkpt>
      <trkpt lat="43.63606" lon="7.03595">
        <ele>157.2799987793</ele>
        <time>2016-05-14T12:44:22.000Z</time>
      </trkpt>
      <trkpt lat="43.63607" lon="7.03594">
        <ele>156.72891235352</ele>
        <time>2016-05-14T12:44:34.000Z</time>
      </trkpt>
      <trkpt lat="43.63608" lon="7.03593">
        <ele>156.30703735352</ele>
        <time>2016-05-14T12:44:36.000Z</time>
      </trkpt>
      <trkpt lat="43.63606" lon="7.03592">
        <ele>156.05949401855</ele>
        <time>2016-05-14T12:44:42.000Z</time>
      </trkpt>
      <trkpt lat="43.63605" lon="7.03594">
        <ele>155.89596557617</ele>
        <time>2016-05-14T12:44:44.000Z</time>
      </trkpt>
      <trkpt lat="43.63608" lon="7.03594">
        <ele>155.9761505127</ele>
        <time>2016-05-14T12:44:47.000Z</time>
      </trkpt>
      <trkpt lat="43.63606" lon="7.03593">
        <ele>155.87629699707</ele>
        <time>2016-05-14T12:44:49.000Z</time>
      </trkpt>
      <trkpt lat="43.63604" lon="7.03592">
        <ele>155.58784484863</ele>
        <time>2016-05-14T12:44:52.000Z</time>
      </trkpt>
      <trkpt lat="43.63604" lon="7.03592">
        <ele>155.58784484863</ele>
        <time>2016-05-14T12:45:12.000Z</time>
      </trkpt>
      <trkpt lat="43.63605" lon="7.03595">
        <ele>155.52214050293</ele>
        <time>2016-05-14T12:45:14.000Z</time>
      </trkpt>
      <trkpt lat="43.63604" lon="7.03593">
        <ele>155.43655395508</ele>
        <time>2016-05-14T12:45:16.000Z</time>
      </trkpt>
      <trkpt lat="43.63603" lon="7.03593">
        <ele>155.12850952148</ele>
        <time>2016-05-14T12:45:19.000Z</time>
      </trkpt>
      <trkpt lat="43.63599" lon="7.03593">
        <ele>154.69892883301</ele>
        <time>2016-05-14T12:45:22.000Z</time>
      </trkpt>
      <trkpt lat="43.63597" lon="7.03594">
        <ele>154.31871032715</ele>
        <time>2016-05-14T12:45:24.000Z</time>
      </trkpt>
      <trkpt lat="43.63596" lon="7.03598">
        <ele>153.76315307617</ele>
        <time>2016-05-14T12:45:27.000Z</time>
      </trkpt>
      <trkpt lat="43.63594" lon="7.03599">
        <ele>153.19841003418</ele>
        <time>2016-05-14T12:45:29.000Z</time>
      </trkpt>
      <trkpt lat="43.63593" lon="7.03601">
        <ele>152.66177368164</ele>
        <time>2016-05-14T12:45:31.000Z</time>
      </trkpt>
      <trkpt lat="43.63589" lon="7.03603">
        <ele>152.12673950195</ele>
        <time>2016-05-14T12:45:34.000Z</time>
      </trkpt>
      <trkpt lat="43.63585" lon="7.03603">
        <ele>151.46420288086</ele>
        <time>2016-05-14T12:45:37.000Z</time>
      </trkpt>
      <trkpt lat="43.63583" lon="7.03602">
        <ele>150.73904418945</ele>
        <time>2016-05-14T12:45:39.000Z</time>
      </trkpt>
      <trkpt lat="43.63582" lon="7.03602">
        <ele>150.1071472168</ele>
        <time>2016-05-14T12:45:42.000Z</time>
      </trkpt>
      <trkpt lat="43.63578" lon="7.03598">
        <ele>149.66291809082</ele>
        <time>2016-05-14T12:45:47.000Z</time>
      </trkpt>
      <trkpt lat="43.63577" lon="7.03596">
        <ele>149.44046020508</ele>
        <time>2016-05-14T12:45:49.000Z</time>
      </trkpt>
      <trkpt lat="43.63572" lon="7.03593">
        <ele>149.67028808594</ele>
        <time>2016-05-14T12:45:52.000Z</time>
      </trkpt>
      <trkpt lat="43.63567" lon="7.03593">
        <ele>150.2099609375</ele>
        <time>2016-05-14T12:45:55.000Z</time>
      </trkpt>
      <trkpt lat="43.63564" lon="7.03593">
        <ele>150.82290649414</ele>
        <time>2016-05-14T12:45:57.000Z</time>
      </trkpt>
      <trkpt lat="43.63561" lon="7.03594">
        <ele>151.43588256836</ele>
        <time>2016-05-14T12:45:59.000Z</time>
      </trkpt>
      <trkpt lat="43.63559" lon="7.03595">
        <ele>152.11933898926</ele>
        <time>2016-05-14T12:46:01.000Z</time>
      </trkpt>
      <trkpt lat="43.63558" lon="7.03599">
        <ele>152.62564086914</ele>
        <time>2016-05-14T12:46:14.000Z</time>
      </trkpt>
      <trkpt lat="43.63557" lon="7.03602">
        <ele>152.99719238281</ele>
        <time>2016-05-14T12:46:16.000Z</time>
      </trkpt>
      <trkpt lat="43.63555" lon="7.03605">
        <ele>153.30422973633</ele>
        <time>2016-05-14T12:46:18.000Z</time>
      </trkpt>
      <trkpt lat="43.63553" lon="7.03607">
        <ele>153.54165649414</ele>
        <time>2016-05-14T12:46:21.000Z</time>
      </trkpt>
      <trkpt lat="43.63551" lon="7.03611">
        <ele>153.73835754395</ele>
        <time>2016-05-14T12:46:24.000Z</time>
      </trkpt>
      <trkpt lat="43.6355" lon="7.03615">
        <ele>153.95132446289</ele>
        <time>2016-05-14T12:46:27.000Z</time>
      </trkpt>
      <trkpt lat="43.63547" lon="7.0362">
        <ele>154.17021179199</ele>
        <time>2016-05-14T12:46:30.000Z</time>
      </trkpt>
      <trkpt lat="43.63543" lon="7.03621">
        <ele>154.42953491211</ele>
        <time>2016-05-14T12:46:32.000Z</time>
      </trkpt>
      <trkpt lat="43.63539" lon="7.03623">
        <ele>154.70141601562</ele>
        <time>2016-05-14T12:46:35.000Z</time>
      </trkpt>
      <trkpt lat="43.63538" lon="7.03626">
        <ele>154.93016052246</ele>
        <time>2016-05-14T12:46:37.000Z</time>
      </trkpt>
      <trkpt lat="43.63537" lon="7.0363">
        <ele>155.11241149902</ele>
        <time>2016-05-14T12:46:40.000Z</time>
      </trkpt>
      <trkpt lat="43.63535" lon="7.03633">
        <ele>155.25036621094</ele>
        <time>2016-05-14T12:46:43.000Z</time>
      </trkpt>
      <trkpt lat="43.63535" lon="7.03634">
        <ele>155.28092956543</ele>
        <time>2016-05-14T12:46:45.000Z</time>
      </trkpt>
      <trkpt lat="43.63535" lon="7.03638">
        <ele>155.21061706543</ele>
        <time>2016-05-14T12:46:48.000Z</time>
      </trkpt>
      <trkpt lat="43.63534" lon="7.03639">
        <ele>155.14270019531</ele>
        <time>2016-05-14T12:46:50.000Z</time>
      </trkpt>
      <trkpt lat="43.63532" lon="7.03641">
        <ele>155.10942077637</ele>
        <time>2016-05-14T12:46:53.000Z</time>
      </trkpt>
      <trkpt lat="43.63528" lon="7.03644">
        <ele>155.07147216797</ele>
        <time>2016-05-14T12:46:56.000Z</time>
      </trkpt>
      <trkpt lat="43.63527" lon="7.03646">
        <ele>155.04760742188</ele>
        <time>2016-05-14T12:46:59.000Z</time>
      </trkpt>
      <trkpt lat="43.63525" lon="7.03647">
        <ele>155.05978393555</ele>
        <time>2016-05-14T12:47:01.000Z</time>
      </trkpt>
      <trkpt lat="43.63522" lon="7.03648">
        <ele>155.10159301758</ele>
        <time>2016-05-14T12:47:03.000Z</time>
      </trkpt>
      <trkpt lat="43.63519" lon="7.03651">
        <ele>155.11672973633</ele>
        <time>2016-05-14T12:47:06.000Z</time>
      </trkpt>
      <trkpt lat="43.63519" lon="7.03653">
        <ele>155.07772827148</ele>
        <time>2016-05-14T12:47:08.000Z</time>
      </trkpt>
      <trkpt lat="43.63519" lon="7.03659">
        <ele>154.92660522461</ele>
        <time>2016-05-14T12:47:11.000Z</time>
      </trkpt>
      <trkpt lat="43.63518" lon="7.03664">
        <ele>154.67088317871</ele>
        <time>2016-05-14T12:47:14.000Z</time>
      </trkpt>
      <trkpt lat="43.63517" lon="7.03667">
        <ele>154.34228515625</ele>
        <time>2016-05-14T12:47:16.000Z</time>
      </trkpt>
      <trkpt lat="43.63519" lon="7.03673">
        <ele>153.93525695801</ele>
        <time>2016-05-14T12:47:19.000Z</time>
      </trkpt>
      <trkpt lat="43.6352" lon="7.03678">
        <ele>153.49549865723</ele>
        <time>2016-05-14T12:47:22.000Z</time>
      </trkpt>
      <trkpt lat="43.63518" lon="7.03682">
        <ele>153.11721801758</ele>
        <time>2016-05-14T12:47:25.000Z</time>
      </trkpt>
      <trkpt lat="43.63515" lon="7.03684">
        <ele>152.80220031738</ele>
        <time>2016-05-14T12:47:27.000Z</time>
      </trkpt>
      <trkpt lat="43.63514" lon="7.03687">
        <ele>152.47463989258</ele>
        <time>2016-05-14T12:47:29.000Z</time>
      </trkpt>
      <trkpt lat="43.63515" lon="7.03693">
        <ele>152.15209960938</ele>
        <time>2016-05-14T12:47:32.000Z</time>
      </trkpt>
      <trkpt lat="43.63517" lon="7.03699">
        <ele>151.82205200195</ele>
        <time>2016-05-14T12:47:35.000Z</time>
      </trkpt>
      <trkpt lat="43.63515" lon="7.03702">
        <ele>151.48222351074</ele>
        <time>2016-05-14T12:47:37.000Z</time>
      </trkpt>
      <trkpt lat="43.63515" lon="7.03707">
        <ele>151.08525085449</ele>
        <time>2016-05-14T12:47:40.000Z</time>
      </trkpt>
      <trkpt lat="43.63517" lon="7.03712">
        <ele>150.70877075195</ele>
        <time>2016-05-14T12:47:43.000Z</time>
      </trkpt>
      <trkpt lat="43.63519" lon="7.03714">
        <ele>150.42636108398</ele>
        <time>2016-05-14T12:47:45.000Z</time>
      </trkpt>
      <trkpt lat="43.63518" lon="7.03715">
        <ele>150.19277954102</ele>
        <time>2016-05-14T12:47:47.000Z</time>
      </trkpt>
      <trkpt lat="43.63517" lon="7.0372">
        <ele>149.94351196289</ele>
        <time>2016-05-14T12:47:50.000Z</time>
      </trkpt>
      <trkpt lat="43.63518" lon="7.03722">
        <ele>149.76780700684</ele>
        <time>2016-05-14T12:47:52.000Z</time>
      </trkpt>
      <trkpt lat="43.63522" lon="7.03723">
        <ele>149.70930480957</ele>
        <time>2016-05-14T12:47:55.000Z</time>
      </trkpt>
      <trkpt lat="43.63525" lon="7.03725">
        <ele>149.6988067627</ele>
        <time>2016-05-14T12:47:57.000Z</time>
      </trkpt>
      <trkpt lat="43.63527" lon="7.03729">
        <ele>149.72866821289</ele>
        <time>2016-05-14T12:48:00.000Z</time>
      </trkpt>
      <trkpt lat="43.63527" lon="7.03732">
        <ele>149.80522155762</ele>
        <time>2016-05-14T12:48:02.000Z</time>
      </trkpt>
      <trkpt lat="43.63527" lon="7.03736">
        <ele>149.86251831055</ele>
        <time>2016-05-14T12:48:05.000Z</time>
      </trkpt>
      <trkpt lat="43.63529" lon="7.0374">
        <ele>149.84437561035</ele>
        <time>2016-05-14T12:48:07.000Z</time>
      </trkpt>
      <trkpt lat="43.63528" lon="7.03744">
        <ele>149.71795654297</ele>
        <time>2016-05-14T12:48:10.000Z</time>
      </trkpt>
      <trkpt lat="43.63527" lon="7.03748">
        <ele>149.50527954102</ele>
        <time>2016-05-14T12:48:12.000Z</time>
      </trkpt>
      <trkpt lat="43.63526" lon="7.03753">
        <ele>149.2858581543</ele>
        <time>2016-05-14T12:48:15.000Z</time>
      </trkpt>
      <trkpt lat="43.63526" lon="7.03756">
        <ele>149.099609375</ele>
        <time>2016-05-14T12:48:17.000Z</time>
      </trkpt>
      <trkpt lat="43.63525" lon="7.03761">
        <ele>148.8899230957</ele>
        <time>2016-05-14T12:48:20.000Z</time>
      </trkpt>
      <trkpt lat="43.63525" lon="7.03764">
        <ele>148.72543334961</ele>
        <time>2016-05-14T12:48:22.000Z</time>
      </trkpt>
      <trkpt lat="43.63523" lon="7.03768">
        <ele>148.58235168457</ele>
        <time>2016-05-14T12:48:25.000Z</time>
      </trkpt>
      <trkpt lat="43.63521" lon="7.03769">
        <ele>148.39544677734</ele>
        <time>2016-05-14T12:48:28.000Z</time>
      </trkpt>
      <trkpt lat="43.6352" lon="7.03773">
        <ele>148.20083618164</ele>
        <time>2016-05-14T12:48:30.000Z</time>
      </trkpt>
      <trkpt lat="43.6352" lon="7.03777">
        <ele>148.01057434082</ele>
        <time>2016-05-14T12:48:33.000Z</time>
      </trkpt>
      <trkpt lat="43.63517" lon="7.03778">
        <ele>147.67915344238</ele>
        <time>2016-05-14T12:48:45.000Z</time>
      </trkpt>
      <trkpt lat="43.63514" lon="7.03782">
        <ele>147.26982116699</ele>
        <time>2016-05-14T12:48:48.000Z</time>
      </trkpt>
      <trkpt lat="43.63512" lon="7.03784">
        <ele>146.82284545898</ele>
        <time>2016-05-14T12:48:50.000Z</time>
      </trkpt>
      <trkpt lat="43.63509" lon="7.03786">
        <ele>146.24337768555</ele>
        <time>2016-05-14T12:48:53.000Z</time>
      </trkpt>
      <trkpt lat="43.63507" lon="7.03787">
        <ele>145.61715698242</ele>
        <time>2016-05-14T12:48:55.000Z</time>
      </trkpt>
      <trkpt lat="43.63503" lon="7.0379">
        <ele>144.90432739258</ele>
        <time>2016-05-14T12:48:58.000Z</time>
      </trkpt>
      <trkpt lat="43.63501" lon="7.03793">
        <ele>144.17971801758</ele>
        <time>2016-05-14T12:49:01.000Z</time>
      </trkpt>
      <trkpt lat="43.63498" lon="7.03798">
        <ele>143.50636291504</ele>
        <time>2016-05-14T12:49:04.000Z</time>
      </trkpt>
      <trkpt lat="43.63493" lon="7.03801">
        <ele>142.93246459961</ele>
        <time>2016-05-14T12:49:07.000Z</time>
      </trkpt>
      <trkpt lat="43.63489" lon="7.03804">
        <ele>142.36061096191</ele>
        <time>2016-05-14T12:49:10.000Z</time>
      </trkpt>
      <trkpt lat="43.63485" lon="7.03807">
        <ele>141.97579956055</ele>
        <time>2016-05-14T12:49:13.000Z</time>
      </trkpt>
      <trkpt lat="43.63482" lon="7.03809">
        <ele>141.69458007812</ele>
        <time>2016-05-14T12:49:15.000Z</time>
      </trkpt>
      <trkpt lat="43.63478" lon="7.03812">
        <ele>141.4111328125</ele>
        <time>2016-05-14T12:49:18.000Z</time>
      </trkpt>
      <trkpt lat="43.63475" lon="7.03814">
        <ele>141.11528015137</ele>
        <time>2016-05-14T12:49:21.000Z</time>
      </trkpt>
      <trkpt lat="43.63472" lon="7.03816">
        <ele>140.82946777344</ele>
        <time>2016-05-14T12:49:24.000Z</time>
      </trkpt>
      <trkpt lat="43.6347" lon="7.03818">
        <ele>140.5417175293</ele>
        <time>2016-05-14T12:49:26.000Z</time>
      </trkpt>
      <trkpt lat="43.63469" lon="7.03821">
        <ele>140.24778747559</ele>
        <time>2016-05-14T12:49:28.000Z</time>
      </trkpt>
      <trkpt lat="43.63467" lon="7.03825">
        <ele>139.95034790039</ele>
        <time>2016-05-14T12:49:31.000Z</time>
      </trkpt>
      <trkpt lat="43.63465" lon="7.03826">
        <ele>139.65946960449</ele>
        <time>2016-05-14T12:49:33.000Z</time>
      </trkpt>
      <trkpt lat="43.63463" lon="7.03828">
        <ele>139.37602233887</ele>
        <time>2016-05-14T12:49:35.000Z</time>
      </trkpt>
      <trkpt lat="43.63461" lon="7.03829">
        <ele>139.08174133301</ele>
        <time>2016-05-14T12:49:38.000Z</time>
      </trkpt>
      <trkpt lat="43.63459" lon="7.03828">
        <ele>138.83329772949</ele>
        <time>2016-05-14T12:49:41.000Z</time>
      </trkpt>
      <trkpt lat="43.63457" lon="7.03826">
        <ele>138.68801879883</ele>
        <time>2016-05-14T12:49:44.000Z</time>
      </trkpt>
      <trkpt lat="43.63455" lon="7.03824">
        <ele>138.60859680176</ele>
        <time>2016-05-14T12:49:46.000Z</time>
      </trkpt>
      <trkpt lat="43.63453" lon="7.03822">
        <ele>138.58248901367</ele>
        <time>2016-05-14T12:49:48.000Z</time>
      </trkpt>
      <trkpt lat="43.6345" lon="7.03821">
        <ele>138.6051940918</ele>
        <time>2016-05-14T12:49:51.000Z</time>
      </trkpt>
      <trkpt lat="43.63449" lon="7.03822">
        <ele>138.60710144043</ele>
        <time>2016-05-14T12:49:53.000Z</time>
      </trkpt>
      <trkpt lat="43.63447" lon="7.03822">
        <ele>138.56147766113</ele>
        <time>2016-05-14T12:49:55.000Z</time>
      </trkpt>
      <trkpt lat="43.63445" lon="7.03821">
        <ele>138.50099182129</ele>
        <time>2016-05-14T12:49:57.000Z</time>
      </trkpt>
      <trkpt lat="43.63442" lon="7.03819">
        <ele>138.45059204102</ele>
        <time>2016-05-14T12:50:00.000Z</time>
      </trkpt>
      <trkpt lat="43.63439" lon="7.03816">
        <ele>138.44592285156</ele>
        <time>2016-05-14T12:50:02.000Z</time>
      </trkpt>
      <trkpt lat="43.63433" lon="7.0381">
        <ele>138.57209777832</ele>
        <time>2016-05-14T12:50:05.000Z</time>
      </trkpt>
      <trkpt lat="43.6343" lon="7.03806">
        <ele>138.78335571289</ele>
        <time>2016-05-14T12:50:08.000Z</time>
      </trkpt>
      <trkpt lat="43.63426" lon="7.03805">
        <ele>138.98890686035</ele>
        <time>2016-05-14T12:50:10.000Z</time>
      </trkpt>
      <trkpt lat="43.63425" lon="7.03805">
        <ele>139.17752075195</ele>
        <time>2016-05-14T12:50:13.000Z</time>
      </trkpt>
      <trkpt lat="43.63427" lon="7.03805">
        <ele>139.34254455566</ele>
        <time>2016-05-14T12:50:17.000Z</time>
      </trkpt>
      <trkpt lat="43.63422" lon="7.03801">
        <ele>139.48413085938</ele>
        <time>2016-05-14T12:50:20.000Z</time>
      </trkpt>
      <trkpt lat="43.63419" lon="7.038">
        <ele>139.57633972168</ele>
        <time>2016-05-14T12:50:22.000Z</time>
      </trkpt>
      <trkpt lat="43.63414" lon="7.03799">
        <ele>139.66232299805</ele>
        <time>2016-05-14T12:50:25.000Z</time>
      </trkpt>
      <trkpt lat="43.63411" lon="7.03799">
        <ele>139.73519897461</ele>
        <time>2016-05-14T12:50:27.000Z</time>
      </trkpt>
      <trkpt lat="43.63409" lon="7.03799">
        <ele>139.77702331543</ele>
        <time>2016-05-14T12:50:30.000Z</time>
      </trkpt>
      <trkpt lat="43.63404" lon="7.03799">
        <ele>139.72888183594</ele>
        <time>2016-05-14T12:50:48.000Z</time>
      </trkpt>
      <trkpt lat="43.634" lon="7.03798">
        <ele>139.66145324707</ele>
        <time>2016-05-14T12:50:50.000Z</time>
      </trkpt>
      <trkpt lat="43.63394" lon="7.03799">
        <ele>139.54106140137</ele>
        <time>2016-05-14T12:50:53.000Z</time>
      </trkpt>
      <trkpt lat="43.63388" lon="7.03799">
        <ele>139.37062072754</ele>
        <time>2016-05-14T12:50:56.000Z</time>
      </trkpt>
      <trkpt lat="43.63382" lon="7.03799">
        <ele>139.17642211914</ele>
        <time>2016-05-14T12:50:59.000Z</time>
      </trkpt>
      <trkpt lat="43.63379" lon="7.03799">
        <ele>138.96591186523</ele>
        <time>2016-05-14T12:51:02.000Z</time>
      </trkpt>
      <trkpt lat="43.63377" lon="7.03799">
        <ele>138.76370239258</ele>
        <time>2016-05-14T12:51:04.000Z</time>
      </trkpt>
      <trkpt lat="43.63377" lon="7.03801">
        <ele>138.55673217773</ele>
        <time>2016-05-14T12:51:07.000Z</time>
      </trkpt>
      <trkpt lat="43.63374" lon="7.03802">
        <ele>138.35342407227</ele>
        <time>2016-05-14T12:51:09.000Z</time>
      </trkpt>
      <trkpt lat="43.63371" lon="7.03803">
        <ele>138.14450073242</ele>
        <time>2016-05-14T12:51:11.000Z</time>
      </trkpt>
      <trkpt lat="43.63369" lon="7.03806">
        <ele>137.8277130127</ele>
        <time>2016-05-14T12:51:14.000Z</time>
      </trkpt>
      <trkpt lat="43.63369" lon="7.03809">
        <ele>137.41052246094</ele>
        <time>2016-05-14T12:51:16.000Z</time>
      </trkpt>
      <trkpt lat="43.6337" lon="7.03811">
        <ele>137.01751708984</ele>
        <time>2016-05-14T12:51:19.000Z</time>
      </trkpt>
      <trkpt lat="43.6337" lon="7.03813">
        <ele>136.6043548584</ele>
        <time>2016-05-14T12:51:22.000Z</time>
      </trkpt>
      <trkpt lat="43.63368" lon="7.03813">
        <ele>136.21102905273</ele>
        <time>2016-05-14T12:51:25.000Z</time>
      </trkpt>
      <trkpt lat="43.63364" lon="7.03817">
        <ele>135.79789733887</ele>
        <time>2016-05-14T12:51:35.000Z</time>
      </trkpt>
      <trkpt lat="43.63364" lon="7.03817">
        <ele>135.79789733887</ele>
        <time>2016-05-14T12:51:55.000Z</time>
      </trkpt>
      <trkpt lat="43.63362" lon="7.03814">
        <ele>135.5693359375</ele>
        <time>2016-05-14T12:55:35.000Z</time>
      </trkpt>
      <trkpt lat="43.63354" lon="7.03812">
        <ele>135.37255859375</ele>
        <time>2016-05-14T12:55:38.000Z</time>
      </trkpt>
      <trkpt lat="43.63348" lon="7.03813">
        <ele>135.18119812012</ele>
        <time>2016-05-14T12:55:41.000Z</time>
      </trkpt>
      <trkpt lat="43.63344" lon="7.03815">
        <ele>134.88812255859</ele>
        <time>2016-05-14T12:55:44.000Z</time>
      </trkpt>
      <trkpt lat="43.6334" lon="7.03817">
        <ele>134.66146850586</ele>
        <time>2016-05-14T12:55:47.000Z</time>
      </trkpt>
      <trkpt lat="43.63337" lon="7.03817">
        <ele>134.28619384766</ele>
        <time>2016-05-14T12:55:49.000Z</time>
      </trkpt>
      <trkpt lat="43.63332" lon="7.03817">
        <ele>133.92356872559</ele>
        <time>2016-05-14T12:55:52.000Z</time>
      </trkpt>
      <trkpt lat="43.63329" lon="7.03816">
        <ele>133.67778015137</ele>
        <time>2016-05-14T12:55:54.000Z</time>
      </trkpt>
      <trkpt lat="43.63326" lon="7.03817">
        <ele>133.53681945801</ele>
        <time>2016-05-14T12:55:56.000Z</time>
      </trkpt>
      <trkpt lat="43.63322" lon="7.03819">
        <ele>133.40701293945</ele>
        <time>2016-05-14T12:55:59.000Z</time>
      </trkpt>
      <trkpt lat="43.63321" lon="7.0382">
        <ele>133.30075073242</ele>
        <time>2016-05-14T12:56:01.000Z</time>
      </trkpt>
      <trkpt lat="43.63319" lon="7.03822">
        <ele>133.10844421387</ele>
        <time>2016-05-14T12:56:03.000Z</time>
      </trkpt>
      <trkpt lat="43.63317" lon="7.03824">
        <ele>132.80381774902</ele>
        <time>2016-05-14T12:56:05.000Z</time>
      </trkpt>
      <trkpt lat="43.63318" lon="7.03829">
        <ele>132.33786010742</ele>
        <time>2016-05-14T12:56:08.000Z</time>
      </trkpt>
      <trkpt lat="43.63317" lon="7.03833">
        <ele>131.79708862305</ele>
        <time>2016-05-14T12:56:11.000Z</time>
      </trkpt>
      <trkpt lat="43.63316" lon="7.03835">
        <ele>131.31602478027</ele>
        <time>2016-05-14T12:56:13.000Z</time>
      </trkpt>
      <trkpt lat="43.63313" lon="7.03835">
        <ele>130.93649291992</ele>
        <time>2016-05-14T12:56:16.000Z</time>
      </trkpt>
      <trkpt lat="43.6331" lon="7.03836">
        <ele>130.64912414551</ele>
        <time>2016-05-14T12:56:19.000Z</time>
      </trkpt>
      <trkpt lat="43.63307" lon="7.03835">
        <ele>130.5588684082</ele>
        <time>2016-05-14T12:56:21.000Z</time>
      </trkpt>
      <trkpt lat="43.63304" lon="7.03837">
        <ele>130.64213562012</ele>
        <time>2016-05-14T12:56:24.000Z</time>
      </trkpt>
      <trkpt lat="43.63301" lon="7.03839">
        <ele>130.72578430176</ele>
        <time>2016-05-14T12:56:26.000Z</time>
      </trkpt>
      <trkpt lat="43.63298" lon="7.03841">
        <ele>130.81813049316</ele>
        <time>2016-05-14T12:56:29.000Z</time>
      </trkpt>
      <trkpt lat="43.63295" lon="7.03845">
        <ele>130.90579223633</ele>
        <time>2016-05-14T12:56:32.000Z</time>
      </trkpt>
      <trkpt lat="43.63292" lon="7.03846">
        <ele>130.99609375</ele>
        <time>2016-05-14T12:56:34.000Z</time>
      </trkpt>
      <trkpt lat="43.63289" lon="7.03848">
        <ele>131.07440185547</ele>
        <time>2016-05-14T12:56:37.000Z</time>
      </trkpt>
      <trkpt lat="43.63286" lon="7.0385">
        <ele>131.13792419434</ele>
        <time>2016-05-14T12:56:39.000Z</time>
      </trkpt>
      <trkpt lat="43.63284" lon="7.03854">
        <ele>131.18606567383</ele>
        <time>2016-05-14T12:56:42.000Z</time>
      </trkpt>
      <trkpt lat="43.6328" lon="7.03855">
        <ele>131.21421813965</ele>
        <time>2016-05-14T12:56:45.000Z</time>
      </trkpt>
      <trkpt lat="43.63277" lon="7.03859">
        <ele>131.22883605957</ele>
        <time>2016-05-14T12:56:48.000Z</time>
      </trkpt>
      <trkpt lat="43.63275" lon="7.03861">
        <ele>131.22944641113</ele>
        <time>2016-05-14T12:56:50.000Z</time>
      </trkpt>
      <trkpt lat="43.63269" lon="7.03863">
        <ele>131.20942687988</ele>
        <time>2016-05-14T12:56:53.000Z</time>
      </trkpt>
      <trkpt lat="43.63266" lon="7.03863">
        <ele>131.17831420898</ele>
        <time>2016-05-14T12:56:55.000Z</time>
      </trkpt>
      <trkpt lat="43.63265" lon="7.03864">
        <ele>131.14350891113</ele>
        <time>2016-05-14T12:56:57.000Z</time>
      </trkpt>
      <trkpt lat="43.63262" lon="7.03863">
        <ele>131.10917663574</ele>
        <time>2016-05-14T12:56:59.000Z</time>
      </trkpt>
      <trkpt lat="43.63258" lon="7.03864">
        <ele>131.06781005859</ele>
        <time>2016-05-14T12:57:02.000Z</time>
      </trkpt>
      <trkpt lat="43.63255" lon="7.03865">
        <ele>131.02642822266</ele>
        <time>2016-05-14T12:57:05.000Z</time>
      </trkpt>
      <trkpt lat="43.63253" lon="7.03866">
        <ele>130.98307800293</ele>
        <time>2016-05-14T12:57:08.000Z</time>
      </trkpt>
      <trkpt lat="43.63252" lon="7.03867">
        <ele>130.93034362793</ele>
        <time>2016-05-14T12:57:10.000Z</time>
      </trkpt>
      <trkpt lat="43.63249" lon="7.03869">
        <ele>130.91360473633</ele>
        <time>2016-05-14T12:57:13.000Z</time>
      </trkpt>
      <trkpt lat="43.63246" lon="7.03869">
        <ele>131.07763671875</ele>
        <time>2016-05-14T12:57:16.000Z</time>
      </trkpt>
      <trkpt lat="43.63244" lon="7.03869">
        <ele>131.34146118164</ele>
        <time>2016-05-14T12:57:18.000Z</time>
      </trkpt>
      <trkpt lat="43.63244" lon="7.03869">
        <ele>131.34146118164</ele>
        <time>2016-05-14T12:57:38.000Z</time>
      </trkpt>
      <trkpt lat="43.63243" lon="7.03868">
        <ele>131.69149780273</ele>
        <time>2016-05-14T12:58:01.000Z</time>
      </trkpt>
      <trkpt lat="43.63245" lon="7.03867">
        <ele>131.94960021973</ele>
        <time>2016-05-14T12:58:03.000Z</time>
      </trkpt>
      <trkpt lat="43.63246" lon="7.03866">
        <ele>132.1389465332</ele>
        <time>2016-05-14T12:58:06.000Z</time>
      </trkpt>
      <trkpt lat="43.63242" lon="7.03862">
        <ele>132.40744018555</ele>
        <time>2016-05-14T12:58:18.000Z</time>
      </trkpt>
      <trkpt lat="43.63241" lon="7.03861">
        <ele>132.62336730957</ele>
        <time>2016-05-14T12:58:21.000Z</time>
      </trkpt>
      <trkpt lat="43.63238" lon="7.03857">
        <ele>132.96826171875</ele>
        <time>2016-05-14T12:58:24.000Z</time>
      </trkpt>
      <trkpt lat="43.63235" lon="7.03854">
        <ele>133.61994934082</ele>
        <time>2016-05-14T12:58:26.000Z</time>
      </trkpt>
      <trkpt lat="43.63232" lon="7.03848">
        <ele>134.50595092773</ele>
        <time>2016-05-14T12:58:29.000Z</time>
      </trkpt>
      <trkpt lat="43.63233" lon="7.03846">
        <ele>135.11798095703</ele>
        <time>2016-05-14T12:58:32.000Z</time>
      </trkpt>
      <trkpt lat="43.63233" lon="7.03844">
        <ele>135.69132995605</ele>
        <time>2016-05-14T12:58:34.000Z</time>
      </trkpt>
      <trkpt lat="43.63232" lon="7.0384">
        <ele>136.13591003418</ele>
        <time>2016-05-14T12:58:36.000Z</time>
      </trkpt>
      <trkpt lat="43.63232" lon="7.03835">
        <ele>136.46513366699</ele>
        <time>2016-05-14T12:58:39.000Z</time>
      </trkpt>
      <trkpt lat="43.63229" lon="7.0383">
        <ele>136.80471801758</ele>
        <time>2016-05-14T12:58:42.000Z</time>
      </trkpt>
      <trkpt lat="43.6323" lon="7.03827">
        <ele>137.2197265625</ele>
        <time>2016-05-14T12:58:45.000Z</time>
      </trkpt>
      <trkpt lat="43.63229" lon="7.03824">
        <ele>137.71524047852</ele>
        <time>2016-05-14T12:58:47.000Z</time>
      </trkpt>
      <trkpt lat="43.63227" lon="7.03821">
        <ele>138.27656555176</ele>
        <time>2016-05-14T12:58:49.000Z</time>
      </trkpt>
      <trkpt lat="43.63224" lon="7.03815">
        <ele>139.07633972168</ele>
        <time>2016-05-14T12:58:52.000Z</time>
      </trkpt>
      <trkpt lat="43.63222" lon="7.03811">
        <ele>139.79414367676</ele>
        <time>2016-05-14T12:58:54.000Z</time>
      </trkpt>
      <trkpt lat="43.63221" lon="7.03807">
        <ele>140.60348510742</ele>
        <time>2016-05-14T12:58:57.000Z</time>
      </trkpt>
      <trkpt lat="43.63221" lon="7.03805">
        <ele>141.36111450195</ele>
        <time>2016-05-14T12:58:59.000Z</time>
      </trkpt>
      <trkpt lat="43.63219" lon="7.03799">
        <ele>142.17063903809</ele>
        <time>2016-05-14T12:59:02.000Z</time>
      </trkpt>
      <trkpt lat="43.63216" lon="7.03794">
        <ele>142.82312011719</ele>
        <time>2016-05-14T12:59:05.000Z</time>
      </trkpt>
      <trkpt lat="43.63214" lon="7.0379">
        <ele>143.49256896973</ele>
        <time>2016-05-14T12:59:07.000Z</time>
      </trkpt>
      <trkpt lat="43.63211" lon="7.03786">
        <ele>144.19296264648</ele>
        <time>2016-05-14T12:59:10.000Z</time>
      </trkpt>
      <trkpt lat="43.6321" lon="7.03782">
        <ele>144.96139526367</ele>
        <time>2016-05-14T12:59:13.000Z</time>
      </trkpt>
      <trkpt lat="43.6321" lon="7.03779">
        <ele>145.58183288574</ele>
        <time>2016-05-14T12:59:16.000Z</time>
      </trkpt>
      <trkpt lat="43.6321" lon="7.03779">
        <ele>145.58183288574</ele>
        <time>2016-05-14T12:59:36.000Z</time>
      </trkpt>
      <trkpt lat="43.63209" lon="7.03773">
        <ele>146.13687133789</ele>
        <time>2016-05-14T12:59:49.000Z</time>
      </trkpt>
      <trkpt lat="43.63209" lon="7.03773">
        <ele>146.13687133789</ele>
        <time>2016-05-14T13:00:09.000Z</time>
      </trkpt>
      <trkpt lat="43.63206" lon="7.03775">
        <ele>146.62573242188</ele>
        <time>2016-05-14T13:00:14.000Z</time>
      </trkpt>
      <trkpt lat="43.63208" lon="7.03778">
        <ele>146.85087585449</ele>
        <time>2016-05-14T13:00:17.000Z</time>
      </trkpt>
      <trkpt lat="43.63208" lon="7.0378">
        <ele>146.93324279785</ele>
        <time>2016-05-14T13:00:19.000Z</time>
      </trkpt>
      <trkpt lat="43.63207" lon="7.03783">
        <ele>146.99069213867</ele>
        <time>2016-05-14T13:00:24.000Z</time>
      </trkpt>
      <trkpt lat="43.63206" lon="7.03785">
        <ele>146.92752075195</ele>
        <time>2016-05-14T13:00:26.000Z</time>
      </trkpt>
      <trkpt lat="43.63206" lon="7.03789">
        <ele>146.76341247559</ele>
        <time>2016-05-14T13:00:29.000Z</time>
      </trkpt>
      <trkpt lat="43.63205" lon="7.03793">
        <ele>146.68084716797</ele>
        <time>2016-05-14T13:00:38.000Z</time>
      </trkpt>
      <trkpt lat="43.63206" lon="7.03795">
        <ele>146.58801269531</ele>
        <time>2016-05-14T13:00:40.000Z</time>
      </trkpt>
      <trkpt lat="43.63207" lon="7.03799">
        <ele>146.39994812012</ele>
        <time>2016-05-14T13:00:43.000Z</time>
      </trkpt>
      <trkpt lat="43.63208" lon="7.03805">
        <ele>146.08950805664</ele>
        <time>2016-05-14T13:00:48.000Z</time>
      </trkpt>
      <trkpt lat="43.63209" lon="7.03807">
        <ele>145.76734924316</ele>
        <time>2016-05-14T13:00:52.000Z</time>
      </trkpt>
      <trkpt lat="43.63209" lon="7.03809">
        <ele>145.42720031738</ele>
        <time>2016-05-14T13:00:54.000Z</time>
      </trkpt>
      <trkpt lat="43.63211" lon="7.03817">
        <ele>144.93838500977</ele>
        <time>2016-05-14T13:00:57.000Z</time>
      </trkpt>
      <trkpt lat="43.63213" lon="7.03821">
        <ele>144.36210632324</ele>
        <time>2016-05-14T13:00:59.000Z</time>
      </trkpt>
      <trkpt lat="43.63216" lon="7.03824">
        <ele>143.75679016113</ele>
        <time>2016-05-14T13:01:01.000Z</time>
      </trkpt>
      <trkpt lat="43.63217" lon="7.03827">
        <ele>143.07624816895</ele>
        <time>2016-05-14T13:01:03.000Z</time>
      </trkpt>
      <trkpt lat="43.6322" lon="7.03832">
        <ele>142.1936340332</ele>
        <time>2016-05-14T13:01:06.000Z</time>
      </trkpt>
      <trkpt lat="43.63221" lon="7.03836">
        <ele>141.43444824219</ele>
        <time>2016-05-14T13:01:09.000Z</time>
      </trkpt>
      <trkpt lat="43.63223" lon="7.03842">
        <ele>140.64566040039</ele>
        <time>2016-05-14T13:01:12.000Z</time>
      </trkpt>
      <trkpt lat="43.63224" lon="7.03846">
        <ele>139.92860412598</ele>
        <time>2016-05-14T13:01:14.000Z</time>
      </trkpt>
      <trkpt lat="43.63227" lon="7.0385">
        <ele>139.1558380127</ele>
        <time>2016-05-14T13:01:17.000Z</time>
      </trkpt>
      <trkpt lat="43.63228" lon="7.03852">
        <ele>138.50688171387</ele>
        <time>2016-05-14T13:01:19.000Z</time>
      </trkpt>
      <trkpt lat="43.63231" lon="7.03856">
        <ele>137.80392456055</ele>
        <time>2016-05-14T13:01:22.000Z</time>
      </trkpt>
      <trkpt lat="43.63232" lon="7.0386">
        <ele>137.16474914551</ele>
        <time>2016-05-14T13:01:24.000Z</time>
      </trkpt>
      <trkpt lat="43.63235" lon="7.03864">
        <ele>136.44088745117</ele>
        <time>2016-05-14T13:01:27.000Z</time>
      </trkpt>
      <trkpt lat="43.63237" lon="7.03865">
        <ele>135.78848266602</ele>
        <time>2016-05-14T13:01:29.000Z</time>
      </trkpt>
      <trkpt lat="43.63239" lon="7.03866">
        <ele>135.10137939453</ele>
        <time>2016-05-14T13:01:32.000Z</time>
      </trkpt>
      <trkpt lat="43.63242" lon="7.03871">
        <ele>134.38606262207</ele>
        <time>2016-05-14T13:01:46.000Z</time>
      </trkpt>
      <trkpt lat="43.63245" lon="7.03872">
        <ele>133.61917114258</ele>
        <time>2016-05-14T13:01:48.000Z</time>
      </trkpt>
      <trkpt lat="43.63247" lon="7.03871">
        <ele>132.89131164551</ele>
        <time>2016-05-14T13:01:50.000Z</time>
      </trkpt>
      <trkpt lat="43.63253" lon="7.03871">
        <ele>132.13973999023</ele>
        <time>2016-05-14T13:01:53.000Z</time>
      </trkpt>
      <trkpt lat="43.63261" lon="7.03866">
        <ele>131.58505249023</ele>
        <time>2016-05-14T13:01:56.000Z</time>
      </trkpt>
      <trkpt lat="43.63266" lon="7.0386">
        <ele>131.23280334473</ele>
        <time>2016-05-14T13:01:58.000Z</time>
      </trkpt>
      <trkpt lat="43.63269" lon="7.03856">
        <ele>131.0732421875</ele>
        <time>2016-05-14T13:02:00.000Z</time>
      </trkpt>
      <trkpt lat="43.63272" lon="7.03853">
        <ele>131.06506347656</ele>
        <time>2016-05-14T13:02:02.000Z</time>
      </trkpt>
      <trkpt lat="43.63272" lon="7.03853">
        <ele>131.06506347656</ele>
        <time>2016-05-14T13:02:22.000Z</time>
      </trkpt>
      <trkpt lat="43.63271" lon="7.03852">
        <ele>131.17855834961</ele>
        <time>2016-05-14T13:02:58.000Z</time>
      </trkpt>
      <trkpt lat="43.63267" lon="7.03853">
        <ele>131.23513793945</ele>
        <time>2016-05-14T13:03:01.000Z</time>
      </trkpt>
      <trkpt lat="43.63263" lon="7.03857">
        <ele>131.24333190918</ele>
        <time>2016-05-14T13:03:04.000Z</time>
      </trkpt>
      <trkpt lat="43.63261" lon="7.03859">
        <ele>131.2236328125</ele>
        <time>2016-05-14T13:03:06.000Z</time>
      </trkpt>
      <trkpt lat="43.63257" lon="7.03863">
        <ele>131.16903686523</ele>
        <time>2016-05-14T13:03:09.000Z</time>
      </trkpt>
      <trkpt lat="43.63255" lon="7.03865">
        <ele>131.09963989258</ele>
        <time>2016-05-14T13:03:11.000Z</time>
      </trkpt>
      <trkpt lat="43.63249" lon="7.03866">
        <ele>131.05709838867</ele>
        <time>2016-05-14T13:03:14.000Z</time>
      </trkpt>
      <trkpt lat="43.63245" lon="7.03867">
        <ele>131.22004699707</ele>
        <time>2016-05-14T13:03:16.000Z</time>
      </trkpt>
      <trkpt lat="43.63239" lon="7.03869">
        <ele>131.72689819336</ele>
        <time>2016-05-14T13:03:19.000Z</time>
      </trkpt>
      <trkpt lat="43.63238" lon="7.03868">
        <ele>132.32992553711</ele>
        <time>2016-05-14T13:03:29.000Z</time>
      </trkpt>
      <trkpt lat="43.63236" lon="7.0387">
        <ele>133.0400390625</ele>
        <time>2016-05-14T13:03:31.000Z</time>
      </trkpt>
      <trkpt lat="43.63235" lon="7.03872">
        <ele>133.73405456543</ele>
        <time>2016-05-14T13:03:33.000Z</time>
      </trkpt>
      <trkpt lat="43.63235" lon="7.03876">
        <ele>134.19897460938</ele>
        <time>2016-05-14T13:03:36.000Z</time>
      </trkpt>
      <trkpt lat="43.63236" lon="7.03879">
        <ele>134.27059936523</ele>
        <time>2016-05-14T13:03:38.000Z</time>
      </trkpt>
      <trkpt lat="43.63239" lon="7.03882">
        <ele>134.10243225098</ele>
        <time>2016-05-14T13:03:41.000Z</time>
      </trkpt>
      <trkpt lat="43.6324" lon="7.03886">
        <ele>133.74276733398</ele>
        <time>2016-05-14T13:03:44.000Z</time>
      </trkpt>
      <trkpt lat="43.6324" lon="7.0389">
        <ele>133.31948852539</ele>
        <time>2016-05-14T13:03:47.000Z</time>
      </trkpt>
      <trkpt lat="43.6324" lon="7.03894">
        <ele>132.92222595215</ele>
        <time>2016-05-14T13:03:50.000Z</time>
      </trkpt>
      <trkpt lat="43.63241" lon="7.03898">
        <ele>132.49652099609</ele>
        <time>2016-05-14T13:03:53.000Z</time>
      </trkpt>
      <trkpt lat="43.6324" lon="7.03901">
        <ele>132.2631072998</ele>
        <time>2016-05-14T13:03:56.000Z</time>
      </trkpt>
      <trkpt lat="43.6324" lon="7.03902">
        <ele>132.15518188477</ele>
        <time>2016-05-14T13:03:58.000Z</time>
      </trkpt>
      <trkpt lat="43.63239" lon="7.03905">
        <ele>132.12168884277</ele>
        <time>2016-05-14T13:04:00.000Z</time>
      </trkpt>
      <trkpt lat="43.6324" lon="7.0391">
        <ele>132.0210723877</ele>
        <time>2016-05-14T13:04:03.000Z</time>
      </trkpt>
      <trkpt lat="43.63241" lon="7.03914">
        <ele>131.92066955566</ele>
        <time>2016-05-14T13:04:05.000Z</time>
      </trkpt>
      <trkpt lat="43.63241" lon="7.0392">
        <ele>131.75531005859</ele>
        <time>2016-05-14T13:04:08.000Z</time>
      </trkpt>
      <trkpt lat="43.6324" lon="7.03924">
        <ele>131.60139465332</ele>
        <time>2016-05-14T13:04:11.000Z</time>
      </trkpt>
      <trkpt lat="43.6324" lon="7.03929">
        <ele>131.42587280273</ele>
        <time>2016-05-14T13:04:14.000Z</time>
      </trkpt>
      <trkpt lat="43.63239" lon="7.03933">
        <ele>131.38999938965</ele>
        <time>2016-05-14T13:04:17.000Z</time>
      </trkpt>
      <trkpt lat="43.63236" lon="7.03938">
        <ele>131.60531616211</ele>
        <time>2016-05-14T13:04:20.000Z</time>
      </trkpt>
      <trkpt lat="43.63235" lon="7.03941">
        <ele>131.88327026367</ele>
        <time>2016-05-14T13:04:22.000Z</time>
      </trkpt>
      <trkpt lat="43.63235" lon="7.03945">
        <ele>132.16012573242</ele>
        <time>2016-05-14T13:04:24.000Z</time>
      </trkpt>
      <trkpt lat="43.63232" lon="7.03947">
        <ele>132.55819702148</ele>
        <time>2016-05-14T13:04:27.000Z</time>
      </trkpt>
      <trkpt lat="43.63229" lon="7.03949">
        <ele>133.05618286133</ele>
        <time>2016-05-14T13:04:30.000Z</time>
      </trkpt>
      <trkpt lat="43.63227" lon="7.03954">
        <ele>133.51142883301</ele>
        <time>2016-05-14T13:04:33.000Z</time>
      </trkpt>
      <trkpt lat="43.63229" lon="7.03957">
        <ele>133.84555053711</ele>
        <time>2016-05-14T13:04:35.000Z</time>
      </trkpt>
      <trkpt lat="43.63233" lon="7.0396">
        <ele>133.93890380859</ele>
        <time>2016-05-14T13:04:38.000Z</time>
      </trkpt>
      <trkpt lat="43.63234" lon="7.03963">
        <ele>133.85110473633</ele>
        <time>2016-05-14T13:04:40.000Z</time>
      </trkpt>
      <trkpt lat="43.63234" lon="7.03967">
        <ele>133.60136413574</ele>
        <time>2016-05-14T13:04:43.000Z</time>
      </trkpt>
      <trkpt lat="43.63232" lon="7.03971">
        <ele>133.31178283691</ele>
        <time>2016-05-14T13:04:46.000Z</time>
      </trkpt>
      <trkpt lat="43.63233" lon="7.03976">
        <ele>133.08193969727</ele>
        <time>2016-05-14T13:04:49.000Z</time>
      </trkpt>
      <trkpt lat="43.63233" lon="7.03978">
        <ele>133.05307006836</ele>
        <time>2016-05-14T13:04:51.000Z</time>
      </trkpt>
      <trkpt lat="43.63232" lon="7.03981">
        <ele>133.1237487793</ele>
        <time>2016-05-14T13:04:54.000Z</time>
      </trkpt>
      <trkpt lat="43.63232" lon="7.03983">
        <ele>133.19538879395</ele>
        <time>2016-05-14T13:04:56.000Z</time>
      </trkpt>
      <trkpt lat="43.63233" lon="7.03986">
        <ele>133.14828491211</ele>
        <time>2016-05-14T13:04:59.000Z</time>
      </trkpt>
      <trkpt lat="43.63235" lon="7.03989">
        <ele>133.02395629883</ele>
        <time>2016-05-14T13:05:01.000Z</time>
      </trkpt>
      <trkpt lat="43.63238" lon="7.03995">
        <ele>132.80041503906</ele>
        <time>2016-05-14T13:05:04.000Z</time>
      </trkpt>
      <trkpt lat="43.63236" lon="7.03997">
        <ele>132.61631774902</ele>
        <time>2016-05-14T13:05:07.000Z</time>
      </trkpt>
      <trkpt lat="43.63232" lon="7.03999">
        <ele>132.62788391113</ele>
        <time>2016-05-14T13:05:09.000Z</time>
      </trkpt>
      <trkpt lat="43.63226" lon="7.04004">
        <ele>133.07125854492</ele>
        <time>2016-05-14T13:05:12.000Z</time>
      </trkpt>
      <trkpt lat="43.63221" lon="7.0401">
        <ele>133.96632385254</ele>
        <time>2016-05-14T13:05:15.000Z</time>
      </trkpt>
      <trkpt lat="43.6322" lon="7.04012">
        <ele>135.05754089355</ele>
        <time>2016-05-14T13:05:17.000Z</time>
      </trkpt>
      <trkpt lat="43.63223" lon="7.04014">
        <ele>135.94747924805</ele>
        <time>2016-05-14T13:05:20.000Z</time>
      </trkpt>
      <trkpt lat="43.63227" lon="7.04012">
        <ele>136.37139892578</ele>
        <time>2016-05-14T13:05:26.000Z</time>
      </trkpt>
      <trkpt lat="43.6323" lon="7.04014">
        <ele>136.33810424805</ele>
        <time>2016-05-14T13:05:37.000Z</time>
      </trkpt>
      <trkpt lat="43.6323" lon="7.0402">
        <ele>136.05187988281</ele>
        <time>2016-05-14T13:05:40.000Z</time>
      </trkpt>
      <trkpt lat="43.63231" lon="7.04023">
        <ele>135.68106079102</ele>
        <time>2016-05-14T13:05:42.000Z</time>
      </trkpt>
      <trkpt lat="43.63232" lon="7.04027">
        <ele>135.45239257812</ele>
        <time>2016-05-14T13:05:45.000Z</time>
      </trkpt>
      <trkpt lat="43.63235" lon="7.04032">
        <ele>135.37330627441</ele>
        <time>2016-05-14T13:05:48.000Z</time>
      </trkpt>
      <trkpt lat="43.63236" lon="7.04033">
        <ele>135.3391418457</ele>
        <time>2016-05-14T13:05:50.000Z</time>
      </trkpt>
      <trkpt lat="43.63238" lon="7.04036">
        <ele>135.14596557617</ele>
        <time>2016-05-14T13:05:53.000Z</time>
      </trkpt>
      <trkpt lat="43.63239" lon="7.04039">
        <ele>134.92813110352</ele>
        <time>2016-05-14T13:05:55.000Z</time>
      </trkpt>
      <trkpt lat="43.6324" lon="7.04041">
        <ele>134.61763000488</ele>
        <time>2016-05-14T13:05:58.000Z</time>
      </trkpt>
      <trkpt lat="43.6324" lon="7.04043">
        <ele>134.42517089844</ele>
        <time>2016-05-14T13:06:00.000Z</time>
      </trkpt>
      <trkpt lat="43.63242" lon="7.04044">
        <ele>134.22207641602</ele>
        <time>2016-05-14T13:06:03.000Z</time>
      </trkpt>
      <trkpt lat="43.63244" lon="7.04046">
        <ele>133.95669555664</ele>
        <time>2016-05-14T13:06:05.000Z</time>
      </trkpt>
      <trkpt lat="43.63244" lon="7.0405">
        <ele>133.7326965332</ele>
        <time>2016-05-14T13:06:08.000Z</time>
      </trkpt>
      <trkpt lat="43.63246" lon="7.04054">
        <ele>133.4849395752</ele>
        <time>2016-05-14T13:06:11.000Z</time>
      </trkpt>
      <trkpt lat="43.63247" lon="7.04055">
        <ele>133.19688415527</ele>
        <time>2016-05-14T13:06:13.000Z</time>
      </trkpt>
      <trkpt lat="43.63248" lon="7.04058">
        <ele>132.91613769531</ele>
        <time>2016-05-14T13:06:16.000Z</time>
      </trkpt>
      <trkpt lat="43.63248" lon="7.0406">
        <ele>132.7751159668</ele>
        <time>2016-05-14T13:06:19.000Z</time>
      </trkpt>
      <trkpt lat="43.6325" lon="7.04058">
        <ele>132.46260070801</ele>
        <time>2016-05-14T13:06:22.000Z</time>
      </trkpt>
      <trkpt lat="43.63252" lon="7.04058">
        <ele>132.22860717773</ele>
        <time>2016-05-14T13:06:24.000Z</time>
      </trkpt>
      <trkpt lat="43.63254" lon="7.04063">
        <ele>132.06665039062</ele>
        <time>2016-05-14T13:06:27.000Z</time>
      </trkpt>
      <trkpt lat="43.63256" lon="7.04067">
        <ele>131.93405151367</ele>
        <time>2016-05-14T13:06:30.000Z</time>
      </trkpt>
      <trkpt lat="43.63258" lon="7.04068">
        <ele>131.79765319824</ele>
        <time>2016-05-14T13:06:33.000Z</time>
      </trkpt>
      <trkpt lat="43.63261" lon="7.04069">
        <ele>131.78746032715</ele>
        <time>2016-05-14T13:06:36.000Z</time>
      </trkpt>
      <trkpt lat="43.63264" lon="7.04072">
        <ele>131.77070617676</ele>
        <time>2016-05-14T13:06:39.000Z</time>
      </trkpt>
      <trkpt lat="43.63268" lon="7.04074">
        <ele>131.7001953125</ele>
        <time>2016-05-14T13:06:42.000Z</time>
      </trkpt>
      <trkpt lat="43.6327" lon="7.04076">
        <ele>131.60147094727</ele>
        <time>2016-05-14T13:06:45.000Z</time>
      </trkpt>
      <trkpt lat="43.63271" lon="7.04079">
        <ele>131.505859375</ele>
        <time>2016-05-14T13:06:47.000Z</time>
      </trkpt>
      <trkpt lat="43.63272" lon="7.04082">
        <ele>131.43109130859</ele>
        <time>2016-05-14T13:06:50.000Z</time>
      </trkpt>
      <trkpt lat="43.63273" lon="7.04085">
        <ele>131.39566040039</ele>
        <time>2016-05-14T13:06:53.000Z</time>
      </trkpt>
      <trkpt lat="43.63272" lon="7.04086">
        <ele>131.41575622559</ele>
        <time>2016-05-14T13:06:56.000Z</time>
      </trkpt>
      <trkpt lat="43.63274" lon="7.04086">
        <ele>131.43060302734</ele>
        <time>2016-05-14T13:06:59.000Z</time>
      </trkpt>
      <trkpt lat="43.6328" lon="7.04089">
        <ele>131.38922119141</ele>
        <time>2016-05-14T13:07:02.000Z</time>
      </trkpt>
      <trkpt lat="43.63284" lon="7.0409">
        <ele>131.29887390137</ele>
        <time>2016-05-14T13:07:04.000Z</time>
      </trkpt>
      <trkpt lat="43.63287" lon="7.04091">
        <ele>131.14518737793</ele>
        <time>2016-05-14T13:07:06.000Z</time>
      </trkpt>
      <trkpt lat="43.63291" lon="7.04096">
        <ele>130.9175567627</ele>
        <time>2016-05-14T13:07:09.000Z</time>
      </trkpt>
      <trkpt lat="43.63293" lon="7.04101">
        <ele>130.70687866211</ele>
        <time>2016-05-14T13:07:11.000Z</time>
      </trkpt>
      <trkpt lat="43.63296" lon="7.04106">
        <ele>130.51095581055</ele>
        <time>2016-05-14T13:07:14.000Z</time>
      </trkpt>
      <trkpt lat="43.63298" lon="7.04108">
        <ele>130.32040405273</ele>
        <time>2016-05-14T13:07:17.000Z</time>
      </trkpt>
      <trkpt lat="43.633" lon="7.04112">
        <ele>130.13684082031</ele>
        <time>2016-05-14T13:07:19.000Z</time>
      </trkpt>
      <trkpt lat="43.63301" lon="7.04113">
        <ele>129.9571685791</ele>
        <time>2016-05-14T13:07:22.000Z</time>
      </trkpt>
      <trkpt lat="43.63303" lon="7.04114">
        <ele>129.75665283203</ele>
        <time>2016-05-14T13:07:24.000Z</time>
      </trkpt>
      <trkpt lat="43.63305" lon="7.04114">
        <ele>129.53308105469</ele>
        <time>2016-05-14T13:07:27.000Z</time>
      </trkpt>
      <trkpt lat="43.63306" lon="7.04116">
        <ele>129.31518554688</ele>
        <time>2016-05-14T13:07:29.000Z</time>
      </trkpt>
      <trkpt lat="43.63306" lon="7.04121">
        <ele>129.13818359375</ele>
        <time>2016-05-14T13:07:32.000Z</time>
      </trkpt>
      <trkpt lat="43.63306" lon="7.04127">
        <ele>128.99917602539</ele>
        <time>2016-05-14T13:07:35.000Z</time>
      </trkpt>
      <trkpt lat="43.63304" lon="7.04131">
        <ele>128.99069213867</ele>
        <time>2016-05-14T13:07:38.000Z</time>
      </trkpt>
      <trkpt lat="43.63302" lon="7.04134">
        <ele>129.09623718262</ele>
        <time>2016-05-14T13:07:41.000Z</time>
      </trkpt>
      <trkpt lat="43.63301" lon="7.04137">
        <ele>129.28713989258</ele>
        <time>2016-05-14T13:07:44.000Z</time>
      </trkpt>
      <trkpt lat="43.63301" lon="7.04141">
        <ele>129.4867401123</ele>
        <time>2016-05-14T13:07:47.000Z</time>
      </trkpt>
      <trkpt lat="43.63301" lon="7.04145">
        <ele>129.67951965332</ele>
        <time>2016-05-14T13:08:02.000Z</time>
      </trkpt>
      <trkpt lat="43.63299" lon="7.04148">
        <ele>129.90161132812</ele>
        <time>2016-05-14T13:08:04.000Z</time>
      </trkpt>
      <trkpt lat="43.63298" lon="7.04151">
        <ele>130.10165405273</ele>
        <time>2016-05-14T13:08:06.000Z</time>
      </trkpt>
      <trkpt lat="43.63296" lon="7.04157">
        <ele>130.3628692627</ele>
        <time>2016-05-14T13:08:09.000Z</time>
      </trkpt>
      <trkpt lat="43.63294" lon="7.04161">
        <ele>130.73123168945</ele>
        <time>2016-05-14T13:08:12.000Z</time>
      </trkpt>
      <trkpt lat="43.63293" lon="7.04163">
        <ele>131.15994262695</ele>
        <time>2016-05-14T13:08:14.000Z</time>
      </trkpt>
      <trkpt lat="43.63291" lon="7.04168">
        <ele>131.64416503906</ele>
        <time>2016-05-14T13:08:17.000Z</time>
      </trkpt>
      <trkpt lat="43.63292" lon="7.04171">
        <ele>132.10748291016</ele>
        <time>2016-05-14T13:08:19.000Z</time>
      </trkpt>
      <trkpt lat="43.63287" lon="7.04178">
        <ele>132.78768920898</ele>
        <time>2016-05-14T13:08:22.000Z</time>
      </trkpt>
      <trkpt lat="43.63284" lon="7.04181">
        <ele>133.58059692383</ele>
        <time>2016-05-14T13:08:24.000Z</time>
      </trkpt>
      <trkpt lat="43.63283" lon="7.04183">
        <ele>134.43295288086</ele>
        <time>2016-05-14T13:08:26.000Z</time>
      </trkpt>
      <trkpt lat="43.63285" lon="7.04188">
        <ele>135.06809997559</ele>
        <time>2016-05-14T13:08:29.000Z</time>
      </trkpt>
      <trkpt lat="43.63286" lon="7.04191">
        <ele>135.67669677734</ele>
        <time>2016-05-14T13:08:31.000Z</time>
      </trkpt>
      <trkpt lat="43.63287" lon="7.04196">
        <ele>135.96072387695</ele>
        <time>2016-05-14T13:08:34.000Z</time>
      </trkpt>
      <trkpt lat="43.63288" lon="7.04199">
        <ele>136.0158996582</ele>
        <time>2016-05-14T13:08:36.000Z</time>
      </trkpt>
      <trkpt lat="43.6329" lon="7.04203">
        <ele>135.88632202148</ele>
        <time>2016-05-14T13:08:38.000Z</time>
      </trkpt>
      <trkpt lat="43.63291" lon="7.04205">
        <ele>135.80618286133</ele>
        <time>2016-05-14T13:08:41.000Z</time>
      </trkpt>
      <trkpt lat="43.63291" lon="7.0421">
        <ele>135.78935241699</ele>
        <time>2016-05-14T13:08:44.000Z</time>
      </trkpt>
      <trkpt lat="43.63292" lon="7.04214">
        <ele>135.77627563477</ele>
        <time>2016-05-14T13:08:47.000Z</time>
      </trkpt>
      <trkpt lat="43.63292" lon="7.04217">
        <ele>135.8020324707</ele>
        <time>2016-05-14T13:08:50.000Z</time>
      </trkpt>
      <trkpt lat="43.63291" lon="7.04221">
        <ele>136.05239868164</ele>
        <time>2016-05-14T13:08:53.000Z</time>
      </trkpt>
      <trkpt lat="43.63295" lon="7.04224">
        <ele>136.02911376953</ele>
        <time>2016-05-14T13:08:56.000Z</time>
      </trkpt>
      <trkpt lat="43.63293" lon="7.04228">
        <ele>136.11518859863</ele>
        <time>2016-05-14T13:08:59.000Z</time>
      </trkpt>
      <trkpt lat="43.63291" lon="7.04233">
        <ele>136.47927856445</ele>
        <time>2016-05-14T13:09:02.000Z</time>
      </trkpt>
      <trkpt lat="43.63289" lon="7.04236">
        <ele>136.97203063965</ele>
        <time>2016-05-14T13:09:05.000Z</time>
      </trkpt>
      <trkpt lat="43.63289" lon="7.0424">
        <ele>137.34562683105</ele>
        <time>2016-05-14T13:09:08.000Z</time>
      </trkpt>
      <trkpt lat="43.63295" lon="7.04241">
        <ele>137.5362701416</ele>
        <time>2016-05-14T13:09:10.000Z</time>
      </trkpt>
      <trkpt lat="43.633" lon="7.04242">
        <ele>137.22660827637</ele>
        <time>2016-05-14T13:09:12.000Z</time>
      </trkpt>
      <trkpt lat="43.63304" lon="7.04244">
        <ele>136.28916931152</ele>
        <time>2016-05-14T13:09:14.000Z</time>
      </trkpt>
      <trkpt lat="43.6331" lon="7.04248">
        <ele>134.74954223633</ele>
        <time>2016-05-14T13:09:17.000Z</time>
      </trkpt>
      <trkpt lat="43.63316" lon="7.04252">
        <ele>132.72689819336</ele>
        <time>2016-05-14T13:09:20.000Z</time>
      </trkpt>
      <trkpt lat="43.63322" lon="7.04252">
        <ele>130.66944885254</ele>
        <time>2016-05-14T13:09:23.000Z</time>
      </trkpt>
      <trkpt lat="43.63322" lon="7.04251">
        <ele>128.86906433105</ele>
        <time>2016-05-14T13:09:25.000Z</time>
      </trkpt>
      <trkpt lat="43.63324" lon="7.04246">
        <ele>127.2459564209</ele>
        <time>2016-05-14T13:09:28.000Z</time>
      </trkpt>
      <trkpt lat="43.63326" lon="7.04246">
        <ele>125.92594146729</ele>
        <time>2016-05-14T13:09:31.000Z</time>
      </trkpt>
      <trkpt lat="43.63327" lon="7.04249">
        <ele>124.95766448975</ele>
        <time>2016-05-14T13:09:34.000Z</time>
      </trkpt>
      <trkpt lat="43.63332" lon="7.04255">
        <ele>124.23567199707</ele>
        <time>2016-05-14T13:09:37.000Z</time>
      </trkpt>
      <trkpt lat="43.63334" lon="7.04258">
        <ele>123.56837463379</ele>
        <time>2016-05-14T13:09:39.000Z</time>
      </trkpt>
      <trkpt lat="43.63337" lon="7.04261">
        <ele>123.17169189453</ele>
        <time>2016-05-14T13:09:41.000Z</time>
      </trkpt>
      <trkpt lat="43.6334" lon="7.04265">
        <ele>123.02221679688</ele>
        <time>2016-05-14T13:09:43.000Z</time>
      </trkpt>
      <trkpt lat="43.63342" lon="7.04268">
        <ele>123.04859924316</ele>
        <time>2016-05-14T13:09:45.000Z</time>
      </trkpt>
      <trkpt lat="43.63344" lon="7.0427">
        <ele>123.34635162354</ele>
        <time>2016-05-14T13:09:47.000Z</time>
      </trkpt>
      <trkpt lat="43.63348" lon="7.04272">
        <ele>123.72714996338</ele>
        <time>2016-05-14T13:09:50.000Z</time>
      </trkpt>
      <trkpt lat="43.63351" lon="7.04276">
        <ele>124.06363677979</ele>
        <time>2016-05-14T13:09:53.000Z</time>
      </trkpt>
      <trkpt lat="43.63352" lon="7.0428">
        <ele>124.37145996094</ele>
        <time>2016-05-14T13:09:55.000Z</time>
      </trkpt>
      <trkpt lat="43.63356" lon="7.04279">
        <ele>124.51804351807</ele>
        <time>2016-05-14T13:10:11.000Z</time>
      </trkpt>
      <trkpt lat="43.63356" lon="7.04279">
        <ele>124.51804351807</ele>
        <time>2016-05-14T13:10:31.000Z</time>
      </trkpt>
      <trkpt lat="43.63362" lon="7.04281">
        <ele>124.58355712891</ele>
        <time>2016-05-14T13:10:55.000Z</time>
      </trkpt>
      <trkpt lat="43.63364" lon="7.04284">
        <ele>124.62320709229</ele>
        <time>2016-05-14T13:11:06.000Z</time>
      </trkpt>
      <trkpt lat="43.63366" lon="7.04285">
        <ele>124.57604980469</ele>
        <time>2016-05-14T13:11:08.000Z</time>
      </trkpt>
      <trkpt lat="43.63367" lon="7.04288">
        <ele>124.46999359131</ele>
        <time>2016-05-14T13:11:11.000Z</time>
      </trkpt>
      <trkpt lat="43.63369" lon="7.04291">
        <ele>124.47807312012</ele>
        <time>2016-05-14T13:11:13.000Z</time>
      </trkpt>
      <trkpt lat="43.63372" lon="7.04294">
        <ele>124.48976135254</ele>
        <time>2016-05-14T13:11:16.000Z</time>
      </trkpt>
      <trkpt lat="43.63375" lon="7.04296">
        <ele>124.44948577881</ele>
        <time>2016-05-14T13:11:18.000Z</time>
      </trkpt>
      <trkpt lat="43.63375" lon="7.04299">
        <ele>124.44333648682</ele>
        <time>2016-05-14T13:11:20.000Z</time>
      </trkpt>
      <trkpt lat="43.63374" lon="7.04302">
        <ele>124.48105621338</ele>
        <time>2016-05-14T13:11:22.000Z</time>
      </trkpt>
      <trkpt lat="43.63372" lon="7.04306">
        <ele>124.61145019531</ele>
        <time>2016-05-14T13:11:24.000Z</time>
      </trkpt>
      <trkpt lat="43.6337" lon="7.04313">
        <ele>124.94383239746</ele>
        <time>2016-05-14T13:11:27.000Z</time>
      </trkpt>
      <trkpt lat="43.63368" lon="7.04317">
        <ele>125.4300994873</ele>
        <time>2016-05-14T13:11:29.000Z</time>
      </trkpt>
      <trkpt lat="43.63368" lon="7.0432">
        <ele>125.94899749756</ele>
        <time>2016-05-14T13:11:32.000Z</time>
      </trkpt>
      <trkpt lat="43.6337" lon="7.04323">
        <ele>126.39241027832</ele>
        <time>2016-05-14T13:11:35.000Z</time>
      </trkpt>
      <trkpt lat="43.63371" lon="7.04325">
        <ele>126.69470214844</ele>
        <time>2016-05-14T13:11:38.000Z</time>
      </trkpt>
      <trkpt lat="43.63372" lon="7.04327">
        <ele>126.81740570068</ele>
        <time>2016-05-14T13:11:40.000Z</time>
      </trkpt>
      <trkpt lat="43.63373" lon="7.04329">
        <ele>126.81351470947</ele>
        <time>2016-05-14T13:11:43.000Z</time>
      </trkpt>
      <trkpt lat="43.63372" lon="7.04331">
        <ele>126.83903503418</ele>
        <time>2016-05-14T13:11:46.000Z</time>
      </trkpt>
      <trkpt lat="43.63372" lon="7.04335">
        <ele>126.95320892334</ele>
        <time>2016-05-14T13:11:48.000Z</time>
      </trkpt>
      <trkpt lat="43.63371" lon="7.04337">
        <ele>127.16556549072</ele>
        <time>2016-05-14T13:11:51.000Z</time>
      </trkpt>
      <trkpt lat="43.63369" lon="7.04338">
        <ele>127.51515197754</ele>
        <time>2016-05-14T13:11:53.000Z</time>
      </trkpt>
      <trkpt lat="43.63367" lon="7.04339">
        <ele>128.00650024414</ele>
        <time>2016-05-14T13:11:56.000Z</time>
      </trkpt>
      <trkpt lat="43.63367" lon="7.04339">
        <ele>128.40867614746</ele>
        <time>2016-05-14T13:11:58.000Z</time>
      </trkpt>
      <trkpt lat="43.63369" lon="7.04341">
        <ele>128.67132568359</ele>
        <time>2016-05-14T13:12:01.000Z</time>
      </trkpt>
      <trkpt lat="43.63372" lon="7.04343">
        <ele>128.83444213867</ele>
        <time>2016-05-14T13:12:04.000Z</time>
      </trkpt>
      <trkpt lat="43.63377" lon="7.04347">
        <ele>128.6988067627</ele>
        <time>2016-05-14T13:12:07.000Z</time>
      </trkpt>
      <trkpt lat="43.63379" lon="7.04349">
        <ele>128.36335754395</ele>
        <time>2016-05-14T13:12:09.000Z</time>
      </trkpt>
      <trkpt lat="43.63382" lon="7.04355">
        <ele>128.03866577148</ele>
        <time>2016-05-14T13:12:12.000Z</time>
      </trkpt>
      <trkpt lat="43.63384" lon="7.04358">
        <ele>127.74269866943</ele>
        <time>2016-05-14T13:12:14.000Z</time>
      </trkpt>
      <trkpt lat="43.63387" lon="7.0436">
        <ele>127.36045074463</ele>
        <time>2016-05-14T13:12:16.000Z</time>
      </trkpt>
      <trkpt lat="43.6339" lon="7.04364">
        <ele>127.07637023926</ele>
        <time>2016-05-14T13:12:19.000Z</time>
      </trkpt>
      <trkpt lat="43.63391" lon="7.04366">
        <ele>126.76359558105</ele>
        <time>2016-05-14T13:12:21.000Z</time>
      </trkpt>
      <trkpt lat="43.63393" lon="7.04369">
        <ele>126.42366027832</ele>
        <time>2016-05-14T13:12:23.000Z</time>
      </trkpt>
      <trkpt lat="43.63395" lon="7.04376">
        <ele>126.14558410645</ele>
        <time>2016-05-14T13:12:26.000Z</time>
      </trkpt>
      <trkpt lat="43.63396" lon="7.04378">
        <ele>125.94017028809</ele>
        <time>2016-05-14T13:12:28.000Z</time>
      </trkpt>
      <trkpt lat="43.63397" lon="7.04381">
        <ele>125.78824615479</ele>
        <time>2016-05-14T13:12:31.000Z</time>
      </trkpt>
      <trkpt lat="43.63398" lon="7.04384">
        <ele>125.72441101074</ele>
        <time>2016-05-14T13:12:34.000Z</time>
      </trkpt>
      <trkpt lat="43.634" lon="7.04386">
        <ele>125.59185791016</ele>
        <time>2016-05-14T13:12:36.000Z</time>
      </trkpt>
      <trkpt lat="43.63403" lon="7.0439">
        <ele>125.322265625</ele>
        <time>2016-05-14T13:12:39.000Z</time>
      </trkpt>
      <trkpt lat="43.63404" lon="7.04394">
        <ele>125.06484222412</ele>
        <time>2016-05-14T13:12:42.000Z</time>
      </trkpt>
      <trkpt lat="43.63404" lon="7.04398">
        <ele>124.85842132568</ele>
        <time>2016-05-14T13:12:44.000Z</time>
      </trkpt>
      <trkpt lat="43.63406" lon="7.04402">
        <ele>124.53353118896</ele>
        <time>2016-05-14T13:12:46.000Z</time>
      </trkpt>
      <trkpt lat="43.63406" lon="7.04404">
        <ele>124.34499359131</ele>
        <time>2016-05-14T13:12:49.000Z</time>
      </trkpt>
      <trkpt lat="43.63406" lon="7.04406">
        <ele>124.31384277344</ele>
        <time>2016-05-14T13:12:51.000Z</time>
      </trkpt>
      <trkpt lat="43.63406" lon="7.04407">
        <ele>124.32629394531</ele>
        <time>2016-05-14T13:12:53.000Z</time>
      </trkpt>
      <trkpt lat="43.63407" lon="7.0441">
        <ele>124.3203125</ele>
        <time>2016-05-14T13:12:55.000Z</time>
      </trkpt>
      <trkpt lat="43.63408" lon="7.04414">
        <ele>124.36470031738</ele>
        <time>2016-05-14T13:12:57.000Z</time>
      </trkpt>
      <trkpt lat="43.6341" lon="7.04419">
        <ele>124.29992675781</ele>
        <time>2016-05-14T13:13:00.000Z</time>
      </trkpt>
      <trkpt lat="43.63411" lon="7.04423">
        <ele>124.08467102051</ele>
        <time>2016-05-14T13:13:03.000Z</time>
      </trkpt>
      <trkpt lat="43.63412" lon="7.04426">
        <ele>123.81308746338</ele>
        <time>2016-05-14T13:13:05.000Z</time>
      </trkpt>
      <trkpt lat="43.63412" lon="7.04432">
        <ele>123.59132385254</ele>
        <time>2016-05-14T13:13:08.000Z</time>
      </trkpt>
      <trkpt lat="43.63413" lon="7.04435">
        <ele>123.40864562988</ele>
        <time>2016-05-14T13:13:10.000Z</time>
      </trkpt>
      <trkpt lat="43.63414" lon="7.04439">
        <ele>123.26882171631</ele>
        <time>2016-05-14T13:13:12.000Z</time>
      </trkpt>
      <trkpt lat="43.63414" lon="7.04443">
        <ele>123.29180908203</ele>
        <time>2016-05-14T13:13:15.000Z</time>
      </trkpt>
      <trkpt lat="43.63414" lon="7.04446">
        <ele>123.3810043335</ele>
        <time>2016-05-14T13:13:18.000Z</time>
      </trkpt>
      <trkpt lat="43.63415" lon="7.04449">
        <ele>123.35084533691</ele>
        <time>2016-05-14T13:13:20.000Z</time>
      </trkpt>
      <trkpt lat="43.63416" lon="7.04453">
        <ele>123.29550933838</ele>
        <time>2016-05-14T13:13:22.000Z</time>
      </trkpt>
      <trkpt lat="43.63417" lon="7.04456">
        <ele>123.22523498535</ele>
        <time>2016-05-14T13:13:24.000Z</time>
      </trkpt>
      <trkpt lat="43.63418" lon="7.04459">
        <ele>123.09686279297</ele>
        <time>2016-05-14T13:13:26.000Z</time>
      </trkpt>
      <trkpt lat="43.63419" lon="7.04464">
        <ele>122.96757507324</ele>
        <time>2016-05-14T13:13:29.000Z</time>
      </trkpt>
      <trkpt lat="43.63419" lon="7.04468">
        <ele>122.93300628662</ele>
        <time>2016-05-14T13:13:32.000Z</time>
      </trkpt>
      <trkpt lat="43.6342" lon="7.04471">
        <ele>122.95475006104</ele>
        <time>2016-05-14T13:13:35.000Z</time>
      </trkpt>
      <trkpt lat="43.63422" lon="7.04476">
        <ele>123.01279449463</ele>
        <time>2016-05-14T13:13:37.000Z</time>
      </trkpt>
      <trkpt lat="43.63422" lon="7.0448">
        <ele>123.09806060791</ele>
        <time>2016-05-14T13:13:39.000Z</time>
      </trkpt>
      <trkpt lat="43.63421" lon="7.04485">
        <ele>123.20701599121</ele>
        <time>2016-05-14T13:13:42.000Z</time>
      </trkpt>
      <trkpt lat="43.63421" lon="7.04489">
        <ele>123.31618499756</ele>
        <time>2016-05-14T13:13:44.000Z</time>
      </trkpt>
      <trkpt lat="43.63421" lon="7.04495">
        <ele>123.48734283447</ele>
        <time>2016-05-14T13:13:47.000Z</time>
      </trkpt>
      <trkpt lat="43.6342" lon="7.04497">
        <ele>123.71015930176</ele>
        <time>2016-05-14T13:13:49.000Z</time>
      </trkpt>
      <trkpt lat="43.63421" lon="7.04501">
        <ele>123.89678955078</ele>
        <time>2016-05-14T13:13:51.000Z</time>
      </trkpt>
      <trkpt lat="43.63423" lon="7.04505">
        <ele>123.89514160156</ele>
        <time>2016-05-14T13:13:54.000Z</time>
      </trkpt>
      <trkpt lat="43.63424" lon="7.04508">
        <ele>123.8064956665</ele>
        <time>2016-05-14T13:13:56.000Z</time>
      </trkpt>
      <trkpt lat="43.63425" lon="7.04511">
        <ele>123.61836242676</ele>
        <time>2016-05-14T13:13:58.000Z</time>
      </trkpt>
      <trkpt lat="43.63425" lon="7.04514">
        <ele>123.34372711182</ele>
        <time>2016-05-14T13:14:01.000Z</time>
      </trkpt>
      <trkpt lat="43.63426" lon="7.04518">
        <ele>122.98725891113</ele>
        <time>2016-05-14T13:14:03.000Z</time>
      </trkpt>
      <trkpt lat="43.63428" lon="7.04522">
        <ele>122.65838623047</ele>
        <time>2016-05-14T13:14:06.000Z</time>
      </trkpt>
      <trkpt lat="43.63429" lon="7.04523">
        <ele>122.3299331665</ele>
        <time>2016-05-14T13:14:08.000Z</time>
      </trkpt>
      <trkpt lat="43.6343" lon="7.04523">
        <ele>122.01127624512</ele>
        <time>2016-05-14T13:14:11.000Z</time>
      </trkpt>
      <trkpt lat="43.63431" lon="7.04525">
        <ele>121.69075012207</ele>
        <time>2016-05-14T13:14:21.000Z</time>
      </trkpt>
      <trkpt lat="43.63432" lon="7.04528">
        <ele>121.41337585449</ele>
        <time>2016-05-14T13:14:23.000Z</time>
      </trkpt>
      <trkpt lat="43.63432" lon="7.0453">
        <ele>121.20970153809</ele>
        <time>2016-05-14T13:14:25.000Z</time>
      </trkpt>
      <trkpt lat="43.63433" lon="7.04534">
        <ele>120.98846435547</ele>
        <time>2016-05-14T13:14:28.000Z</time>
      </trkpt>
      <trkpt lat="43.63435" lon="7.04537">
        <ele>120.69902038574</ele>
        <time>2016-05-14T13:14:31.000Z</time>
      </trkpt>
      <trkpt lat="43.63436" lon="7.0454">
        <ele>120.4066619873</ele>
        <time>2016-05-14T13:14:33.000Z</time>
      </trkpt>
      <trkpt lat="43.63437" lon="7.04544">
        <ele>120.09474182129</ele>
        <time>2016-05-14T13:14:36.000Z</time>
      </trkpt>
      <trkpt lat="43.63438" lon="7.04548">
        <ele>119.73699951172</ele>
        <time>2016-05-14T13:14:39.000Z</time>
      </trkpt>
      <trkpt lat="43.63438" lon="7.04551">
        <ele>119.42665100098</ele>
        <time>2016-05-14T13:14:41.000Z</time>
      </trkpt>
      <trkpt lat="43.63439" lon="7.04557">
        <ele>119.1450958252</ele>
        <time>2016-05-14T13:14:44.000Z</time>
      </trkpt>
      <trkpt lat="43.63441" lon="7.04561">
        <ele>118.81146240234</ele>
        <time>2016-05-14T13:14:47.000Z</time>
      </trkpt>
      <trkpt lat="43.63441" lon="7.04566">
        <ele>118.4779510498</ele>
        <time>2016-05-14T13:14:50.000Z</time>
      </trkpt>
      <trkpt lat="43.63442" lon="7.04569">
        <ele>118.18827819824</ele>
        <time>2016-05-14T13:14:52.000Z</time>
      </trkpt>
      <trkpt lat="43.63441" lon="7.04574">
        <ele>117.90832519531</ele>
        <time>2016-05-14T13:14:55.000Z</time>
      </trkpt>
      <trkpt lat="43.63441" lon="7.04578">
        <ele>117.68147277832</ele>
        <time>2016-05-14T13:14:57.000Z</time>
      </trkpt>
      <trkpt lat="43.6344" lon="7.04581">
        <ele>117.54893493652</ele>
        <time>2016-05-14T13:14:59.000Z</time>
      </trkpt>
      <trkpt lat="43.63439" lon="7.04583">
        <ele>117.49597167969</ele>
        <time>2016-05-14T13:15:01.000Z</time>
      </trkpt>
      <trkpt lat="43.63439" lon="7.04587">
        <ele>117.41568756104</ele>
        <time>2016-05-14T13:15:04.000Z</time>
      </trkpt>
      <trkpt lat="43.63439" lon="7.04591">
        <ele>117.26741027832</ele>
        <time>2016-05-14T13:15:07.000Z</time>
      </trkpt>
      <trkpt lat="43.6344" lon="7.04595">
        <ele>117.01692962646</ele>
        <time>2016-05-14T13:15:10.000Z</time>
      </trkpt>
      <trkpt lat="43.63439" lon="7.04598">
        <ele>116.7201385498</ele>
        <time>2016-05-14T13:15:12.000Z</time>
      </trkpt>
      <trkpt lat="43.63438" lon="7.04602">
        <ele>116.34698486328</ele>
        <time>2016-05-14T13:15:14.000Z</time>
      </trkpt>
      <trkpt lat="43.63438" lon="7.04607">
        <ele>115.94854736328</ele>
        <time>2016-05-14T13:15:17.000Z</time>
      </trkpt>
      <trkpt lat="43.63438" lon="7.04611">
        <ele>115.53092956543</ele>
        <time>2016-05-14T13:15:20.000Z</time>
      </trkpt>
      <trkpt lat="43.63438" lon="7.04613">
        <ele>115.20265960693</ele>
        <time>2016-05-14T13:15:22.000Z</time>
      </trkpt>
      <trkpt lat="43.63437" lon="7.04614">
        <ele>114.93005371094</ele>
        <time>2016-05-14T13:15:24.000Z</time>
      </trkpt>
      <trkpt lat="43.63436" lon="7.04615">
        <ele>114.68898010254</ele>
        <time>2016-05-14T13:15:26.000Z</time>
      </trkpt>
      <trkpt lat="43.63438" lon="7.04619">
        <ele>114.43408203125</ele>
        <time>2016-05-14T13:15:29.000Z</time>
      </trkpt>
      <trkpt lat="43.63438" lon="7.04621">
        <ele>114.22560882568</ele>
        <time>2016-05-14T13:15:31.000Z</time>
      </trkpt>
      <trkpt lat="43.63439" lon="7.04625">
        <ele>113.93788909912</ele>
        <time>2016-05-14T13:15:34.000Z</time>
      </trkpt>
      <trkpt lat="43.63441" lon="7.04626">
        <ele>113.59438323975</ele>
        <time>2016-05-14T13:15:36.000Z</time>
      </trkpt>
      <trkpt lat="43.63445" lon="7.04625">
        <ele>113.23366546631</ele>
        <time>2016-05-14T13:15:41.000Z</time>
      </trkpt>
      <trkpt lat="43.63446" lon="7.04625">
        <ele>112.940574646</ele>
        <time>2016-05-14T13:15:43.000Z</time>
      </trkpt>
      <trkpt lat="43.63449" lon="7.04625">
        <ele>112.6612701416</ele>
        <time>2016-05-14T13:15:45.000Z</time>
      </trkpt>
      <trkpt lat="43.63452" lon="7.04624">
        <ele>112.45761871338</ele>
        <time>2016-05-14T13:15:47.000Z</time>
      </trkpt>
      <trkpt lat="43.63459" lon="7.04621">
        <ele>112.23554992676</ele>
        <time>2016-05-14T13:15:50.000Z</time>
      </trkpt>
      <trkpt lat="43.63464" lon="7.04621">
        <ele>111.97263336182</ele>
        <time>2016-05-14T13:15:55.000Z</time>
      </trkpt>
      <trkpt lat="43.63466" lon="7.04622">
        <ele>111.68963623047</ele>
        <time>2016-05-14T13:15:58.000Z</time>
      </trkpt>
      <trkpt lat="43.63469" lon="7.04627">
        <ele>111.33787536621</ele>
        <time>2016-05-14T13:16:01.000Z</time>
      </trkpt>
      <trkpt lat="43.63469" lon="7.04633">
        <ele>110.95310211182</ele>
        <time>2016-05-14T13:16:04.000Z</time>
      </trkpt>
      <trkpt lat="43.63469" lon="7.04636">
        <ele>110.61561584473</ele>
        <time>2016-05-14T13:16:06.000Z</time>
      </trkpt>
      <trkpt lat="43.63469" lon="7.0464">
        <ele>110.31611633301</ele>
        <time>2016-05-14T13:16:09.000Z</time>
      </trkpt>
      <trkpt lat="43.63469" lon="7.04644">
        <ele>110.03372955322</ele>
        <time>2016-05-14T13:16:11.000Z</time>
      </trkpt>
      <trkpt lat="43.63468" lon="7.04649">
        <ele>109.80561828613</ele>
        <time>2016-05-14T13:16:14.000Z</time>
      </trkpt>
      <trkpt lat="43.63469" lon="7.04652">
        <ele>109.60648345947</ele>
        <time>2016-05-14T13:16:17.000Z</time>
      </trkpt>
      <trkpt lat="43.63469" lon="7.04655">
        <ele>109.40223693848</ele>
        <time>2016-05-14T13:16:19.000Z</time>
      </trkpt>
      <trkpt lat="43.63469" lon="7.04658">
        <ele>109.21048736572</ele>
        <time>2016-05-14T13:16:21.000Z</time>
      </trkpt>
      <trkpt lat="43.63469" lon="7.04663">
        <ele>109.00290679932</ele>
        <time>2016-05-14T13:16:23.000Z</time>
      </trkpt>
      <trkpt lat="43.63467" lon="7.04666">
        <ele>108.82020568848</ele>
        <time>2016-05-14T13:16:26.000Z</time>
      </trkpt>
      <trkpt lat="43.63466" lon="7.04669">
        <ele>108.65470123291</ele>
        <time>2016-05-14T13:16:29.000Z</time>
      </trkpt>
      <trkpt lat="43.63465" lon="7.04672">
        <ele>108.50352478027</ele>
        <time>2016-05-14T13:16:31.000Z</time>
      </trkpt>
      <trkpt lat="43.63464" lon="7.04675">
        <ele>108.36401367188</ele>
        <time>2016-05-14T13:16:34.000Z</time>
      </trkpt>
      <trkpt lat="43.63463" lon="7.0468">
        <ele>108.24745941162</ele>
        <time>2016-05-14T13:16:37.000Z</time>
      </trkpt>
      <trkpt lat="43.63462" lon="7.04686">
        <ele>108.12355804443</ele>
        <time>2016-05-14T13:16:40.000Z</time>
      </trkpt>
      <trkpt lat="43.63462" lon="7.04688">
        <ele>108.00351715088</ele>
        <time>2016-05-14T13:16:42.000Z</time>
      </trkpt>
      <trkpt lat="43.63461" lon="7.04692">
        <ele>107.87630462646</ele>
        <time>2016-05-14T13:16:44.000Z</time>
      </trkpt>
      <trkpt lat="43.63462" lon="7.04696">
        <ele>107.74095153809</ele>
        <time>2016-05-14T13:16:47.000Z</time>
      </trkpt>
      <trkpt lat="43.63462" lon="7.04701">
        <ele>107.60514068604</ele>
        <time>2016-05-14T13:16:50.000Z</time>
      </trkpt>
      <trkpt lat="43.6346" lon="7.04705">
        <ele>107.47109222412</ele>
        <time>2016-05-14T13:16:53.000Z</time>
      </trkpt>
      <trkpt lat="43.63459" lon="7.04709">
        <ele>107.32204437256</ele>
        <time>2016-05-14T13:16:55.000Z</time>
      </trkpt>
      <trkpt lat="43.63459" lon="7.04714">
        <ele>107.15856933594</ele>
        <time>2016-05-14T13:16:58.000Z</time>
      </trkpt>
      <trkpt lat="43.63459" lon="7.04718">
        <ele>106.99965667725</ele>
        <time>2016-05-14T13:17:00.000Z</time>
      </trkpt>
      <trkpt lat="43.6346" lon="7.04724">
        <ele>106.83386230469</ele>
        <time>2016-05-14T13:17:03.000Z</time>
      </trkpt>
      <trkpt lat="43.63461" lon="7.04727">
        <ele>106.6888885498</ele>
        <time>2016-05-14T13:17:05.000Z</time>
      </trkpt>
      <trkpt lat="43.63462" lon="7.04732">
        <ele>106.5509262085</ele>
        <time>2016-05-14T13:17:08.000Z</time>
      </trkpt>
      <trkpt lat="43.63462" lon="7.04735">
        <ele>106.43625640869</ele>
        <time>2016-05-14T13:17:10.000Z</time>
      </trkpt>
      <trkpt lat="43.63461" lon="7.0474">
        <ele>106.298828125</ele>
        <time>2016-05-14T13:17:13.000Z</time>
      </trkpt>
      <trkpt lat="43.63462" lon="7.04742">
        <ele>106.19315338135</ele>
        <time>2016-05-14T13:17:16.000Z</time>
      </trkpt>
      <trkpt lat="43.63462" lon="7.04742">
        <ele>106.19315338135</ele>
        <time>2016-05-14T13:17:36.000Z</time>
      </trkpt>
      <trkpt lat="43.63464" lon="7.04742">
        <ele>106.12504577637</ele>
        <time>2016-05-14T13:17:38.000Z</time>
      </trkpt>
      <trkpt lat="43.63464" lon="7.04742">
        <ele>106.12504577637</ele>
        <time>2016-05-14T13:17:58.000Z</time>
      </trkpt>
      <trkpt lat="43.63467" lon="7.04742">
        <ele>106.11336517334</ele>
        <time>2016-05-14T13:18:14.000Z</time>
      </trkpt>
      <trkpt lat="43.63466" lon="7.04744">
        <ele>106.09415435791</ele>
        <time>2016-05-14T13:18:16.000Z</time>
      </trkpt>
      <trkpt lat="43.63464" lon="7.04745">
        <ele>106.09340667725</ele>
        <time>2016-05-14T13:18:20.000Z</time>
      </trkpt>
      <trkpt lat="43.63464" lon="7.04749">
        <ele>106.06843566895</ele>
        <time>2016-05-14T13:18:22.000Z</time>
      </trkpt>
      <trkpt lat="43.63464" lon="7.04751">
        <ele>106.01078796387</ele>
        <time>2016-05-14T13:18:24.000Z</time>
      </trkpt>
      <trkpt lat="43.63464" lon="7.04754">
        <ele>105.91264343262</ele>
        <time>2016-05-14T13:18:27.000Z</time>
      </trkpt>
      <trkpt lat="43.63464" lon="7.04758">
        <ele>105.82033538818</ele>
        <time>2016-05-14T13:18:29.000Z</time>
      </trkpt>
      <trkpt lat="43.63465" lon="7.04764">
        <ele>105.73044586182</ele>
        <time>2016-05-14T13:18:32.000Z</time>
      </trkpt>
      <trkpt lat="43.63466" lon="7.0477">
        <ele>105.66015625</ele>
        <time>2016-05-14T13:18:35.000Z</time>
      </trkpt>
      <trkpt lat="43.63467" lon="7.04775">
        <ele>105.5908203125</ele>
        <time>2016-05-14T13:18:38.000Z</time>
      </trkpt>
      <trkpt lat="43.63468" lon="7.04778">
        <ele>105.51879882812</ele>
        <time>2016-05-14T13:18:40.000Z</time>
      </trkpt>
      <trkpt lat="43.63469" lon="7.04783">
        <ele>105.4453125</ele>
        <time>2016-05-14T13:18:43.000Z</time>
      </trkpt>
      <trkpt lat="43.63467" lon="7.04786">
        <ele>105.3642578125</ele>
        <time>2016-05-14T13:18:46.000Z</time>
      </trkpt>
      <trkpt lat="43.63466" lon="7.04788">
        <ele>105.27563476562</ele>
        <time>2016-05-14T13:18:48.000Z</time>
      </trkpt>
      <trkpt lat="43.63464" lon="7.04791">
        <ele>105.14721679688</ele>
        <time>2016-05-14T13:18:51.000Z</time>
      </trkpt>
      <trkpt lat="43.63463" lon="7.04795">
        <ele>105.00244140625</ele>
        <time>2016-05-14T13:18:54.000Z</time>
      </trkpt>
      <trkpt lat="43.63463" lon="7.04798">
        <ele>104.86083984375</ele>
        <time>2016-05-14T13:18:56.000Z</time>
      </trkpt>
      <trkpt lat="43.63463" lon="7.04805">
        <ele>104.72021484375</ele>
        <time>2016-05-14T13:18:59.000Z</time>
      </trkpt>
      <trkpt lat="43.63462" lon="7.04808">
        <ele>104.57934570312</ele>
        <time>2016-05-14T13:19:01.000Z</time>
      </trkpt>
      <trkpt lat="43.63461" lon="7.0481">
        <ele>104.45922851562</ele>
        <time>2016-05-14T13:19:04.000Z</time>
      </trkpt>
      <trkpt lat="43.63463" lon="7.04816">
        <ele>104.35864257812</ele>
        <time>2016-05-14T13:19:07.000Z</time>
      </trkpt>
      <trkpt lat="43.63462" lon="7.0482">
        <ele>104.248046875</ele>
        <time>2016-05-14T13:19:10.000Z</time>
      </trkpt>
      <trkpt lat="43.63462" lon="7.04824">
        <ele>104.15356445312</ele>
        <time>2016-05-14T13:19:12.000Z</time>
      </trkpt>
      <trkpt lat="43.63462" lon="7.04826">
        <ele>104.05932617188</ele>
        <time>2016-05-14T13:19:14.000Z</time>
      </trkpt>
      <trkpt lat="43.63462" lon="7.0483">
        <ele>103.98022460938</ele>
        <time>2016-05-14T13:19:16.000Z</time>
      </trkpt>
      <trkpt lat="43.63462" lon="7.04836">
        <ele>103.88371276855</ele>
        <time>2016-05-14T13:19:19.000Z</time>
      </trkpt>
      <trkpt lat="43.63462" lon="7.0484">
        <ele>103.79136657715</ele>
        <time>2016-05-14T13:19:22.000Z</time>
      </trkpt>
      <trkpt lat="43.63461" lon="7.04843">
        <ele>103.6955947876</ele>
        <time>2016-05-14T13:19:24.000Z</time>
      </trkpt>
      <trkpt lat="43.6346" lon="7.04847">
        <ele>103.59936523438</ele>
        <time>2016-05-14T13:19:26.000Z</time>
      </trkpt>
      <trkpt lat="43.6346" lon="7.04852">
        <ele>103.50463867188</ele>
        <time>2016-05-14T13:19:29.000Z</time>
      </trkpt>
      <trkpt lat="43.63461" lon="7.04854">
        <ele>103.4306640625</ele>
        <time>2016-05-14T13:19:31.000Z</time>
      </trkpt>
      <trkpt lat="43.63461" lon="7.04856">
        <ele>103.37236022949</ele>
        <time>2016-05-14T13:19:33.000Z</time>
      </trkpt>
      <trkpt lat="43.63462" lon="7.04859">
        <ele>103.32572937012</ele>
        <time>2016-05-14T13:19:35.000Z</time>
      </trkpt>
      <trkpt lat="43.63461" lon="7.04863">
        <ele>103.28328704834</ele>
        <time>2016-05-14T13:19:38.000Z</time>
      </trkpt>
      <trkpt lat="43.63461" lon="7.04866">
        <ele>103.2416229248</ele>
        <time>2016-05-14T13:19:40.000Z</time>
      </trkpt>
      <trkpt lat="43.63461" lon="7.04872">
        <ele>103.18621826172</ele>
        <time>2016-05-14T13:19:43.000Z</time>
      </trkpt>
      <trkpt lat="43.63461" lon="7.04877">
        <ele>103.12166595459</ele>
        <time>2016-05-14T13:19:46.000Z</time>
      </trkpt>
      <trkpt lat="43.63461" lon="7.0488">
        <ele>103.05317687988</ele>
        <time>2016-05-14T13:19:49.000Z</time>
      </trkpt>
      <trkpt lat="43.63462" lon="7.04885">
        <ele>102.98089599609</ele>
        <time>2016-05-14T13:19:52.000Z</time>
      </trkpt>
      <trkpt lat="43.63462" lon="7.04889">
        <ele>102.90476226807</ele>
        <time>2016-05-14T13:19:54.000Z</time>
      </trkpt>
      <trkpt lat="43.63461" lon="7.04892">
        <ele>102.84037017822</ele>
        <time>2016-05-14T13:19:56.000Z</time>
      </trkpt>
      <trkpt lat="43.63459" lon="7.04896">
        <ele>102.78758239746</ele>
        <time>2016-05-14T13:19:59.000Z</time>
      </trkpt>
      <trkpt lat="43.63458" lon="7.049">
        <ele>102.74549865723</ele>
        <time>2016-05-14T13:20:01.000Z</time>
      </trkpt>
      <trkpt lat="43.63457" lon="7.04905">
        <ele>102.71529388428</ele>
        <time>2016-05-14T13:20:04.000Z</time>
      </trkpt>
      <trkpt lat="43.63458" lon="7.0491">
        <ele>102.6837387085</ele>
        <time>2016-05-14T13:20:07.000Z</time>
      </trkpt>
      <trkpt lat="43.63457" lon="7.04916">
        <ele>102.65102386475</ele>
        <time>2016-05-14T13:20:10.000Z</time>
      </trkpt>
      <trkpt lat="43.63457" lon="7.04918">
        <ele>102.62524414062</ele>
        <time>2016-05-14T13:20:12.000Z</time>
      </trkpt>
      <trkpt lat="43.63457" lon="7.0492">
        <ele>102.60636901855</ele>
        <time>2016-05-14T13:20:15.000Z</time>
      </trkpt>
      <trkpt lat="43.63455" lon="7.0492">
        <ele>102.61999511719</ele>
        <time>2016-05-14T13:20:35.000Z</time>
      </trkpt>
      <trkpt lat="43.63455" lon="7.0492">
        <ele>102.61999511719</ele>
        <time>2016-05-14T13:20:55.000Z</time>
      </trkpt>
      <trkpt lat="43.63454" lon="7.04919">
        <ele>102.65240478516</ele>
        <time>2016-05-14T13:21:29.000Z</time>
      </trkpt>
      <trkpt lat="43.63455" lon="7.0492">
        <ele>102.68879699707</ele>
        <time>2016-05-14T13:21:31.000Z</time>
      </trkpt>
      <trkpt lat="43.63456" lon="7.04925">
        <ele>102.7406463623</ele>
        <time>2016-05-14T13:21:34.000Z</time>
      </trkpt>
      <trkpt lat="43.63457" lon="7.04929">
        <ele>102.77478027344</ele>
        <time>2016-05-14T13:21:37.000Z</time>
      </trkpt>
      <trkpt lat="43.63459" lon="7.04933">
        <ele>102.76920318604</ele>
        <time>2016-05-14T13:21:40.000Z</time>
      </trkpt>
      <trkpt lat="43.63461" lon="7.04938">
        <ele>102.7523651123</ele>
        <time>2016-05-14T13:21:43.000Z</time>
      </trkpt>
      <trkpt lat="43.63463" lon="7.0494">
        <ele>102.72106933594</ele>
        <time>2016-05-14T13:21:45.000Z</time>
      </trkpt>
      <trkpt lat="43.63464" lon="7.04942">
        <ele>102.6513671875</ele>
        <time>2016-05-14T13:21:47.000Z</time>
      </trkpt>
      <trkpt lat="43.63465" lon="7.04945">
        <ele>102.58795166016</ele>
        <time>2016-05-14T13:21:49.000Z</time>
      </trkpt>
      <trkpt lat="43.63468" lon="7.04953">
        <ele>102.51564025879</ele>
        <time>2016-05-14T13:21:52.000Z</time>
      </trkpt>
      <trkpt lat="43.63469" lon="7.04957">
        <ele>102.43166351318</ele>
        <time>2016-05-14T13:21:55.000Z</time>
      </trkpt>
      <trkpt lat="43.63469" lon="7.04959">
        <ele>102.36991119385</ele>
        <time>2016-05-14T13:21:57.000Z</time>
      </trkpt>
      <trkpt lat="43.63469" lon="7.04963">
        <ele>102.34952545166</ele>
        <time>2016-05-14T13:22:00.000Z</time>
      </trkpt>
      <trkpt lat="43.63467" lon="7.04969">
        <ele>102.37935638428</ele>
        <time>2016-05-14T13:22:03.000Z</time>
      </trkpt>
      <trkpt lat="43.63467" lon="7.04971">
        <ele>102.42901611328</ele>
        <time>2016-05-14T13:22:05.000Z</time>
      </trkpt>
      <trkpt lat="43.63468" lon="7.04973">
        <ele>102.48581695557</ele>
        <time>2016-05-14T13:22:07.000Z</time>
      </trkpt>
      <trkpt lat="43.6347" lon="7.04976">
        <ele>102.51161956787</ele>
        <time>2016-05-14T13:22:10.000Z</time>
      </trkpt>
      <trkpt lat="43.63472" lon="7.04979">
        <ele>102.47885894775</ele>
        <time>2016-05-14T13:22:12.000Z</time>
      </trkpt>
      <trkpt lat="43.63472" lon="7.04983">
        <ele>102.39029693604</ele>
        <time>2016-05-14T13:22:15.000Z</time>
      </trkpt>
      <trkpt lat="43.63472" lon="7.04986">
        <ele>102.31651306152</ele>
        <time>2016-05-14T13:22:17.000Z</time>
      </trkpt>
      <trkpt lat="43.6347" lon="7.04991">
        <ele>102.30986785889</ele>
        <time>2016-05-14T13:22:19.000Z</time>
      </trkpt>
      <trkpt lat="43.63471" lon="7.04995">
        <ele>102.30888366699</ele>
        <time>2016-05-14T13:22:22.000Z</time>
      </trkpt>
      <trkpt lat="43.63474" lon="7.04997">
        <ele>102.29954528809</ele>
        <time>2016-05-14T13:22:25.000Z</time>
      </trkpt>
      <trkpt lat="43.63475" lon="7.04999">
        <ele>102.25562286377</ele>
        <time>2016-05-14T13:22:28.000Z</time>
      </trkpt>
      <trkpt lat="43.63477" lon="7.05005">
        <ele>102.17514038086</ele>
        <time>2016-05-14T13:22:31.000Z</time>
      </trkpt>
      <trkpt lat="43.63477" lon="7.05008">
        <ele>102.05802154541</ele>
        <time>2016-05-14T13:22:33.000Z</time>
      </trkpt>
      <trkpt lat="43.63478" lon="7.05008">
        <ele>101.93381500244</ele>
        <time>2016-05-14T13:22:36.000Z</time>
      </trkpt>
      <trkpt lat="43.63478" lon="7.05008">
        <ele>101.83616638184</ele>
        <time>2016-05-14T13:22:39.000Z</time>
      </trkpt>
      <trkpt lat="43.6348" lon="7.05013">
        <ele>101.7689666748</ele>
        <time>2016-05-14T13:22:42.000Z</time>
      </trkpt>
      <trkpt lat="43.6348" lon="7.05016">
        <ele>101.73445129395</ele>
        <time>2016-05-14T13:22:44.000Z</time>
      </trkpt>
      <trkpt lat="43.63478" lon="7.05021">
        <ele>101.74453735352</ele>
        <time>2016-05-14T13:22:47.000Z</time>
      </trkpt>
      <trkpt lat="43.63476" lon="7.05027">
        <ele>101.83486175537</ele>
        <time>2016-05-14T13:22:50.000Z</time>
      </trkpt>
      <trkpt lat="43.63475" lon="7.05029">
        <ele>101.96618652344</ele>
        <time>2016-05-14T13:22:52.000Z</time>
      </trkpt>
      <trkpt lat="43.63476" lon="7.05032">
        <ele>102.10372161865</ele>
        <time>2016-05-14T13:22:55.000Z</time>
      </trkpt>
      <trkpt lat="43.63478" lon="7.05037">
        <ele>102.20243835449</ele>
        <time>2016-05-14T13:22:58.000Z</time>
      </trkpt>
      <trkpt lat="43.63479" lon="7.05041">
        <ele>102.22647094727</ele>
        <time>2016-05-14T13:23:01.000Z</time>
      </trkpt>
      <trkpt lat="43.6348" lon="7.05044">
        <ele>102.19073486328</ele>
        <time>2016-05-14T13:23:03.000Z</time>
      </trkpt>
      <trkpt lat="43.63482" lon="7.05049">
        <ele>102.12300872803</ele>
        <time>2016-05-14T13:23:06.000Z</time>
      </trkpt>
      <trkpt lat="43.63483" lon="7.05055">
        <ele>102.05061340332</ele>
        <time>2016-05-14T13:23:09.000Z</time>
      </trkpt>
      <trkpt lat="43.63483" lon="7.05058">
        <ele>102.01972961426</ele>
        <time>2016-05-14T13:23:11.000Z</time>
      </trkpt>
      <trkpt lat="43.63485" lon="7.05063">
        <ele>101.97371673584</ele>
        <time>2016-05-14T13:23:14.000Z</time>
      </trkpt>
      <trkpt lat="43.63486" lon="7.05068">
        <ele>101.93574523926</ele>
        <time>2016-05-14T13:23:17.000Z</time>
      </trkpt>
      <trkpt lat="43.63487" lon="7.05073">
        <ele>101.91316223145</ele>
        <time>2016-05-14T13:23:20.000Z</time>
      </trkpt>
      <trkpt lat="43.63486" lon="7.05077">
        <ele>101.93006896973</ele>
        <time>2016-05-14T13:23:22.000Z</time>
      </trkpt>
      <trkpt lat="43.63486" lon="7.05081">
        <ele>101.95071411133</ele>
        <time>2016-05-14T13:23:25.000Z</time>
      </trkpt>
      <trkpt lat="43.63487" lon="7.05085">
        <ele>102.00141906738</ele>
        <time>2016-05-14T13:23:28.000Z</time>
      </trkpt>
      <trkpt lat="43.63488" lon="7.0509">
        <ele>102.05879211426</ele>
        <time>2016-05-14T13:23:31.000Z</time>
      </trkpt>
      <trkpt lat="43.63489" lon="7.05094">
        <ele>102.10807800293</ele>
        <time>2016-05-14T13:23:34.000Z</time>
      </trkpt>
      <trkpt lat="43.6349" lon="7.05096">
        <ele>102.12623596191</ele>
        <time>2016-05-14T13:23:36.000Z</time>
      </trkpt>
      <trkpt lat="43.63491" lon="7.05101">
        <ele>102.13374328613</ele>
        <time>2016-05-14T13:23:39.000Z</time>
      </trkpt>
      <trkpt lat="43.63492" lon="7.05105">
        <ele>102.15679931641</ele>
        <time>2016-05-14T13:23:42.000Z</time>
      </trkpt>
      <trkpt lat="43.63492" lon="7.05108">
        <ele>102.18525695801</ele>
        <time>2016-05-14T13:23:44.000Z</time>
      </trkpt>
      <trkpt lat="43.6349" lon="7.05111">
        <ele>102.25089263916</ele>
        <time>2016-05-14T13:23:47.000Z</time>
      </trkpt>
      <trkpt lat="43.63489" lon="7.05115">
        <ele>102.34882354736</ele>
        <time>2016-05-14T13:23:50.000Z</time>
      </trkpt>
      <trkpt lat="43.63488" lon="7.0512">
        <ele>102.4712677002</ele>
        <time>2016-05-14T13:23:53.000Z</time>
      </trkpt>
      <trkpt lat="43.63488" lon="7.05122">
        <ele>102.58367919922</ele>
        <time>2016-05-14T13:23:56.000Z</time>
      </trkpt>
      <trkpt lat="43.63488" lon="7.05124">
        <ele>102.6949005127</ele>
        <time>2016-05-14T13:23:58.000Z</time>
      </trkpt>
      <trkpt lat="43.63484" lon="7.05129">
        <ele>102.80735015869</ele>
        <time>2016-05-14T13:24:01.000Z</time>
      </trkpt>
      <trkpt lat="43.63483" lon="7.05134">
        <ele>102.9134979248</ele>
        <time>2016-05-14T13:24:03.000Z</time>
      </trkpt>
      <trkpt lat="43.63482" lon="7.05137">
        <ele>103.00152587891</ele>
        <time>2016-05-14T13:24:05.000Z</time>
      </trkpt>
      <trkpt lat="43.63482" lon="7.05142">
        <ele>103.09391784668</ele>
        <time>2016-05-14T13:24:08.000Z</time>
      </trkpt>
      <trkpt lat="43.63484" lon="7.05146">
        <ele>103.1852645874</ele>
        <time>2016-05-14T13:24:11.000Z</time>
      </trkpt>
      <trkpt lat="43.63485" lon="7.0515">
        <ele>103.25170898438</ele>
        <time>2016-05-14T13:24:13.000Z</time>
      </trkpt>
      <trkpt lat="43.63484" lon="7.05153">
        <ele>103.30458068848</ele>
        <time>2016-05-14T13:24:15.000Z</time>
      </trkpt>
      <trkpt lat="43.63483" lon="7.05158">
        <ele>103.3602142334</ele>
        <time>2016-05-14T13:24:18.000Z</time>
      </trkpt>
      <trkpt lat="43.63483" lon="7.05162">
        <ele>103.41166687012</ele>
        <time>2016-05-14T13:24:20.000Z</time>
      </trkpt>
      <trkpt lat="43.63482" lon="7.05166">
        <ele>103.45859527588</ele>
        <time>2016-05-14T13:24:23.000Z</time>
      </trkpt>
      <trkpt lat="43.6348" lon="7.05169">
        <ele>103.5159072876</ele>
        <time>2016-05-14T13:24:26.000Z</time>
      </trkpt>
      <trkpt lat="43.63478" lon="7.05171">
        <ele>103.58683776855</ele>
        <time>2016-05-14T13:24:28.000Z</time>
      </trkpt>
      <trkpt lat="43.63477" lon="7.05174">
        <ele>103.65570068359</ele>
        <time>2016-05-14T13:24:30.000Z</time>
      </trkpt>
      <trkpt lat="43.63474" lon="7.05176">
        <ele>103.713722229</ele>
        <time>2016-05-14T13:24:33.000Z</time>
      </trkpt>
      <trkpt lat="43.63472" lon="7.05178">
        <ele>103.78108978271</ele>
        <time>2016-05-14T13:24:36.000Z</time>
      </trkpt>
      <trkpt lat="43.6347" lon="7.05181">
        <ele>103.83055114746</ele>
        <time>2016-05-14T13:24:38.000Z</time>
      </trkpt>
      <trkpt lat="43.63468" lon="7.05184">
        <ele>103.86849212646</ele>
        <time>2016-05-14T13:24:41.000Z</time>
      </trkpt>
      <trkpt lat="43.63467" lon="7.05186">
        <ele>103.90698242188</ele>
        <time>2016-05-14T13:24:43.000Z</time>
      </trkpt>
      <trkpt lat="43.63466" lon="7.05189">
        <ele>103.95945739746</ele>
        <time>2016-05-14T13:24:46.000Z</time>
      </trkpt>
      <trkpt lat="43.63463" lon="7.05191">
        <ele>103.98183441162</ele>
        <time>2016-05-14T13:24:49.000Z</time>
      </trkpt>
      <trkpt lat="43.63461" lon="7.05194">
        <ele>103.99681091309</ele>
        <time>2016-05-14T13:24:52.000Z</time>
      </trkpt>
      <trkpt lat="43.6346" lon="7.05195">
        <ele>103.99589538574</ele>
        <time>2016-05-14T13:24:54.000Z</time>
      </trkpt>
      <trkpt lat="43.63458" lon="7.05195">
        <ele>103.959815979</ele>
        <time>2016-05-14T13:24:56.000Z</time>
      </trkpt>
      <trkpt lat="43.63454" lon="7.05197">
        <ele>103.86966705322</ele>
        <time>2016-05-14T13:24:59.000Z</time>
      </trkpt>
      <trkpt lat="43.63452" lon="7.052">
        <ele>103.78442382812</ele>
        <time>2016-05-14T13:25:02.000Z</time>
      </trkpt>
      <trkpt lat="43.6345" lon="7.05204">
        <ele>103.69548034668</ele>
        <time>2016-05-14T13:25:05.000Z</time>
      </trkpt>
      <trkpt lat="43.63449" lon="7.05209">
        <ele>103.61330413818</ele>
        <time>2016-05-14T13:25:08.000Z</time>
      </trkpt>
      <trkpt lat="43.63447" lon="7.05215">
        <ele>103.53791809082</ele>
        <time>2016-05-14T13:25:11.000Z</time>
      </trkpt>
      <trkpt lat="43.63445" lon="7.05219">
        <ele>103.47944641113</ele>
        <time>2016-05-14T13:25:13.000Z</time>
      </trkpt>
      <trkpt lat="43.63443" lon="7.05224">
        <ele>103.40464019775</ele>
        <time>2016-05-14T13:25:16.000Z</time>
      </trkpt>
      <trkpt lat="43.63442" lon="7.05228">
        <ele>103.33604431152</ele>
        <time>2016-05-14T13:25:19.000Z</time>
      </trkpt>
      <trkpt lat="43.63441" lon="7.05229">
        <ele>103.25319671631</ele>
        <time>2016-05-14T13:25:21.000Z</time>
      </trkpt>
      <trkpt lat="43.6344" lon="7.05232">
        <ele>103.16471099854</ele>
        <time>2016-05-14T13:25:23.000Z</time>
      </trkpt>
      <trkpt lat="43.63441" lon="7.05236">
        <ele>103.1160736084</ele>
        <time>2016-05-14T13:25:26.000Z</time>
      </trkpt>
      <trkpt lat="43.63438" lon="7.05239">
        <ele>103.04057312012</ele>
        <time>2016-05-14T13:25:29.000Z</time>
      </trkpt>
      <trkpt lat="43.63436" lon="7.0524">
        <ele>102.90856933594</ele>
        <time>2016-05-14T13:25:31.000Z</time>
      </trkpt>
      <trkpt lat="43.63433" lon="7.05241">
        <ele>102.72238922119</ele>
        <time>2016-05-14T13:25:34.000Z</time>
      </trkpt>
      <trkpt lat="43.63431" lon="7.05241">
        <ele>102.50910949707</ele>
        <time>2016-05-14T13:25:36.000Z</time>
      </trkpt>
      <trkpt lat="43.63426" lon="7.05239">
        <ele>102.16731262207</ele>
        <time>2016-05-14T13:25:39.000Z</time>
      </trkpt>
      <trkpt lat="43.63423" lon="7.05238">
        <ele>101.81649780273</ele>
        <time>2016-05-14T13:25:41.000Z</time>
      </trkpt>
      <trkpt lat="43.63422" lon="7.05235">
        <ele>101.4933013916</ele>
        <time>2016-05-14T13:25:43.000Z</time>
      </trkpt>
      <trkpt lat="43.6342" lon="7.05233">
        <ele>101.21150970459</ele>
        <time>2016-05-14T13:25:45.000Z</time>
      </trkpt>
      <trkpt lat="43.63418" lon="7.05232">
        <ele>100.94541931152</ele>
        <time>2016-05-14T13:25:48.000Z</time>
      </trkpt>
      <trkpt lat="43.63418" lon="7.05232">
        <ele>100.94541931152</ele>
        <time>2016-05-14T13:26:08.000Z</time>
      </trkpt>
      <trkpt lat="43.63419" lon="7.05237">
        <ele>100.78122711182</ele>
        <time>2016-05-14T13:26:42.000Z</time>
      </trkpt>
      <trkpt lat="43.63417" lon="7.05238">
        <ele>100.62729644775</ele>
        <time>2016-05-14T13:26:45.000Z</time>
      </trkpt>
      <trkpt lat="43.63414" lon="7.05241">
        <ele>100.52777099609</ele>
        <time>2016-05-14T13:26:48.000Z</time>
      </trkpt>
      <trkpt lat="43.63411" lon="7.05242">
        <ele>100.48197937012</ele>
        <time>2016-05-14T13:26:50.000Z</time>
      </trkpt>
      <trkpt lat="43.63409" lon="7.05242">
        <ele>100.49896240234</ele>
        <time>2016-05-14T13:26:52.000Z</time>
      </trkpt>
      <trkpt lat="43.63406" lon="7.05243">
        <ele>100.55778503418</ele>
        <time>2016-05-14T13:26:54.000Z</time>
      </trkpt>
      <trkpt lat="43.63402" lon="7.05245">
        <ele>100.70146179199</ele>
        <time>2016-05-14T13:26:57.000Z</time>
      </trkpt>
      <trkpt lat="43.63401" lon="7.05247">
        <ele>100.81834411621</ele>
        <time>2016-05-14T13:26:59.000Z</time>
      </trkpt>
      <trkpt lat="43.634" lon="7.05253">
        <ele>100.91435241699</ele>
        <time>2016-05-14T13:27:02.000Z</time>
      </trkpt>
      <trkpt lat="43.63399" lon="7.05258">
        <ele>100.98753356934</ele>
        <time>2016-05-14T13:27:04.000Z</time>
      </trkpt>
      <trkpt lat="43.634" lon="7.05267">
        <ele>101.03007507324</ele>
        <time>2016-05-14T13:27:07.000Z</time>
      </trkpt>
      <trkpt lat="43.634" lon="7.0527">
        <ele>101.03774261475</ele>
        <time>2016-05-14T13:27:09.000Z</time>
      </trkpt>
      <trkpt lat="43.63399" lon="7.05275">
        <ele>101.05723571777</ele>
        <time>2016-05-14T13:27:12.000Z</time>
      </trkpt>
      <trkpt lat="43.63398" lon="7.05277">
        <ele>101.07879638672</ele>
        <time>2016-05-14T13:27:14.000Z</time>
      </trkpt>
      <trkpt lat="43.63396" lon="7.05282">
        <ele>101.11183929443</ele>
        <time>2016-05-14T13:27:17.000Z</time>
      </trkpt>
      <trkpt lat="43.63395" lon="7.05285">
        <ele>101.16199493408</ele>
        <time>2016-05-14T13:27:19.000Z</time>
      </trkpt>
      <trkpt lat="43.63393" lon="7.05288">
        <ele>101.22636413574</ele>
        <time>2016-05-14T13:27:22.000Z</time>
      </trkpt>
      <trkpt lat="43.63392" lon="7.05292">
        <ele>101.28539276123</ele>
        <time>2016-05-14T13:27:25.000Z</time>
      </trkpt>
      <trkpt lat="43.63391" lon="7.05295">
        <ele>101.34041595459</ele>
        <time>2016-05-14T13:27:27.000Z</time>
      </trkpt>
      <trkpt lat="43.63389" lon="7.05299">
        <ele>101.39091491699</ele>
        <time>2016-05-14T13:27:30.000Z</time>
      </trkpt>
      <trkpt lat="43.63387" lon="7.05302">
        <ele>101.43466186523</ele>
        <time>2016-05-14T13:27:33.000Z</time>
      </trkpt>
      <trkpt lat="43.63384" lon="7.05304">
        <ele>101.47887420654</ele>
        <time>2016-05-14T13:27:35.000Z</time>
      </trkpt>
      <trkpt lat="43.63382" lon="7.05305">
        <ele>101.52773284912</ele>
        <time>2016-05-14T13:27:37.000Z</time>
      </trkpt>
      <trkpt lat="43.6338" lon="7.05308">
        <ele>101.58206939697</ele>
        <time>2016-05-14T13:27:40.000Z</time>
      </trkpt>
      <trkpt lat="43.63378" lon="7.05311">
        <ele>101.62460327148</ele>
        <time>2016-05-14T13:27:42.000Z</time>
      </trkpt>
      <trkpt lat="43.63376" lon="7.05315">
        <ele>101.65815734863</ele>
        <time>2016-05-14T13:27:45.000Z</time>
      </trkpt>
      <trkpt lat="43.63375" lon="7.05318">
        <ele>101.67847442627</ele>
        <time>2016-05-14T13:27:47.000Z</time>
      </trkpt>
      <trkpt lat="43.63373" lon="7.05322">
        <ele>101.68608093262</ele>
        <time>2016-05-14T13:27:50.000Z</time>
      </trkpt>
      <trkpt lat="43.63371" lon="7.05325">
        <ele>101.6837387085</ele>
        <time>2016-05-14T13:27:52.000Z</time>
      </trkpt>
      <trkpt lat="43.63369" lon="7.05328">
        <ele>101.67512512207</ele>
        <time>2016-05-14T13:27:55.000Z</time>
      </trkpt>
      <trkpt lat="43.63367" lon="7.05329">
        <ele>101.66678619385</ele>
        <time>2016-05-14T13:27:57.000Z</time>
      </trkpt>
      <trkpt lat="43.63364" lon="7.05331">
        <ele>101.66359710693</ele>
        <time>2016-05-14T13:28:00.000Z</time>
      </trkpt>
      <trkpt lat="43.63362" lon="7.05334">
        <ele>101.6603012085</ele>
        <time>2016-05-14T13:28:03.000Z</time>
      </trkpt>
      <trkpt lat="43.6336" lon="7.05336">
        <ele>101.65811920166</ele>
        <time>2016-05-14T13:28:05.000Z</time>
      </trkpt>
      <trkpt lat="43.63358" lon="7.05338">
        <ele>101.65760040283</ele>
        <time>2016-05-14T13:28:08.000Z</time>
      </trkpt>
      <trkpt lat="43.63354" lon="7.05339">
        <ele>101.65141296387</ele>
        <time>2016-05-14T13:28:11.000Z</time>
      </trkpt>
      <trkpt lat="43.63351" lon="7.0534">
        <ele>101.63835144043</ele>
        <time>2016-05-14T13:28:14.000Z</time>
      </trkpt>
      <trkpt lat="43.63347" lon="7.0534">
        <ele>101.6319732666</ele>
        <time>2016-05-14T13:28:17.000Z</time>
      </trkpt>
      <trkpt lat="43.63345" lon="7.05338">
        <ele>101.6372833252</ele>
        <time>2016-05-14T13:28:19.000Z</time>
      </trkpt>
      <trkpt lat="43.63342" lon="7.05337">
        <ele>101.65305328369</ele>
        <time>2016-05-14T13:28:21.000Z</time>
      </trkpt>
      <trkpt lat="43.63341" lon="7.05337">
        <ele>101.6782989502</ele>
        <time>2016-05-14T13:28:24.000Z</time>
      </trkpt>
      <trkpt lat="43.63339" lon="7.05336">
        <ele>101.7184677124</ele>
        <time>2016-05-14T13:28:26.000Z</time>
      </trkpt>
      <trkpt lat="43.63338" lon="7.05333">
        <ele>101.78283691406</ele>
        <time>2016-05-14T13:28:29.000Z</time>
      </trkpt>
      <trkpt lat="43.63337" lon="7.0533">
        <ele>101.85749816895</ele>
        <time>2016-05-14T13:28:31.000Z</time>
      </trkpt>
      <trkpt lat="43.63337" lon="7.05327">
        <ele>101.9449005127</ele>
        <time>2016-05-14T13:28:33.000Z</time>
      </trkpt>
      <trkpt lat="43.63337" lon="7.05324">
        <ele>102.04725646973</ele>
        <time>2016-05-14T13:28:36.000Z</time>
      </trkpt>
      <trkpt lat="43.63337" lon="7.05321">
        <ele>102.159034729</ele>
        <time>2016-05-14T13:28:39.000Z</time>
      </trkpt>
      <trkpt lat="43.63336" lon="7.05318">
        <ele>102.27066040039</ele>
        <time>2016-05-14T13:28:42.000Z</time>
      </trkpt>
      <trkpt lat="43.63335" lon="7.05312">
        <ele>102.40019226074</ele>
        <time>2016-05-14T13:28:45.000Z</time>
      </trkpt>
      <trkpt lat="43.63335" lon="7.0531">
        <ele>102.53039550781</ele>
        <time>2016-05-14T13:28:47.000Z</time>
      </trkpt>
      <trkpt lat="43.63335" lon="7.05304">
        <ele>102.67685699463</ele>
        <time>2016-05-14T13:28:50.000Z</time>
      </trkpt>
      <trkpt lat="43.63335" lon="7.05301">
        <ele>102.82832336426</ele>
        <time>2016-05-14T13:28:52.000Z</time>
      </trkpt>
      <trkpt lat="43.63335" lon="7.05298">
        <ele>102.9709854126</ele>
        <time>2016-05-14T13:28:54.000Z</time>
      </trkpt>
      <trkpt lat="43.63335" lon="7.05294">
        <ele>103.09710693359</ele>
        <time>2016-05-14T13:28:56.000Z</time>
      </trkpt>
      <trkpt lat="43.63335" lon="7.05289">
        <ele>103.23870849609</ele>
        <time>2016-05-14T13:28:59.000Z</time>
      </trkpt>
      <trkpt lat="43.63335" lon="7.05285">
        <ele>103.37349700928</ele>
        <time>2016-05-14T13:29:02.000Z</time>
      </trkpt>
      <trkpt lat="43.63335" lon="7.05279">
        <ele>103.52436828613</ele>
        <time>2016-05-14T13:29:05.000Z</time>
      </trkpt>
      <trkpt lat="43.63334" lon="7.05276">
        <ele>103.69653320312</ele>
        <time>2016-05-14T13:29:07.000Z</time>
      </trkpt>
      <trkpt lat="43.63332" lon="7.05272">
        <ele>103.89524078369</ele>
        <time>2016-05-14T13:29:10.000Z</time>
      </trkpt>
      <trkpt lat="43.6333" lon="7.05269">
        <ele>104.09294128418</ele>
        <time>2016-05-14T13:29:12.000Z</time>
      </trkpt>
      <trkpt lat="43.63329" lon="7.05266">
        <ele>104.30448150635</ele>
        <time>2016-05-14T13:29:14.000Z</time>
      </trkpt>
      <trkpt lat="43.6333" lon="7.05264">
        <ele>104.48006439209</ele>
        <time>2016-05-14T13:29:16.000Z</time>
      </trkpt>
      <trkpt lat="43.63332" lon="7.05258">
        <ele>104.6294708252</ele>
        <time>2016-05-14T13:29:19.000Z</time>
      </trkpt>
      <trkpt lat="43.63332" lon="7.05253">
        <ele>104.75854492188</ele>
        <time>2016-05-14T13:29:22.000Z</time>
      </trkpt>
      <trkpt lat="43.63332" lon="7.05249">
        <ele>104.88700866699</ele>
        <time>2016-05-14T13:29:25.000Z</time>
      </trkpt>
      <trkpt lat="43.63333" lon="7.05245">
        <ele>104.99876403809</ele>
        <time>2016-05-14T13:29:28.000Z</time>
      </trkpt>
      <trkpt lat="43.63333" lon="7.0524">
        <ele>105.14526367188</ele>
        <time>2016-05-14T13:29:31.000Z</time>
      </trkpt>
      <trkpt lat="43.63333" lon="7.05235">
        <ele>105.3274307251</ele>
        <time>2016-05-14T13:29:34.000Z</time>
      </trkpt>
      <trkpt lat="43.63333" lon="7.0523">
        <ele>105.52470397949</ele>
        <time>2016-05-14T13:29:37.000Z</time>
      </trkpt>
      <trkpt lat="43.63334" lon="7.05227">
        <ele>105.71813964844</ele>
        <time>2016-05-14T13:29:39.000Z</time>
      </trkpt>
      <trkpt lat="43.63335" lon="7.05222">
        <ele>105.91501617432</ele>
        <time>2016-05-14T13:29:42.000Z</time>
      </trkpt>
      <trkpt lat="43.63335" lon="7.05219">
        <ele>106.08986663818</ele>
        <time>2016-05-14T13:29:44.000Z</time>
      </trkpt>
      <trkpt lat="43.63335" lon="7.05215">
        <ele>106.24741363525</ele>
        <time>2016-05-14T13:29:47.000Z</time>
      </trkpt>
      <trkpt lat="43.63335" lon="7.05213">
        <ele>106.38415527344</ele>
        <time>2016-05-14T13:29:49.000Z</time>
      </trkpt>
      <trkpt lat="43.63335" lon="7.05208">
        <ele>106.52968597412</ele>
        <time>2016-05-14T13:29:52.000Z</time>
      </trkpt>
      <trkpt lat="43.63335" lon="7.05205">
        <ele>106.69061279297</ele>
        <time>2016-05-14T13:29:54.000Z</time>
      </trkpt>
      <trkpt lat="43.63334" lon="7.05201">
        <ele>106.87917327881</ele>
        <time>2016-05-14T13:29:57.000Z</time>
      </trkpt>
      <trkpt lat="43.63334" lon="7.05198">
        <ele>107.07194519043</ele>
        <time>2016-05-14T13:29:59.000Z</time>
      </trkpt>
      <trkpt lat="43.63333" lon="7.05196">
        <ele>107.26332855225</ele>
        <time>2016-05-14T13:30:03.000Z</time>
      </trkpt>
      <trkpt lat="43.63334" lon="7.05194">
        <ele>107.43420410156</ele>
        <time>2016-05-14T13:30:05.000Z</time>
      </trkpt>
      <trkpt lat="43.63334" lon="7.05191">
        <ele>107.57955169678</ele>
        <time>2016-05-14T13:30:08.000Z</time>
      </trkpt>
      <trkpt lat="43.63337" lon="7.05188">
        <ele>107.65618896484</ele>
        <time>2016-05-14T13:30:12.000Z</time>
      </trkpt>
      <trkpt lat="43.63338" lon="7.05187">
        <ele>107.69181060791</ele>
        <time>2016-05-14T13:30:14.000Z</time>
      </trkpt>
      <trkpt lat="43.63339" lon="7.05185">
        <ele>107.70375061035</ele>
        <time>2016-05-14T13:30:17.000Z</time>
      </trkpt>
      <trkpt lat="43.63339" lon="7.05185">
        <ele>107.70375061035</ele>
        <time>2016-05-14T13:30:27.000Z</time>
      </trkpt>
    </trkseg>
  </trk>
</gpx>